<?xml version="1.0" encoding="UTF-8" standalone="no" ?>
<gpx xmlns="http://www.topografix.com/GPX/1/1" xmlns:xsi="http://www.w3.org/2001/XMLSchema-instance" xsi:schemaLocation="http://www.topografix.com/GPX/1/1 http://www.topografix.com/GPX/1/1/gpx.xsd" version="1.1" creator="VisuGPX - https://www.visugpx.com">
  <metadata>
    <name>Pornichet 27/05/2021</name>
    <desc><![CDATA[Sortie VTT du jeudi 27 mai 2021]]></desc>
  </metadata>
  <trk>
    <name><![CDATA[Pornichet Cyclisme]]></name>
    <trkseg>
      <trkpt lat="47.2639" lon="-2.31518">
        <ele>10</ele>
        <time>2021-05-27T06:47:25.000Z</time>
      </trkpt>
      <trkpt lat="47.26391" lon="-2.31531">
        <ele>10</ele>
        <time>2021-05-27T06:47:28.000Z</time>
      </trkpt>
      <trkpt lat="47.26396" lon="-2.31542">
        <ele>9.7</ele>
        <time>2021-05-27T06:47:29.000Z</time>
      </trkpt>
      <trkpt lat="47.26399" lon="-2.31556">
        <ele>9.4</ele>
        <time>2021-05-27T06:47:31.000Z</time>
      </trkpt>
      <trkpt lat="47.26407" lon="-2.31603">
        <ele>9.6</ele>
        <time>2021-05-27T06:47:38.000Z</time>
      </trkpt>
      <trkpt lat="47.26406" lon="-2.31629">
        <ele>9.2</ele>
        <time>2021-05-27T06:47:43.000Z</time>
      </trkpt>
      <trkpt lat="47.26394" lon="-2.31634">
        <ele>9</ele>
        <time>2021-05-27T06:47:46.000Z</time>
      </trkpt>
      <trkpt lat="47.2639" lon="-2.31637">
        <ele>9</ele>
        <time>2021-05-27T06:47:47.000Z</time>
      </trkpt>
      <trkpt lat="47.26364" lon="-2.31655">
        <ele>8</ele>
        <time>2021-05-27T06:47:53.000Z</time>
      </trkpt>
      <trkpt lat="47.26341" lon="-2.31667">
        <ele>-0.40000000596046</ele>
        <time>2021-05-27T06:47:58.000Z</time>
      </trkpt>
      <trkpt lat="47.26336" lon="-2.3167">
        <ele>-0.80000001192093</ele>
        <time>2021-05-27T06:47:59.000Z</time>
      </trkpt>
      <trkpt lat="47.26331" lon="-2.31673">
        <ele>-1.2000000476837</ele>
        <time>2021-05-27T06:48:00.000Z</time>
      </trkpt>
      <trkpt lat="47.26326" lon="-2.31675">
        <ele>-1.6000000238419</ele>
        <time>2021-05-27T06:48:01.000Z</time>
      </trkpt>
      <trkpt lat="47.26321" lon="-2.31678">
        <ele>-2</ele>
        <time>2021-05-27T06:48:02.000Z</time>
      </trkpt>
      <trkpt lat="47.26312" lon="-2.31683">
        <ele>-2</ele>
        <time>2021-05-27T06:48:04.000Z</time>
      </trkpt>
      <trkpt lat="47.26307" lon="-2.31702">
        <ele>-2.4000000953674</ele>
        <time>2021-05-27T06:48:06.000Z</time>
      </trkpt>
      <trkpt lat="47.26308" lon="-2.31709">
        <ele>-2.7999999523163</ele>
        <time>2021-05-27T06:48:08.000Z</time>
      </trkpt>
      <trkpt lat="47.26309" lon="-2.31715">
        <ele>-3.2000000476837</ele>
        <time>2021-05-27T06:48:09.000Z</time>
      </trkpt>
      <trkpt lat="47.2631" lon="-2.3172">
        <ele>-3.5999999046326</ele>
        <time>2021-05-27T06:48:10.000Z</time>
      </trkpt>
      <trkpt lat="47.26311" lon="-2.31726">
        <ele>-4.1999998092651</ele>
        <time>2021-05-27T06:48:11.000Z</time>
      </trkpt>
      <trkpt lat="47.26311" lon="-2.31732">
        <ele>-4.1999998092651</ele>
        <time>2021-05-27T06:48:12.000Z</time>
      </trkpt>
      <trkpt lat="47.26313" lon="-2.3177">
        <ele>-4.1999998092651</ele>
        <time>2021-05-27T06:48:18.000Z</time>
      </trkpt>
      <trkpt lat="47.26311" lon="-2.31798">
        <ele>-4.1999998092651</ele>
        <time>2021-05-27T06:48:22.000Z</time>
      </trkpt>
      <trkpt lat="47.26312" lon="-2.31811">
        <ele>-4.1999998092651</ele>
        <time>2021-05-27T06:48:24.000Z</time>
      </trkpt>
      <trkpt lat="47.26311" lon="-2.31835">
        <ele>-4.1999998092651</ele>
        <time>2021-05-27T06:48:28.000Z</time>
      </trkpt>
      <trkpt lat="47.26302" lon="-2.31854">
        <ele>-4.1999998092651</ele>
        <time>2021-05-27T06:48:32.000Z</time>
      </trkpt>
      <trkpt lat="47.26296" lon="-2.31861">
        <ele>-4.1999998092651</ele>
        <time>2021-05-27T06:48:34.000Z</time>
      </trkpt>
      <trkpt lat="47.26282" lon="-2.31878">
        <ele>-4.1999998092651</ele>
        <time>2021-05-27T06:48:39.000Z</time>
      </trkpt>
      <trkpt lat="47.26266" lon="-2.31903">
        <ele>-4.1999998092651</ele>
        <time>2021-05-27T06:48:46.000Z</time>
      </trkpt>
      <trkpt lat="47.26258" lon="-2.31915">
        <ele>-4.1999998092651</ele>
        <time>2021-05-27T06:48:50.000Z</time>
      </trkpt>
      <trkpt lat="47.26255" lon="-2.31916">
        <ele>-4.1999998092651</ele>
        <time>2021-05-27T06:48:51.000Z</time>
      </trkpt>
      <trkpt lat="47.26245" lon="-2.31925">
        <ele>-4.1999998092651</ele>
        <time>2021-05-27T06:48:55.000Z</time>
      </trkpt>
      <trkpt lat="47.26225" lon="-2.31944">
        <ele>-4.1999998092651</ele>
        <time>2021-05-27T06:49:01.000Z</time>
      </trkpt>
      <trkpt lat="47.26217" lon="-2.3196">
        <ele>-4.1999998092651</ele>
        <time>2021-05-27T06:49:06.000Z</time>
      </trkpt>
      <trkpt lat="47.26215" lon="-2.31963">
        <ele>-4.5999999046326</ele>
        <time>2021-05-27T06:49:07.000Z</time>
      </trkpt>
      <trkpt lat="47.26213" lon="-2.31964">
        <ele>-5</ele>
        <time>2021-05-27T06:49:08.000Z</time>
      </trkpt>
      <trkpt lat="47.2621" lon="-2.31966">
        <ele>-5.4000000953674</ele>
        <time>2021-05-27T06:49:09.000Z</time>
      </trkpt>
      <trkpt lat="47.26207" lon="-2.31968">
        <ele>-5.8000001907349</ele>
        <time>2021-05-27T06:49:10.000Z</time>
      </trkpt>
      <trkpt lat="47.26206" lon="-2.31967">
        <ele>-6.1999998092651</ele>
        <time>2021-05-27T06:49:11.000Z</time>
      </trkpt>
      <trkpt lat="47.26203" lon="-2.31968">
        <ele>-6.1999998092651</ele>
        <time>2021-05-27T06:49:12.000Z</time>
      </trkpt>
      <trkpt lat="47.26196" lon="-2.3197">
        <ele>-6.1999998092651</ele>
        <time>2021-05-27T06:49:15.000Z</time>
      </trkpt>
      <trkpt lat="47.26183" lon="-2.31979">
        <ele>-6.1999998092651</ele>
        <time>2021-05-27T06:49:19.000Z</time>
      </trkpt>
      <trkpt lat="47.26174" lon="-2.32003">
        <ele>-6.1999998092651</ele>
        <time>2021-05-27T06:49:23.000Z</time>
      </trkpt>
      <trkpt lat="47.26164" lon="-2.32027">
        <ele>-6.1999998092651</ele>
        <time>2021-05-27T06:49:27.000Z</time>
      </trkpt>
      <trkpt lat="47.26156" lon="-2.32052">
        <ele>-6.1999998092651</ele>
        <time>2021-05-27T06:49:31.000Z</time>
      </trkpt>
      <trkpt lat="47.26151" lon="-2.32071">
        <ele>-6.1999998092651</ele>
        <time>2021-05-27T06:49:34.000Z</time>
      </trkpt>
      <trkpt lat="47.26138" lon="-2.32113">
        <ele>-6.1999998092651</ele>
        <time>2021-05-27T06:49:41.000Z</time>
      </trkpt>
      <trkpt lat="47.26128" lon="-2.32137">
        <ele>-6.1999998092651</ele>
        <time>2021-05-27T06:49:45.000Z</time>
      </trkpt>
      <trkpt lat="47.2612" lon="-2.32153">
        <ele>-6.1999998092651</ele>
        <time>2021-05-27T06:49:48.000Z</time>
      </trkpt>
      <trkpt lat="47.26098" lon="-2.32186">
        <ele>-6.1999998092651</ele>
        <time>2021-05-27T06:49:55.000Z</time>
      </trkpt>
      <trkpt lat="47.26071" lon="-2.32218">
        <ele>-6.1999998092651</ele>
        <time>2021-05-27T06:50:02.000Z</time>
      </trkpt>
      <trkpt lat="47.26048" lon="-2.32245">
        <ele>-6.1999998092651</ele>
        <time>2021-05-27T06:50:08.000Z</time>
      </trkpt>
      <trkpt lat="47.26041" lon="-2.32253">
        <ele>-6.1999998092651</ele>
        <time>2021-05-27T06:50:10.000Z</time>
      </trkpt>
      <trkpt lat="47.26026" lon="-2.32271">
        <ele>-6.1999998092651</ele>
        <time>2021-05-27T06:50:14.000Z</time>
      </trkpt>
      <trkpt lat="47.26016" lon="-2.32285">
        <ele>-6.1999998092651</ele>
        <time>2021-05-27T06:50:17.000Z</time>
      </trkpt>
      <trkpt lat="47.2599" lon="-2.32318">
        <ele>-6.1999998092651</ele>
        <time>2021-05-27T06:50:24.000Z</time>
      </trkpt>
      <trkpt lat="47.25968" lon="-2.32346">
        <ele>-6.1999998092651</ele>
        <time>2021-05-27T06:50:30.000Z</time>
      </trkpt>
      <trkpt lat="47.25962" lon="-2.32355">
        <ele>-6.1999998092651</ele>
        <time>2021-05-27T06:50:32.000Z</time>
      </trkpt>
      <trkpt lat="47.25935" lon="-2.32391">
        <ele>-6.1999998092651</ele>
        <time>2021-05-27T06:50:39.000Z</time>
      </trkpt>
      <trkpt lat="47.25918" lon="-2.32413">
        <ele>-6.1999998092651</ele>
        <time>2021-05-27T06:50:44.000Z</time>
      </trkpt>
      <trkpt lat="47.25917" lon="-2.32421">
        <ele>-6.1999998092651</ele>
        <time>2021-05-27T06:50:46.000Z</time>
      </trkpt>
      <trkpt lat="47.25918" lon="-2.32425">
        <ele>-6.1999998092651</ele>
        <time>2021-05-27T06:50:47.000Z</time>
      </trkpt>
      <trkpt lat="47.25926" lon="-2.32435">
        <ele>-6.1999998092651</ele>
        <time>2021-05-27T06:50:50.000Z</time>
      </trkpt>
      <trkpt lat="47.2593" lon="-2.32439">
        <ele>-6.1999998092651</ele>
        <time>2021-05-27T06:50:51.000Z</time>
      </trkpt>
      <trkpt lat="47.25936" lon="-2.32448">
        <ele>-6.1999998092651</ele>
        <time>2021-05-27T06:50:53.000Z</time>
      </trkpt>
      <trkpt lat="47.25942" lon="-2.32462">
        <ele>-6.1999998092651</ele>
        <time>2021-05-27T06:50:55.000Z</time>
      </trkpt>
      <trkpt lat="47.25946" lon="-2.32474">
        <ele>-6.1999998092651</ele>
        <time>2021-05-27T06:50:57.000Z</time>
      </trkpt>
      <trkpt lat="47.25957" lon="-2.32511">
        <ele>-6.1999998092651</ele>
        <time>2021-05-27T06:51:03.000Z</time>
      </trkpt>
      <trkpt lat="47.25972" lon="-2.32562">
        <ele>-6.1999998092651</ele>
        <time>2021-05-27T06:51:11.000Z</time>
      </trkpt>
      <trkpt lat="47.25976" lon="-2.32588">
        <ele>-6.1999998092651</ele>
        <time>2021-05-27T06:51:15.000Z</time>
      </trkpt>
      <trkpt lat="47.25975" lon="-2.32602">
        <ele>-6.1999998092651</ele>
        <time>2021-05-27T06:51:17.000Z</time>
      </trkpt>
      <trkpt lat="47.25978" lon="-2.32613">
        <ele>-6.1999998092651</ele>
        <time>2021-05-27T06:51:20.000Z</time>
      </trkpt>
      <trkpt lat="47.25981" lon="-2.32612">
        <ele>-6.1999998092651</ele>
        <time>2021-05-27T06:51:21.000Z</time>
      </trkpt>
      <trkpt lat="47.26001" lon="-2.32614">
        <ele>-6.1999998092651</ele>
        <time>2021-05-27T06:51:26.000Z</time>
      </trkpt>
      <trkpt lat="47.26009" lon="-2.32612">
        <ele>-5.8000001907349</ele>
        <time>2021-05-27T06:51:28.000Z</time>
      </trkpt>
      <trkpt lat="47.26014" lon="-2.32612">
        <ele>-5.4000000953674</ele>
        <time>2021-05-27T06:51:29.000Z</time>
      </trkpt>
      <trkpt lat="47.26018" lon="-2.32611">
        <ele>-5</ele>
        <time>2021-05-27T06:51:30.000Z</time>
      </trkpt>
      <trkpt lat="47.26022" lon="-2.3261">
        <ele>-4.5999999046326</ele>
        <time>2021-05-27T06:51:31.000Z</time>
      </trkpt>
      <trkpt lat="47.26026" lon="-2.3261">
        <ele>-4.1999998092651</ele>
        <time>2021-05-27T06:51:32.000Z</time>
      </trkpt>
      <trkpt lat="47.26034" lon="-2.3261">
        <ele>-4.1999998092651</ele>
        <time>2021-05-27T06:51:34.000Z</time>
      </trkpt>
      <trkpt lat="47.26071" lon="-2.32603">
        <ele>-4.1999998092651</ele>
        <time>2021-05-27T06:51:42.000Z</time>
      </trkpt>
      <trkpt lat="47.26107" lon="-2.32599">
        <ele>-4.1999998092651</ele>
        <time>2021-05-27T06:51:50.000Z</time>
      </trkpt>
      <trkpt lat="47.26132" lon="-2.32608">
        <ele>-3.7999999523163</ele>
        <time>2021-05-27T06:51:56.000Z</time>
      </trkpt>
      <trkpt lat="47.26135" lon="-2.32619">
        <ele>-3.4000000953674</ele>
        <time>2021-05-27T06:51:57.000Z</time>
      </trkpt>
      <trkpt lat="47.26138" lon="-2.32625">
        <ele>-3</ele>
        <time>2021-05-27T06:51:58.000Z</time>
      </trkpt>
      <trkpt lat="47.26142" lon="-2.3263">
        <ele>-2.5999999046326</ele>
        <time>2021-05-27T06:51:59.000Z</time>
      </trkpt>
      <trkpt lat="47.26146" lon="-2.32633">
        <ele>-2.2000000476837</ele>
        <time>2021-05-27T06:52:00.000Z</time>
      </trkpt>
      <trkpt lat="47.2615" lon="-2.32637">
        <ele>-2.2000000476837</ele>
        <time>2021-05-27T06:52:01.000Z</time>
      </trkpt>
      <trkpt lat="47.26158" lon="-2.32643">
        <ele>-2.2000000476837</ele>
        <time>2021-05-27T06:52:03.000Z</time>
      </trkpt>
      <trkpt lat="47.26186" lon="-2.32669">
        <ele>-2.2000000476837</ele>
        <time>2021-05-27T06:52:10.000Z</time>
      </trkpt>
      <trkpt lat="47.26212" lon="-2.32698">
        <ele>-2.2000000476837</ele>
        <time>2021-05-27T06:52:17.000Z</time>
      </trkpt>
      <trkpt lat="47.26239" lon="-2.32736">
        <ele>-2.2000000476837</ele>
        <time>2021-05-27T06:52:24.000Z</time>
      </trkpt>
      <trkpt lat="47.26272" lon="-2.32792">
        <ele>-2.2000000476837</ele>
        <time>2021-05-27T06:52:33.000Z</time>
      </trkpt>
      <trkpt lat="47.26278" lon="-2.32806">
        <ele>-2.5999999046326</ele>
        <time>2021-05-27T06:52:35.000Z</time>
      </trkpt>
      <trkpt lat="47.2628" lon="-2.32814">
        <ele>-3</ele>
        <time>2021-05-27T06:52:36.000Z</time>
      </trkpt>
      <trkpt lat="47.26282" lon="-2.32821">
        <ele>-3.4000000953674</ele>
        <time>2021-05-27T06:52:37.000Z</time>
      </trkpt>
      <trkpt lat="47.26284" lon="-2.32829">
        <ele>-3.7999999523163</ele>
        <time>2021-05-27T06:52:38.000Z</time>
      </trkpt>
      <trkpt lat="47.26285" lon="-2.32837">
        <ele>-4.1999998092651</ele>
        <time>2021-05-27T06:52:39.000Z</time>
      </trkpt>
      <trkpt lat="47.26287" lon="-2.32852">
        <ele>-4.1999998092651</ele>
        <time>2021-05-27T06:52:41.000Z</time>
      </trkpt>
      <trkpt lat="47.26293" lon="-2.32862">
        <ele>-4.1999998092651</ele>
        <time>2021-05-27T06:52:43.000Z</time>
      </trkpt>
      <trkpt lat="47.26309" lon="-2.32869">
        <ele>-4.1999998092651</ele>
        <time>2021-05-27T06:52:46.000Z</time>
      </trkpt>
      <trkpt lat="47.26314" lon="-2.32873">
        <ele>-4.1999998092651</ele>
        <time>2021-05-27T06:52:47.000Z</time>
      </trkpt>
      <trkpt lat="47.2632" lon="-2.32885">
        <ele>-4.1999998092651</ele>
        <time>2021-05-27T06:52:49.000Z</time>
      </trkpt>
      <trkpt lat="47.26325" lon="-2.329">
        <ele>-4.1999998092651</ele>
        <time>2021-05-27T06:52:51.000Z</time>
      </trkpt>
      <trkpt lat="47.26336" lon="-2.32935">
        <ele>-4.1999998092651</ele>
        <time>2021-05-27T06:52:56.000Z</time>
      </trkpt>
      <trkpt lat="47.26352" lon="-2.32974">
        <ele>-4.1999998092651</ele>
        <time>2021-05-27T06:53:02.000Z</time>
      </trkpt>
      <trkpt lat="47.2636" lon="-2.32982">
        <ele>-4.1999998092651</ele>
        <time>2021-05-27T06:53:04.000Z</time>
      </trkpt>
      <trkpt lat="47.26369" lon="-2.33008">
        <ele>-4.1999998092651</ele>
        <time>2021-05-27T06:53:08.000Z</time>
      </trkpt>
      <trkpt lat="47.2637" lon="-2.33023">
        <ele>-4.1999998092651</ele>
        <time>2021-05-27T06:53:10.000Z</time>
      </trkpt>
      <trkpt lat="47.26371" lon="-2.33061">
        <ele>-4.1999998092651</ele>
        <time>2021-05-27T06:53:15.000Z</time>
      </trkpt>
      <trkpt lat="47.26375" lon="-2.33136">
        <ele>-4.1999998092651</ele>
        <time>2021-05-27T06:53:25.000Z</time>
      </trkpt>
      <trkpt lat="47.26379" lon="-2.33209">
        <ele>-4.1999998092651</ele>
        <time>2021-05-27T06:53:35.000Z</time>
      </trkpt>
      <trkpt lat="47.26382" lon="-2.33244">
        <ele>-4.1999998092651</ele>
        <time>2021-05-27T06:53:40.000Z</time>
      </trkpt>
      <trkpt lat="47.26388" lon="-2.33261">
        <ele>-4.1999998092651</ele>
        <time>2021-05-27T06:53:43.000Z</time>
      </trkpt>
      <trkpt lat="47.26402" lon="-2.33266">
        <ele>-4.1999998092651</ele>
        <time>2021-05-27T06:53:46.000Z</time>
      </trkpt>
      <trkpt lat="47.26407" lon="-2.33266">
        <ele>-4.1999998092651</ele>
        <time>2021-05-27T06:53:47.000Z</time>
      </trkpt>
      <trkpt lat="47.26441" lon="-2.33269">
        <ele>-4.1999998092651</ele>
        <time>2021-05-27T06:53:54.000Z</time>
      </trkpt>
      <trkpt lat="47.26479" lon="-2.33276">
        <ele>-4.1999998092651</ele>
        <time>2021-05-27T06:54:02.000Z</time>
      </trkpt>
      <trkpt lat="47.26502" lon="-2.33281">
        <ele>-4.1999998092651</ele>
        <time>2021-05-27T06:54:08.000Z</time>
      </trkpt>
      <trkpt lat="47.2652" lon="-2.33289">
        <ele>-4.1999998092651</ele>
        <time>2021-05-27T06:54:12.000Z</time>
      </trkpt>
      <trkpt lat="47.26528" lon="-2.33287">
        <ele>-4.5999999046326</ele>
        <time>2021-05-27T06:54:14.000Z</time>
      </trkpt>
      <trkpt lat="47.2653" lon="-2.33288">
        <ele>-5.1999998092651</ele>
        <time>2021-05-27T06:54:15.000Z</time>
      </trkpt>
      <trkpt lat="47.26532" lon="-2.33289">
        <ele>-5.5999999046326</ele>
        <time>2021-05-27T06:54:16.000Z</time>
      </trkpt>
      <trkpt lat="47.26534" lon="-2.33292">
        <ele>-6</ele>
        <time>2021-05-27T06:54:17.000Z</time>
      </trkpt>
      <trkpt lat="47.26535" lon="-2.33295">
        <ele>-6.4000000953674</ele>
        <time>2021-05-27T06:54:18.000Z</time>
      </trkpt>
      <trkpt lat="47.2654" lon="-2.33297">
        <ele>-6.4000000953674</ele>
        <time>2021-05-27T06:54:20.000Z</time>
      </trkpt>
      <trkpt lat="47.26551" lon="-2.33286">
        <ele>-6.4000000953674</ele>
        <time>2021-05-27T06:54:24.000Z</time>
      </trkpt>
      <trkpt lat="47.26581" lon="-2.33253">
        <ele>-6.4000000953674</ele>
        <time>2021-05-27T06:54:32.000Z</time>
      </trkpt>
      <trkpt lat="47.26607" lon="-2.33228">
        <ele>-6.4000000953674</ele>
        <time>2021-05-27T06:54:39.000Z</time>
      </trkpt>
      <trkpt lat="47.26634" lon="-2.33201">
        <ele>-6.4000000953674</ele>
        <time>2021-05-27T06:54:46.000Z</time>
      </trkpt>
      <trkpt lat="47.26642" lon="-2.33192">
        <ele>-6.4000000953674</ele>
        <time>2021-05-27T06:54:48.000Z</time>
      </trkpt>
      <trkpt lat="47.26657" lon="-2.33177">
        <ele>-6.4000000953674</ele>
        <time>2021-05-27T06:54:52.000Z</time>
      </trkpt>
      <trkpt lat="47.26679" lon="-2.33153">
        <ele>-6.4000000953674</ele>
        <time>2021-05-27T06:54:58.000Z</time>
      </trkpt>
      <trkpt lat="47.26712" lon="-2.33118">
        <ele>-6.4000000953674</ele>
        <time>2021-05-27T06:55:07.000Z</time>
      </trkpt>
      <trkpt lat="47.26733" lon="-2.33096">
        <ele>-6.4000000953674</ele>
        <time>2021-05-27T06:55:13.000Z</time>
      </trkpt>
      <trkpt lat="47.26736" lon="-2.33093">
        <ele>-6.4000000953674</ele>
        <time>2021-05-27T06:55:14.000Z</time>
      </trkpt>
      <trkpt lat="47.26751" lon="-2.33089">
        <ele>-6.4000000953674</ele>
        <time>2021-05-27T06:55:19.000Z</time>
      </trkpt>
      <trkpt lat="47.26759" lon="-2.3311">
        <ele>-6.4000000953674</ele>
        <time>2021-05-27T06:55:22.000Z</time>
      </trkpt>
      <trkpt lat="47.26761" lon="-2.33139">
        <ele>-6.4000000953674</ele>
        <time>2021-05-27T06:55:26.000Z</time>
      </trkpt>
      <trkpt lat="47.26757" lon="-2.3316">
        <ele>-6.4000000953674</ele>
        <time>2021-05-27T06:55:29.000Z</time>
      </trkpt>
      <trkpt lat="47.26754" lon="-2.33175">
        <ele>-6.4000000953674</ele>
        <time>2021-05-27T06:55:31.000Z</time>
      </trkpt>
      <trkpt lat="47.26739" lon="-2.33228">
        <ele>-6.4000000953674</ele>
        <time>2021-05-27T06:55:39.000Z</time>
      </trkpt>
      <trkpt lat="47.26733" lon="-2.33255">
        <ele>-6.4000000953674</ele>
        <time>2021-05-27T06:55:43.000Z</time>
      </trkpt>
      <trkpt lat="47.26732" lon="-2.33271">
        <ele>-6.4000000953674</ele>
        <time>2021-05-27T06:55:45.000Z</time>
      </trkpt>
      <trkpt lat="47.26737" lon="-2.333">
        <ele>-6.4000000953674</ele>
        <time>2021-05-27T06:55:49.000Z</time>
      </trkpt>
      <trkpt lat="47.26739" lon="-2.33307">
        <ele>-6.4000000953674</ele>
        <time>2021-05-27T06:55:50.000Z</time>
      </trkpt>
      <trkpt lat="47.26748" lon="-2.33351">
        <ele>-6.4000000953674</ele>
        <time>2021-05-27T06:55:56.000Z</time>
      </trkpt>
      <trkpt lat="47.2675" lon="-2.33404">
        <ele>-6.4000000953674</ele>
        <time>2021-05-27T06:56:03.000Z</time>
      </trkpt>
      <trkpt lat="47.26751" lon="-2.33432">
        <ele>-6.4000000953674</ele>
        <time>2021-05-27T06:56:07.000Z</time>
      </trkpt>
      <trkpt lat="47.26754" lon="-2.33453">
        <ele>-6.4000000953674</ele>
        <time>2021-05-27T06:56:10.000Z</time>
      </trkpt>
      <trkpt lat="47.2676" lon="-2.33489">
        <ele>-6.4000000953674</ele>
        <time>2021-05-27T06:56:15.000Z</time>
      </trkpt>
      <trkpt lat="47.26762" lon="-2.33503">
        <ele>-6.4000000953674</ele>
        <time>2021-05-27T06:56:17.000Z</time>
      </trkpt>
      <trkpt lat="47.26769" lon="-2.33551">
        <ele>-6.4000000953674</ele>
        <time>2021-05-27T06:56:24.000Z</time>
      </trkpt>
      <trkpt lat="47.26771" lon="-2.33557">
        <ele>-6.4000000953674</ele>
        <time>2021-05-27T06:56:25.000Z</time>
      </trkpt>
      <trkpt lat="47.2678" lon="-2.33562">
        <ele>-6.4000000953674</ele>
        <time>2021-05-27T06:56:27.000Z</time>
      </trkpt>
      <trkpt lat="47.26796" lon="-2.33556">
        <ele>-6.4000000953674</ele>
        <time>2021-05-27T06:56:31.000Z</time>
      </trkpt>
      <trkpt lat="47.26804" lon="-2.33553">
        <ele>-6.4000000953674</ele>
        <time>2021-05-27T06:56:33.000Z</time>
      </trkpt>
      <trkpt lat="47.26822" lon="-2.33548">
        <ele>-6.4000000953674</ele>
        <time>2021-05-27T06:56:37.000Z</time>
      </trkpt>
      <trkpt lat="47.26827" lon="-2.33546">
        <ele>-6.4000000953674</ele>
        <time>2021-05-27T06:56:38.000Z</time>
      </trkpt>
      <trkpt lat="47.26839" lon="-2.33542">
        <ele>-6.4000000953674</ele>
        <time>2021-05-27T06:56:41.000Z</time>
      </trkpt>
      <trkpt lat="47.26869" lon="-2.33535">
        <ele>-6.4000000953674</ele>
        <time>2021-05-27T06:56:47.000Z</time>
      </trkpt>
      <trkpt lat="47.26882" lon="-2.33545">
        <ele>-6.4000000953674</ele>
        <time>2021-05-27T06:56:50.000Z</time>
      </trkpt>
      <trkpt lat="47.26891" lon="-2.3356">
        <ele>-6.4000000953674</ele>
        <time>2021-05-27T06:56:53.000Z</time>
      </trkpt>
      <trkpt lat="47.26896" lon="-2.33571">
        <ele>-6</ele>
        <time>2021-05-27T06:56:55.000Z</time>
      </trkpt>
      <trkpt lat="47.26899" lon="-2.33577">
        <ele>-5.5999999046326</ele>
        <time>2021-05-27T06:56:56.000Z</time>
      </trkpt>
      <trkpt lat="47.26901" lon="-2.33583">
        <ele>-5.1999998092651</ele>
        <time>2021-05-27T06:56:57.000Z</time>
      </trkpt>
      <trkpt lat="47.26904" lon="-2.33589">
        <ele>-4.8000001907349</ele>
        <time>2021-05-27T06:56:58.000Z</time>
      </trkpt>
      <trkpt lat="47.26906" lon="-2.33594">
        <ele>-4.4000000953674</ele>
        <time>2021-05-27T06:56:59.000Z</time>
      </trkpt>
      <trkpt lat="47.2691" lon="-2.33605">
        <ele>-4.4000000953674</ele>
        <time>2021-05-27T06:57:01.000Z</time>
      </trkpt>
      <trkpt lat="47.26923" lon="-2.33639">
        <ele>-4.4000000953674</ele>
        <time>2021-05-27T06:57:07.000Z</time>
      </trkpt>
      <trkpt lat="47.26926" lon="-2.3365">
        <ele>-4.4000000953674</ele>
        <time>2021-05-27T06:57:09.000Z</time>
      </trkpt>
      <trkpt lat="47.26937" lon="-2.33699">
        <ele>-4</ele>
        <time>2021-05-27T06:57:17.000Z</time>
      </trkpt>
      <trkpt lat="47.26938" lon="-2.33705">
        <ele>-3.5999999046326</ele>
        <time>2021-05-27T06:57:18.000Z</time>
      </trkpt>
      <trkpt lat="47.26939" lon="-2.33712">
        <ele>-3.2000000476837</ele>
        <time>2021-05-27T06:57:19.000Z</time>
      </trkpt>
      <trkpt lat="47.2694" lon="-2.33718">
        <ele>-2.7999999523163</ele>
        <time>2021-05-27T06:57:20.000Z</time>
      </trkpt>
      <trkpt lat="47.2694" lon="-2.33724">
        <ele>-2.4000000953674</ele>
        <time>2021-05-27T06:57:21.000Z</time>
      </trkpt>
      <trkpt lat="47.26938" lon="-2.33737">
        <ele>-2.4000000953674</ele>
        <time>2021-05-27T06:57:23.000Z</time>
      </trkpt>
      <trkpt lat="47.26936" lon="-2.3375">
        <ele>-2.4000000953674</ele>
        <time>2021-05-27T06:57:25.000Z</time>
      </trkpt>
      <trkpt lat="47.26932" lon="-2.33786">
        <ele>-2.4000000953674</ele>
        <time>2021-05-27T06:57:30.000Z</time>
      </trkpt>
      <trkpt lat="47.26933" lon="-2.33793">
        <ele>-2.4000000953674</ele>
        <time>2021-05-27T06:57:31.000Z</time>
      </trkpt>
      <trkpt lat="47.26944" lon="-2.33814">
        <ele>-2.4000000953674</ele>
        <time>2021-05-27T06:57:35.000Z</time>
      </trkpt>
      <trkpt lat="47.26951" lon="-2.3382">
        <ele>-2.4000000953674</ele>
        <time>2021-05-27T06:57:37.000Z</time>
      </trkpt>
      <trkpt lat="47.26968" lon="-2.33829">
        <ele>-2.4000000953674</ele>
        <time>2021-05-27T06:57:41.000Z</time>
      </trkpt>
      <trkpt lat="47.26972" lon="-2.33832">
        <ele>-2.4000000953674</ele>
        <time>2021-05-27T06:57:42.000Z</time>
      </trkpt>
      <trkpt lat="47.26989" lon="-2.33844">
        <ele>-1.7999999523163</ele>
        <time>2021-05-27T06:57:47.000Z</time>
      </trkpt>
      <trkpt lat="47.26993" lon="-2.33846">
        <ele>-1.3999999761581</ele>
        <time>2021-05-27T06:57:48.000Z</time>
      </trkpt>
      <trkpt lat="47.26996" lon="-2.33848">
        <ele>-1</ele>
        <time>2021-05-27T06:57:49.000Z</time>
      </trkpt>
      <trkpt lat="47.26999" lon="-2.3385">
        <ele>-0.60000002384186</ele>
        <time>2021-05-27T06:57:50.000Z</time>
      </trkpt>
      <trkpt lat="47.27003" lon="-2.33852">
        <ele>-0.20000000298023</ele>
        <time>2021-05-27T06:57:51.000Z</time>
      </trkpt>
      <trkpt lat="47.27015" lon="-2.33863">
        <ele>-0.20000000298023</ele>
        <time>2021-05-27T06:57:55.000Z</time>
      </trkpt>
      <trkpt lat="47.27021" lon="-2.33868">
        <ele>0.20000000298023</ele>
        <time>2021-05-27T06:57:57.000Z</time>
      </trkpt>
      <trkpt lat="47.27024" lon="-2.3387">
        <ele>0.60000002384186</ele>
        <time>2021-05-27T06:57:58.000Z</time>
      </trkpt>
      <trkpt lat="47.27027" lon="-2.33873">
        <ele>1</ele>
        <time>2021-05-27T06:57:59.000Z</time>
      </trkpt>
      <trkpt lat="47.2703" lon="-2.33875">
        <ele>1.3999999761581</ele>
        <time>2021-05-27T06:58:00.000Z</time>
      </trkpt>
      <trkpt lat="47.27034" lon="-2.33879">
        <ele>2</ele>
        <time>2021-05-27T06:58:01.000Z</time>
      </trkpt>
      <trkpt lat="47.27053" lon="-2.33896">
        <ele>2</ele>
        <time>2021-05-27T06:58:06.000Z</time>
      </trkpt>
      <trkpt lat="47.27076" lon="-2.33917">
        <ele>2.4000000953674</ele>
        <time>2021-05-27T06:58:13.000Z</time>
      </trkpt>
      <trkpt lat="47.27079" lon="-2.3392">
        <ele>2.7999999523163</ele>
        <time>2021-05-27T06:58:14.000Z</time>
      </trkpt>
      <trkpt lat="47.27081" lon="-2.33923">
        <ele>3.4000000953674</ele>
        <time>2021-05-27T06:58:15.000Z</time>
      </trkpt>
      <trkpt lat="47.27084" lon="-2.33926">
        <ele>3.7999999523163</ele>
        <time>2021-05-27T06:58:16.000Z</time>
      </trkpt>
      <trkpt lat="47.27086" lon="-2.33929">
        <ele>4.1999998092651</ele>
        <time>2021-05-27T06:58:17.000Z</time>
      </trkpt>
      <trkpt lat="47.27096" lon="-2.33939">
        <ele>4.5999999046326</ele>
        <time>2021-05-27T06:58:21.000Z</time>
      </trkpt>
      <trkpt lat="47.27099" lon="-2.33942">
        <ele>5</ele>
        <time>2021-05-27T06:58:22.000Z</time>
      </trkpt>
      <trkpt lat="47.27102" lon="-2.33944">
        <ele>5.4000000953674</ele>
        <time>2021-05-27T06:58:23.000Z</time>
      </trkpt>
      <trkpt lat="47.27105" lon="-2.33946">
        <ele>5.8000001907349</ele>
        <time>2021-05-27T06:58:24.000Z</time>
      </trkpt>
      <trkpt lat="47.27108" lon="-2.33948">
        <ele>6.1999998092651</ele>
        <time>2021-05-27T06:58:25.000Z</time>
      </trkpt>
      <trkpt lat="47.27117" lon="-2.33957">
        <ele>6.1999998092651</ele>
        <time>2021-05-27T06:58:28.000Z</time>
      </trkpt>
      <trkpt lat="47.27129" lon="-2.33969">
        <ele>6.5999999046326</ele>
        <time>2021-05-27T06:58:32.000Z</time>
      </trkpt>
      <trkpt lat="47.27132" lon="-2.33972">
        <ele>7</ele>
        <time>2021-05-27T06:58:33.000Z</time>
      </trkpt>
      <trkpt lat="47.27136" lon="-2.33976">
        <ele>7.4000000953674</ele>
        <time>2021-05-27T06:58:34.000Z</time>
      </trkpt>
      <trkpt lat="47.27139" lon="-2.33979">
        <ele>7.8000001907349</ele>
        <time>2021-05-27T06:58:35.000Z</time>
      </trkpt>
      <trkpt lat="47.27142" lon="-2.33982">
        <ele>8.3999996185303</ele>
        <time>2021-05-27T06:58:36.000Z</time>
      </trkpt>
      <trkpt lat="47.2716" lon="-2.33999">
        <ele>8.3999996185303</ele>
        <time>2021-05-27T06:58:41.000Z</time>
      </trkpt>
      <trkpt lat="47.27189" lon="-2.34027">
        <ele>8.3999996185303</ele>
        <time>2021-05-27T06:58:49.000Z</time>
      </trkpt>
      <trkpt lat="47.27215" lon="-2.34049">
        <ele>8.3999996185303</ele>
        <time>2021-05-27T06:58:56.000Z</time>
      </trkpt>
      <trkpt lat="47.27219" lon="-2.34051">
        <ele>8.8000001907349</ele>
        <time>2021-05-27T06:58:57.000Z</time>
      </trkpt>
      <trkpt lat="47.27224" lon="-2.34052">
        <ele>9.1999998092651</ele>
        <time>2021-05-27T06:58:58.000Z</time>
      </trkpt>
      <trkpt lat="47.27228" lon="-2.34052">
        <ele>9.6000003814697</ele>
        <time>2021-05-27T06:58:59.000Z</time>
      </trkpt>
      <trkpt lat="47.27232" lon="-2.34052">
        <ele>10</ele>
        <time>2021-05-27T06:59:00.000Z</time>
      </trkpt>
      <trkpt lat="47.27237" lon="-2.34052">
        <ele>10.39999961853</ele>
        <time>2021-05-27T06:59:01.000Z</time>
      </trkpt>
      <trkpt lat="47.27257" lon="-2.34053">
        <ele>10.39999961853</ele>
        <time>2021-05-27T06:59:06.000Z</time>
      </trkpt>
      <trkpt lat="47.27274" lon="-2.3407">
        <ele>10.39999961853</ele>
        <time>2021-05-27T06:59:11.000Z</time>
      </trkpt>
      <trkpt lat="47.2728" lon="-2.34089">
        <ele>10.39999961853</ele>
        <time>2021-05-27T06:59:14.000Z</time>
      </trkpt>
      <trkpt lat="47.27281" lon="-2.34095">
        <ele>10.39999961853</ele>
        <time>2021-05-27T06:59:15.000Z</time>
      </trkpt>
      <trkpt lat="47.27285" lon="-2.34106">
        <ele>10.39999961853</ele>
        <time>2021-05-27T06:59:17.000Z</time>
      </trkpt>
      <trkpt lat="47.27294" lon="-2.34123">
        <ele>10.39999961853</ele>
        <time>2021-05-27T06:59:20.000Z</time>
      </trkpt>
      <trkpt lat="47.27303" lon="-2.34131">
        <ele>10.39999961853</ele>
        <time>2021-05-27T06:59:22.000Z</time>
      </trkpt>
      <trkpt lat="47.27317" lon="-2.34142">
        <ele>10.39999961853</ele>
        <time>2021-05-27T06:59:25.000Z</time>
      </trkpt>
      <trkpt lat="47.27331" lon="-2.34151">
        <ele>10.39999961853</ele>
        <time>2021-05-27T06:59:28.000Z</time>
      </trkpt>
      <trkpt lat="47.27345" lon="-2.3416">
        <ele>10.39999961853</ele>
        <time>2021-05-27T06:59:31.000Z</time>
      </trkpt>
      <trkpt lat="47.2735" lon="-2.34164">
        <ele>10.39999961853</ele>
        <time>2021-05-27T06:59:32.000Z</time>
      </trkpt>
      <trkpt lat="47.27379" lon="-2.34182">
        <ele>10.39999961853</ele>
        <time>2021-05-27T06:59:38.000Z</time>
      </trkpt>
      <trkpt lat="47.27394" lon="-2.34199">
        <ele>10.39999961853</ele>
        <time>2021-05-27T06:59:42.000Z</time>
      </trkpt>
      <trkpt lat="47.27396" lon="-2.34204">
        <ele>10.39999961853</ele>
        <time>2021-05-27T06:59:43.000Z</time>
      </trkpt>
      <trkpt lat="47.27401" lon="-2.34215">
        <ele>10.39999961853</ele>
        <time>2021-05-27T06:59:45.000Z</time>
      </trkpt>
      <trkpt lat="47.27407" lon="-2.34235">
        <ele>10.39999961853</ele>
        <time>2021-05-27T06:59:49.000Z</time>
      </trkpt>
      <trkpt lat="47.27408" lon="-2.34237">
        <ele>10.39999961853</ele>
        <time>2021-05-27T06:59:50.000Z</time>
      </trkpt>
      <trkpt lat="47.27411" lon="-2.34237">
        <ele>10.39999961853</ele>
        <time>2021-05-27T06:59:52.000Z</time>
      </trkpt>
      <trkpt lat="47.27414" lon="-2.34236">
        <ele>9.8000001907349</ele>
        <time>2021-05-27T06:59:54.000Z</time>
      </trkpt>
      <trkpt lat="47.27415" lon="-2.34236">
        <ele>9.3999996185303</ele>
        <time>2021-05-27T06:59:55.000Z</time>
      </trkpt>
      <trkpt lat="47.27417" lon="-2.34237">
        <ele>9</ele>
        <time>2021-05-27T06:59:56.000Z</time>
      </trkpt>
      <trkpt lat="47.27418" lon="-2.3424">
        <ele>8.6000003814697</ele>
        <time>2021-05-27T06:59:57.000Z</time>
      </trkpt>
      <trkpt lat="47.27418" lon="-2.34244">
        <ele>8.1999998092651</ele>
        <time>2021-05-27T06:59:58.000Z</time>
      </trkpt>
      <trkpt lat="47.27418" lon="-2.34256">
        <ele>8.1999998092651</ele>
        <time>2021-05-27T07:00:00.000Z</time>
      </trkpt>
      <trkpt lat="47.27418" lon="-2.34263">
        <ele>8.1999998092651</ele>
        <time>2021-05-27T07:00:01.000Z</time>
      </trkpt>
      <trkpt lat="47.27418" lon="-2.3429">
        <ele>8.1999998092651</ele>
        <time>2021-05-27T07:00:05.000Z</time>
      </trkpt>
      <trkpt lat="47.27418" lon="-2.34312">
        <ele>8.1999998092651</ele>
        <time>2021-05-27T07:00:08.000Z</time>
      </trkpt>
      <trkpt lat="47.27417" lon="-2.34371">
        <ele>8.1999998092651</ele>
        <time>2021-05-27T07:00:16.000Z</time>
      </trkpt>
      <trkpt lat="47.27418" lon="-2.344">
        <ele>8.8000001907349</ele>
        <time>2021-05-27T07:00:20.000Z</time>
      </trkpt>
      <trkpt lat="47.27419" lon="-2.34408">
        <ele>9.1999998092651</ele>
        <time>2021-05-27T07:00:21.000Z</time>
      </trkpt>
      <trkpt lat="47.2742" lon="-2.34416">
        <ele>9.6000003814697</ele>
        <time>2021-05-27T07:00:22.000Z</time>
      </trkpt>
      <trkpt lat="47.27421" lon="-2.34423">
        <ele>10</ele>
        <time>2021-05-27T07:00:23.000Z</time>
      </trkpt>
      <trkpt lat="47.27422" lon="-2.3443">
        <ele>10.39999961853</ele>
        <time>2021-05-27T07:00:24.000Z</time>
      </trkpt>
      <trkpt lat="47.27423" lon="-2.34469">
        <ele>10.39999961853</ele>
        <time>2021-05-27T07:00:29.000Z</time>
      </trkpt>
      <trkpt lat="47.27425" lon="-2.34491">
        <ele>10.39999961853</ele>
        <time>2021-05-27T07:00:32.000Z</time>
      </trkpt>
      <trkpt lat="47.2743" lon="-2.34512">
        <ele>10.39999961853</ele>
        <time>2021-05-27T07:00:35.000Z</time>
      </trkpt>
      <trkpt lat="47.27436" lon="-2.34533">
        <ele>10.39999961853</ele>
        <time>2021-05-27T07:00:38.000Z</time>
      </trkpt>
      <trkpt lat="47.27443" lon="-2.34562">
        <ele>10.39999961853</ele>
        <time>2021-05-27T07:00:42.000Z</time>
      </trkpt>
      <trkpt lat="47.27446" lon="-2.34577">
        <ele>10.800000190735</ele>
        <time>2021-05-27T07:00:44.000Z</time>
      </trkpt>
      <trkpt lat="47.27448" lon="-2.34585">
        <ele>11.199999809265</ele>
        <time>2021-05-27T07:00:45.000Z</time>
      </trkpt>
      <trkpt lat="47.27449" lon="-2.34592">
        <ele>11.60000038147</ele>
        <time>2021-05-27T07:00:46.000Z</time>
      </trkpt>
      <trkpt lat="47.2745" lon="-2.346">
        <ele>12</ele>
        <time>2021-05-27T07:00:47.000Z</time>
      </trkpt>
      <trkpt lat="47.27451" lon="-2.34608">
        <ele>12.39999961853</ele>
        <time>2021-05-27T07:00:48.000Z</time>
      </trkpt>
      <trkpt lat="47.27453" lon="-2.34624">
        <ele>12.39999961853</ele>
        <time>2021-05-27T07:00:50.000Z</time>
      </trkpt>
      <trkpt lat="47.2746" lon="-2.34691">
        <ele>12.39999961853</ele>
        <time>2021-05-27T07:00:58.000Z</time>
      </trkpt>
      <trkpt lat="47.2746" lon="-2.34706">
        <ele>12.39999961853</ele>
        <time>2021-05-27T07:01:00.000Z</time>
      </trkpt>
      <trkpt lat="47.2746" lon="-2.34713">
        <ele>12</ele>
        <time>2021-05-27T07:01:01.000Z</time>
      </trkpt>
      <trkpt lat="47.2746" lon="-2.3472">
        <ele>11.60000038147</ele>
        <time>2021-05-27T07:01:02.000Z</time>
      </trkpt>
      <trkpt lat="47.2746" lon="-2.34728">
        <ele>11.199999809265</ele>
        <time>2021-05-27T07:01:03.000Z</time>
      </trkpt>
      <trkpt lat="47.2746" lon="-2.34737">
        <ele>10.800000190735</ele>
        <time>2021-05-27T07:01:04.000Z</time>
      </trkpt>
      <trkpt lat="47.2746" lon="-2.34745">
        <ele>10.39999961853</ele>
        <time>2021-05-27T07:01:05.000Z</time>
      </trkpt>
      <trkpt lat="47.2746" lon="-2.34764">
        <ele>10.39999961853</ele>
        <time>2021-05-27T07:01:07.000Z</time>
      </trkpt>
      <trkpt lat="47.27464" lon="-2.34843">
        <ele>10.39999961853</ele>
        <time>2021-05-27T07:01:15.000Z</time>
      </trkpt>
      <trkpt lat="47.27463" lon="-2.34872">
        <ele>9.8000001907349</ele>
        <time>2021-05-27T07:01:18.000Z</time>
      </trkpt>
      <trkpt lat="47.27463" lon="-2.34881">
        <ele>9.3999996185303</ele>
        <time>2021-05-27T07:01:19.000Z</time>
      </trkpt>
      <trkpt lat="47.27463" lon="-2.34891">
        <ele>8.6000003814697</ele>
        <time>2021-05-27T07:01:20.000Z</time>
      </trkpt>
      <trkpt lat="47.27463" lon="-2.349">
        <ele>8.1999998092651</ele>
        <time>2021-05-27T07:01:21.000Z</time>
      </trkpt>
      <trkpt lat="47.27464" lon="-2.34908">
        <ele>8.1999998092651</ele>
        <time>2021-05-27T07:01:22.000Z</time>
      </trkpt>
      <trkpt lat="47.27475" lon="-2.34924">
        <ele>8.1999998092651</ele>
        <time>2021-05-27T07:01:26.000Z</time>
      </trkpt>
      <trkpt lat="47.27488" lon="-2.3492">
        <ele>8.1999998092651</ele>
        <time>2021-05-27T07:01:28.000Z</time>
      </trkpt>
      <trkpt lat="47.27494" lon="-2.34918">
        <ele>8.1999998092651</ele>
        <time>2021-05-27T07:01:29.000Z</time>
      </trkpt>
      <trkpt lat="47.27505" lon="-2.34912">
        <ele>8.1999998092651</ele>
        <time>2021-05-27T07:01:31.000Z</time>
      </trkpt>
      <trkpt lat="47.27515" lon="-2.34905">
        <ele>8.1999998092651</ele>
        <time>2021-05-27T07:01:33.000Z</time>
      </trkpt>
      <trkpt lat="47.2752" lon="-2.34903">
        <ele>8.1999998092651</ele>
        <time>2021-05-27T07:01:34.000Z</time>
      </trkpt>
      <trkpt lat="47.27542" lon="-2.34904">
        <ele>8.1999998092651</ele>
        <time>2021-05-27T07:01:38.000Z</time>
      </trkpt>
      <trkpt lat="47.27591" lon="-2.34912">
        <ele>8.1999998092651</ele>
        <time>2021-05-27T07:01:46.000Z</time>
      </trkpt>
      <trkpt lat="47.27637" lon="-2.34915">
        <ele>8.1999998092651</ele>
        <time>2021-05-27T07:01:54.000Z</time>
      </trkpt>
      <trkpt lat="47.27659" lon="-2.34911">
        <ele>8.1999998092651</ele>
        <time>2021-05-27T07:01:58.000Z</time>
      </trkpt>
      <trkpt lat="47.27671" lon="-2.34914">
        <ele>8.1999998092651</ele>
        <time>2021-05-27T07:02:00.000Z</time>
      </trkpt>
      <trkpt lat="47.27682" lon="-2.34935">
        <ele>8.1999998092651</ele>
        <time>2021-05-27T07:02:03.000Z</time>
      </trkpt>
      <trkpt lat="47.27687" lon="-2.34951">
        <ele>8.1999998092651</ele>
        <time>2021-05-27T07:02:05.000Z</time>
      </trkpt>
      <trkpt lat="47.27688" lon="-2.3496">
        <ele>8.1999998092651</ele>
        <time>2021-05-27T07:02:06.000Z</time>
      </trkpt>
      <trkpt lat="47.27689" lon="-2.34978">
        <ele>8.1999998092651</ele>
        <time>2021-05-27T07:02:08.000Z</time>
      </trkpt>
      <trkpt lat="47.27693" lon="-2.35031">
        <ele>8.1999998092651</ele>
        <time>2021-05-27T07:02:14.000Z</time>
      </trkpt>
      <trkpt lat="47.27702" lon="-2.35039">
        <ele>7.8000001907349</ele>
        <time>2021-05-27T07:02:16.000Z</time>
      </trkpt>
      <trkpt lat="47.27707" lon="-2.35038">
        <ele>7.4000000953674</ele>
        <time>2021-05-27T07:02:17.000Z</time>
      </trkpt>
      <trkpt lat="47.27713" lon="-2.35036">
        <ele>7</ele>
        <time>2021-05-27T07:02:18.000Z</time>
      </trkpt>
      <trkpt lat="47.27718" lon="-2.35034">
        <ele>6.5999999046326</ele>
        <time>2021-05-27T07:02:19.000Z</time>
      </trkpt>
      <trkpt lat="47.27724" lon="-2.35033">
        <ele>6</ele>
        <time>2021-05-27T07:02:20.000Z</time>
      </trkpt>
      <trkpt lat="47.2776" lon="-2.35027">
        <ele>5.5999999046326</ele>
        <time>2021-05-27T07:02:26.000Z</time>
      </trkpt>
      <trkpt lat="47.27763" lon="-2.35029">
        <ele>5.1999998092651</ele>
        <time>2021-05-27T07:02:27.000Z</time>
      </trkpt>
      <trkpt lat="47.27767" lon="-2.35033">
        <ele>4.8000001907349</ele>
        <time>2021-05-27T07:02:28.000Z</time>
      </trkpt>
      <trkpt lat="47.27768" lon="-2.35038">
        <ele>4.4000000953674</ele>
        <time>2021-05-27T07:02:29.000Z</time>
      </trkpt>
      <trkpt lat="47.2777" lon="-2.35045">
        <ele>4</ele>
        <time>2021-05-27T07:02:30.000Z</time>
      </trkpt>
      <trkpt lat="47.27771" lon="-2.35052">
        <ele>4</ele>
        <time>2021-05-27T07:02:31.000Z</time>
      </trkpt>
      <trkpt lat="47.27772" lon="-2.35068">
        <ele>4</ele>
        <time>2021-05-27T07:02:33.000Z</time>
      </trkpt>
      <trkpt lat="47.27773" lon="-2.35095">
        <ele>3.5999999046326</ele>
        <time>2021-05-27T07:02:36.000Z</time>
      </trkpt>
      <trkpt lat="47.27774" lon="-2.35104">
        <ele>3.2000000476837</ele>
        <time>2021-05-27T07:02:37.000Z</time>
      </trkpt>
      <trkpt lat="47.27774" lon="-2.35114">
        <ele>2.7999999523163</ele>
        <time>2021-05-27T07:02:38.000Z</time>
      </trkpt>
      <trkpt lat="47.27775" lon="-2.35123">
        <ele>2.4000000953674</ele>
        <time>2021-05-27T07:02:39.000Z</time>
      </trkpt>
      <trkpt lat="47.27776" lon="-2.35133">
        <ele>2</ele>
        <time>2021-05-27T07:02:40.000Z</time>
      </trkpt>
      <trkpt lat="47.27778" lon="-2.35179">
        <ele>2</ele>
        <time>2021-05-27T07:02:45.000Z</time>
      </trkpt>
      <trkpt lat="47.27782" lon="-2.35244">
        <ele>2</ele>
        <time>2021-05-27T07:02:52.000Z</time>
      </trkpt>
      <trkpt lat="47.27792" lon="-2.35296">
        <ele>2</ele>
        <time>2021-05-27T07:02:58.000Z</time>
      </trkpt>
      <trkpt lat="47.27797" lon="-2.35323">
        <ele>1.6000000238419</ele>
        <time>2021-05-27T07:03:01.000Z</time>
      </trkpt>
      <trkpt lat="47.27799" lon="-2.35332">
        <ele>1.2000000476837</ele>
        <time>2021-05-27T07:03:02.000Z</time>
      </trkpt>
      <trkpt lat="47.27801" lon="-2.3534">
        <ele>0.80000001192093</ele>
        <time>2021-05-27T07:03:03.000Z</time>
      </trkpt>
      <trkpt lat="47.27803" lon="-2.35348">
        <ele>0.40000000596046</ele>
        <time>2021-05-27T07:03:04.000Z</time>
      </trkpt>
      <trkpt lat="47.27807" lon="-2.35355">
        <ele>15.3</ele>
        <time>2021-05-27T07:03:05.000Z</time>
      </trkpt>
      <trkpt lat="47.27821" lon="-2.35362">
        <ele>15.6</ele>
        <time>2021-05-27T07:03:08.000Z</time>
      </trkpt>
      <trkpt lat="47.27832" lon="-2.3536">
        <ele>16</ele>
        <time>2021-05-27T07:03:10.000Z</time>
      </trkpt>
      <trkpt lat="47.27852" lon="-2.35359">
        <ele>16.7</ele>
        <time>2021-05-27T07:03:14.000Z</time>
      </trkpt>
      <trkpt lat="47.27867" lon="-2.35361">
        <ele>17.2</ele>
        <time>2021-05-27T07:03:17.000Z</time>
      </trkpt>
      <trkpt lat="47.27876" lon="-2.35367">
        <ele>17.5</ele>
        <time>2021-05-27T07:03:19.000Z</time>
      </trkpt>
      <trkpt lat="47.27889" lon="-2.35381">
        <ele>18</ele>
        <time>2021-05-27T07:03:22.000Z</time>
      </trkpt>
      <trkpt lat="47.27897" lon="-2.35392">
        <ele>0.80000001192093</ele>
        <time>2021-05-27T07:03:24.000Z</time>
      </trkpt>
      <trkpt lat="47.27901" lon="-2.35397">
        <ele>1.2000000476837</ele>
        <time>2021-05-27T07:03:25.000Z</time>
      </trkpt>
      <trkpt lat="47.27905" lon="-2.35403">
        <ele>1.7999999523163</ele>
        <time>2021-05-27T07:03:26.000Z</time>
      </trkpt>
      <trkpt lat="47.27909" lon="-2.35409">
        <ele>2.2000000476837</ele>
        <time>2021-05-27T07:03:27.000Z</time>
      </trkpt>
      <trkpt lat="47.27926" lon="-2.35433">
        <ele>2.2000000476837</ele>
        <time>2021-05-27T07:03:31.000Z</time>
      </trkpt>
      <trkpt lat="47.27944" lon="-2.35452">
        <ele>2.2000000476837</ele>
        <time>2021-05-27T07:03:35.000Z</time>
      </trkpt>
      <trkpt lat="47.27954" lon="-2.35458">
        <ele>2.2000000476837</ele>
        <time>2021-05-27T07:03:37.000Z</time>
      </trkpt>
      <trkpt lat="47.27968" lon="-2.35469">
        <ele>2.2000000476837</ele>
        <time>2021-05-27T07:03:40.000Z</time>
      </trkpt>
      <trkpt lat="47.27977" lon="-2.35478">
        <ele>2.2000000476837</ele>
        <time>2021-05-27T07:03:42.000Z</time>
      </trkpt>
      <trkpt lat="47.27984" lon="-2.35491">
        <ele>2.2000000476837</ele>
        <time>2021-05-27T07:03:44.000Z</time>
      </trkpt>
      <trkpt lat="47.27993" lon="-2.35511">
        <ele>2.2000000476837</ele>
        <time>2021-05-27T07:03:47.000Z</time>
      </trkpt>
      <trkpt lat="47.27998" lon="-2.35522">
        <ele>2.2000000476837</ele>
        <time>2021-05-27T07:03:49.000Z</time>
      </trkpt>
      <trkpt lat="47.28003" lon="-2.35538">
        <ele>2.2000000476837</ele>
        <time>2021-05-27T07:03:52.000Z</time>
      </trkpt>
      <trkpt lat="47.28006" lon="-2.3555">
        <ele>2.2000000476837</ele>
        <time>2021-05-27T07:03:55.000Z</time>
      </trkpt>
      <trkpt lat="47.28008" lon="-2.35551">
        <ele>2.2000000476837</ele>
        <time>2021-05-27T07:03:56.000Z</time>
      </trkpt>
      <trkpt lat="47.28024" lon="-2.35548">
        <ele>2.2000000476837</ele>
        <time>2021-05-27T07:04:01.000Z</time>
      </trkpt>
      <trkpt lat="47.28046" lon="-2.35548">
        <ele>2.2000000476837</ele>
        <time>2021-05-27T07:04:07.000Z</time>
      </trkpt>
      <trkpt lat="47.28055" lon="-2.35555">
        <ele>2.2000000476837</ele>
        <time>2021-05-27T07:04:11.000Z</time>
      </trkpt>
      <trkpt lat="47.28057" lon="-2.3556">
        <ele>2.2000000476837</ele>
        <time>2021-05-27T07:04:13.000Z</time>
      </trkpt>
      <trkpt lat="47.28055" lon="-2.35567">
        <ele>2.2000000476837</ele>
        <time>2021-05-27T07:04:15.000Z</time>
      </trkpt>
      <trkpt lat="47.28058" lon="-2.35581">
        <ele>2.2000000476837</ele>
        <time>2021-05-27T07:04:19.000Z</time>
      </trkpt>
      <trkpt lat="47.28061" lon="-2.35582">
        <ele>2.5999999046326</ele>
        <time>2021-05-27T07:04:20.000Z</time>
      </trkpt>
      <trkpt lat="47.28065" lon="-2.35584">
        <ele>3</ele>
        <time>2021-05-27T07:04:21.000Z</time>
      </trkpt>
      <trkpt lat="47.28067" lon="-2.35585">
        <ele>3.4000000953674</ele>
        <time>2021-05-27T07:04:22.000Z</time>
      </trkpt>
      <trkpt lat="47.28069" lon="-2.35588">
        <ele>3.7999999523163</ele>
        <time>2021-05-27T07:04:23.000Z</time>
      </trkpt>
      <trkpt lat="47.28071" lon="-2.35592">
        <ele>4.1999998092651</ele>
        <time>2021-05-27T07:04:24.000Z</time>
      </trkpt>
      <trkpt lat="47.28083" lon="-2.35611">
        <ele>4.1999998092651</ele>
        <time>2021-05-27T07:04:30.000Z</time>
      </trkpt>
      <trkpt lat="47.28088" lon="-2.35622">
        <ele>4.1999998092651</ele>
        <time>2021-05-27T07:04:35.000Z</time>
      </trkpt>
      <trkpt lat="47.28088" lon="-2.35622">
        <ele>4.1999998092651</ele>
        <time>2021-05-27T07:04:36.000Z</time>
      </trkpt>
      <trkpt lat="47.28084" lon="-2.35615">
        <ele>4.1999998092651</ele>
        <time>2021-05-27T07:08:02.000Z</time>
      </trkpt>
      <trkpt lat="47.28081" lon="-2.35611">
        <ele>4.1999998092651</ele>
        <time>2021-05-27T07:08:04.000Z</time>
      </trkpt>
      <trkpt lat="47.28077" lon="-2.35607">
        <ele>4.1999998092651</ele>
        <time>2021-05-27T07:08:08.000Z</time>
      </trkpt>
      <trkpt lat="47.28078" lon="-2.35618">
        <ele>4.1999998092651</ele>
        <time>2021-05-27T07:08:13.000Z</time>
      </trkpt>
      <trkpt lat="47.2808" lon="-2.35646">
        <ele>4.1999998092651</ele>
        <time>2021-05-27T07:08:20.000Z</time>
      </trkpt>
      <trkpt lat="47.2808" lon="-2.3565">
        <ele>4.5999999046326</ele>
        <time>2021-05-27T07:08:21.000Z</time>
      </trkpt>
      <trkpt lat="47.28082" lon="-2.35654">
        <ele>5</ele>
        <time>2021-05-27T07:08:22.000Z</time>
      </trkpt>
      <trkpt lat="47.28082" lon="-2.35657">
        <ele>5.5999999046326</ele>
        <time>2021-05-27T07:08:23.000Z</time>
      </trkpt>
      <trkpt lat="47.28083" lon="-2.35661">
        <ele>6</ele>
        <time>2021-05-27T07:08:24.000Z</time>
      </trkpt>
      <trkpt lat="47.28084" lon="-2.35665">
        <ele>6.4000000953674</ele>
        <time>2021-05-27T07:08:25.000Z</time>
      </trkpt>
      <trkpt lat="47.28086" lon="-2.35668">
        <ele>6.4000000953674</ele>
        <time>2021-05-27T07:08:26.000Z</time>
      </trkpt>
      <trkpt lat="47.28091" lon="-2.3569">
        <ele>6.4000000953674</ele>
        <time>2021-05-27T07:08:33.000Z</time>
      </trkpt>
      <trkpt lat="47.28092" lon="-2.35692">
        <ele>6.8000001907349</ele>
        <time>2021-05-27T07:08:34.000Z</time>
      </trkpt>
      <trkpt lat="47.28092" lon="-2.35695">
        <ele>7.1999998092651</ele>
        <time>2021-05-27T07:08:35.000Z</time>
      </trkpt>
      <trkpt lat="47.28093" lon="-2.35698">
        <ele>7.5999999046326</ele>
        <time>2021-05-27T07:08:36.000Z</time>
      </trkpt>
      <trkpt lat="47.28093" lon="-2.35701">
        <ele>8.1999998092651</ele>
        <time>2021-05-27T07:08:37.000Z</time>
      </trkpt>
      <trkpt lat="47.28094" lon="-2.35704">
        <ele>8.6000003814697</ele>
        <time>2021-05-27T07:08:38.000Z</time>
      </trkpt>
      <trkpt lat="47.28094" lon="-2.35715">
        <ele>8.6000003814697</ele>
        <time>2021-05-27T07:08:41.000Z</time>
      </trkpt>
      <trkpt lat="47.28086" lon="-2.35734">
        <ele>8.6000003814697</ele>
        <time>2021-05-27T07:08:46.000Z</time>
      </trkpt>
      <trkpt lat="47.28082" lon="-2.35751">
        <ele>8.6000003814697</ele>
        <time>2021-05-27T07:08:49.000Z</time>
      </trkpt>
      <trkpt lat="47.28081" lon="-2.35758">
        <ele>8.6000003814697</ele>
        <time>2021-05-27T07:08:50.000Z</time>
      </trkpt>
      <trkpt lat="47.28078" lon="-2.35771">
        <ele>8.6000003814697</ele>
        <time>2021-05-27T07:08:52.000Z</time>
      </trkpt>
      <trkpt lat="47.28073" lon="-2.35782">
        <ele>8.6000003814697</ele>
        <time>2021-05-27T07:08:54.000Z</time>
      </trkpt>
      <trkpt lat="47.28072" lon="-2.35789">
        <ele>8.1999998092651</ele>
        <time>2021-05-27T07:08:55.000Z</time>
      </trkpt>
      <trkpt lat="47.28072" lon="-2.35794">
        <ele>7.8000001907349</ele>
        <time>2021-05-27T07:08:56.000Z</time>
      </trkpt>
      <trkpt lat="47.28072" lon="-2.35798">
        <ele>7.4000000953674</ele>
        <time>2021-05-27T07:08:57.000Z</time>
      </trkpt>
      <trkpt lat="47.28073" lon="-2.35802">
        <ele>7</ele>
        <time>2021-05-27T07:08:58.000Z</time>
      </trkpt>
      <trkpt lat="47.28074" lon="-2.35804">
        <ele>6.5999999046326</ele>
        <time>2021-05-27T07:08:59.000Z</time>
      </trkpt>
      <trkpt lat="47.28076" lon="-2.35807">
        <ele>6</ele>
        <time>2021-05-27T07:09:01.000Z</time>
      </trkpt>
      <trkpt lat="47.28078" lon="-2.35807">
        <ele>5.5999999046326</ele>
        <time>2021-05-27T07:09:02.000Z</time>
      </trkpt>
      <trkpt lat="47.28079" lon="-2.35807">
        <ele>5.1999998092651</ele>
        <time>2021-05-27T07:09:03.000Z</time>
      </trkpt>
      <trkpt lat="47.28081" lon="-2.35807">
        <ele>4.8000001907349</ele>
        <time>2021-05-27T07:09:04.000Z</time>
      </trkpt>
      <trkpt lat="47.28083" lon="-2.35807">
        <ele>4.4000000953674</ele>
        <time>2021-05-27T07:09:05.000Z</time>
      </trkpt>
      <trkpt lat="47.28088" lon="-2.35809">
        <ele>4.4000000953674</ele>
        <time>2021-05-27T07:09:09.000Z</time>
      </trkpt>
      <trkpt lat="47.2809" lon="-2.35808">
        <ele>4.4000000953674</ele>
        <time>2021-05-27T07:09:10.000Z</time>
      </trkpt>
      <trkpt lat="47.28098" lon="-2.35814">
        <ele>4.4000000953674</ele>
        <time>2021-05-27T07:09:15.000Z</time>
      </trkpt>
      <trkpt lat="47.28103" lon="-2.35819">
        <ele>4.4000000953674</ele>
        <time>2021-05-27T07:09:18.000Z</time>
      </trkpt>
      <trkpt lat="47.28106" lon="-2.35821">
        <ele>4.4000000953674</ele>
        <time>2021-05-27T07:09:40.000Z</time>
      </trkpt>
      <trkpt lat="47.28108" lon="-2.35823">
        <ele>4.4000000953674</ele>
        <time>2021-05-27T07:09:41.000Z</time>
      </trkpt>
      <trkpt lat="47.28115" lon="-2.35829">
        <ele>4.4000000953674</ele>
        <time>2021-05-27T07:09:45.000Z</time>
      </trkpt>
      <trkpt lat="47.28118" lon="-2.35834">
        <ele>4.4000000953674</ele>
        <time>2021-05-27T07:09:47.000Z</time>
      </trkpt>
      <trkpt lat="47.28118" lon="-2.35836">
        <ele>4.8000001907349</ele>
        <time>2021-05-27T07:09:48.000Z</time>
      </trkpt>
      <trkpt lat="47.28119" lon="-2.35839">
        <ele>5.1999998092651</ele>
        <time>2021-05-27T07:09:49.000Z</time>
      </trkpt>
      <trkpt lat="47.2812" lon="-2.35842">
        <ele>5.5999999046326</ele>
        <time>2021-05-27T07:09:50.000Z</time>
      </trkpt>
      <trkpt lat="47.28121" lon="-2.35846">
        <ele>6</ele>
        <time>2021-05-27T07:09:51.000Z</time>
      </trkpt>
      <trkpt lat="47.28122" lon="-2.35851">
        <ele>6.4000000953674</ele>
        <time>2021-05-27T07:09:52.000Z</time>
      </trkpt>
      <trkpt lat="47.28125" lon="-2.35855">
        <ele>6.4000000953674</ele>
        <time>2021-05-27T07:09:53.000Z</time>
      </trkpt>
      <trkpt lat="47.28127" lon="-2.35858">
        <ele>6</ele>
        <time>2021-05-27T07:09:54.000Z</time>
      </trkpt>
      <trkpt lat="47.28129" lon="-2.3586">
        <ele>5.5999999046326</ele>
        <time>2021-05-27T07:09:55.000Z</time>
      </trkpt>
      <trkpt lat="47.28132" lon="-2.35863">
        <ele>5.1999998092651</ele>
        <time>2021-05-27T07:09:56.000Z</time>
      </trkpt>
      <trkpt lat="47.28134" lon="-2.35865">
        <ele>4.8000001907349</ele>
        <time>2021-05-27T07:09:57.000Z</time>
      </trkpt>
      <trkpt lat="47.28136" lon="-2.35868">
        <ele>4.4000000953674</ele>
        <time>2021-05-27T07:09:58.000Z</time>
      </trkpt>
      <trkpt lat="47.28151" lon="-2.35878">
        <ele>4.4000000953674</ele>
        <time>2021-05-27T07:10:04.000Z</time>
      </trkpt>
      <trkpt lat="47.28162" lon="-2.35878">
        <ele>4.4000000953674</ele>
        <time>2021-05-27T07:10:10.000Z</time>
      </trkpt>
      <trkpt lat="47.28164" lon="-2.35876">
        <ele>4.4000000953674</ele>
        <time>2021-05-27T07:10:12.000Z</time>
      </trkpt>
      <trkpt lat="47.2817" lon="-2.35887">
        <ele>4.4000000953674</ele>
        <time>2021-05-27T07:10:35.000Z</time>
      </trkpt>
      <trkpt lat="47.28171" lon="-2.35892">
        <ele>4.4000000953674</ele>
        <time>2021-05-27T07:10:37.000Z</time>
      </trkpt>
      <trkpt lat="47.28174" lon="-2.35917">
        <ele>4.4000000953674</ele>
        <time>2021-05-27T07:10:42.000Z</time>
      </trkpt>
      <trkpt lat="47.28181" lon="-2.35946">
        <ele>4.4000000953674</ele>
        <time>2021-05-27T07:10:47.000Z</time>
      </trkpt>
      <trkpt lat="47.28186" lon="-2.35966">
        <ele>4</ele>
        <time>2021-05-27T07:10:50.000Z</time>
      </trkpt>
      <trkpt lat="47.28189" lon="-2.35971">
        <ele>3.5999999046326</ele>
        <time>2021-05-27T07:10:51.000Z</time>
      </trkpt>
      <trkpt lat="47.28192" lon="-2.35978">
        <ele>3.2000000476837</ele>
        <time>2021-05-27T07:10:52.000Z</time>
      </trkpt>
      <trkpt lat="47.28195" lon="-2.35984">
        <ele>2.5999999046326</ele>
        <time>2021-05-27T07:10:53.000Z</time>
      </trkpt>
      <trkpt lat="47.28198" lon="-2.3599">
        <ele>2.2000000476837</ele>
        <time>2021-05-27T07:10:54.000Z</time>
      </trkpt>
      <trkpt lat="47.28211" lon="-2.36016">
        <ele>2.2000000476837</ele>
        <time>2021-05-27T07:10:59.000Z</time>
      </trkpt>
      <trkpt lat="47.28213" lon="-2.36019">
        <ele>2.2000000476837</ele>
        <time>2021-05-27T07:11:00.000Z</time>
      </trkpt>
      <trkpt lat="47.28218" lon="-2.36032">
        <ele>2.2000000476837</ele>
        <time>2021-05-27T07:11:03.000Z</time>
      </trkpt>
      <trkpt lat="47.28222" lon="-2.36058">
        <ele>2.2000000476837</ele>
        <time>2021-05-27T07:11:09.000Z</time>
      </trkpt>
      <trkpt lat="47.28228" lon="-2.36087">
        <ele>2.2000000476837</ele>
        <time>2021-05-27T07:11:14.000Z</time>
      </trkpt>
      <trkpt lat="47.28237" lon="-2.36116">
        <ele>2.5999999046326</ele>
        <time>2021-05-27T07:11:20.000Z</time>
      </trkpt>
      <trkpt lat="47.28239" lon="-2.36121">
        <ele>3</ele>
        <time>2021-05-27T07:11:21.000Z</time>
      </trkpt>
      <trkpt lat="47.28241" lon="-2.36126">
        <ele>3.5999999046326</ele>
        <time>2021-05-27T07:11:22.000Z</time>
      </trkpt>
      <trkpt lat="47.28244" lon="-2.36131">
        <ele>4</ele>
        <time>2021-05-27T07:11:23.000Z</time>
      </trkpt>
      <trkpt lat="47.28247" lon="-2.36137">
        <ele>4.4000000953674</ele>
        <time>2021-05-27T07:11:24.000Z</time>
      </trkpt>
      <trkpt lat="47.28253" lon="-2.36149">
        <ele>4.4000000953674</ele>
        <time>2021-05-27T07:11:26.000Z</time>
      </trkpt>
      <trkpt lat="47.28257" lon="-2.36156">
        <ele>4</ele>
        <time>2021-05-27T07:11:27.000Z</time>
      </trkpt>
      <trkpt lat="47.2826" lon="-2.36163">
        <ele>3.4000000953674</ele>
        <time>2021-05-27T07:11:28.000Z</time>
      </trkpt>
      <trkpt lat="47.28263" lon="-2.3617">
        <ele>3</ele>
        <time>2021-05-27T07:11:29.000Z</time>
      </trkpt>
      <trkpt lat="47.28267" lon="-2.36177">
        <ele>2.5999999046326</ele>
        <time>2021-05-27T07:11:30.000Z</time>
      </trkpt>
      <trkpt lat="47.2827" lon="-2.36183">
        <ele>2.2000000476837</ele>
        <time>2021-05-27T07:11:31.000Z</time>
      </trkpt>
      <trkpt lat="47.28273" lon="-2.3619">
        <ele>2.2000000476837</ele>
        <time>2021-05-27T07:11:32.000Z</time>
      </trkpt>
      <trkpt lat="47.28286" lon="-2.36216">
        <ele>2.2000000476837</ele>
        <time>2021-05-27T07:11:36.000Z</time>
      </trkpt>
      <trkpt lat="47.2829" lon="-2.36221">
        <ele>2.2000000476837</ele>
        <time>2021-05-27T07:11:37.000Z</time>
      </trkpt>
      <trkpt lat="47.28314" lon="-2.36234">
        <ele>2.2000000476837</ele>
        <time>2021-05-27T07:11:42.000Z</time>
      </trkpt>
      <trkpt lat="47.28334" lon="-2.36244">
        <ele>2.2000000476837</ele>
        <time>2021-05-27T07:11:47.000Z</time>
      </trkpt>
      <trkpt lat="47.28351" lon="-2.36252">
        <ele>2.2000000476837</ele>
        <time>2021-05-27T07:11:52.000Z</time>
      </trkpt>
      <trkpt lat="47.2836" lon="-2.36258">
        <ele>2.5999999046326</ele>
        <time>2021-05-27T07:11:55.000Z</time>
      </trkpt>
      <trkpt lat="47.28363" lon="-2.3626">
        <ele>3</ele>
        <time>2021-05-27T07:11:56.000Z</time>
      </trkpt>
      <trkpt lat="47.28366" lon="-2.36261">
        <ele>3.4000000953674</ele>
        <time>2021-05-27T07:11:57.000Z</time>
      </trkpt>
      <trkpt lat="47.28369" lon="-2.36263">
        <ele>3.7999999523163</ele>
        <time>2021-05-27T07:11:58.000Z</time>
      </trkpt>
      <trkpt lat="47.28373" lon="-2.36264">
        <ele>4.1999998092651</ele>
        <time>2021-05-27T07:11:59.000Z</time>
      </trkpt>
      <trkpt lat="47.2839" lon="-2.36269">
        <ele>4.1999998092651</ele>
        <time>2021-05-27T07:12:04.000Z</time>
      </trkpt>
      <trkpt lat="47.28396" lon="-2.36272">
        <ele>4.5999999046326</ele>
        <time>2021-05-27T07:12:06.000Z</time>
      </trkpt>
      <trkpt lat="47.28399" lon="-2.36274">
        <ele>5</ele>
        <time>2021-05-27T07:12:07.000Z</time>
      </trkpt>
      <trkpt lat="47.28402" lon="-2.36276">
        <ele>5.4000000953674</ele>
        <time>2021-05-27T07:12:08.000Z</time>
      </trkpt>
      <trkpt lat="47.28406" lon="-2.36278">
        <ele>5.8000001907349</ele>
        <time>2021-05-27T07:12:09.000Z</time>
      </trkpt>
      <trkpt lat="47.28409" lon="-2.3628">
        <ele>6.1999998092651</ele>
        <time>2021-05-27T07:12:10.000Z</time>
      </trkpt>
      <trkpt lat="47.28426" lon="-2.36284">
        <ele>6.1999998092651</ele>
        <time>2021-05-27T07:12:15.000Z</time>
      </trkpt>
      <trkpt lat="47.2843" lon="-2.36286">
        <ele>6.8000001907349</ele>
        <time>2021-05-27T07:12:16.000Z</time>
      </trkpt>
      <trkpt lat="47.28434" lon="-2.36288">
        <ele>7.1999998092651</ele>
        <time>2021-05-27T07:12:17.000Z</time>
      </trkpt>
      <trkpt lat="47.28437" lon="-2.3629">
        <ele>7.5999999046326</ele>
        <time>2021-05-27T07:12:18.000Z</time>
      </trkpt>
      <trkpt lat="47.28439" lon="-2.36292">
        <ele>8</ele>
        <time>2021-05-27T07:12:19.000Z</time>
      </trkpt>
      <trkpt lat="47.28442" lon="-2.36293">
        <ele>8.3999996185303</ele>
        <time>2021-05-27T07:12:20.000Z</time>
      </trkpt>
      <trkpt lat="47.2846" lon="-2.363">
        <ele>8.3999996185303</ele>
        <time>2021-05-27T07:12:27.000Z</time>
      </trkpt>
      <trkpt lat="47.28467" lon="-2.36305">
        <ele>8.3999996185303</ele>
        <time>2021-05-27T07:12:30.000Z</time>
      </trkpt>
      <trkpt lat="47.28469" lon="-2.36306">
        <ele>8.3999996185303</ele>
        <time>2021-05-27T07:12:32.000Z</time>
      </trkpt>
      <trkpt lat="47.28494" lon="-2.36317">
        <ele>9.1999998092651</ele>
        <time>2021-05-27T07:12:47.000Z</time>
      </trkpt>
      <trkpt lat="47.28497" lon="-2.36317">
        <ele>9.6000003814697</ele>
        <time>2021-05-27T07:12:48.000Z</time>
      </trkpt>
      <trkpt lat="47.28499" lon="-2.36318">
        <ele>10</ele>
        <time>2021-05-27T07:12:49.000Z</time>
      </trkpt>
      <trkpt lat="47.285" lon="-2.36318">
        <ele>10.39999961853</ele>
        <time>2021-05-27T07:12:50.000Z</time>
      </trkpt>
      <trkpt lat="47.2851" lon="-2.36319">
        <ele>10.39999961853</ele>
        <time>2021-05-27T07:12:56.000Z</time>
      </trkpt>
      <trkpt lat="47.28516" lon="-2.36319">
        <ele>10.39999961853</ele>
        <time>2021-05-27T07:12:59.000Z</time>
      </trkpt>
      <trkpt lat="47.28522" lon="-2.36319">
        <ele>10.800000190735</ele>
        <time>2021-05-27T07:13:03.000Z</time>
      </trkpt>
      <trkpt lat="47.28522" lon="-2.36319">
        <ele>11.39999961853</ele>
        <time>2021-05-27T07:13:04.000Z</time>
      </trkpt>
      <trkpt lat="47.28523" lon="-2.36319">
        <ele>11.800000190735</ele>
        <time>2021-05-27T07:13:05.000Z</time>
      </trkpt>
      <trkpt lat="47.28524" lon="-2.3632">
        <ele>12.199999809265</ele>
        <time>2021-05-27T07:13:06.000Z</time>
      </trkpt>
      <trkpt lat="47.28524" lon="-2.3632">
        <ele>12.60000038147</ele>
        <time>2021-05-27T07:13:07.000Z</time>
      </trkpt>
      <trkpt lat="47.28526" lon="-2.36324">
        <ele>13</ele>
        <time>2021-05-27T07:13:11.000Z</time>
      </trkpt>
      <trkpt lat="47.28527" lon="-2.36327">
        <ele>13.39999961853</ele>
        <time>2021-05-27T07:13:12.000Z</time>
      </trkpt>
      <trkpt lat="47.28527" lon="-2.36328">
        <ele>13.800000190735</ele>
        <time>2021-05-27T07:13:13.000Z</time>
      </trkpt>
      <trkpt lat="47.28527" lon="-2.3633">
        <ele>14.199999809265</ele>
        <time>2021-05-27T07:13:14.000Z</time>
      </trkpt>
      <trkpt lat="47.28528" lon="-2.3633">
        <ele>14.60000038147</ele>
        <time>2021-05-27T07:13:15.000Z</time>
      </trkpt>
      <trkpt lat="47.28539" lon="-2.36368">
        <ele>21</ele>
        <time>2021-05-27T07:14:21.000Z</time>
      </trkpt>
      <trkpt lat="47.28541" lon="-2.36371">
        <ele>21</ele>
        <time>2021-05-27T07:14:22.000Z</time>
      </trkpt>
      <trkpt lat="47.28542" lon="-2.36374">
        <ele>21</ele>
        <time>2021-05-27T07:14:23.000Z</time>
      </trkpt>
      <trkpt lat="47.28547" lon="-2.36394">
        <ele>21</ele>
        <time>2021-05-27T07:14:28.000Z</time>
      </trkpt>
      <trkpt lat="47.28551" lon="-2.36416">
        <ele>21</ele>
        <time>2021-05-27T07:14:33.000Z</time>
      </trkpt>
      <trkpt lat="47.28555" lon="-2.3643">
        <ele>21</ele>
        <time>2021-05-27T07:14:38.000Z</time>
      </trkpt>
      <trkpt lat="47.28561" lon="-2.36454">
        <ele>21</ele>
        <time>2021-05-27T07:14:45.000Z</time>
      </trkpt>
      <trkpt lat="47.2857" lon="-2.3647">
        <ele>21</ele>
        <time>2021-05-27T07:14:49.000Z</time>
      </trkpt>
      <trkpt lat="47.28582" lon="-2.36493">
        <ele>21</ele>
        <time>2021-05-27T07:14:54.000Z</time>
      </trkpt>
      <trkpt lat="47.28586" lon="-2.36497">
        <ele>21</ele>
        <time>2021-05-27T07:14:55.000Z</time>
      </trkpt>
      <trkpt lat="47.28589" lon="-2.36502">
        <ele>20.39999961853</ele>
        <time>2021-05-27T07:14:56.000Z</time>
      </trkpt>
      <trkpt lat="47.28593" lon="-2.36507">
        <ele>19.799999237061</ele>
        <time>2021-05-27T07:14:57.000Z</time>
      </trkpt>
      <trkpt lat="47.28598" lon="-2.36517">
        <ele>19.200000762939</ele>
        <time>2021-05-27T07:14:58.000Z</time>
      </trkpt>
      <trkpt lat="47.28602" lon="-2.36527">
        <ele>18.39999961853</ele>
        <time>2021-05-27T07:14:59.000Z</time>
      </trkpt>
      <trkpt lat="47.28607" lon="-2.36537">
        <ele>17.799999237061</ele>
        <time>2021-05-27T07:15:00.000Z</time>
      </trkpt>
      <trkpt lat="47.28611" lon="-2.36547">
        <ele>17</ele>
        <time>2021-05-27T07:15:01.000Z</time>
      </trkpt>
      <trkpt lat="47.28616" lon="-2.36557">
        <ele>16.39999961853</ele>
        <time>2021-05-27T07:15:02.000Z</time>
      </trkpt>
      <trkpt lat="47.28621" lon="-2.36568">
        <ele>15.60000038147</ele>
        <time>2021-05-27T07:15:03.000Z</time>
      </trkpt>
      <trkpt lat="47.2863" lon="-2.36582">
        <ele>15.60000038147</ele>
        <time>2021-05-27T07:15:05.000Z</time>
      </trkpt>
      <trkpt lat="47.28637" lon="-2.36589">
        <ele>15.60000038147</ele>
        <time>2021-05-27T07:15:07.000Z</time>
      </trkpt>
      <trkpt lat="47.28642" lon="-2.36595">
        <ele>15.60000038147</ele>
        <time>2021-05-27T07:15:11.000Z</time>
      </trkpt>
      <trkpt lat="47.28643" lon="-2.366">
        <ele>15.199999809265</ele>
        <time>2021-05-27T07:15:14.000Z</time>
      </trkpt>
      <trkpt lat="47.28642" lon="-2.36602">
        <ele>14.39999961853</ele>
        <time>2021-05-27T07:15:16.000Z</time>
      </trkpt>
      <trkpt lat="47.2864" lon="-2.36604">
        <ele>14</ele>
        <time>2021-05-27T07:15:17.000Z</time>
      </trkpt>
      <trkpt lat="47.28638" lon="-2.36606">
        <ele>13.60000038147</ele>
        <time>2021-05-27T07:15:18.000Z</time>
      </trkpt>
      <trkpt lat="47.28623" lon="-2.36616">
        <ele>13.60000038147</ele>
        <time>2021-05-27T07:15:23.000Z</time>
      </trkpt>
      <trkpt lat="47.28616" lon="-2.36619">
        <ele>13.199999809265</ele>
        <time>2021-05-27T07:15:25.000Z</time>
      </trkpt>
      <trkpt lat="47.28614" lon="-2.3662">
        <ele>12.60000038147</ele>
        <time>2021-05-27T07:15:26.000Z</time>
      </trkpt>
      <trkpt lat="47.28613" lon="-2.36621">
        <ele>12.199999809265</ele>
        <time>2021-05-27T07:15:27.000Z</time>
      </trkpt>
      <trkpt lat="47.28611" lon="-2.36622">
        <ele>11.800000190735</ele>
        <time>2021-05-27T07:15:28.000Z</time>
      </trkpt>
      <trkpt lat="47.28609" lon="-2.36623">
        <ele>11.39999961853</ele>
        <time>2021-05-27T07:15:29.000Z</time>
      </trkpt>
      <trkpt lat="47.28607" lon="-2.36624">
        <ele>10.800000190735</ele>
        <time>2021-05-27T07:15:30.000Z</time>
      </trkpt>
      <trkpt lat="47.28606" lon="-2.36625">
        <ele>10.39999961853</ele>
        <time>2021-05-27T07:15:31.000Z</time>
      </trkpt>
      <trkpt lat="47.28604" lon="-2.36627">
        <ele>10</ele>
        <time>2021-05-27T07:15:32.000Z</time>
      </trkpt>
      <trkpt lat="47.28603" lon="-2.36629">
        <ele>9.6000003814697</ele>
        <time>2021-05-27T07:15:33.000Z</time>
      </trkpt>
      <trkpt lat="47.28602" lon="-2.3663">
        <ele>9</ele>
        <time>2021-05-27T07:15:34.000Z</time>
      </trkpt>
      <trkpt lat="47.28601" lon="-2.36631">
        <ele>9</ele>
        <time>2021-05-27T07:15:35.000Z</time>
      </trkpt>
      <trkpt lat="47.286" lon="-2.36633">
        <ele>8.6000003814697</ele>
        <time>2021-05-27T07:15:37.000Z</time>
      </trkpt>
      <trkpt lat="47.28599" lon="-2.36634">
        <ele>8.1999998092651</ele>
        <time>2021-05-27T07:15:38.000Z</time>
      </trkpt>
      <trkpt lat="47.28598" lon="-2.36641">
        <ele>7.8000001907349</ele>
        <time>2021-05-27T07:15:39.000Z</time>
      </trkpt>
      <trkpt lat="47.28596" lon="-2.36647">
        <ele>7.4000000953674</ele>
        <time>2021-05-27T07:15:40.000Z</time>
      </trkpt>
      <trkpt lat="47.28592" lon="-2.36652">
        <ele>7</ele>
        <time>2021-05-27T07:15:41.000Z</time>
      </trkpt>
      <trkpt lat="47.28574" lon="-2.36656">
        <ele>7</ele>
        <time>2021-05-27T07:15:43.000Z</time>
      </trkpt>
      <trkpt lat="47.28557" lon="-2.36657">
        <ele>7</ele>
        <time>2021-05-27T07:15:45.000Z</time>
      </trkpt>
      <trkpt lat="47.2855" lon="-2.36658">
        <ele>6.5999999046326</ele>
        <time>2021-05-27T07:15:46.000Z</time>
      </trkpt>
      <trkpt lat="47.28545" lon="-2.36658">
        <ele>6.1999998092651</ele>
        <time>2021-05-27T07:15:47.000Z</time>
      </trkpt>
      <trkpt lat="47.28539" lon="-2.36658">
        <ele>5.8000001907349</ele>
        <time>2021-05-27T07:15:48.000Z</time>
      </trkpt>
      <trkpt lat="47.28534" lon="-2.3666">
        <ele>5.4000000953674</ele>
        <time>2021-05-27T07:15:49.000Z</time>
      </trkpt>
      <trkpt lat="47.28529" lon="-2.36661">
        <ele>5</ele>
        <time>2021-05-27T07:15:50.000Z</time>
      </trkpt>
      <trkpt lat="47.28525" lon="-2.36665">
        <ele>5</ele>
        <time>2021-05-27T07:15:51.000Z</time>
      </trkpt>
      <trkpt lat="47.28519" lon="-2.36676">
        <ele>5</ele>
        <time>2021-05-27T07:15:53.000Z</time>
      </trkpt>
      <trkpt lat="47.2852" lon="-2.367">
        <ele>5</ele>
        <time>2021-05-27T07:15:56.000Z</time>
      </trkpt>
      <trkpt lat="47.28522" lon="-2.36708">
        <ele>5</ele>
        <time>2021-05-27T07:15:57.000Z</time>
      </trkpt>
      <trkpt lat="47.28526" lon="-2.36715">
        <ele>5</ele>
        <time>2021-05-27T07:15:58.000Z</time>
      </trkpt>
      <trkpt lat="47.28534" lon="-2.36731">
        <ele>4.5999999046326</ele>
        <time>2021-05-27T07:16:00.000Z</time>
      </trkpt>
      <trkpt lat="47.28539" lon="-2.3674">
        <ele>4</ele>
        <time>2021-05-27T07:16:01.000Z</time>
      </trkpt>
      <trkpt lat="47.28543" lon="-2.36749">
        <ele>3.5999999046326</ele>
        <time>2021-05-27T07:16:02.000Z</time>
      </trkpt>
      <trkpt lat="47.28547" lon="-2.36757">
        <ele>3.2000000476837</ele>
        <time>2021-05-27T07:16:03.000Z</time>
      </trkpt>
      <trkpt lat="47.28552" lon="-2.36766">
        <ele>2.7999999523163</ele>
        <time>2021-05-27T07:16:04.000Z</time>
      </trkpt>
      <trkpt lat="47.28566" lon="-2.36791">
        <ele>2.4000000953674</ele>
        <time>2021-05-27T07:16:07.000Z</time>
      </trkpt>
      <trkpt lat="47.2857" lon="-2.36799">
        <ele>2</ele>
        <time>2021-05-27T07:16:08.000Z</time>
      </trkpt>
      <trkpt lat="47.28575" lon="-2.36807">
        <ele>1.6000000238419</ele>
        <time>2021-05-27T07:16:09.000Z</time>
      </trkpt>
      <trkpt lat="47.28579" lon="-2.36815">
        <ele>0.80000001192093</ele>
        <time>2021-05-27T07:16:10.000Z</time>
      </trkpt>
      <trkpt lat="47.28588" lon="-2.36831">
        <ele>0.80000001192093</ele>
        <time>2021-05-27T07:16:12.000Z</time>
      </trkpt>
      <trkpt lat="47.28592" lon="-2.36836">
        <ele>0.80000001192093</ele>
        <time>2021-05-27T07:16:13.000Z</time>
      </trkpt>
      <trkpt lat="47.28597" lon="-2.3684">
        <ele>0.20000000298023</ele>
        <time>2021-05-27T07:16:14.000Z</time>
      </trkpt>
      <trkpt lat="47.28603" lon="-2.36842">
        <ele>-0.20000000298023</ele>
        <time>2021-05-27T07:16:15.000Z</time>
      </trkpt>
      <trkpt lat="47.28607" lon="-2.36841">
        <ele>-0.60000002384186</ele>
        <time>2021-05-27T07:16:16.000Z</time>
      </trkpt>
      <trkpt lat="47.28612" lon="-2.36839">
        <ele>-1.2000000476837</ele>
        <time>2021-05-27T07:16:17.000Z</time>
      </trkpt>
      <trkpt lat="47.28616" lon="-2.36834">
        <ele>-1.6000000238419</ele>
        <time>2021-05-27T07:16:18.000Z</time>
      </trkpt>
      <trkpt lat="47.2862" lon="-2.3683">
        <ele>-1.6000000238419</ele>
        <time>2021-05-27T07:16:19.000Z</time>
      </trkpt>
      <trkpt lat="47.28642" lon="-2.36804">
        <ele>-1.6000000238419</ele>
        <time>2021-05-27T07:16:25.000Z</time>
      </trkpt>
      <trkpt lat="47.28661" lon="-2.36793">
        <ele>-1.6000000238419</ele>
        <time>2021-05-27T07:16:31.000Z</time>
      </trkpt>
      <trkpt lat="47.28667" lon="-2.36802">
        <ele>-1.6000000238419</ele>
        <time>2021-05-27T07:16:34.000Z</time>
      </trkpt>
      <trkpt lat="47.28681" lon="-2.3683">
        <ele>-1.6000000238419</ele>
        <time>2021-05-27T07:16:40.000Z</time>
      </trkpt>
      <trkpt lat="47.28698" lon="-2.36866">
        <ele>-1.6000000238419</ele>
        <time>2021-05-27T07:16:46.000Z</time>
      </trkpt>
      <trkpt lat="47.28717" lon="-2.369">
        <ele>-2</ele>
        <time>2021-05-27T07:16:52.000Z</time>
      </trkpt>
      <trkpt lat="47.28723" lon="-2.36906">
        <ele>-2.5999999046326</ele>
        <time>2021-05-27T07:16:53.000Z</time>
      </trkpt>
      <trkpt lat="47.28728" lon="-2.36911">
        <ele>-3</ele>
        <time>2021-05-27T07:16:54.000Z</time>
      </trkpt>
      <trkpt lat="47.28733" lon="-2.36917">
        <ele>-3.4000000953674</ele>
        <time>2021-05-27T07:16:55.000Z</time>
      </trkpt>
      <trkpt lat="47.28737" lon="-2.36921">
        <ele>-3.7999999523163</ele>
        <time>2021-05-27T07:16:56.000Z</time>
      </trkpt>
      <trkpt lat="47.28746" lon="-2.36933">
        <ele>-3.7999999523163</ele>
        <time>2021-05-27T07:17:00.000Z</time>
      </trkpt>
      <trkpt lat="47.28751" lon="-2.36947">
        <ele>-3.7999999523163</ele>
        <time>2021-05-27T07:17:03.000Z</time>
      </trkpt>
      <trkpt lat="47.28751" lon="-2.36953">
        <ele>-3.7999999523163</ele>
        <time>2021-05-27T07:17:05.000Z</time>
      </trkpt>
      <trkpt lat="47.28751" lon="-2.36959">
        <ele>-3.4000000953674</ele>
        <time>2021-05-27T07:17:07.000Z</time>
      </trkpt>
      <trkpt lat="47.28752" lon="-2.36961">
        <ele>-3</ele>
        <time>2021-05-27T07:17:08.000Z</time>
      </trkpt>
      <trkpt lat="47.28752" lon="-2.36964">
        <ele>-2.5999999046326</ele>
        <time>2021-05-27T07:17:09.000Z</time>
      </trkpt>
      <trkpt lat="47.28752" lon="-2.36966">
        <ele>-2.2000000476837</ele>
        <time>2021-05-27T07:17:10.000Z</time>
      </trkpt>
      <trkpt lat="47.28753" lon="-2.3697">
        <ele>-1.6000000238419</ele>
        <time>2021-05-27T07:17:11.000Z</time>
      </trkpt>
      <trkpt lat="47.28754" lon="-2.36973">
        <ele>-1.6000000238419</ele>
        <time>2021-05-27T07:17:12.000Z</time>
      </trkpt>
      <trkpt lat="47.28759" lon="-2.36987">
        <ele>-1.6000000238419</ele>
        <time>2021-05-27T07:17:18.000Z</time>
      </trkpt>
      <trkpt lat="47.28765" lon="-2.37002">
        <ele>-1.6000000238419</ele>
        <time>2021-05-27T07:17:23.000Z</time>
      </trkpt>
      <trkpt lat="47.28775" lon="-2.37032">
        <ele>-1.6000000238419</ele>
        <time>2021-05-27T07:17:28.000Z</time>
      </trkpt>
      <trkpt lat="47.28781" lon="-2.37051">
        <ele>-2.2000000476837</ele>
        <time>2021-05-27T07:17:31.000Z</time>
      </trkpt>
      <trkpt lat="47.28783" lon="-2.37061">
        <ele>-2.5999999046326</ele>
        <time>2021-05-27T07:17:32.000Z</time>
      </trkpt>
      <trkpt lat="47.28785" lon="-2.37071">
        <ele>-3.2000000476837</ele>
        <time>2021-05-27T07:17:33.000Z</time>
      </trkpt>
      <trkpt lat="47.28788" lon="-2.37078">
        <ele>-3.5999999046326</ele>
        <time>2021-05-27T07:17:34.000Z</time>
      </trkpt>
      <trkpt lat="47.2879" lon="-2.37082">
        <ele>-4.1999998092651</ele>
        <time>2021-05-27T07:17:35.000Z</time>
      </trkpt>
      <trkpt lat="47.28793" lon="-2.37086">
        <ele>-4.8000001907349</ele>
        <time>2021-05-27T07:17:36.000Z</time>
      </trkpt>
      <trkpt lat="47.28795" lon="-2.37087">
        <ele>-5.1999998092651</ele>
        <time>2021-05-27T07:17:37.000Z</time>
      </trkpt>
      <trkpt lat="47.28798" lon="-2.37089">
        <ele>-5.8000001907349</ele>
        <time>2021-05-27T07:17:38.000Z</time>
      </trkpt>
      <trkpt lat="47.28802" lon="-2.3709">
        <ele>-6.1999998092651</ele>
        <time>2021-05-27T07:17:39.000Z</time>
      </trkpt>
      <trkpt lat="47.28806" lon="-2.37091">
        <ele>-6.8000001907349</ele>
        <time>2021-05-27T07:17:41.000Z</time>
      </trkpt>
      <trkpt lat="47.28808" lon="-2.37091">
        <ele>-7.1999998092651</ele>
        <time>2021-05-27T07:17:42.000Z</time>
      </trkpt>
      <trkpt lat="47.28809" lon="-2.37091">
        <ele>-7.8000001907349</ele>
        <time>2021-05-27T07:17:43.000Z</time>
      </trkpt>
      <trkpt lat="47.28811" lon="-2.3709">
        <ele>-8.1999998092651</ele>
        <time>2021-05-27T07:17:44.000Z</time>
      </trkpt>
      <trkpt lat="47.28812" lon="-2.37088">
        <ele>-8.8000001907349</ele>
        <time>2021-05-27T07:17:45.000Z</time>
      </trkpt>
      <trkpt lat="47.28813" lon="-2.37088">
        <ele>-9.1999998092651</ele>
        <time>2021-05-27T07:17:46.000Z</time>
      </trkpt>
      <trkpt lat="47.28814" lon="-2.37087">
        <ele>-9.6000003814697</ele>
        <time>2021-05-27T07:17:47.000Z</time>
      </trkpt>
      <trkpt lat="47.28815" lon="-2.37091">
        <ele>-10</ele>
        <time>2021-05-27T07:17:48.000Z</time>
      </trkpt>
      <trkpt lat="47.28816" lon="-2.37095">
        <ele>-10.800000190735</ele>
        <time>2021-05-27T07:17:49.000Z</time>
      </trkpt>
      <trkpt lat="47.28818" lon="-2.37117">
        <ele>-10.800000190735</ele>
        <time>2021-05-27T07:17:53.000Z</time>
      </trkpt>
      <trkpt lat="47.2882" lon="-2.3714">
        <ele>-11.199999809265</ele>
        <time>2021-05-27T07:17:57.000Z</time>
      </trkpt>
      <trkpt lat="47.28821" lon="-2.37145">
        <ele>-11.60000038147</ele>
        <time>2021-05-27T07:17:58.000Z</time>
      </trkpt>
      <trkpt lat="47.28822" lon="-2.3715">
        <ele>-12</ele>
        <time>2021-05-27T07:17:59.000Z</time>
      </trkpt>
      <trkpt lat="47.28823" lon="-2.37155">
        <ele>-12.39999961853</ele>
        <time>2021-05-27T07:18:00.000Z</time>
      </trkpt>
      <trkpt lat="47.28824" lon="-2.37162">
        <ele>-12.800000190735</ele>
        <time>2021-05-27T07:18:01.000Z</time>
      </trkpt>
      <trkpt lat="47.28829" lon="-2.3718">
        <ele>-12.800000190735</ele>
        <time>2021-05-27T07:18:04.000Z</time>
      </trkpt>
      <trkpt lat="47.28838" lon="-2.37213">
        <ele>-12.800000190735</ele>
        <time>2021-05-27T07:18:10.000Z</time>
      </trkpt>
      <trkpt lat="47.28844" lon="-2.37229">
        <ele>-12.800000190735</ele>
        <time>2021-05-27T07:18:14.000Z</time>
      </trkpt>
      <trkpt lat="47.28846" lon="-2.3723">
        <ele>-12.800000190735</ele>
        <time>2021-05-27T07:18:15.000Z</time>
      </trkpt>
      <trkpt lat="47.28864" lon="-2.37227">
        <ele>-12.800000190735</ele>
        <time>2021-05-27T07:18:20.000Z</time>
      </trkpt>
      <trkpt lat="47.28868" lon="-2.37226">
        <ele>-12.800000190735</ele>
        <time>2021-05-27T07:18:21.000Z</time>
      </trkpt>
      <trkpt lat="47.28888" lon="-2.37218">
        <ele>-12.800000190735</ele>
        <time>2021-05-27T07:18:26.000Z</time>
      </trkpt>
      <trkpt lat="47.28917" lon="-2.37209">
        <ele>-12.800000190735</ele>
        <time>2021-05-27T07:18:33.000Z</time>
      </trkpt>
      <trkpt lat="47.28932" lon="-2.37205">
        <ele>-12.800000190735</ele>
        <time>2021-05-27T07:18:38.000Z</time>
      </trkpt>
      <trkpt lat="47.28952" lon="-2.372">
        <ele>-12.800000190735</ele>
        <time>2021-05-27T07:18:45.000Z</time>
      </trkpt>
      <trkpt lat="47.28954" lon="-2.37199">
        <ele>-12.39999961853</ele>
        <time>2021-05-27T07:18:46.000Z</time>
      </trkpt>
      <trkpt lat="47.28955" lon="-2.37198">
        <ele>-12</ele>
        <time>2021-05-27T07:18:47.000Z</time>
      </trkpt>
      <trkpt lat="47.28956" lon="-2.37198">
        <ele>-11.60000038147</ele>
        <time>2021-05-27T07:18:48.000Z</time>
      </trkpt>
      <trkpt lat="47.28958" lon="-2.37197">
        <ele>-11.199999809265</ele>
        <time>2021-05-27T07:18:49.000Z</time>
      </trkpt>
      <trkpt lat="47.28959" lon="-2.37196">
        <ele>-10.800000190735</ele>
        <time>2021-05-27T07:18:50.000Z</time>
      </trkpt>
      <trkpt lat="47.28969" lon="-2.37187">
        <ele>-10.800000190735</ele>
        <time>2021-05-27T07:18:56.000Z</time>
      </trkpt>
      <trkpt lat="47.28982" lon="-2.37178">
        <ele>-10.39999961853</ele>
        <time>2021-05-27T07:19:00.000Z</time>
      </trkpt>
      <trkpt lat="47.28986" lon="-2.37176">
        <ele>-10</ele>
        <time>2021-05-27T07:19:01.000Z</time>
      </trkpt>
      <trkpt lat="47.28989" lon="-2.37173">
        <ele>-9.6000003814697</ele>
        <time>2021-05-27T07:19:02.000Z</time>
      </trkpt>
      <trkpt lat="47.28992" lon="-2.37171">
        <ele>-8.8000001907349</ele>
        <time>2021-05-27T07:19:03.000Z</time>
      </trkpt>
      <trkpt lat="47.28998" lon="-2.37172">
        <ele>-8.8000001907349</ele>
        <time>2021-05-27T07:19:05.000Z</time>
      </trkpt>
      <trkpt lat="47.29004" lon="-2.37176">
        <ele>-8.3999996185303</ele>
        <time>2021-05-27T07:19:07.000Z</time>
      </trkpt>
      <trkpt lat="47.29007" lon="-2.37179">
        <ele>-8</ele>
        <time>2021-05-27T07:19:08.000Z</time>
      </trkpt>
      <trkpt lat="47.29009" lon="-2.37181">
        <ele>-7.5999999046326</ele>
        <time>2021-05-27T07:19:09.000Z</time>
      </trkpt>
      <trkpt lat="47.29012" lon="-2.37184">
        <ele>-7.1999998092651</ele>
        <time>2021-05-27T07:19:10.000Z</time>
      </trkpt>
      <trkpt lat="47.29015" lon="-2.37187">
        <ele>-6.8000001907349</ele>
        <time>2021-05-27T07:19:11.000Z</time>
      </trkpt>
      <trkpt lat="47.29029" lon="-2.372">
        <ele>-6.4000000953674</ele>
        <time>2021-05-27T07:19:15.000Z</time>
      </trkpt>
      <trkpt lat="47.29033" lon="-2.37203">
        <ele>-6</ele>
        <time>2021-05-27T07:19:16.000Z</time>
      </trkpt>
      <trkpt lat="47.29036" lon="-2.37205">
        <ele>-5.4000000953674</ele>
        <time>2021-05-27T07:19:17.000Z</time>
      </trkpt>
      <trkpt lat="47.29039" lon="-2.37208">
        <ele>-5</ele>
        <time>2021-05-27T07:19:18.000Z</time>
      </trkpt>
      <trkpt lat="47.29043" lon="-2.37211">
        <ele>-4.5999999046326</ele>
        <time>2021-05-27T07:19:19.000Z</time>
      </trkpt>
      <trkpt lat="47.29055" lon="-2.37225">
        <ele>-4.5999999046326</ele>
        <time>2021-05-27T07:19:23.000Z</time>
      </trkpt>
      <trkpt lat="47.29068" lon="-2.37239">
        <ele>-4.1999998092651</ele>
        <time>2021-05-27T07:19:27.000Z</time>
      </trkpt>
      <trkpt lat="47.29071" lon="-2.37242">
        <ele>-3.7999999523163</ele>
        <time>2021-05-27T07:19:28.000Z</time>
      </trkpt>
      <trkpt lat="47.29075" lon="-2.37246">
        <ele>-3.4000000953674</ele>
        <time>2021-05-27T07:19:29.000Z</time>
      </trkpt>
      <trkpt lat="47.29078" lon="-2.37249">
        <ele>-3</ele>
        <time>2021-05-27T07:19:30.000Z</time>
      </trkpt>
      <trkpt lat="47.29082" lon="-2.37252">
        <ele>-2.5999999046326</ele>
        <time>2021-05-27T07:19:31.000Z</time>
      </trkpt>
      <trkpt lat="47.29107" lon="-2.37278">
        <ele>-2.5999999046326</ele>
        <time>2021-05-27T07:19:38.000Z</time>
      </trkpt>
      <trkpt lat="47.29134" lon="-2.37305">
        <ele>-2.5999999046326</ele>
        <time>2021-05-27T07:19:46.000Z</time>
      </trkpt>
      <trkpt lat="47.2914" lon="-2.37313">
        <ele>-2.5999999046326</ele>
        <time>2021-05-27T07:19:48.000Z</time>
      </trkpt>
      <trkpt lat="47.29151" lon="-2.37331">
        <ele>-2.5999999046326</ele>
        <time>2021-05-27T07:19:52.000Z</time>
      </trkpt>
      <trkpt lat="47.29154" lon="-2.37336">
        <ele>-2.5999999046326</ele>
        <time>2021-05-27T07:19:53.000Z</time>
      </trkpt>
      <trkpt lat="47.29165" lon="-2.37366">
        <ele>-2.5999999046326</ele>
        <time>2021-05-27T07:19:58.000Z</time>
      </trkpt>
      <trkpt lat="47.29171" lon="-2.37377">
        <ele>-2.5999999046326</ele>
        <time>2021-05-27T07:20:00.000Z</time>
      </trkpt>
      <trkpt lat="47.29181" lon="-2.37392">
        <ele>-2.5999999046326</ele>
        <time>2021-05-27T07:20:03.000Z</time>
      </trkpt>
      <trkpt lat="47.29209" lon="-2.3744">
        <ele>-2.5999999046326</ele>
        <time>2021-05-27T07:20:11.000Z</time>
      </trkpt>
      <trkpt lat="47.29245" lon="-2.37494">
        <ele>-2.5999999046326</ele>
        <time>2021-05-27T07:20:19.000Z</time>
      </trkpt>
      <trkpt lat="47.29249" lon="-2.37501">
        <ele>-3</ele>
        <time>2021-05-27T07:20:20.000Z</time>
      </trkpt>
      <trkpt lat="47.29255" lon="-2.37506">
        <ele>-3.4000000953674</ele>
        <time>2021-05-27T07:20:21.000Z</time>
      </trkpt>
      <trkpt lat="47.2926" lon="-2.37511">
        <ele>-3.7999999523163</ele>
        <time>2021-05-27T07:20:22.000Z</time>
      </trkpt>
      <trkpt lat="47.29265" lon="-2.37516">
        <ele>-4.1999998092651</ele>
        <time>2021-05-27T07:20:23.000Z</time>
      </trkpt>
      <trkpt lat="47.2927" lon="-2.37523">
        <ele>-4.5999999046326</ele>
        <time>2021-05-27T07:20:24.000Z</time>
      </trkpt>
      <trkpt lat="47.29281" lon="-2.37549">
        <ele>-4.5999999046326</ele>
        <time>2021-05-27T07:20:27.000Z</time>
      </trkpt>
      <trkpt lat="47.29285" lon="-2.37557">
        <ele>-5</ele>
        <time>2021-05-27T07:20:28.000Z</time>
      </trkpt>
      <trkpt lat="47.29289" lon="-2.37564">
        <ele>-5.4000000953674</ele>
        <time>2021-05-27T07:20:29.000Z</time>
      </trkpt>
      <trkpt lat="47.29294" lon="-2.37571">
        <ele>-6</ele>
        <time>2021-05-27T07:20:30.000Z</time>
      </trkpt>
      <trkpt lat="47.29298" lon="-2.37578">
        <ele>-6.4000000953674</ele>
        <time>2021-05-27T07:20:31.000Z</time>
      </trkpt>
      <trkpt lat="47.29302" lon="-2.37584">
        <ele>-6.8000001907349</ele>
        <time>2021-05-27T07:20:32.000Z</time>
      </trkpt>
      <trkpt lat="47.29306" lon="-2.37591">
        <ele>-6.8000001907349</ele>
        <time>2021-05-27T07:20:33.000Z</time>
      </trkpt>
      <trkpt lat="47.29325" lon="-2.37621">
        <ele>-6.8000001907349</ele>
        <time>2021-05-27T07:20:38.000Z</time>
      </trkpt>
      <trkpt lat="47.29328" lon="-2.37628">
        <ele>-6.8000001907349</ele>
        <time>2021-05-27T07:20:39.000Z</time>
      </trkpt>
      <trkpt lat="47.29339" lon="-2.3767">
        <ele>-6.8000001907349</ele>
        <time>2021-05-27T07:20:45.000Z</time>
      </trkpt>
      <trkpt lat="47.29336" lon="-2.37707">
        <ele>-6.8000001907349</ele>
        <time>2021-05-27T07:20:49.000Z</time>
      </trkpt>
      <trkpt lat="47.29336" lon="-2.37718">
        <ele>-6.8000001907349</ele>
        <time>2021-05-27T07:20:50.000Z</time>
      </trkpt>
      <trkpt lat="47.29338" lon="-2.37766">
        <ele>-7.1999998092651</ele>
        <time>2021-05-27T07:20:54.000Z</time>
      </trkpt>
      <trkpt lat="47.29339" lon="-2.37779">
        <ele>-7.5999999046326</ele>
        <time>2021-05-27T07:20:55.000Z</time>
      </trkpt>
      <trkpt lat="47.2934" lon="-2.37792">
        <ele>-8.1999998092651</ele>
        <time>2021-05-27T07:20:56.000Z</time>
      </trkpt>
      <trkpt lat="47.2934" lon="-2.37805">
        <ele>-8.6000003814697</ele>
        <time>2021-05-27T07:20:57.000Z</time>
      </trkpt>
      <trkpt lat="47.29341" lon="-2.37818">
        <ele>-9</ele>
        <time>2021-05-27T07:20:58.000Z</time>
      </trkpt>
      <trkpt lat="47.29344" lon="-2.37845">
        <ele>-9.3999996185303</ele>
        <time>2021-05-27T07:21:00.000Z</time>
      </trkpt>
      <trkpt lat="47.29347" lon="-2.37858">
        <ele>-10</ele>
        <time>2021-05-27T07:21:01.000Z</time>
      </trkpt>
      <trkpt lat="47.2935" lon="-2.37871">
        <ele>-10.39999961853</ele>
        <time>2021-05-27T07:21:02.000Z</time>
      </trkpt>
      <trkpt lat="47.29354" lon="-2.37883">
        <ele>-10.800000190735</ele>
        <time>2021-05-27T07:21:03.000Z</time>
      </trkpt>
      <trkpt lat="47.29358" lon="-2.37894">
        <ele>-11.199999809265</ele>
        <time>2021-05-27T07:21:04.000Z</time>
      </trkpt>
      <trkpt lat="47.29362" lon="-2.37906">
        <ele>-11.199999809265</ele>
        <time>2021-05-27T07:21:05.000Z</time>
      </trkpt>
      <trkpt lat="47.29366" lon="-2.37918">
        <ele>-11.800000190735</ele>
        <time>2021-05-27T07:21:06.000Z</time>
      </trkpt>
      <trkpt lat="47.29371" lon="-2.3793">
        <ele>-12.199999809265</ele>
        <time>2021-05-27T07:21:07.000Z</time>
      </trkpt>
      <trkpt lat="47.29375" lon="-2.37941">
        <ele>-12.800000190735</ele>
        <time>2021-05-27T07:21:08.000Z</time>
      </trkpt>
      <trkpt lat="47.29379" lon="-2.37953">
        <ele>-13.199999809265</ele>
        <time>2021-05-27T07:21:09.000Z</time>
      </trkpt>
      <trkpt lat="47.29383" lon="-2.37965">
        <ele>-13.800000190735</ele>
        <time>2021-05-27T07:21:10.000Z</time>
      </trkpt>
      <trkpt lat="47.29391" lon="-2.37988">
        <ele>-13.800000190735</ele>
        <time>2021-05-27T07:21:12.000Z</time>
      </trkpt>
      <trkpt lat="47.29403" lon="-2.38022">
        <ele>-14.199999809265</ele>
        <time>2021-05-27T07:21:15.000Z</time>
      </trkpt>
      <trkpt lat="47.29407" lon="-2.38033">
        <ele>-14.60000038147</ele>
        <time>2021-05-27T07:21:16.000Z</time>
      </trkpt>
      <trkpt lat="47.29411" lon="-2.38045">
        <ele>-15</ele>
        <time>2021-05-27T07:21:17.000Z</time>
      </trkpt>
      <trkpt lat="47.29415" lon="-2.38056">
        <ele>-15.60000038147</ele>
        <time>2021-05-27T07:21:18.000Z</time>
      </trkpt>
      <trkpt lat="47.29418" lon="-2.38068">
        <ele>-16</ele>
        <time>2021-05-27T07:21:19.000Z</time>
      </trkpt>
      <trkpt lat="47.29426" lon="-2.38089">
        <ele>-16</ele>
        <time>2021-05-27T07:21:21.000Z</time>
      </trkpt>
      <trkpt lat="47.29442" lon="-2.38138">
        <ele>-16.39999961853</ele>
        <time>2021-05-27T07:21:26.000Z</time>
      </trkpt>
      <trkpt lat="47.29444" lon="-2.38146">
        <ele>-16.799999237061</ele>
        <time>2021-05-27T07:21:27.000Z</time>
      </trkpt>
      <trkpt lat="47.29447" lon="-2.3815">
        <ele>-17.200000762939</ele>
        <time>2021-05-27T07:21:28.000Z</time>
      </trkpt>
      <trkpt lat="47.29449" lon="-2.38152">
        <ele>-17.60000038147</ele>
        <time>2021-05-27T07:21:29.000Z</time>
      </trkpt>
      <trkpt lat="47.29452" lon="-2.38152">
        <ele>-18.200000762939</ele>
        <time>2021-05-27T07:21:30.000Z</time>
      </trkpt>
      <trkpt lat="47.29467" lon="-2.38141">
        <ele>-18.200000762939</ele>
        <time>2021-05-27T07:21:35.000Z</time>
      </trkpt>
      <trkpt lat="47.2947" lon="-2.38138">
        <ele>-18.200000762939</ele>
        <time>2021-05-27T07:21:36.000Z</time>
      </trkpt>
      <trkpt lat="47.29488" lon="-2.3812">
        <ele>-18.200000762939</ele>
        <time>2021-05-27T07:21:42.000Z</time>
      </trkpt>
      <trkpt lat="47.29495" lon="-2.3812">
        <ele>-18.200000762939</ele>
        <time>2021-05-27T07:21:44.000Z</time>
      </trkpt>
      <trkpt lat="47.29504" lon="-2.38122">
        <ele>-18.200000762939</ele>
        <time>2021-05-27T07:21:46.000Z</time>
      </trkpt>
      <trkpt lat="47.29509" lon="-2.38123">
        <ele>-18.200000762939</ele>
        <time>2021-05-27T07:21:47.000Z</time>
      </trkpt>
      <trkpt lat="47.29526" lon="-2.38124">
        <ele>-17.60000038147</ele>
        <time>2021-05-27T07:21:51.000Z</time>
      </trkpt>
      <trkpt lat="47.2953" lon="-2.38124">
        <ele>-17.200000762939</ele>
        <time>2021-05-27T07:21:52.000Z</time>
      </trkpt>
      <trkpt lat="47.29534" lon="-2.38123">
        <ele>-16.799999237061</ele>
        <time>2021-05-27T07:21:53.000Z</time>
      </trkpt>
      <trkpt lat="47.29538" lon="-2.38123">
        <ele>-16.39999961853</ele>
        <time>2021-05-27T07:21:54.000Z</time>
      </trkpt>
      <trkpt lat="47.29543" lon="-2.38122">
        <ele>-16</ele>
        <time>2021-05-27T07:21:55.000Z</time>
      </trkpt>
      <trkpt lat="47.2956" lon="-2.3812">
        <ele>-16</ele>
        <time>2021-05-27T07:21:59.000Z</time>
      </trkpt>
      <trkpt lat="47.29571" lon="-2.38118">
        <ele>-15.60000038147</ele>
        <time>2021-05-27T07:22:02.000Z</time>
      </trkpt>
      <trkpt lat="47.29575" lon="-2.38116">
        <ele>-15.199999809265</ele>
        <time>2021-05-27T07:22:03.000Z</time>
      </trkpt>
      <trkpt lat="47.29579" lon="-2.38115">
        <ele>-14.800000190735</ele>
        <time>2021-05-27T07:22:04.000Z</time>
      </trkpt>
      <trkpt lat="47.29583" lon="-2.38115">
        <ele>-14.39999961853</ele>
        <time>2021-05-27T07:22:05.000Z</time>
      </trkpt>
      <trkpt lat="47.29586" lon="-2.38114">
        <ele>-14</ele>
        <time>2021-05-27T07:22:06.000Z</time>
      </trkpt>
      <trkpt lat="47.29608" lon="-2.38108">
        <ele>-14</ele>
        <time>2021-05-27T07:22:13.000Z</time>
      </trkpt>
      <trkpt lat="47.29629" lon="-2.381">
        <ele>-13.60000038147</ele>
        <time>2021-05-27T07:22:19.000Z</time>
      </trkpt>
      <trkpt lat="47.29632" lon="-2.38099">
        <ele>-13.199999809265</ele>
        <time>2021-05-27T07:22:20.000Z</time>
      </trkpt>
      <trkpt lat="47.29635" lon="-2.38097">
        <ele>-12.199999809265</ele>
        <time>2021-05-27T07:22:21.000Z</time>
      </trkpt>
      <trkpt lat="47.29637" lon="-2.38096">
        <ele>-11.800000190735</ele>
        <time>2021-05-27T07:22:22.000Z</time>
      </trkpt>
      <trkpt lat="47.29653" lon="-2.38088">
        <ele>-11.800000190735</ele>
        <time>2021-05-27T07:22:28.000Z</time>
      </trkpt>
      <trkpt lat="47.29666" lon="-2.38081">
        <ele>-11.800000190735</ele>
        <time>2021-05-27T07:22:34.000Z</time>
      </trkpt>
      <trkpt lat="47.29667" lon="-2.3808">
        <ele>-11.39999961853</ele>
        <time>2021-05-27T07:22:35.000Z</time>
      </trkpt>
      <trkpt lat="47.29669" lon="-2.38079">
        <ele>-11</ele>
        <time>2021-05-27T07:22:36.000Z</time>
      </trkpt>
      <trkpt lat="47.2967" lon="-2.38078">
        <ele>-10.60000038147</ele>
        <time>2021-05-27T07:22:37.000Z</time>
      </trkpt>
      <trkpt lat="47.29672" lon="-2.38077">
        <ele>-10.199999809265</ele>
        <time>2021-05-27T07:22:38.000Z</time>
      </trkpt>
      <trkpt lat="47.29674" lon="-2.38076">
        <ele>-9.8000001907349</ele>
        <time>2021-05-27T07:22:39.000Z</time>
      </trkpt>
      <trkpt lat="47.29681" lon="-2.38072">
        <ele>-9.8000001907349</ele>
        <time>2021-05-27T07:22:43.000Z</time>
      </trkpt>
      <trkpt lat="47.29687" lon="-2.38064">
        <ele>-9.3999996185303</ele>
        <time>2021-05-27T07:22:47.000Z</time>
      </trkpt>
      <trkpt lat="47.29688" lon="-2.38063">
        <ele>-9</ele>
        <time>2021-05-27T07:22:48.000Z</time>
      </trkpt>
      <trkpt lat="47.2969" lon="-2.3806">
        <ele>-8.6000003814697</ele>
        <time>2021-05-27T07:22:49.000Z</time>
      </trkpt>
      <trkpt lat="47.29691" lon="-2.38059">
        <ele>-8.1999998092651</ele>
        <time>2021-05-27T07:22:50.000Z</time>
      </trkpt>
      <trkpt lat="47.29693" lon="-2.38058">
        <ele>-7.5999999046326</ele>
        <time>2021-05-27T07:22:51.000Z</time>
      </trkpt>
      <trkpt lat="47.29699" lon="-2.38053">
        <ele>-7.1999998092651</ele>
        <time>2021-05-27T07:22:55.000Z</time>
      </trkpt>
      <trkpt lat="47.29702" lon="-2.38051">
        <ele>-6.8000001907349</ele>
        <time>2021-05-27T07:22:56.000Z</time>
      </trkpt>
      <trkpt lat="47.29705" lon="-2.38049">
        <ele>-6.4000000953674</ele>
        <time>2021-05-27T07:22:57.000Z</time>
      </trkpt>
      <trkpt lat="47.29707" lon="-2.38048">
        <ele>-6</ele>
        <time>2021-05-27T07:22:58.000Z</time>
      </trkpt>
      <trkpt lat="47.2971" lon="-2.38046">
        <ele>-5.5999999046326</ele>
        <time>2021-05-27T07:22:59.000Z</time>
      </trkpt>
      <trkpt lat="47.29716" lon="-2.38044">
        <ele>-5</ele>
        <time>2021-05-27T07:23:02.000Z</time>
      </trkpt>
      <trkpt lat="47.29717" lon="-2.38043">
        <ele>-4.5999999046326</ele>
        <time>2021-05-27T07:23:03.000Z</time>
      </trkpt>
      <trkpt lat="47.2972" lon="-2.38041">
        <ele>-4.1999998092651</ele>
        <time>2021-05-27T07:23:04.000Z</time>
      </trkpt>
      <trkpt lat="47.29722" lon="-2.3804">
        <ele>-3.7999999523163</ele>
        <time>2021-05-27T07:23:05.000Z</time>
      </trkpt>
      <trkpt lat="47.29724" lon="-2.38039">
        <ele>-3.4000000953674</ele>
        <time>2021-05-27T07:23:06.000Z</time>
      </trkpt>
      <trkpt lat="47.29728" lon="-2.38035">
        <ele>-2.7999999523163</ele>
        <time>2021-05-27T07:23:09.000Z</time>
      </trkpt>
      <trkpt lat="47.29729" lon="-2.38033">
        <ele>-2</ele>
        <time>2021-05-27T07:23:10.000Z</time>
      </trkpt>
      <trkpt lat="47.2973" lon="-2.3803">
        <ele>-1.6000000238419</ele>
        <time>2021-05-27T07:23:11.000Z</time>
      </trkpt>
      <trkpt lat="47.29731" lon="-2.38027">
        <ele>-1</ele>
        <time>2021-05-27T07:23:12.000Z</time>
      </trkpt>
      <trkpt lat="47.2973" lon="-2.38024">
        <ele>-1</ele>
        <time>2021-05-27T07:23:13.000Z</time>
      </trkpt>
      <trkpt lat="47.2973" lon="-2.38019">
        <ele>-1</ele>
        <time>2021-05-27T07:23:15.000Z</time>
      </trkpt>
      <trkpt lat="47.29729" lon="-2.38017">
        <ele>-0.60000002384186</ele>
        <time>2021-05-27T07:23:16.000Z</time>
      </trkpt>
      <trkpt lat="47.29729" lon="-2.38014">
        <ele>-0.20000000298023</ele>
        <time>2021-05-27T07:23:17.000Z</time>
      </trkpt>
      <trkpt lat="47.29729" lon="-2.38011">
        <ele>0.20000000298023</ele>
        <time>2021-05-27T07:23:18.000Z</time>
      </trkpt>
      <trkpt lat="47.29728" lon="-2.38007">
        <ele>0.80000001192093</ele>
        <time>2021-05-27T07:23:19.000Z</time>
      </trkpt>
      <trkpt lat="47.29728" lon="-2.38004">
        <ele>1.2000000476837</ele>
        <time>2021-05-27T07:23:20.000Z</time>
      </trkpt>
      <trkpt lat="47.29728" lon="-2.38001">
        <ele>1.2000000476837</ele>
        <time>2021-05-27T07:23:21.000Z</time>
      </trkpt>
      <trkpt lat="47.29728" lon="-2.37996">
        <ele>1.6000000238419</ele>
        <time>2021-05-27T07:23:23.000Z</time>
      </trkpt>
      <trkpt lat="47.29728" lon="-2.37994">
        <ele>2.2000000476837</ele>
        <time>2021-05-27T07:23:24.000Z</time>
      </trkpt>
      <trkpt lat="47.29727" lon="-2.37991">
        <ele>2.5999999046326</ele>
        <time>2021-05-27T07:23:25.000Z</time>
      </trkpt>
      <trkpt lat="47.29728" lon="-2.37988">
        <ele>3</ele>
        <time>2021-05-27T07:23:26.000Z</time>
      </trkpt>
      <trkpt lat="47.29729" lon="-2.37985">
        <ele>3.4000000953674</ele>
        <time>2021-05-27T07:23:27.000Z</time>
      </trkpt>
      <trkpt lat="47.29732" lon="-2.37978">
        <ele>3.7999999523163</ele>
        <time>2021-05-27T07:23:30.000Z</time>
      </trkpt>
      <trkpt lat="47.29733" lon="-2.37975">
        <ele>4.1999998092651</ele>
        <time>2021-05-27T07:23:31.000Z</time>
      </trkpt>
      <trkpt lat="47.29734" lon="-2.37973">
        <ele>4.8000001907349</ele>
        <time>2021-05-27T07:23:32.000Z</time>
      </trkpt>
      <trkpt lat="47.29735" lon="-2.37971">
        <ele>5.1999998092651</ele>
        <time>2021-05-27T07:23:33.000Z</time>
      </trkpt>
      <trkpt lat="47.29737" lon="-2.37968">
        <ele>5.5999999046326</ele>
        <time>2021-05-27T07:23:34.000Z</time>
      </trkpt>
      <trkpt lat="47.2974" lon="-2.37961">
        <ele>6</ele>
        <time>2021-05-27T07:23:37.000Z</time>
      </trkpt>
      <trkpt lat="47.2974" lon="-2.37959">
        <ele>6.4000000953674</ele>
        <time>2021-05-27T07:23:38.000Z</time>
      </trkpt>
      <trkpt lat="47.29741" lon="-2.37956">
        <ele>6.8000001907349</ele>
        <time>2021-05-27T07:23:39.000Z</time>
      </trkpt>
      <trkpt lat="47.29742" lon="-2.37954">
        <ele>7.1999998092651</ele>
        <time>2021-05-27T07:23:40.000Z</time>
      </trkpt>
      <trkpt lat="47.29743" lon="-2.37952">
        <ele>7.5999999046326</ele>
        <time>2021-05-27T07:23:41.000Z</time>
      </trkpt>
      <trkpt lat="47.29752" lon="-2.3794">
        <ele>7.5999999046326</ele>
        <time>2021-05-27T07:23:46.000Z</time>
      </trkpt>
      <trkpt lat="47.29753" lon="-2.37938">
        <ele>8</ele>
        <time>2021-05-27T07:23:47.000Z</time>
      </trkpt>
      <trkpt lat="47.29755" lon="-2.37936">
        <ele>8.3999996185303</ele>
        <time>2021-05-27T07:23:48.000Z</time>
      </trkpt>
      <trkpt lat="47.29757" lon="-2.37934">
        <ele>8.8000001907349</ele>
        <time>2021-05-27T07:23:49.000Z</time>
      </trkpt>
      <trkpt lat="47.29759" lon="-2.37932">
        <ele>9.1999998092651</ele>
        <time>2021-05-27T07:23:50.000Z</time>
      </trkpt>
      <trkpt lat="47.29761" lon="-2.3793">
        <ele>9.8000001907349</ele>
        <time>2021-05-27T07:23:51.000Z</time>
      </trkpt>
      <trkpt lat="47.29767" lon="-2.37924">
        <ele>9.8000001907349</ele>
        <time>2021-05-27T07:23:54.000Z</time>
      </trkpt>
      <trkpt lat="47.29783" lon="-2.37914">
        <ele>9.8000001907349</ele>
        <time>2021-05-27T07:24:00.000Z</time>
      </trkpt>
      <trkpt lat="47.29798" lon="-2.37903">
        <ele>9.8000001907349</ele>
        <time>2021-05-27T07:24:07.000Z</time>
      </trkpt>
      <trkpt lat="47.29815" lon="-2.37892">
        <ele>9.8000001907349</ele>
        <time>2021-05-27T07:24:13.000Z</time>
      </trkpt>
      <trkpt lat="47.29836" lon="-2.37874">
        <ele>9.8000001907349</ele>
        <time>2021-05-27T07:24:19.000Z</time>
      </trkpt>
      <trkpt lat="47.2984" lon="-2.37869">
        <ele>9.8000001907349</ele>
        <time>2021-05-27T07:24:20.000Z</time>
      </trkpt>
      <trkpt lat="47.29846" lon="-2.3786">
        <ele>9.8000001907349</ele>
        <time>2021-05-27T07:24:22.000Z</time>
      </trkpt>
      <trkpt lat="47.29852" lon="-2.37849">
        <ele>9.8000001907349</ele>
        <time>2021-05-27T07:24:24.000Z</time>
      </trkpt>
      <trkpt lat="47.29856" lon="-2.37837">
        <ele>9.8000001907349</ele>
        <time>2021-05-27T07:24:26.000Z</time>
      </trkpt>
      <trkpt lat="47.29862" lon="-2.37821">
        <ele>9.8000001907349</ele>
        <time>2021-05-27T07:24:29.000Z</time>
      </trkpt>
      <trkpt lat="47.29867" lon="-2.37803">
        <ele>9.8000001907349</ele>
        <time>2021-05-27T07:24:34.000Z</time>
      </trkpt>
      <trkpt lat="47.29873" lon="-2.37791">
        <ele>9.8000001907349</ele>
        <time>2021-05-27T07:24:40.000Z</time>
      </trkpt>
      <trkpt lat="47.29876" lon="-2.37783">
        <ele>9.8000001907349</ele>
        <time>2021-05-27T07:24:43.000Z</time>
      </trkpt>
      <trkpt lat="47.29876" lon="-2.37778">
        <ele>9.8000001907349</ele>
        <time>2021-05-27T07:24:45.000Z</time>
      </trkpt>
      <trkpt lat="47.29872" lon="-2.37779">
        <ele>9.8000001907349</ele>
        <time>2021-05-27T07:24:49.000Z</time>
      </trkpt>
      <trkpt lat="47.29871" lon="-2.37783">
        <ele>9.8000001907349</ele>
        <time>2021-05-27T07:24:51.000Z</time>
      </trkpt>
      <trkpt lat="47.2987" lon="-2.37792">
        <ele>9.8000001907349</ele>
        <time>2021-05-27T07:24:55.000Z</time>
      </trkpt>
      <trkpt lat="47.29872" lon="-2.37797">
        <ele>9.8000001907349</ele>
        <time>2021-05-27T07:24:58.000Z</time>
      </trkpt>
      <trkpt lat="47.29872" lon="-2.37798">
        <ele>9.8000001907349</ele>
        <time>2021-05-27T07:25:00.000Z</time>
      </trkpt>
      <trkpt lat="47.29872" lon="-2.37803">
        <ele>9.8000001907349</ele>
        <time>2021-05-27T07:25:04.000Z</time>
      </trkpt>
      <trkpt lat="47.29879" lon="-2.37815">
        <ele>9.8000001907349</ele>
        <time>2021-05-27T07:25:08.000Z</time>
      </trkpt>
      <trkpt lat="47.29883" lon="-2.3782">
        <ele>9.8000001907349</ele>
        <time>2021-05-27T07:25:09.000Z</time>
      </trkpt>
      <trkpt lat="47.29893" lon="-2.37835">
        <ele>9.8000001907349</ele>
        <time>2021-05-27T07:25:12.000Z</time>
      </trkpt>
      <trkpt lat="47.29897" lon="-2.37839">
        <ele>9.1999998092651</ele>
        <time>2021-05-27T07:25:13.000Z</time>
      </trkpt>
      <trkpt lat="47.29901" lon="-2.37842">
        <ele>8.1999998092651</ele>
        <time>2021-05-27T07:25:14.000Z</time>
      </trkpt>
      <trkpt lat="47.29904" lon="-2.37845">
        <ele>7.8000001907349</ele>
        <time>2021-05-27T07:25:15.000Z</time>
      </trkpt>
      <trkpt lat="47.29906" lon="-2.37847">
        <ele>7.1999998092651</ele>
        <time>2021-05-27T07:25:16.000Z</time>
      </trkpt>
      <trkpt lat="47.29908" lon="-2.37848">
        <ele>6.5999999046326</ele>
        <time>2021-05-27T07:25:17.000Z</time>
      </trkpt>
      <trkpt lat="47.29907" lon="-2.37848">
        <ele>6</ele>
        <time>2021-05-27T07:25:18.000Z</time>
      </trkpt>
      <trkpt lat="47.2991" lon="-2.37852">
        <ele>4.8000001907349</ele>
        <time>2021-05-27T07:25:32.000Z</time>
      </trkpt>
      <trkpt lat="47.29916" lon="-2.37865">
        <ele>4.8000001907349</ele>
        <time>2021-05-27T07:25:35.000Z</time>
      </trkpt>
      <trkpt lat="47.2992" lon="-2.37869">
        <ele>4.8000001907349</ele>
        <time>2021-05-27T07:25:36.000Z</time>
      </trkpt>
      <trkpt lat="47.29934" lon="-2.37885">
        <ele>4.8000001907349</ele>
        <time>2021-05-27T07:25:39.000Z</time>
      </trkpt>
      <trkpt lat="47.29967" lon="-2.37924">
        <ele>4.8000001907349</ele>
        <time>2021-05-27T07:25:45.000Z</time>
      </trkpt>
      <trkpt lat="47.29973" lon="-2.3793">
        <ele>4.4000000953674</ele>
        <time>2021-05-27T07:25:46.000Z</time>
      </trkpt>
      <trkpt lat="47.29978" lon="-2.37936">
        <ele>4</ele>
        <time>2021-05-27T07:25:47.000Z</time>
      </trkpt>
      <trkpt lat="47.29982" lon="-2.37942">
        <ele>3.5999999046326</ele>
        <time>2021-05-27T07:25:48.000Z</time>
      </trkpt>
      <trkpt lat="47.29985" lon="-2.3795">
        <ele>3.2000000476837</ele>
        <time>2021-05-27T07:25:49.000Z</time>
      </trkpt>
      <trkpt lat="47.29987" lon="-2.37959">
        <ele>2.7999999523163</ele>
        <time>2021-05-27T07:25:50.000Z</time>
      </trkpt>
      <trkpt lat="47.2999" lon="-2.37996">
        <ele>2.7999999523163</ele>
        <time>2021-05-27T07:25:54.000Z</time>
      </trkpt>
      <trkpt lat="47.2999" lon="-2.38006">
        <ele>2.7999999523163</ele>
        <time>2021-05-27T07:25:55.000Z</time>
      </trkpt>
      <trkpt lat="47.29989" lon="-2.38064">
        <ele>2.7999999523163</ele>
        <time>2021-05-27T07:26:01.000Z</time>
      </trkpt>
      <trkpt lat="47.29988" lon="-2.38118">
        <ele>2.7999999523163</ele>
        <time>2021-05-27T07:26:07.000Z</time>
      </trkpt>
      <trkpt lat="47.2999" lon="-2.38167">
        <ele>3.2000000476837</ele>
        <time>2021-05-27T07:26:13.000Z</time>
      </trkpt>
      <trkpt lat="47.2999" lon="-2.38176">
        <ele>3.5999999046326</ele>
        <time>2021-05-27T07:26:14.000Z</time>
      </trkpt>
      <trkpt lat="47.2999" lon="-2.38184">
        <ele>4</ele>
        <time>2021-05-27T07:26:15.000Z</time>
      </trkpt>
      <trkpt lat="47.29991" lon="-2.38192">
        <ele>4.4000000953674</ele>
        <time>2021-05-27T07:26:16.000Z</time>
      </trkpt>
      <trkpt lat="47.29991" lon="-2.38199">
        <ele>4.8000001907349</ele>
        <time>2021-05-27T07:26:17.000Z</time>
      </trkpt>
      <trkpt lat="47.29995" lon="-2.38237">
        <ele>4.8000001907349</ele>
        <time>2021-05-27T07:26:22.000Z</time>
      </trkpt>
      <trkpt lat="47.29996" lon="-2.38282">
        <ele>5.5999999046326</ele>
        <time>2021-05-27T07:26:28.000Z</time>
      </trkpt>
      <trkpt lat="47.29996" lon="-2.3829">
        <ele>6</ele>
        <time>2021-05-27T07:26:29.000Z</time>
      </trkpt>
      <trkpt lat="47.29997" lon="-2.38298">
        <ele>6.4000000953674</ele>
        <time>2021-05-27T07:26:30.000Z</time>
      </trkpt>
      <trkpt lat="47.29997" lon="-2.38306">
        <ele>6.8000001907349</ele>
        <time>2021-05-27T07:26:31.000Z</time>
      </trkpt>
      <trkpt lat="47.29999" lon="-2.38346">
        <ele>6.8000001907349</ele>
        <time>2021-05-27T07:26:36.000Z</time>
      </trkpt>
      <trkpt lat="47.30003" lon="-2.38413">
        <ele>6.8000001907349</ele>
        <time>2021-05-27T07:26:44.000Z</time>
      </trkpt>
      <trkpt lat="47.30009" lon="-2.38464">
        <ele>6.8000001907349</ele>
        <time>2021-05-27T07:26:51.000Z</time>
      </trkpt>
      <trkpt lat="47.30011" lon="-2.38476">
        <ele>6.8000001907349</ele>
        <time>2021-05-27T07:26:53.000Z</time>
      </trkpt>
      <trkpt lat="47.30015" lon="-2.38504">
        <ele>6.8000001907349</ele>
        <time>2021-05-27T07:26:57.000Z</time>
      </trkpt>
      <trkpt lat="47.30019" lon="-2.38551">
        <ele>6.8000001907349</ele>
        <time>2021-05-27T07:27:02.000Z</time>
      </trkpt>
      <trkpt lat="47.30021" lon="-2.3858">
        <ele>6.4000000953674</ele>
        <time>2021-05-27T07:27:05.000Z</time>
      </trkpt>
      <trkpt lat="47.30022" lon="-2.38589">
        <ele>5.8000001907349</ele>
        <time>2021-05-27T07:27:06.000Z</time>
      </trkpt>
      <trkpt lat="47.30023" lon="-2.38597">
        <ele>5.4000000953674</ele>
        <time>2021-05-27T07:27:07.000Z</time>
      </trkpt>
      <trkpt lat="47.30023" lon="-2.38606">
        <ele>5</ele>
        <time>2021-05-27T07:27:08.000Z</time>
      </trkpt>
      <trkpt lat="47.30022" lon="-2.38614">
        <ele>4.4000000953674</ele>
        <time>2021-05-27T07:27:09.000Z</time>
      </trkpt>
      <trkpt lat="47.30021" lon="-2.38624">
        <ele>3.7999999523163</ele>
        <time>2021-05-27T07:27:10.000Z</time>
      </trkpt>
      <trkpt lat="47.30021" lon="-2.38633">
        <ele>3.4000000953674</ele>
        <time>2021-05-27T07:27:11.000Z</time>
      </trkpt>
      <trkpt lat="47.30022" lon="-2.38643">
        <ele>2.7999999523163</ele>
        <time>2021-05-27T07:27:12.000Z</time>
      </trkpt>
      <trkpt lat="47.30023" lon="-2.38652">
        <ele>2.2000000476837</ele>
        <time>2021-05-27T07:27:13.000Z</time>
      </trkpt>
      <trkpt lat="47.30025" lon="-2.38678">
        <ele>1.3999999761581</ele>
        <time>2021-05-27T07:27:16.000Z</time>
      </trkpt>
      <trkpt lat="47.30025" lon="-2.38687">
        <ele>1</ele>
        <time>2021-05-27T07:27:17.000Z</time>
      </trkpt>
      <trkpt lat="47.30024" lon="-2.38697">
        <ele>0.60000002384186</ele>
        <time>2021-05-27T07:27:18.000Z</time>
      </trkpt>
      <trkpt lat="47.30024" lon="-2.38707">
        <ele>0.20000000298023</ele>
        <time>2021-05-27T07:27:19.000Z</time>
      </trkpt>
      <trkpt lat="47.30019" lon="-2.38738">
        <ele>0.20000000298023</ele>
        <time>2021-05-27T07:27:22.000Z</time>
      </trkpt>
      <trkpt lat="47.30018" lon="-2.38749">
        <ele>-0.40000000596046</ele>
        <time>2021-05-27T07:27:23.000Z</time>
      </trkpt>
      <trkpt lat="47.30016" lon="-2.3876">
        <ele>-0.80000001192093</ele>
        <time>2021-05-27T07:27:24.000Z</time>
      </trkpt>
      <trkpt lat="47.30015" lon="-2.38772">
        <ele>-1.2000000476837</ele>
        <time>2021-05-27T07:27:25.000Z</time>
      </trkpt>
      <trkpt lat="47.30013" lon="-2.38784">
        <ele>-1.7999999523163</ele>
        <time>2021-05-27T07:27:26.000Z</time>
      </trkpt>
      <trkpt lat="47.30011" lon="-2.38797">
        <ele>-2.2000000476837</ele>
        <time>2021-05-27T07:27:27.000Z</time>
      </trkpt>
      <trkpt lat="47.3001" lon="-2.3881">
        <ele>-2.5999999046326</ele>
        <time>2021-05-27T07:27:28.000Z</time>
      </trkpt>
      <trkpt lat="47.30008" lon="-2.38823">
        <ele>-3</ele>
        <time>2021-05-27T07:27:29.000Z</time>
      </trkpt>
      <trkpt lat="47.30007" lon="-2.38837">
        <ele>-3.4000000953674</ele>
        <time>2021-05-27T07:27:30.000Z</time>
      </trkpt>
      <trkpt lat="47.30007" lon="-2.38849">
        <ele>-3.7999999523163</ele>
        <time>2021-05-27T07:27:31.000Z</time>
      </trkpt>
      <trkpt lat="47.30006" lon="-2.38862">
        <ele>-4.1999998092651</ele>
        <time>2021-05-27T07:27:32.000Z</time>
      </trkpt>
      <trkpt lat="47.30005" lon="-2.38874">
        <ele>-4.5999999046326</ele>
        <time>2021-05-27T07:27:33.000Z</time>
      </trkpt>
      <trkpt lat="47.30004" lon="-2.38885">
        <ele>-5.1999998092651</ele>
        <time>2021-05-27T07:27:34.000Z</time>
      </trkpt>
      <trkpt lat="47.30004" lon="-2.38896">
        <ele>-5.5999999046326</ele>
        <time>2021-05-27T07:27:35.000Z</time>
      </trkpt>
      <trkpt lat="47.30004" lon="-2.38906">
        <ele>-6</ele>
        <time>2021-05-27T07:27:36.000Z</time>
      </trkpt>
      <trkpt lat="47.30005" lon="-2.38916">
        <ele>-6.5999999046326</ele>
        <time>2021-05-27T07:27:37.000Z</time>
      </trkpt>
      <trkpt lat="47.30004" lon="-2.38926">
        <ele>-7</ele>
        <time>2021-05-27T07:27:38.000Z</time>
      </trkpt>
      <trkpt lat="47.30004" lon="-2.38936">
        <ele>-7.4000000953674</ele>
        <time>2021-05-27T07:27:39.000Z</time>
      </trkpt>
      <trkpt lat="47.30003" lon="-2.38947">
        <ele>-7.8000001907349</ele>
        <time>2021-05-27T07:27:40.000Z</time>
      </trkpt>
      <trkpt lat="47.30003" lon="-2.38955">
        <ele>-8.8000001907349</ele>
        <time>2021-05-27T07:27:41.000Z</time>
      </trkpt>
      <trkpt lat="47.30003" lon="-2.38964">
        <ele>-9.3999996185303</ele>
        <time>2021-05-27T07:27:42.000Z</time>
      </trkpt>
      <trkpt lat="47.30005" lon="-2.3897">
        <ele>-10</ele>
        <time>2021-05-27T07:27:43.000Z</time>
      </trkpt>
      <trkpt lat="47.30008" lon="-2.38973">
        <ele>-10.39999961853</ele>
        <time>2021-05-27T07:27:44.000Z</time>
      </trkpt>
      <trkpt lat="47.30015" lon="-2.38974">
        <ele>-11</ele>
        <time>2021-05-27T07:27:45.000Z</time>
      </trkpt>
      <trkpt lat="47.30022" lon="-2.38974">
        <ele>-11</ele>
        <time>2021-05-27T07:27:46.000Z</time>
      </trkpt>
      <trkpt lat="47.30039" lon="-2.38965">
        <ele>-11</ele>
        <time>2021-05-27T07:27:49.000Z</time>
      </trkpt>
      <trkpt lat="47.30049" lon="-2.38956">
        <ele>-11</ele>
        <time>2021-05-27T07:27:51.000Z</time>
      </trkpt>
      <trkpt lat="47.30068" lon="-2.38938">
        <ele>-11</ele>
        <time>2021-05-27T07:27:55.000Z</time>
      </trkpt>
      <trkpt lat="47.30076" lon="-2.38931">
        <ele>-11</ele>
        <time>2021-05-27T07:27:57.000Z</time>
      </trkpt>
      <trkpt lat="47.30087" lon="-2.38922">
        <ele>-11</ele>
        <time>2021-05-27T07:28:00.000Z</time>
      </trkpt>
      <trkpt lat="47.30102" lon="-2.3891">
        <ele>-10.60000038147</ele>
        <time>2021-05-27T07:28:04.000Z</time>
      </trkpt>
      <trkpt lat="47.30105" lon="-2.38907">
        <ele>-9.8000001907349</ele>
        <time>2021-05-27T07:28:05.000Z</time>
      </trkpt>
      <trkpt lat="47.30109" lon="-2.38904">
        <ele>-9.3999996185303</ele>
        <time>2021-05-27T07:28:06.000Z</time>
      </trkpt>
      <trkpt lat="47.30112" lon="-2.389">
        <ele>-8.8000001907349</ele>
        <time>2021-05-27T07:28:07.000Z</time>
      </trkpt>
      <trkpt lat="47.30115" lon="-2.38895">
        <ele>-8.8000001907349</ele>
        <time>2021-05-27T07:28:08.000Z</time>
      </trkpt>
      <trkpt lat="47.30125" lon="-2.3888">
        <ele>-8.8000001907349</ele>
        <time>2021-05-27T07:28:11.000Z</time>
      </trkpt>
      <trkpt lat="47.30128" lon="-2.38875">
        <ele>-8.3999996185303</ele>
        <time>2021-05-27T07:28:12.000Z</time>
      </trkpt>
      <trkpt lat="47.30131" lon="-2.3887">
        <ele>-8</ele>
        <time>2021-05-27T07:28:13.000Z</time>
      </trkpt>
      <trkpt lat="47.30134" lon="-2.38864">
        <ele>-7.5999999046326</ele>
        <time>2021-05-27T07:28:14.000Z</time>
      </trkpt>
      <trkpt lat="47.30137" lon="-2.38859">
        <ele>-7.1999998092651</ele>
        <time>2021-05-27T07:28:15.000Z</time>
      </trkpt>
      <trkpt lat="47.3014" lon="-2.38853">
        <ele>-6.8000001907349</ele>
        <time>2021-05-27T07:28:16.000Z</time>
      </trkpt>
      <trkpt lat="47.30146" lon="-2.38844">
        <ele>-6.8000001907349</ele>
        <time>2021-05-27T07:28:18.000Z</time>
      </trkpt>
      <trkpt lat="47.30158" lon="-2.38824">
        <ele>-6.4000000953674</ele>
        <time>2021-05-27T07:28:22.000Z</time>
      </trkpt>
      <trkpt lat="47.30161" lon="-2.3882">
        <ele>-6</ele>
        <time>2021-05-27T07:28:23.000Z</time>
      </trkpt>
      <trkpt lat="47.30164" lon="-2.38816">
        <ele>-5.5999999046326</ele>
        <time>2021-05-27T07:28:24.000Z</time>
      </trkpt>
      <trkpt lat="47.30166" lon="-2.38812">
        <ele>-5.1999998092651</ele>
        <time>2021-05-27T07:28:25.000Z</time>
      </trkpt>
      <trkpt lat="47.3017" lon="-2.38809">
        <ele>-4.8000001907349</ele>
        <time>2021-05-27T07:28:26.000Z</time>
      </trkpt>
      <trkpt lat="47.30181" lon="-2.38794">
        <ele>-4.4000000953674</ele>
        <time>2021-05-27T07:28:30.000Z</time>
      </trkpt>
      <trkpt lat="47.30184" lon="-2.38789">
        <ele>-3.7999999523163</ele>
        <time>2021-05-27T07:28:31.000Z</time>
      </trkpt>
      <trkpt lat="47.30186" lon="-2.38786">
        <ele>-3.4000000953674</ele>
        <time>2021-05-27T07:28:32.000Z</time>
      </trkpt>
      <trkpt lat="47.30189" lon="-2.38781">
        <ele>-3</ele>
        <time>2021-05-27T07:28:33.000Z</time>
      </trkpt>
      <trkpt lat="47.30191" lon="-2.38777">
        <ele>-2.5999999046326</ele>
        <time>2021-05-27T07:28:34.000Z</time>
      </trkpt>
      <trkpt lat="47.30204" lon="-2.38768">
        <ele>-2</ele>
        <time>2021-05-27T07:28:38.000Z</time>
      </trkpt>
      <trkpt lat="47.30208" lon="-2.38768">
        <ele>-1.6000000238419</ele>
        <time>2021-05-27T07:28:39.000Z</time>
      </trkpt>
      <trkpt lat="47.30212" lon="-2.38772">
        <ele>-1.2000000476837</ele>
        <time>2021-05-27T07:28:40.000Z</time>
      </trkpt>
      <trkpt lat="47.30216" lon="-2.38775">
        <ele>-0.80000001192093</ele>
        <time>2021-05-27T07:28:41.000Z</time>
      </trkpt>
      <trkpt lat="47.30219" lon="-2.38779">
        <ele>-0.20000000298023</ele>
        <time>2021-05-27T07:28:42.000Z</time>
      </trkpt>
      <trkpt lat="47.30222" lon="-2.38782">
        <ele>0.20000000298023</ele>
        <time>2021-05-27T07:28:43.000Z</time>
      </trkpt>
      <trkpt lat="47.30226" lon="-2.38785">
        <ele>0.60000002384186</ele>
        <time>2021-05-27T07:28:44.000Z</time>
      </trkpt>
      <trkpt lat="47.3023" lon="-2.38787">
        <ele>1</ele>
        <time>2021-05-27T07:28:45.000Z</time>
      </trkpt>
      <trkpt lat="47.30233" lon="-2.3879">
        <ele>1.6000000238419</ele>
        <time>2021-05-27T07:28:46.000Z</time>
      </trkpt>
      <trkpt lat="47.30236" lon="-2.38793">
        <ele>2</ele>
        <time>2021-05-27T07:28:47.000Z</time>
      </trkpt>
      <trkpt lat="47.30242" lon="-2.38801">
        <ele>2.4000000953674</ele>
        <time>2021-05-27T07:28:49.000Z</time>
      </trkpt>
      <trkpt lat="47.30245" lon="-2.38804">
        <ele>2.7999999523163</ele>
        <time>2021-05-27T07:28:50.000Z</time>
      </trkpt>
      <trkpt lat="47.30248" lon="-2.38808">
        <ele>3.2000000476837</ele>
        <time>2021-05-27T07:28:51.000Z</time>
      </trkpt>
      <trkpt lat="47.3025" lon="-2.38812">
        <ele>3.5999999046326</ele>
        <time>2021-05-27T07:28:52.000Z</time>
      </trkpt>
      <trkpt lat="47.30252" lon="-2.38816">
        <ele>4.1999998092651</ele>
        <time>2021-05-27T07:28:53.000Z</time>
      </trkpt>
      <trkpt lat="47.30255" lon="-2.3882">
        <ele>4.1999998092651</ele>
        <time>2021-05-27T07:28:54.000Z</time>
      </trkpt>
      <trkpt lat="47.30257" lon="-2.38825">
        <ele>5</ele>
        <time>2021-05-27T07:28:55.000Z</time>
      </trkpt>
      <trkpt lat="47.3026" lon="-2.38829">
        <ele>5.4000000953674</ele>
        <time>2021-05-27T07:28:56.000Z</time>
      </trkpt>
      <trkpt lat="47.30262" lon="-2.38832">
        <ele>5.8000001907349</ele>
        <time>2021-05-27T07:28:57.000Z</time>
      </trkpt>
      <trkpt lat="47.30264" lon="-2.38837">
        <ele>6.1999998092651</ele>
        <time>2021-05-27T07:28:58.000Z</time>
      </trkpt>
      <trkpt lat="47.30275" lon="-2.3886">
        <ele>6.1999998092651</ele>
        <time>2021-05-27T07:29:03.000Z</time>
      </trkpt>
      <trkpt lat="47.30288" lon="-2.38898">
        <ele>6.5999999046326</ele>
        <time>2021-05-27T07:29:10.000Z</time>
      </trkpt>
      <trkpt lat="47.3029" lon="-2.38903">
        <ele>7</ele>
        <time>2021-05-27T07:29:11.000Z</time>
      </trkpt>
      <trkpt lat="47.30292" lon="-2.38908">
        <ele>7.4000000953674</ele>
        <time>2021-05-27T07:29:12.000Z</time>
      </trkpt>
      <trkpt lat="47.30294" lon="-2.38913">
        <ele>7.8000001907349</ele>
        <time>2021-05-27T07:29:13.000Z</time>
      </trkpt>
      <trkpt lat="47.30296" lon="-2.38919">
        <ele>8.1999998092651</ele>
        <time>2021-05-27T07:29:14.000Z</time>
      </trkpt>
      <trkpt lat="47.30301" lon="-2.38929">
        <ele>8.1999998092651</ele>
        <time>2021-05-27T07:29:16.000Z</time>
      </trkpt>
      <trkpt lat="47.30314" lon="-2.38954">
        <ele>8.1999998092651</ele>
        <time>2021-05-27T07:29:21.000Z</time>
      </trkpt>
      <trkpt lat="47.3032" lon="-2.38963">
        <ele>8.1999998092651</ele>
        <time>2021-05-27T07:29:23.000Z</time>
      </trkpt>
      <trkpt lat="47.30339" lon="-2.38995">
        <ele>8.1999998092651</ele>
        <time>2021-05-27T07:29:30.000Z</time>
      </trkpt>
      <trkpt lat="47.30343" lon="-2.39006">
        <ele>8.6000003814697</ele>
        <time>2021-05-27T07:29:32.000Z</time>
      </trkpt>
      <trkpt lat="47.30345" lon="-2.39012">
        <ele>9</ele>
        <time>2021-05-27T07:29:33.000Z</time>
      </trkpt>
      <trkpt lat="47.30346" lon="-2.39017">
        <ele>9.3999996185303</ele>
        <time>2021-05-27T07:29:34.000Z</time>
      </trkpt>
      <trkpt lat="47.30348" lon="-2.39023">
        <ele>9.8000001907349</ele>
        <time>2021-05-27T07:29:35.000Z</time>
      </trkpt>
      <trkpt lat="47.3035" lon="-2.39029">
        <ele>10.199999809265</ele>
        <time>2021-05-27T07:29:36.000Z</time>
      </trkpt>
      <trkpt lat="47.30351" lon="-2.39035">
        <ele>10.199999809265</ele>
        <time>2021-05-27T07:29:37.000Z</time>
      </trkpt>
      <trkpt lat="47.30361" lon="-2.39081">
        <ele>10.199999809265</ele>
        <time>2021-05-27T07:29:44.000Z</time>
      </trkpt>
      <trkpt lat="47.30371" lon="-2.39122">
        <ele>10.199999809265</ele>
        <time>2021-05-27T07:29:49.000Z</time>
      </trkpt>
      <trkpt lat="47.30385" lon="-2.39155">
        <ele>10.199999809265</ele>
        <time>2021-05-27T07:29:53.000Z</time>
      </trkpt>
      <trkpt lat="47.3039" lon="-2.39162">
        <ele>10.199999809265</ele>
        <time>2021-05-27T07:29:54.000Z</time>
      </trkpt>
      <trkpt lat="47.30409" lon="-2.39172">
        <ele>10.199999809265</ele>
        <time>2021-05-27T07:29:57.000Z</time>
      </trkpt>
      <trkpt lat="47.30433" lon="-2.39168">
        <ele>10.199999809265</ele>
        <time>2021-05-27T07:30:01.000Z</time>
      </trkpt>
      <trkpt lat="47.30452" lon="-2.3915">
        <ele>10.199999809265</ele>
        <time>2021-05-27T07:30:05.000Z</time>
      </trkpt>
      <trkpt lat="47.30456" lon="-2.39145">
        <ele>10.199999809265</ele>
        <time>2021-05-27T07:30:06.000Z</time>
      </trkpt>
      <trkpt lat="47.30481" lon="-2.39116">
        <ele>10.60000038147</ele>
        <time>2021-05-27T07:30:12.000Z</time>
      </trkpt>
      <trkpt lat="47.30486" lon="-2.39112">
        <ele>11.199999809265</ele>
        <time>2021-05-27T07:30:13.000Z</time>
      </trkpt>
      <trkpt lat="47.30491" lon="-2.39107">
        <ele>11.60000038147</ele>
        <time>2021-05-27T07:30:14.000Z</time>
      </trkpt>
      <trkpt lat="47.30495" lon="-2.39103">
        <ele>12</ele>
        <time>2021-05-27T07:30:15.000Z</time>
      </trkpt>
      <trkpt lat="47.30499" lon="-2.39098">
        <ele>12.39999961853</ele>
        <time>2021-05-27T07:30:16.000Z</time>
      </trkpt>
      <trkpt lat="47.30507" lon="-2.39089">
        <ele>12.39999961853</ele>
        <time>2021-05-27T07:30:18.000Z</time>
      </trkpt>
      <trkpt lat="47.30535" lon="-2.3906">
        <ele>12.39999961853</ele>
        <time>2021-05-27T07:30:25.000Z</time>
      </trkpt>
      <trkpt lat="47.30547" lon="-2.39047">
        <ele>12.800000190735</ele>
        <time>2021-05-27T07:30:28.000Z</time>
      </trkpt>
      <trkpt lat="47.30551" lon="-2.39042">
        <ele>13.199999809265</ele>
        <time>2021-05-27T07:30:29.000Z</time>
      </trkpt>
      <trkpt lat="47.30554" lon="-2.39038">
        <ele>13.60000038147</ele>
        <time>2021-05-27T07:30:30.000Z</time>
      </trkpt>
      <trkpt lat="47.30558" lon="-2.39033">
        <ele>14.199999809265</ele>
        <time>2021-05-27T07:30:31.000Z</time>
      </trkpt>
      <trkpt lat="47.30562" lon="-2.39029">
        <ele>14.60000038147</ele>
        <time>2021-05-27T07:30:32.000Z</time>
      </trkpt>
      <trkpt lat="47.30594" lon="-2.38988">
        <ele>14.60000038147</ele>
        <time>2021-05-27T07:30:40.000Z</time>
      </trkpt>
      <trkpt lat="47.30616" lon="-2.38963">
        <ele>15</ele>
        <time>2021-05-27T07:30:46.000Z</time>
      </trkpt>
      <trkpt lat="47.30621" lon="-2.38959">
        <ele>15.39999961853</ele>
        <time>2021-05-27T07:30:47.000Z</time>
      </trkpt>
      <trkpt lat="47.30625" lon="-2.38956">
        <ele>15.800000190735</ele>
        <time>2021-05-27T07:30:48.000Z</time>
      </trkpt>
      <trkpt lat="47.30629" lon="-2.38951">
        <ele>16.200000762939</ele>
        <time>2021-05-27T07:30:49.000Z</time>
      </trkpt>
      <trkpt lat="47.30634" lon="-2.38947">
        <ele>16.60000038147</ele>
        <time>2021-05-27T07:30:50.000Z</time>
      </trkpt>
      <trkpt lat="47.30653" lon="-2.3893">
        <ele>16.60000038147</ele>
        <time>2021-05-27T07:30:55.000Z</time>
      </trkpt>
      <trkpt lat="47.30673" lon="-2.3891">
        <ele>16.60000038147</ele>
        <time>2021-05-27T07:31:02.000Z</time>
      </trkpt>
      <trkpt lat="47.30684" lon="-2.38904">
        <ele>16.60000038147</ele>
        <time>2021-05-27T07:31:07.000Z</time>
      </trkpt>
      <trkpt lat="47.30689" lon="-2.38902">
        <ele>16.60000038147</ele>
        <time>2021-05-27T07:31:11.000Z</time>
      </trkpt>
      <trkpt lat="47.3069" lon="-2.38902">
        <ele>16.60000038147</ele>
        <time>2021-05-27T07:31:12.000Z</time>
      </trkpt>
      <trkpt lat="47.30691" lon="-2.38906">
        <ele>16.60000038147</ele>
        <time>2021-05-27T07:31:41.000Z</time>
      </trkpt>
      <trkpt lat="47.30695" lon="-2.38913">
        <ele>16.60000038147</ele>
        <time>2021-05-27T07:31:43.000Z</time>
      </trkpt>
      <trkpt lat="47.30698" lon="-2.38933">
        <ele>16.60000038147</ele>
        <time>2021-05-27T07:31:47.000Z</time>
      </trkpt>
      <trkpt lat="47.30697" lon="-2.3894">
        <ele>16.60000038147</ele>
        <time>2021-05-27T07:31:48.000Z</time>
      </trkpt>
      <trkpt lat="47.30697" lon="-2.38947">
        <ele>16.60000038147</ele>
        <time>2021-05-27T07:31:49.000Z</time>
      </trkpt>
      <trkpt lat="47.30704" lon="-2.38959">
        <ele>16.60000038147</ele>
        <time>2021-05-27T07:31:51.000Z</time>
      </trkpt>
      <trkpt lat="47.30714" lon="-2.38958">
        <ele>16.60000038147</ele>
        <time>2021-05-27T07:31:53.000Z</time>
      </trkpt>
      <trkpt lat="47.30724" lon="-2.3895">
        <ele>16.60000038147</ele>
        <time>2021-05-27T07:31:55.000Z</time>
      </trkpt>
      <trkpt lat="47.30729" lon="-2.38949">
        <ele>16.60000038147</ele>
        <time>2021-05-27T07:31:56.000Z</time>
      </trkpt>
      <trkpt lat="47.30734" lon="-2.38948">
        <ele>16.60000038147</ele>
        <time>2021-05-27T07:31:57.000Z</time>
      </trkpt>
      <trkpt lat="47.30749" lon="-2.38952">
        <ele>16.60000038147</ele>
        <time>2021-05-27T07:32:00.000Z</time>
      </trkpt>
      <trkpt lat="47.30754" lon="-2.38951">
        <ele>16.60000038147</ele>
        <time>2021-05-27T07:32:01.000Z</time>
      </trkpt>
      <trkpt lat="47.30778" lon="-2.38936">
        <ele>16.60000038147</ele>
        <time>2021-05-27T07:32:05.000Z</time>
      </trkpt>
      <trkpt lat="47.3079" lon="-2.38927">
        <ele>16.200000762939</ele>
        <time>2021-05-27T07:32:07.000Z</time>
      </trkpt>
      <trkpt lat="47.30796" lon="-2.38923">
        <ele>15.800000190735</ele>
        <time>2021-05-27T07:32:08.000Z</time>
      </trkpt>
      <trkpt lat="47.30802" lon="-2.38918">
        <ele>15.39999961853</ele>
        <time>2021-05-27T07:32:09.000Z</time>
      </trkpt>
      <trkpt lat="47.30807" lon="-2.38913">
        <ele>14.800000190735</ele>
        <time>2021-05-27T07:32:10.000Z</time>
      </trkpt>
      <trkpt lat="47.30813" lon="-2.38908">
        <ele>14.39999961853</ele>
        <time>2021-05-27T07:32:11.000Z</time>
      </trkpt>
      <trkpt lat="47.30829" lon="-2.38896">
        <ele>14.39999961853</ele>
        <time>2021-05-27T07:32:14.000Z</time>
      </trkpt>
      <trkpt lat="47.30852" lon="-2.38879">
        <ele>14.39999961853</ele>
        <time>2021-05-27T07:32:20.000Z</time>
      </trkpt>
      <trkpt lat="47.30862" lon="-2.3887">
        <ele>14.39999961853</ele>
        <time>2021-05-27T07:32:23.000Z</time>
      </trkpt>
      <trkpt lat="47.30869" lon="-2.38854">
        <ele>14.800000190735</ele>
        <time>2021-05-27T07:32:26.000Z</time>
      </trkpt>
      <trkpt lat="47.30871" lon="-2.38849">
        <ele>15.199999809265</ele>
        <time>2021-05-27T07:32:27.000Z</time>
      </trkpt>
      <trkpt lat="47.30873" lon="-2.38844">
        <ele>15.60000038147</ele>
        <time>2021-05-27T07:32:28.000Z</time>
      </trkpt>
      <trkpt lat="47.30876" lon="-2.3884">
        <ele>16.200000762939</ele>
        <time>2021-05-27T07:32:29.000Z</time>
      </trkpt>
      <trkpt lat="47.3088" lon="-2.38837">
        <ele>16.60000038147</ele>
        <time>2021-05-27T07:32:30.000Z</time>
      </trkpt>
      <trkpt lat="47.30887" lon="-2.38836">
        <ele>16.60000038147</ele>
        <time>2021-05-27T07:32:32.000Z</time>
      </trkpt>
      <trkpt lat="47.30899" lon="-2.38846">
        <ele>16.60000038147</ele>
        <time>2021-05-27T07:32:35.000Z</time>
      </trkpt>
      <trkpt lat="47.30906" lon="-2.38871">
        <ele>16.60000038147</ele>
        <time>2021-05-27T07:32:39.000Z</time>
      </trkpt>
      <trkpt lat="47.3092" lon="-2.38894">
        <ele>16.60000038147</ele>
        <time>2021-05-27T07:32:43.000Z</time>
      </trkpt>
      <trkpt lat="47.30924" lon="-2.38899">
        <ele>16.60000038147</ele>
        <time>2021-05-27T07:32:44.000Z</time>
      </trkpt>
      <trkpt lat="47.30927" lon="-2.38905">
        <ele>16.60000038147</ele>
        <time>2021-05-27T07:32:45.000Z</time>
      </trkpt>
      <trkpt lat="47.30929" lon="-2.38927">
        <ele>16.60000038147</ele>
        <time>2021-05-27T07:32:48.000Z</time>
      </trkpt>
      <trkpt lat="47.3092" lon="-2.38951">
        <ele>16.60000038147</ele>
        <time>2021-05-27T07:32:52.000Z</time>
      </trkpt>
      <trkpt lat="47.30906" lon="-2.38982">
        <ele>16.60000038147</ele>
        <time>2021-05-27T07:32:57.000Z</time>
      </trkpt>
      <trkpt lat="47.30904" lon="-2.38997">
        <ele>16.60000038147</ele>
        <time>2021-05-27T07:32:59.000Z</time>
      </trkpt>
      <trkpt lat="47.309" lon="-2.3905">
        <ele>16.60000038147</ele>
        <time>2021-05-27T07:33:06.000Z</time>
      </trkpt>
      <trkpt lat="47.30901" lon="-2.39083">
        <ele>16.60000038147</ele>
        <time>2021-05-27T07:33:10.000Z</time>
      </trkpt>
      <trkpt lat="47.30904" lon="-2.39099">
        <ele>16.60000038147</ele>
        <time>2021-05-27T07:33:12.000Z</time>
      </trkpt>
      <trkpt lat="47.30909" lon="-2.39114">
        <ele>16.60000038147</ele>
        <time>2021-05-27T07:33:14.000Z</time>
      </trkpt>
      <trkpt lat="47.30917" lon="-2.39139">
        <ele>16.60000038147</ele>
        <time>2021-05-27T07:33:17.000Z</time>
      </trkpt>
      <trkpt lat="47.3093" lon="-2.39173">
        <ele>17</ele>
        <time>2021-05-27T07:33:21.000Z</time>
      </trkpt>
      <trkpt lat="47.30933" lon="-2.3918">
        <ele>17.39999961853</ele>
        <time>2021-05-27T07:33:22.000Z</time>
      </trkpt>
      <trkpt lat="47.30937" lon="-2.39188">
        <ele>17.799999237061</ele>
        <time>2021-05-27T07:33:23.000Z</time>
      </trkpt>
      <trkpt lat="47.3094" lon="-2.39196">
        <ele>18.200000762939</ele>
        <time>2021-05-27T07:33:24.000Z</time>
      </trkpt>
      <trkpt lat="47.30944" lon="-2.39204">
        <ele>18.60000038147</ele>
        <time>2021-05-27T07:33:25.000Z</time>
      </trkpt>
      <trkpt lat="47.30966" lon="-2.39254">
        <ele>18.60000038147</ele>
        <time>2021-05-27T07:33:31.000Z</time>
      </trkpt>
      <trkpt lat="47.30993" lon="-2.39322">
        <ele>18.60000038147</ele>
        <time>2021-05-27T07:33:39.000Z</time>
      </trkpt>
      <trkpt lat="47.31019" lon="-2.39401">
        <ele>18.60000038147</ele>
        <time>2021-05-27T07:33:48.000Z</time>
      </trkpt>
      <trkpt lat="47.31026" lon="-2.39419">
        <ele>18.60000038147</ele>
        <time>2021-05-27T07:33:50.000Z</time>
      </trkpt>
      <trkpt lat="47.31045" lon="-2.39479">
        <ele>18</ele>
        <time>2021-05-27T07:33:56.000Z</time>
      </trkpt>
      <trkpt lat="47.31048" lon="-2.39489">
        <ele>17.60000038147</ele>
        <time>2021-05-27T07:33:57.000Z</time>
      </trkpt>
      <trkpt lat="47.31051" lon="-2.39498">
        <ele>17.200000762939</ele>
        <time>2021-05-27T07:33:58.000Z</time>
      </trkpt>
      <trkpt lat="47.31054" lon="-2.39508">
        <ele>16.799999237061</ele>
        <time>2021-05-27T07:33:59.000Z</time>
      </trkpt>
      <trkpt lat="47.31057" lon="-2.39516">
        <ele>16.39999961853</ele>
        <time>2021-05-27T07:34:00.000Z</time>
      </trkpt>
      <trkpt lat="47.31065" lon="-2.39541">
        <ele>16.39999961853</ele>
        <time>2021-05-27T07:34:03.000Z</time>
      </trkpt>
      <trkpt lat="47.31087" lon="-2.39601">
        <ele>16.799999237061</ele>
        <time>2021-05-27T07:34:11.000Z</time>
      </trkpt>
      <trkpt lat="47.31089" lon="-2.39608">
        <ele>17.200000762939</ele>
        <time>2021-05-27T07:34:12.000Z</time>
      </trkpt>
      <trkpt lat="47.31092" lon="-2.39616">
        <ele>17.60000038147</ele>
        <time>2021-05-27T07:34:13.000Z</time>
      </trkpt>
      <trkpt lat="47.31095" lon="-2.39624">
        <ele>18</ele>
        <time>2021-05-27T07:34:14.000Z</time>
      </trkpt>
      <trkpt lat="47.31097" lon="-2.39631">
        <ele>18.39999961853</ele>
        <time>2021-05-27T07:34:15.000Z</time>
      </trkpt>
      <trkpt lat="47.31119" lon="-2.39693">
        <ele>18.39999961853</ele>
        <time>2021-05-27T07:34:23.000Z</time>
      </trkpt>
      <trkpt lat="47.31141" lon="-2.39762">
        <ele>18.39999961853</ele>
        <time>2021-05-27T07:34:31.000Z</time>
      </trkpt>
      <trkpt lat="47.31153" lon="-2.39798">
        <ele>18</ele>
        <time>2021-05-27T07:34:35.000Z</time>
      </trkpt>
      <trkpt lat="47.31157" lon="-2.39806">
        <ele>17.39999961853</ele>
        <time>2021-05-27T07:34:36.000Z</time>
      </trkpt>
      <trkpt lat="47.3116" lon="-2.39815">
        <ele>17</ele>
        <time>2021-05-27T07:34:37.000Z</time>
      </trkpt>
      <trkpt lat="47.31164" lon="-2.39822">
        <ele>16.60000038147</ele>
        <time>2021-05-27T07:34:38.000Z</time>
      </trkpt>
      <trkpt lat="47.31168" lon="-2.3983">
        <ele>16.200000762939</ele>
        <time>2021-05-27T07:34:39.000Z</time>
      </trkpt>
      <trkpt lat="47.31176" lon="-2.39846">
        <ele>16.200000762939</ele>
        <time>2021-05-27T07:34:41.000Z</time>
      </trkpt>
      <trkpt lat="47.31178" lon="-2.39855">
        <ele>16.200000762939</ele>
        <time>2021-05-27T07:34:42.000Z</time>
      </trkpt>
      <trkpt lat="47.31186" lon="-2.39882">
        <ele>16.200000762939</ele>
        <time>2021-05-27T07:34:46.000Z</time>
      </trkpt>
      <trkpt lat="47.31191" lon="-2.39901">
        <ele>16.200000762939</ele>
        <time>2021-05-27T07:34:50.000Z</time>
      </trkpt>
      <trkpt lat="47.31193" lon="-2.39906">
        <ele>15.800000190735</ele>
        <time>2021-05-27T07:34:51.000Z</time>
      </trkpt>
      <trkpt lat="47.31195" lon="-2.3991">
        <ele>15.39999961853</ele>
        <time>2021-05-27T07:34:52.000Z</time>
      </trkpt>
      <trkpt lat="47.31197" lon="-2.39914">
        <ele>14.800000190735</ele>
        <time>2021-05-27T07:34:53.000Z</time>
      </trkpt>
      <trkpt lat="47.31199" lon="-2.39919">
        <ele>14.39999961853</ele>
        <time>2021-05-27T07:34:54.000Z</time>
      </trkpt>
      <trkpt lat="47.31201" lon="-2.39923">
        <ele>14</ele>
        <time>2021-05-27T07:34:55.000Z</time>
      </trkpt>
      <trkpt lat="47.31203" lon="-2.39927">
        <ele>14</ele>
        <time>2021-05-27T07:34:56.000Z</time>
      </trkpt>
      <trkpt lat="47.31213" lon="-2.39949">
        <ele>13.60000038147</ele>
        <time>2021-05-27T07:35:01.000Z</time>
      </trkpt>
      <trkpt lat="47.31215" lon="-2.39953">
        <ele>13.199999809265</ele>
        <time>2021-05-27T07:35:02.000Z</time>
      </trkpt>
      <trkpt lat="47.31216" lon="-2.39957">
        <ele>12.39999961853</ele>
        <time>2021-05-27T07:35:03.000Z</time>
      </trkpt>
      <trkpt lat="47.31218" lon="-2.39962">
        <ele>12</ele>
        <time>2021-05-27T07:35:04.000Z</time>
      </trkpt>
      <trkpt lat="47.31228" lon="-2.3999">
        <ele>11.60000038147</ele>
        <time>2021-05-27T07:35:09.000Z</time>
      </trkpt>
      <trkpt lat="47.31229" lon="-2.39997">
        <ele>11.199999809265</ele>
        <time>2021-05-27T07:35:10.000Z</time>
      </trkpt>
      <trkpt lat="47.3123" lon="-2.40004">
        <ele>10.800000190735</ele>
        <time>2021-05-27T07:35:11.000Z</time>
      </trkpt>
      <trkpt lat="47.31232" lon="-2.4001">
        <ele>10.39999961853</ele>
        <time>2021-05-27T07:35:12.000Z</time>
      </trkpt>
      <trkpt lat="47.31234" lon="-2.40017">
        <ele>10</ele>
        <time>2021-05-27T07:35:13.000Z</time>
      </trkpt>
      <trkpt lat="47.31235" lon="-2.40023">
        <ele>10</ele>
        <time>2021-05-27T07:35:14.000Z</time>
      </trkpt>
      <trkpt lat="47.3124" lon="-2.40037">
        <ele>10</ele>
        <time>2021-05-27T07:35:17.000Z</time>
      </trkpt>
      <trkpt lat="47.31243" lon="-2.40038">
        <ele>10</ele>
        <time>2021-05-27T07:35:19.000Z</time>
      </trkpt>
      <trkpt lat="47.31244" lon="-2.40039">
        <ele>10</ele>
        <time>2021-05-27T07:35:21.000Z</time>
      </trkpt>
      <trkpt lat="47.31247" lon="-2.40046">
        <ele>10</ele>
        <time>2021-05-27T07:35:27.000Z</time>
      </trkpt>
      <trkpt lat="47.31253" lon="-2.40049">
        <ele>10</ele>
        <time>2021-05-27T07:35:29.000Z</time>
      </trkpt>
      <trkpt lat="47.31278" lon="-2.40056">
        <ele>10</ele>
        <time>2021-05-27T07:35:35.000Z</time>
      </trkpt>
      <trkpt lat="47.31306" lon="-2.4007">
        <ele>10</ele>
        <time>2021-05-27T07:35:42.000Z</time>
      </trkpt>
      <trkpt lat="47.31329" lon="-2.40078">
        <ele>10</ele>
        <time>2021-05-27T07:35:47.000Z</time>
      </trkpt>
      <trkpt lat="47.31348" lon="-2.4009">
        <ele>10</ele>
        <time>2021-05-27T07:35:52.000Z</time>
      </trkpt>
      <trkpt lat="47.3136" lon="-2.40098">
        <ele>10</ele>
        <time>2021-05-27T07:35:55.000Z</time>
      </trkpt>
      <trkpt lat="47.31374" lon="-2.40106">
        <ele>10</ele>
        <time>2021-05-27T07:35:58.000Z</time>
      </trkpt>
      <trkpt lat="47.31404" lon="-2.40127">
        <ele>10</ele>
        <time>2021-05-27T07:36:04.000Z</time>
      </trkpt>
      <trkpt lat="47.31434" lon="-2.40145">
        <ele>10</ele>
        <time>2021-05-27T07:36:09.000Z</time>
      </trkpt>
      <trkpt lat="47.3144" lon="-2.4015">
        <ele>10</ele>
        <time>2021-05-27T07:36:10.000Z</time>
      </trkpt>
      <trkpt lat="47.31452" lon="-2.40158">
        <ele>10</ele>
        <time>2021-05-27T07:36:12.000Z</time>
      </trkpt>
      <trkpt lat="47.31462" lon="-2.40164">
        <ele>10</ele>
        <time>2021-05-27T07:36:14.000Z</time>
      </trkpt>
      <trkpt lat="47.31477" lon="-2.40175">
        <ele>10</ele>
        <time>2021-05-27T07:36:17.000Z</time>
      </trkpt>
      <trkpt lat="47.31487" lon="-2.40181">
        <ele>10</ele>
        <time>2021-05-27T07:36:19.000Z</time>
      </trkpt>
      <trkpt lat="47.31497" lon="-2.40188">
        <ele>10.39999961853</ele>
        <time>2021-05-27T07:36:21.000Z</time>
      </trkpt>
      <trkpt lat="47.31501" lon="-2.4019">
        <ele>10.800000190735</ele>
        <time>2021-05-27T07:36:22.000Z</time>
      </trkpt>
      <trkpt lat="47.31506" lon="-2.40194">
        <ele>11.199999809265</ele>
        <time>2021-05-27T07:36:23.000Z</time>
      </trkpt>
      <trkpt lat="47.3151" lon="-2.40197">
        <ele>11.60000038147</ele>
        <time>2021-05-27T07:36:24.000Z</time>
      </trkpt>
      <trkpt lat="47.31514" lon="-2.402">
        <ele>12</ele>
        <time>2021-05-27T07:36:25.000Z</time>
      </trkpt>
      <trkpt lat="47.31545" lon="-2.40225">
        <ele>12</ele>
        <time>2021-05-27T07:36:32.000Z</time>
      </trkpt>
      <trkpt lat="47.31584" lon="-2.40256">
        <ele>12</ele>
        <time>2021-05-27T07:36:40.000Z</time>
      </trkpt>
      <trkpt lat="47.3159" lon="-2.4026">
        <ele>12</ele>
        <time>2021-05-27T07:36:41.000Z</time>
      </trkpt>
      <trkpt lat="47.31605" lon="-2.4027">
        <ele>12.39999961853</ele>
        <time>2021-05-27T07:36:44.000Z</time>
      </trkpt>
      <trkpt lat="47.3161" lon="-2.40273">
        <ele>12.800000190735</ele>
        <time>2021-05-27T07:36:45.000Z</time>
      </trkpt>
      <trkpt lat="47.31614" lon="-2.40277">
        <ele>13.199999809265</ele>
        <time>2021-05-27T07:36:46.000Z</time>
      </trkpt>
      <trkpt lat="47.31618" lon="-2.40281">
        <ele>13.800000190735</ele>
        <time>2021-05-27T07:36:47.000Z</time>
      </trkpt>
      <trkpt lat="47.31623" lon="-2.40284">
        <ele>14.199999809265</ele>
        <time>2021-05-27T07:36:48.000Z</time>
      </trkpt>
      <trkpt lat="47.31631" lon="-2.40291">
        <ele>14.199999809265</ele>
        <time>2021-05-27T07:36:50.000Z</time>
      </trkpt>
      <trkpt lat="47.31654" lon="-2.40308">
        <ele>14.199999809265</ele>
        <time>2021-05-27T07:36:56.000Z</time>
      </trkpt>
      <trkpt lat="47.31673" lon="-2.40322">
        <ele>14.60000038147</ele>
        <time>2021-05-27T07:37:02.000Z</time>
      </trkpt>
      <trkpt lat="47.31675" lon="-2.40323">
        <ele>15</ele>
        <time>2021-05-27T07:37:03.000Z</time>
      </trkpt>
      <trkpt lat="47.31677" lon="-2.40323">
        <ele>15.39999961853</ele>
        <time>2021-05-27T07:37:04.000Z</time>
      </trkpt>
      <trkpt lat="47.31679" lon="-2.40323">
        <ele>15.800000190735</ele>
        <time>2021-05-27T07:37:05.000Z</time>
      </trkpt>
      <trkpt lat="47.31681" lon="-2.40326">
        <ele>16.200000762939</ele>
        <time>2021-05-27T07:37:06.000Z</time>
      </trkpt>
      <trkpt lat="47.31681" lon="-2.40327">
        <ele>16.200000762939</ele>
        <time>2021-05-27T07:37:07.000Z</time>
      </trkpt>
      <trkpt lat="47.31685" lon="-2.40332">
        <ele>16.200000762939</ele>
        <time>2021-05-27T07:38:03.000Z</time>
      </trkpt>
      <trkpt lat="47.31689" lon="-2.40337">
        <ele>16.200000762939</ele>
        <time>2021-05-27T07:38:05.000Z</time>
      </trkpt>
      <trkpt lat="47.31706" lon="-2.40349">
        <ele>16.200000762939</ele>
        <time>2021-05-27T07:38:11.000Z</time>
      </trkpt>
      <trkpt lat="47.31725" lon="-2.40363">
        <ele>16.200000762939</ele>
        <time>2021-05-27T07:38:17.000Z</time>
      </trkpt>
      <trkpt lat="47.31747" lon="-2.4038">
        <ele>16.200000762939</ele>
        <time>2021-05-27T07:38:24.000Z</time>
      </trkpt>
      <trkpt lat="47.31772" lon="-2.40399">
        <ele>16.200000762939</ele>
        <time>2021-05-27T07:38:31.000Z</time>
      </trkpt>
      <trkpt lat="47.31799" lon="-2.4042">
        <ele>16.200000762939</ele>
        <time>2021-05-27T07:38:38.000Z</time>
      </trkpt>
      <trkpt lat="47.3181" lon="-2.40429">
        <ele>16.200000762939</ele>
        <time>2021-05-27T07:38:41.000Z</time>
      </trkpt>
      <trkpt lat="47.31819" lon="-2.40435">
        <ele>16.200000762939</ele>
        <time>2021-05-27T07:38:43.000Z</time>
      </trkpt>
      <trkpt lat="47.3185" lon="-2.40458">
        <ele>16.60000038147</ele>
        <time>2021-05-27T07:38:50.000Z</time>
      </trkpt>
      <trkpt lat="47.31854" lon="-2.40461">
        <ele>17</ele>
        <time>2021-05-27T07:38:51.000Z</time>
      </trkpt>
      <trkpt lat="47.31858" lon="-2.40465">
        <ele>17.39999961853</ele>
        <time>2021-05-27T07:38:52.000Z</time>
      </trkpt>
      <trkpt lat="47.31863" lon="-2.40468">
        <ele>17.799999237061</ele>
        <time>2021-05-27T07:38:53.000Z</time>
      </trkpt>
      <trkpt lat="47.31868" lon="-2.40471">
        <ele>18.200000762939</ele>
        <time>2021-05-27T07:38:54.000Z</time>
      </trkpt>
      <trkpt lat="47.31881" lon="-2.40482">
        <ele>18.200000762939</ele>
        <time>2021-05-27T07:38:57.000Z</time>
      </trkpt>
      <trkpt lat="47.31908" lon="-2.40503">
        <ele>18.200000762939</ele>
        <time>2021-05-27T07:39:03.000Z</time>
      </trkpt>
      <trkpt lat="47.31913" lon="-2.40505">
        <ele>18.200000762939</ele>
        <time>2021-05-27T07:39:04.000Z</time>
      </trkpt>
      <trkpt lat="47.31922" lon="-2.40511">
        <ele>18.200000762939</ele>
        <time>2021-05-27T07:39:06.000Z</time>
      </trkpt>
      <trkpt lat="47.3194" lon="-2.40526">
        <ele>18.200000762939</ele>
        <time>2021-05-27T07:39:10.000Z</time>
      </trkpt>
      <trkpt lat="47.31967" lon="-2.40546">
        <ele>18.200000762939</ele>
        <time>2021-05-27T07:39:16.000Z</time>
      </trkpt>
      <trkpt lat="47.31975" lon="-2.40553">
        <ele>18.60000038147</ele>
        <time>2021-05-27T07:39:18.000Z</time>
      </trkpt>
      <trkpt lat="47.3198" lon="-2.40557">
        <ele>19</ele>
        <time>2021-05-27T07:39:19.000Z</time>
      </trkpt>
      <trkpt lat="47.31984" lon="-2.40561">
        <ele>19.39999961853</ele>
        <time>2021-05-27T07:39:20.000Z</time>
      </trkpt>
      <trkpt lat="47.31988" lon="-2.40564">
        <ele>20</ele>
        <time>2021-05-27T07:39:21.000Z</time>
      </trkpt>
      <trkpt lat="47.31993" lon="-2.40568">
        <ele>20.39999961853</ele>
        <time>2021-05-27T07:39:22.000Z</time>
      </trkpt>
      <trkpt lat="47.32022" lon="-2.40594">
        <ele>20.39999961853</ele>
        <time>2021-05-27T07:39:29.000Z</time>
      </trkpt>
      <trkpt lat="47.32049" lon="-2.40616">
        <ele>20.39999961853</ele>
        <time>2021-05-27T07:39:35.000Z</time>
      </trkpt>
      <trkpt lat="47.32081" lon="-2.40645">
        <ele>20.39999961853</ele>
        <time>2021-05-27T07:39:42.000Z</time>
      </trkpt>
      <trkpt lat="47.32086" lon="-2.4065">
        <ele>20.799999237061</ele>
        <time>2021-05-27T07:39:43.000Z</time>
      </trkpt>
      <trkpt lat="47.32091" lon="-2.40655">
        <ele>21.200000762939</ele>
        <time>2021-05-27T07:39:44.000Z</time>
      </trkpt>
      <trkpt lat="47.32096" lon="-2.40659">
        <ele>21.60000038147</ele>
        <time>2021-05-27T07:39:45.000Z</time>
      </trkpt>
      <trkpt lat="47.321" lon="-2.40664">
        <ele>22</ele>
        <time>2021-05-27T07:39:46.000Z</time>
      </trkpt>
      <trkpt lat="47.32105" lon="-2.40669">
        <ele>22.39999961853</ele>
        <time>2021-05-27T07:39:47.000Z</time>
      </trkpt>
      <trkpt lat="47.32131" lon="-2.407">
        <ele>22.39999961853</ele>
        <time>2021-05-27T07:39:53.000Z</time>
      </trkpt>
      <trkpt lat="47.32164" lon="-2.40738">
        <ele>22.39999961853</ele>
        <time>2021-05-27T07:40:01.000Z</time>
      </trkpt>
      <trkpt lat="47.32167" lon="-2.40744">
        <ele>22.39999961853</ele>
        <time>2021-05-27T07:40:02.000Z</time>
      </trkpt>
      <trkpt lat="47.32177" lon="-2.40759">
        <ele>22.39999961853</ele>
        <time>2021-05-27T07:40:05.000Z</time>
      </trkpt>
      <trkpt lat="47.32194" lon="-2.40783">
        <ele>22.39999961853</ele>
        <time>2021-05-27T07:40:11.000Z</time>
      </trkpt>
      <trkpt lat="47.32199" lon="-2.40789">
        <ele>22.39999961853</ele>
        <time>2021-05-27T07:40:15.000Z</time>
      </trkpt>
      <trkpt lat="47.32206" lon="-2.40797">
        <ele>22.39999961853</ele>
        <time>2021-05-27T07:40:20.000Z</time>
      </trkpt>
      <trkpt lat="47.32219" lon="-2.40816">
        <ele>22.39999961853</ele>
        <time>2021-05-27T07:40:25.000Z</time>
      </trkpt>
      <trkpt lat="47.32222" lon="-2.4082">
        <ele>22.39999961853</ele>
        <time>2021-05-27T07:40:26.000Z</time>
      </trkpt>
      <trkpt lat="47.32235" lon="-2.4084">
        <ele>22.39999961853</ele>
        <time>2021-05-27T07:40:30.000Z</time>
      </trkpt>
      <trkpt lat="47.32263" lon="-2.40885">
        <ele>22.39999961853</ele>
        <time>2021-05-27T07:40:39.000Z</time>
      </trkpt>
      <trkpt lat="47.3228" lon="-2.40917">
        <ele>22.39999961853</ele>
        <time>2021-05-27T07:40:45.000Z</time>
      </trkpt>
      <trkpt lat="47.32312" lon="-2.40976">
        <ele>22.799999237061</ele>
        <time>2021-05-27T07:40:56.000Z</time>
      </trkpt>
      <trkpt lat="47.32315" lon="-2.40982">
        <ele>23.200000762939</ele>
        <time>2021-05-27T07:40:57.000Z</time>
      </trkpt>
      <trkpt lat="47.32318" lon="-2.40988">
        <ele>23.60000038147</ele>
        <time>2021-05-27T07:40:58.000Z</time>
      </trkpt>
      <trkpt lat="47.32321" lon="-2.40993">
        <ele>24</ele>
        <time>2021-05-27T07:40:59.000Z</time>
      </trkpt>
      <trkpt lat="47.32324" lon="-2.40999">
        <ele>24.39999961853</ele>
        <time>2021-05-27T07:41:00.000Z</time>
      </trkpt>
      <trkpt lat="47.32341" lon="-2.41032">
        <ele>24.39999961853</ele>
        <time>2021-05-27T07:41:06.000Z</time>
      </trkpt>
      <trkpt lat="47.32361" lon="-2.41068">
        <ele>24.39999961853</ele>
        <time>2021-05-27T07:41:13.000Z</time>
      </trkpt>
      <trkpt lat="47.32369" lon="-2.41081">
        <ele>24.39999961853</ele>
        <time>2021-05-27T07:41:16.000Z</time>
      </trkpt>
      <trkpt lat="47.32375" lon="-2.41097">
        <ele>24.39999961853</ele>
        <time>2021-05-27T07:41:19.000Z</time>
      </trkpt>
      <trkpt lat="47.3239" lon="-2.41128">
        <ele>24.39999961853</ele>
        <time>2021-05-27T07:41:25.000Z</time>
      </trkpt>
      <trkpt lat="47.32402" lon="-2.41151">
        <ele>24.39999961853</ele>
        <time>2021-05-27T07:41:31.000Z</time>
      </trkpt>
      <trkpt lat="47.32411" lon="-2.41167">
        <ele>24.39999961853</ele>
        <time>2021-05-27T07:41:36.000Z</time>
      </trkpt>
      <trkpt lat="47.32418" lon="-2.41181">
        <ele>24.39999961853</ele>
        <time>2021-05-27T07:41:40.000Z</time>
      </trkpt>
      <trkpt lat="47.32429" lon="-2.41198">
        <ele>24.39999961853</ele>
        <time>2021-05-27T07:41:44.000Z</time>
      </trkpt>
      <trkpt lat="47.32431" lon="-2.41204">
        <ele>24.39999961853</ele>
        <time>2021-05-27T07:41:45.000Z</time>
      </trkpt>
      <trkpt lat="47.32452" lon="-2.41245">
        <ele>24.39999961853</ele>
        <time>2021-05-27T07:41:51.000Z</time>
      </trkpt>
      <trkpt lat="47.32477" lon="-2.41293">
        <ele>24.39999961853</ele>
        <time>2021-05-27T07:41:58.000Z</time>
      </trkpt>
      <trkpt lat="47.32499" lon="-2.41333">
        <ele>24.39999961853</ele>
        <time>2021-05-27T07:42:04.000Z</time>
      </trkpt>
      <trkpt lat="47.32528" lon="-2.41388">
        <ele>24.39999961853</ele>
        <time>2021-05-27T07:42:12.000Z</time>
      </trkpt>
      <trkpt lat="47.32552" lon="-2.41435">
        <ele>24.39999961853</ele>
        <time>2021-05-27T07:42:19.000Z</time>
      </trkpt>
      <trkpt lat="47.32565" lon="-2.41459">
        <ele>24.39999961853</ele>
        <time>2021-05-27T07:42:24.000Z</time>
      </trkpt>
      <trkpt lat="47.3257" lon="-2.41474">
        <ele>24.39999961853</ele>
        <time>2021-05-27T07:42:27.000Z</time>
      </trkpt>
      <trkpt lat="47.32571" lon="-2.4148">
        <ele>24.39999961853</ele>
        <time>2021-05-27T07:42:28.000Z</time>
      </trkpt>
      <trkpt lat="47.32575" lon="-2.41511">
        <ele>24.39999961853</ele>
        <time>2021-05-27T07:42:33.000Z</time>
      </trkpt>
      <trkpt lat="47.32578" lon="-2.41516">
        <ele>24.39999961853</ele>
        <time>2021-05-27T07:42:34.000Z</time>
      </trkpt>
      <trkpt lat="47.32592" lon="-2.41521">
        <ele>24.39999961853</ele>
        <time>2021-05-27T07:42:37.000Z</time>
      </trkpt>
      <trkpt lat="47.32635" lon="-2.41528">
        <ele>24.39999961853</ele>
        <time>2021-05-27T07:42:45.000Z</time>
      </trkpt>
      <trkpt lat="47.3264" lon="-2.41529">
        <ele>24.39999961853</ele>
        <time>2021-05-27T07:42:46.000Z</time>
      </trkpt>
      <trkpt lat="47.32646" lon="-2.4153">
        <ele>24</ele>
        <time>2021-05-27T07:42:47.000Z</time>
      </trkpt>
      <trkpt lat="47.32651" lon="-2.41531">
        <ele>23.60000038147</ele>
        <time>2021-05-27T07:42:48.000Z</time>
      </trkpt>
      <trkpt lat="47.32657" lon="-2.41533">
        <ele>23.200000762939</ele>
        <time>2021-05-27T07:42:49.000Z</time>
      </trkpt>
      <trkpt lat="47.32662" lon="-2.41534">
        <ele>22.799999237061</ele>
        <time>2021-05-27T07:42:50.000Z</time>
      </trkpt>
      <trkpt lat="47.32667" lon="-2.41535">
        <ele>22.39999961853</ele>
        <time>2021-05-27T07:42:51.000Z</time>
      </trkpt>
      <trkpt lat="47.32689" lon="-2.41539">
        <ele>22.39999961853</ele>
        <time>2021-05-27T07:42:55.000Z</time>
      </trkpt>
      <trkpt lat="47.32702" lon="-2.41544">
        <ele>22</ele>
        <time>2021-05-27T07:42:58.000Z</time>
      </trkpt>
      <trkpt lat="47.32704" lon="-2.41549">
        <ele>21.60000038147</ele>
        <time>2021-05-27T07:42:59.000Z</time>
      </trkpt>
      <trkpt lat="47.32704" lon="-2.41555">
        <ele>21.200000762939</ele>
        <time>2021-05-27T07:43:00.000Z</time>
      </trkpt>
      <trkpt lat="47.32703" lon="-2.41559">
        <ele>20.799999237061</ele>
        <time>2021-05-27T07:43:01.000Z</time>
      </trkpt>
      <trkpt lat="47.32703" lon="-2.41564">
        <ele>20.39999961853</ele>
        <time>2021-05-27T07:43:02.000Z</time>
      </trkpt>
      <trkpt lat="47.32702" lon="-2.41578">
        <ele>20.39999961853</ele>
        <time>2021-05-27T07:43:07.000Z</time>
      </trkpt>
      <trkpt lat="47.32706" lon="-2.41582">
        <ele>20.39999961853</ele>
        <time>2021-05-27T07:43:10.000Z</time>
      </trkpt>
      <trkpt lat="47.32706" lon="-2.41587">
        <ele>20.39999961853</ele>
        <time>2021-05-27T07:43:11.000Z</time>
      </trkpt>
      <trkpt lat="47.32709" lon="-2.41606">
        <ele>20.39999961853</ele>
        <time>2021-05-27T07:43:14.000Z</time>
      </trkpt>
      <trkpt lat="47.32712" lon="-2.41612">
        <ele>20.39999961853</ele>
        <time>2021-05-27T07:43:15.000Z</time>
      </trkpt>
      <trkpt lat="47.32716" lon="-2.41625">
        <ele>20.39999961853</ele>
        <time>2021-05-27T07:43:18.000Z</time>
      </trkpt>
      <trkpt lat="47.3271" lon="-2.41628">
        <ele>20.39999961853</ele>
        <time>2021-05-27T07:43:21.000Z</time>
      </trkpt>
      <trkpt lat="47.32704" lon="-2.41628">
        <ele>20.39999961853</ele>
        <time>2021-05-27T07:43:23.000Z</time>
      </trkpt>
      <trkpt lat="47.32694" lon="-2.41628">
        <ele>20.39999961853</ele>
        <time>2021-05-27T07:43:26.000Z</time>
      </trkpt>
      <trkpt lat="47.32675" lon="-2.41624">
        <ele>20.39999961853</ele>
        <time>2021-05-27T07:43:32.000Z</time>
      </trkpt>
      <trkpt lat="47.32652" lon="-2.41616">
        <ele>20.39999961853</ele>
        <time>2021-05-27T07:43:38.000Z</time>
      </trkpt>
      <trkpt lat="47.32644" lon="-2.41614">
        <ele>20.39999961853</ele>
        <time>2021-05-27T07:43:40.000Z</time>
      </trkpt>
      <trkpt lat="47.32622" lon="-2.41606">
        <ele>20.39999961853</ele>
        <time>2021-05-27T07:43:46.000Z</time>
      </trkpt>
      <trkpt lat="47.32617" lon="-2.41604">
        <ele>20.799999237061</ele>
        <time>2021-05-27T07:43:47.000Z</time>
      </trkpt>
      <trkpt lat="47.32613" lon="-2.41604">
        <ele>21.200000762939</ele>
        <time>2021-05-27T07:43:48.000Z</time>
      </trkpt>
      <trkpt lat="47.32608" lon="-2.41604">
        <ele>21.60000038147</ele>
        <time>2021-05-27T07:43:49.000Z</time>
      </trkpt>
      <trkpt lat="47.32604" lon="-2.41605">
        <ele>22</ele>
        <time>2021-05-27T07:43:50.000Z</time>
      </trkpt>
      <trkpt lat="47.32599" lon="-2.41606">
        <ele>22.39999961853</ele>
        <time>2021-05-27T07:43:51.000Z</time>
      </trkpt>
      <trkpt lat="47.32594" lon="-2.41607">
        <ele>22.39999961853</ele>
        <time>2021-05-27T07:43:52.000Z</time>
      </trkpt>
      <trkpt lat="47.3258" lon="-2.41601">
        <ele>22.39999961853</ele>
        <time>2021-05-27T07:43:55.000Z</time>
      </trkpt>
      <trkpt lat="47.32576" lon="-2.41598">
        <ele>22.39999961853</ele>
        <time>2021-05-27T07:43:56.000Z</time>
      </trkpt>
      <trkpt lat="47.32555" lon="-2.41579">
        <ele>22.39999961853</ele>
        <time>2021-05-27T07:44:01.000Z</time>
      </trkpt>
      <trkpt lat="47.32535" lon="-2.41579">
        <ele>22.39999961853</ele>
        <time>2021-05-27T07:44:05.000Z</time>
      </trkpt>
      <trkpt lat="47.3253" lon="-2.41581">
        <ele>22.799999237061</ele>
        <time>2021-05-27T07:44:06.000Z</time>
      </trkpt>
      <trkpt lat="47.32526" lon="-2.41583">
        <ele>23.200000762939</ele>
        <time>2021-05-27T07:44:07.000Z</time>
      </trkpt>
      <trkpt lat="47.32521" lon="-2.41585">
        <ele>23.799999237061</ele>
        <time>2021-05-27T07:44:08.000Z</time>
      </trkpt>
      <trkpt lat="47.32515" lon="-2.41587">
        <ele>24.200000762939</ele>
        <time>2021-05-27T07:44:09.000Z</time>
      </trkpt>
      <trkpt lat="47.3251" lon="-2.41589">
        <ele>24.60000038147</ele>
        <time>2021-05-27T07:44:10.000Z</time>
      </trkpt>
      <trkpt lat="47.32504" lon="-2.41589">
        <ele>24.60000038147</ele>
        <time>2021-05-27T07:44:11.000Z</time>
      </trkpt>
      <trkpt lat="47.32481" lon="-2.41582">
        <ele>24.60000038147</ele>
        <time>2021-05-27T07:44:15.000Z</time>
      </trkpt>
      <trkpt lat="47.32475" lon="-2.41579">
        <ele>24.60000038147</ele>
        <time>2021-05-27T07:44:16.000Z</time>
      </trkpt>
      <trkpt lat="47.32442" lon="-2.41566">
        <ele>24.60000038147</ele>
        <time>2021-05-27T07:44:22.000Z</time>
      </trkpt>
      <trkpt lat="47.32409" lon="-2.41565">
        <ele>24.60000038147</ele>
        <time>2021-05-27T07:44:28.000Z</time>
      </trkpt>
      <trkpt lat="47.32398" lon="-2.41563">
        <ele>24.60000038147</ele>
        <time>2021-05-27T07:44:30.000Z</time>
      </trkpt>
      <trkpt lat="47.32382" lon="-2.41554">
        <ele>24.60000038147</ele>
        <time>2021-05-27T07:44:33.000Z</time>
      </trkpt>
      <trkpt lat="47.3237" lon="-2.41548">
        <ele>24.60000038147</ele>
        <time>2021-05-27T07:44:35.000Z</time>
      </trkpt>
      <trkpt lat="47.32359" lon="-2.41546">
        <ele>24.60000038147</ele>
        <time>2021-05-27T07:44:37.000Z</time>
      </trkpt>
      <trkpt lat="47.32337" lon="-2.41555">
        <ele>24.60000038147</ele>
        <time>2021-05-27T07:44:41.000Z</time>
      </trkpt>
      <trkpt lat="47.32321" lon="-2.41578">
        <ele>24.60000038147</ele>
        <time>2021-05-27T07:44:45.000Z</time>
      </trkpt>
      <trkpt lat="47.32313" lon="-2.4161">
        <ele>24.60000038147</ele>
        <time>2021-05-27T07:44:49.000Z</time>
      </trkpt>
      <trkpt lat="47.32308" lon="-2.41626">
        <ele>24.60000038147</ele>
        <time>2021-05-27T07:44:51.000Z</time>
      </trkpt>
      <trkpt lat="47.32299" lon="-2.41648">
        <ele>24.60000038147</ele>
        <time>2021-05-27T07:44:54.000Z</time>
      </trkpt>
      <trkpt lat="47.32298" lon="-2.41655">
        <ele>24.60000038147</ele>
        <time>2021-05-27T07:44:55.000Z</time>
      </trkpt>
      <trkpt lat="47.32298" lon="-2.41678">
        <ele>24.60000038147</ele>
        <time>2021-05-27T07:44:58.000Z</time>
      </trkpt>
      <trkpt lat="47.32298" lon="-2.41704">
        <ele>24.60000038147</ele>
        <time>2021-05-27T07:45:01.000Z</time>
      </trkpt>
      <trkpt lat="47.32297" lon="-2.41714">
        <ele>24.60000038147</ele>
        <time>2021-05-27T07:45:02.000Z</time>
      </trkpt>
      <trkpt lat="47.32295" lon="-2.41723">
        <ele>24</ele>
        <time>2021-05-27T07:45:03.000Z</time>
      </trkpt>
      <trkpt lat="47.32291" lon="-2.41731">
        <ele>23.60000038147</ele>
        <time>2021-05-27T07:45:04.000Z</time>
      </trkpt>
      <trkpt lat="47.32288" lon="-2.41738">
        <ele>23.200000762939</ele>
        <time>2021-05-27T07:45:05.000Z</time>
      </trkpt>
      <trkpt lat="47.32285" lon="-2.41745">
        <ele>22.799999237061</ele>
        <time>2021-05-27T07:45:06.000Z</time>
      </trkpt>
      <trkpt lat="47.32282" lon="-2.41751">
        <ele>22.200000762939</ele>
        <time>2021-05-27T07:45:07.000Z</time>
      </trkpt>
      <trkpt lat="47.32281" lon="-2.41763">
        <ele>22.200000762939</ele>
        <time>2021-05-27T07:45:09.000Z</time>
      </trkpt>
      <trkpt lat="47.32287" lon="-2.41781">
        <ele>22.200000762939</ele>
        <time>2021-05-27T07:45:13.000Z</time>
      </trkpt>
      <trkpt lat="47.32289" lon="-2.41784">
        <ele>21.799999237061</ele>
        <time>2021-05-27T07:45:14.000Z</time>
      </trkpt>
      <trkpt lat="47.32291" lon="-2.41787">
        <ele>21.39999961853</ele>
        <time>2021-05-27T07:45:15.000Z</time>
      </trkpt>
      <trkpt lat="47.32293" lon="-2.4179">
        <ele>21</ele>
        <time>2021-05-27T07:45:16.000Z</time>
      </trkpt>
      <trkpt lat="47.32295" lon="-2.41793">
        <ele>20.60000038147</ele>
        <time>2021-05-27T07:45:17.000Z</time>
      </trkpt>
      <trkpt lat="47.32297" lon="-2.41796">
        <ele>20.200000762939</ele>
        <time>2021-05-27T07:45:18.000Z</time>
      </trkpt>
      <trkpt lat="47.32298" lon="-2.41798">
        <ele>20.200000762939</ele>
        <time>2021-05-27T07:45:19.000Z</time>
      </trkpt>
      <trkpt lat="47.32301" lon="-2.4181">
        <ele>20.200000762939</ele>
        <time>2021-05-27T07:45:23.000Z</time>
      </trkpt>
      <trkpt lat="47.32301" lon="-2.41813">
        <ele>20.200000762939</ele>
        <time>2021-05-27T07:45:24.000Z</time>
      </trkpt>
      <trkpt lat="47.32298" lon="-2.4182">
        <ele>20.200000762939</ele>
        <time>2021-05-27T07:45:26.000Z</time>
      </trkpt>
      <trkpt lat="47.32292" lon="-2.41827">
        <ele>20.200000762939</ele>
        <time>2021-05-27T07:45:28.000Z</time>
      </trkpt>
      <trkpt lat="47.32276" lon="-2.41848">
        <ele>20.200000762939</ele>
        <time>2021-05-27T07:45:33.000Z</time>
      </trkpt>
      <trkpt lat="47.32255" lon="-2.41874">
        <ele>20.200000762939</ele>
        <time>2021-05-27T07:45:40.000Z</time>
      </trkpt>
      <trkpt lat="47.32253" lon="-2.41881">
        <ele>20.200000762939</ele>
        <time>2021-05-27T07:45:42.000Z</time>
      </trkpt>
      <trkpt lat="47.32254" lon="-2.41884">
        <ele>20.200000762939</ele>
        <time>2021-05-27T07:45:43.000Z</time>
      </trkpt>
      <trkpt lat="47.32265" lon="-2.419">
        <ele>20.200000762939</ele>
        <time>2021-05-27T07:45:47.000Z</time>
      </trkpt>
      <trkpt lat="47.32281" lon="-2.41925">
        <ele>20.200000762939</ele>
        <time>2021-05-27T07:45:53.000Z</time>
      </trkpt>
      <trkpt lat="47.3229" lon="-2.4194">
        <ele>20.200000762939</ele>
        <time>2021-05-27T07:45:56.000Z</time>
      </trkpt>
      <trkpt lat="47.32293" lon="-2.41951">
        <ele>20.200000762939</ele>
        <time>2021-05-27T07:45:58.000Z</time>
      </trkpt>
      <trkpt lat="47.32306" lon="-2.41969">
        <ele>20.200000762939</ele>
        <time>2021-05-27T07:46:02.000Z</time>
      </trkpt>
      <trkpt lat="47.32339" lon="-2.41997">
        <ele>20.200000762939</ele>
        <time>2021-05-27T07:46:09.000Z</time>
      </trkpt>
      <trkpt lat="47.32375" lon="-2.42036">
        <ele>20.60000038147</ele>
        <time>2021-05-27T07:46:16.000Z</time>
      </trkpt>
      <trkpt lat="47.3238" lon="-2.42042">
        <ele>21</ele>
        <time>2021-05-27T07:46:17.000Z</time>
      </trkpt>
      <trkpt lat="47.32385" lon="-2.42047">
        <ele>21.39999961853</ele>
        <time>2021-05-27T07:46:18.000Z</time>
      </trkpt>
      <trkpt lat="47.32389" lon="-2.42053">
        <ele>21.799999237061</ele>
        <time>2021-05-27T07:46:19.000Z</time>
      </trkpt>
      <trkpt lat="47.32393" lon="-2.42058">
        <ele>22.200000762939</ele>
        <time>2021-05-27T07:46:20.000Z</time>
      </trkpt>
      <trkpt lat="47.32401" lon="-2.42067">
        <ele>22.200000762939</ele>
        <time>2021-05-27T07:46:22.000Z</time>
      </trkpt>
      <trkpt lat="47.32432" lon="-2.42103">
        <ele>22.200000762939</ele>
        <time>2021-05-27T07:46:31.000Z</time>
      </trkpt>
      <trkpt lat="47.32439" lon="-2.4211">
        <ele>22.60000038147</ele>
        <time>2021-05-27T07:46:33.000Z</time>
      </trkpt>
      <trkpt lat="47.32444" lon="-2.42113">
        <ele>23.39999961853</ele>
        <time>2021-05-27T07:46:34.000Z</time>
      </trkpt>
      <trkpt lat="47.32447" lon="-2.42115">
        <ele>23.799999237061</ele>
        <time>2021-05-27T07:46:35.000Z</time>
      </trkpt>
      <trkpt lat="47.32451" lon="-2.42118">
        <ele>24.39999961853</ele>
        <time>2021-05-27T07:46:36.000Z</time>
      </trkpt>
      <trkpt lat="47.32455" lon="-2.42121">
        <ele>24.39999961853</ele>
        <time>2021-05-27T07:46:37.000Z</time>
      </trkpt>
      <trkpt lat="47.32476" lon="-2.42135">
        <ele>24.39999961853</ele>
        <time>2021-05-27T07:46:43.000Z</time>
      </trkpt>
      <trkpt lat="47.32481" lon="-2.42137">
        <ele>24.39999961853</ele>
        <time>2021-05-27T07:46:44.000Z</time>
      </trkpt>
      <trkpt lat="47.32492" lon="-2.42149">
        <ele>24.39999961853</ele>
        <time>2021-05-27T07:46:47.000Z</time>
      </trkpt>
      <trkpt lat="47.325" lon="-2.42169">
        <ele>24.39999961853</ele>
        <time>2021-05-27T07:46:50.000Z</time>
      </trkpt>
      <trkpt lat="47.32506" lon="-2.42184">
        <ele>24.39999961853</ele>
        <time>2021-05-27T07:46:52.000Z</time>
      </trkpt>
      <trkpt lat="47.32531" lon="-2.42231">
        <ele>24.39999961853</ele>
        <time>2021-05-27T07:46:58.000Z</time>
      </trkpt>
      <trkpt lat="47.32535" lon="-2.42239">
        <ele>23.799999237061</ele>
        <time>2021-05-27T07:46:59.000Z</time>
      </trkpt>
      <trkpt lat="47.32539" lon="-2.42246">
        <ele>23.39999961853</ele>
        <time>2021-05-27T07:47:00.000Z</time>
      </trkpt>
      <trkpt lat="47.32543" lon="-2.42254">
        <ele>23</ele>
        <time>2021-05-27T07:47:01.000Z</time>
      </trkpt>
      <trkpt lat="47.32547" lon="-2.42262">
        <ele>22.39999961853</ele>
        <time>2021-05-27T07:47:02.000Z</time>
      </trkpt>
      <trkpt lat="47.32551" lon="-2.4227">
        <ele>22</ele>
        <time>2021-05-27T07:47:03.000Z</time>
      </trkpt>
      <trkpt lat="47.3256" lon="-2.42286">
        <ele>22</ele>
        <time>2021-05-27T07:47:05.000Z</time>
      </trkpt>
      <trkpt lat="47.32593" lon="-2.42348">
        <ele>22</ele>
        <time>2021-05-27T07:47:13.000Z</time>
      </trkpt>
      <trkpt lat="47.32601" lon="-2.42363">
        <ele>21.60000038147</ele>
        <time>2021-05-27T07:47:15.000Z</time>
      </trkpt>
      <trkpt lat="47.32605" lon="-2.4237">
        <ele>21.200000762939</ele>
        <time>2021-05-27T07:47:16.000Z</time>
      </trkpt>
      <trkpt lat="47.32608" lon="-2.42378">
        <ele>20.799999237061</ele>
        <time>2021-05-27T07:47:17.000Z</time>
      </trkpt>
      <trkpt lat="47.32612" lon="-2.42385">
        <ele>20.39999961853</ele>
        <time>2021-05-27T07:47:18.000Z</time>
      </trkpt>
      <trkpt lat="47.32616" lon="-2.42392">
        <ele>20</ele>
        <time>2021-05-27T07:47:19.000Z</time>
      </trkpt>
      <trkpt lat="47.32623" lon="-2.42406">
        <ele>20</ele>
        <time>2021-05-27T07:47:21.000Z</time>
      </trkpt>
      <trkpt lat="47.32649" lon="-2.42468">
        <ele>20</ele>
        <time>2021-05-27T07:47:29.000Z</time>
      </trkpt>
      <trkpt lat="47.3267" lon="-2.42528">
        <ele>20</ele>
        <time>2021-05-27T07:47:36.000Z</time>
      </trkpt>
      <trkpt lat="47.32688" lon="-2.42586">
        <ele>20</ele>
        <time>2021-05-27T07:47:43.000Z</time>
      </trkpt>
      <trkpt lat="47.32704" lon="-2.42634">
        <ele>20</ele>
        <time>2021-05-27T07:47:50.000Z</time>
      </trkpt>
      <trkpt lat="47.32716" lon="-2.42665">
        <ele>20</ele>
        <time>2021-05-27T07:47:55.000Z</time>
      </trkpt>
      <trkpt lat="47.32719" lon="-2.4267">
        <ele>20</ele>
        <time>2021-05-27T07:47:56.000Z</time>
      </trkpt>
      <trkpt lat="47.32733" lon="-2.42673">
        <ele>20</ele>
        <time>2021-05-27T07:47:59.000Z</time>
      </trkpt>
      <trkpt lat="47.32737" lon="-2.42671">
        <ele>20</ele>
        <time>2021-05-27T07:48:00.000Z</time>
      </trkpt>
      <trkpt lat="47.32741" lon="-2.42671">
        <ele>20</ele>
        <time>2021-05-27T07:48:01.000Z</time>
      </trkpt>
      <trkpt lat="47.32752" lon="-2.4267">
        <ele>20</ele>
        <time>2021-05-27T07:48:04.000Z</time>
      </trkpt>
      <trkpt lat="47.32755" lon="-2.4267">
        <ele>20</ele>
        <time>2021-05-27T07:48:05.000Z</time>
      </trkpt>
      <trkpt lat="47.32759" lon="-2.42674">
        <ele>20</ele>
        <time>2021-05-27T07:48:07.000Z</time>
      </trkpt>
      <trkpt lat="47.32762" lon="-2.42691">
        <ele>20</ele>
        <time>2021-05-27T07:48:12.000Z</time>
      </trkpt>
      <trkpt lat="47.32756" lon="-2.42698">
        <ele>20</ele>
        <time>2021-05-27T07:48:15.000Z</time>
      </trkpt>
      <trkpt lat="47.32749" lon="-2.42697">
        <ele>20</ele>
        <time>2021-05-27T07:48:18.000Z</time>
      </trkpt>
      <trkpt lat="47.32746" lon="-2.42696">
        <ele>20</ele>
        <time>2021-05-27T07:48:19.000Z</time>
      </trkpt>
      <trkpt lat="47.32732" lon="-2.427">
        <ele>20</ele>
        <time>2021-05-27T07:48:24.000Z</time>
      </trkpt>
      <trkpt lat="47.32727" lon="-2.42709">
        <ele>20</ele>
        <time>2021-05-27T07:48:27.000Z</time>
      </trkpt>
      <trkpt lat="47.32727" lon="-2.42712">
        <ele>19.60000038147</ele>
        <time>2021-05-27T07:48:28.000Z</time>
      </trkpt>
      <trkpt lat="47.32726" lon="-2.42716">
        <ele>19</ele>
        <time>2021-05-27T07:48:29.000Z</time>
      </trkpt>
      <trkpt lat="47.32726" lon="-2.4272">
        <ele>18.60000038147</ele>
        <time>2021-05-27T07:48:30.000Z</time>
      </trkpt>
      <trkpt lat="47.32727" lon="-2.42725">
        <ele>18.200000762939</ele>
        <time>2021-05-27T07:48:31.000Z</time>
      </trkpt>
      <trkpt lat="47.32728" lon="-2.42729">
        <ele>17.799999237061</ele>
        <time>2021-05-27T07:48:32.000Z</time>
      </trkpt>
      <trkpt lat="47.32731" lon="-2.42743">
        <ele>17.799999237061</ele>
        <time>2021-05-27T07:48:35.000Z</time>
      </trkpt>
      <trkpt lat="47.32734" lon="-2.42758">
        <ele>17.799999237061</ele>
        <time>2021-05-27T07:48:38.000Z</time>
      </trkpt>
      <trkpt lat="47.32739" lon="-2.4277">
        <ele>17.799999237061</ele>
        <time>2021-05-27T07:48:40.000Z</time>
      </trkpt>
      <trkpt lat="47.32743" lon="-2.42781">
        <ele>17.799999237061</ele>
        <time>2021-05-27T07:48:42.000Z</time>
      </trkpt>
      <trkpt lat="47.32753" lon="-2.42818">
        <ele>17.799999237061</ele>
        <time>2021-05-27T07:48:50.000Z</time>
      </trkpt>
      <trkpt lat="47.32761" lon="-2.42839">
        <ele>17.799999237061</ele>
        <time>2021-05-27T07:48:56.000Z</time>
      </trkpt>
      <trkpt lat="47.32762" lon="-2.42842">
        <ele>18.200000762939</ele>
        <time>2021-05-27T07:48:57.000Z</time>
      </trkpt>
      <trkpt lat="47.32763" lon="-2.42845">
        <ele>18.60000038147</ele>
        <time>2021-05-27T07:48:58.000Z</time>
      </trkpt>
      <trkpt lat="47.32764" lon="-2.42849">
        <ele>19.200000762939</ele>
        <time>2021-05-27T07:48:59.000Z</time>
      </trkpt>
      <trkpt lat="47.32764" lon="-2.42859">
        <ele>19.60000038147</ele>
        <time>2021-05-27T07:49:00.000Z</time>
      </trkpt>
      <trkpt lat="47.32765" lon="-2.42867">
        <ele>20</ele>
        <time>2021-05-27T07:49:01.000Z</time>
      </trkpt>
      <trkpt lat="47.32767" lon="-2.42871">
        <ele>20</ele>
        <time>2021-05-27T07:49:02.000Z</time>
      </trkpt>
      <trkpt lat="47.32776" lon="-2.42906">
        <ele>20</ele>
        <time>2021-05-27T07:49:08.000Z</time>
      </trkpt>
      <trkpt lat="47.32779" lon="-2.42951">
        <ele>20</ele>
        <time>2021-05-27T07:49:16.000Z</time>
      </trkpt>
      <trkpt lat="47.32776" lon="-2.42959">
        <ele>20</ele>
        <time>2021-05-27T07:49:18.000Z</time>
      </trkpt>
      <trkpt lat="47.3277" lon="-2.42963">
        <ele>20</ele>
        <time>2021-05-27T07:49:20.000Z</time>
      </trkpt>
      <trkpt lat="47.3275" lon="-2.4296">
        <ele>20</ele>
        <time>2021-05-27T07:49:25.000Z</time>
      </trkpt>
      <trkpt lat="47.32732" lon="-2.42959">
        <ele>20</ele>
        <time>2021-05-27T07:49:29.000Z</time>
      </trkpt>
      <trkpt lat="47.32729" lon="-2.42958">
        <ele>20</ele>
        <time>2021-05-27T07:49:30.000Z</time>
      </trkpt>
      <trkpt lat="47.32704" lon="-2.42949">
        <ele>20</ele>
        <time>2021-05-27T07:49:36.000Z</time>
      </trkpt>
      <trkpt lat="47.32661" lon="-2.42938">
        <ele>20</ele>
        <time>2021-05-27T07:49:45.000Z</time>
      </trkpt>
      <trkpt lat="47.3264" lon="-2.42933">
        <ele>20</ele>
        <time>2021-05-27T07:49:51.000Z</time>
      </trkpt>
      <trkpt lat="47.3263" lon="-2.42935">
        <ele>20</ele>
        <time>2021-05-27T07:49:55.000Z</time>
      </trkpt>
      <trkpt lat="47.32628" lon="-2.4294">
        <ele>20</ele>
        <time>2021-05-27T07:49:56.000Z</time>
      </trkpt>
      <trkpt lat="47.32625" lon="-2.42958">
        <ele>20</ele>
        <time>2021-05-27T07:49:59.000Z</time>
      </trkpt>
      <trkpt lat="47.32624" lon="-2.42965">
        <ele>20</ele>
        <time>2021-05-27T07:50:00.000Z</time>
      </trkpt>
      <trkpt lat="47.32623" lon="-2.42972">
        <ele>20</ele>
        <time>2021-05-27T07:50:01.000Z</time>
      </trkpt>
      <trkpt lat="47.32622" lon="-2.42999">
        <ele>20</ele>
        <time>2021-05-27T07:50:05.000Z</time>
      </trkpt>
      <trkpt lat="47.32623" lon="-2.43007">
        <ele>20</ele>
        <time>2021-05-27T07:50:06.000Z</time>
      </trkpt>
      <trkpt lat="47.32626" lon="-2.43043">
        <ele>20</ele>
        <time>2021-05-27T07:50:11.000Z</time>
      </trkpt>
      <trkpt lat="47.32626" lon="-2.43065">
        <ele>20</ele>
        <time>2021-05-27T07:50:14.000Z</time>
      </trkpt>
      <trkpt lat="47.32625" lon="-2.43071">
        <ele>19.39999961853</ele>
        <time>2021-05-27T07:50:15.000Z</time>
      </trkpt>
      <trkpt lat="47.32622" lon="-2.43076">
        <ele>19</ele>
        <time>2021-05-27T07:50:16.000Z</time>
      </trkpt>
      <trkpt lat="47.32619" lon="-2.4308">
        <ele>18.200000762939</ele>
        <time>2021-05-27T07:50:17.000Z</time>
      </trkpt>
      <trkpt lat="47.32614" lon="-2.43081">
        <ele>17.799999237061</ele>
        <time>2021-05-27T07:50:18.000Z</time>
      </trkpt>
      <trkpt lat="47.32609" lon="-2.43082">
        <ele>17.799999237061</ele>
        <time>2021-05-27T07:50:19.000Z</time>
      </trkpt>
      <trkpt lat="47.32603" lon="-2.43082">
        <ele>17.799999237061</ele>
        <time>2021-05-27T07:50:20.000Z</time>
      </trkpt>
      <trkpt lat="47.3258" lon="-2.43086">
        <ele>17.799999237061</ele>
        <time>2021-05-27T07:50:24.000Z</time>
      </trkpt>
      <trkpt lat="47.32542" lon="-2.43089">
        <ele>17.799999237061</ele>
        <time>2021-05-27T07:50:30.000Z</time>
      </trkpt>
      <trkpt lat="47.32508" lon="-2.43087">
        <ele>17.39999961853</ele>
        <time>2021-05-27T07:50:35.000Z</time>
      </trkpt>
      <trkpt lat="47.325" lon="-2.43086">
        <ele>17</ele>
        <time>2021-05-27T07:50:36.000Z</time>
      </trkpt>
      <trkpt lat="47.32492" lon="-2.43086">
        <ele>16.60000038147</ele>
        <time>2021-05-27T07:50:37.000Z</time>
      </trkpt>
      <trkpt lat="47.32484" lon="-2.43085">
        <ele>16.200000762939</ele>
        <time>2021-05-27T07:50:38.000Z</time>
      </trkpt>
      <trkpt lat="47.32476" lon="-2.43086">
        <ele>15.800000190735</ele>
        <time>2021-05-27T07:50:39.000Z</time>
      </trkpt>
      <trkpt lat="47.3246" lon="-2.43085">
        <ele>15.39999961853</ele>
        <time>2021-05-27T07:50:41.000Z</time>
      </trkpt>
      <trkpt lat="47.32452" lon="-2.43084">
        <ele>14.39999961853</ele>
        <time>2021-05-27T07:50:42.000Z</time>
      </trkpt>
      <trkpt lat="47.32444" lon="-2.43083">
        <ele>14</ele>
        <time>2021-05-27T07:50:43.000Z</time>
      </trkpt>
      <trkpt lat="47.32436" lon="-2.43082">
        <ele>13.60000038147</ele>
        <time>2021-05-27T07:50:44.000Z</time>
      </trkpt>
      <trkpt lat="47.32428" lon="-2.4308">
        <ele>13</ele>
        <time>2021-05-27T07:50:45.000Z</time>
      </trkpt>
      <trkpt lat="47.32421" lon="-2.43078">
        <ele>12.39999961853</ele>
        <time>2021-05-27T07:50:46.000Z</time>
      </trkpt>
      <trkpt lat="47.32413" lon="-2.43076">
        <ele>12</ele>
        <time>2021-05-27T07:50:47.000Z</time>
      </trkpt>
      <trkpt lat="47.32405" lon="-2.43075">
        <ele>11.39999961853</ele>
        <time>2021-05-27T07:50:48.000Z</time>
      </trkpt>
      <trkpt lat="47.32396" lon="-2.43074">
        <ele>11</ele>
        <time>2021-05-27T07:50:49.000Z</time>
      </trkpt>
      <trkpt lat="47.32387" lon="-2.43075">
        <ele>10.60000038147</ele>
        <time>2021-05-27T07:50:50.000Z</time>
      </trkpt>
      <trkpt lat="47.32378" lon="-2.43078">
        <ele>10</ele>
        <time>2021-05-27T07:50:51.000Z</time>
      </trkpt>
      <trkpt lat="47.32369" lon="-2.4308">
        <ele>9.6000003814697</ele>
        <time>2021-05-27T07:50:52.000Z</time>
      </trkpt>
      <trkpt lat="47.3236" lon="-2.43083">
        <ele>9.1999998092651</ele>
        <time>2021-05-27T07:50:53.000Z</time>
      </trkpt>
      <trkpt lat="47.32341" lon="-2.4309">
        <ele>8.8000001907349</ele>
        <time>2021-05-27T07:50:55.000Z</time>
      </trkpt>
      <trkpt lat="47.32332" lon="-2.43094">
        <ele>8.1999998092651</ele>
        <time>2021-05-27T07:50:56.000Z</time>
      </trkpt>
      <trkpt lat="47.32323" lon="-2.431">
        <ele>7.8000001907349</ele>
        <time>2021-05-27T07:50:57.000Z</time>
      </trkpt>
      <trkpt lat="47.32314" lon="-2.43105">
        <ele>7.1999998092651</ele>
        <time>2021-05-27T07:50:58.000Z</time>
      </trkpt>
      <trkpt lat="47.32306" lon="-2.43111">
        <ele>6.8000001907349</ele>
        <time>2021-05-27T07:50:59.000Z</time>
      </trkpt>
      <trkpt lat="47.32281" lon="-2.43126">
        <ele>6.4000000953674</ele>
        <time>2021-05-27T07:51:02.000Z</time>
      </trkpt>
      <trkpt lat="47.32274" lon="-2.4313">
        <ele>6</ele>
        <time>2021-05-27T07:51:03.000Z</time>
      </trkpt>
      <trkpt lat="47.32266" lon="-2.43133">
        <ele>5.4000000953674</ele>
        <time>2021-05-27T07:51:04.000Z</time>
      </trkpt>
      <trkpt lat="47.32259" lon="-2.43135">
        <ele>5</ele>
        <time>2021-05-27T07:51:05.000Z</time>
      </trkpt>
      <trkpt lat="47.32251" lon="-2.43137">
        <ele>4.5999999046326</ele>
        <time>2021-05-27T07:51:06.000Z</time>
      </trkpt>
      <trkpt lat="47.32228" lon="-2.43146">
        <ele>4.5999999046326</ele>
        <time>2021-05-27T07:51:09.000Z</time>
      </trkpt>
      <trkpt lat="47.32183" lon="-2.43166">
        <ele>4.5999999046326</ele>
        <time>2021-05-27T07:51:15.000Z</time>
      </trkpt>
      <trkpt lat="47.32161" lon="-2.43177">
        <ele>4.1999998092651</ele>
        <time>2021-05-27T07:51:18.000Z</time>
      </trkpt>
      <trkpt lat="47.32153" lon="-2.43179">
        <ele>3.7999999523163</ele>
        <time>2021-05-27T07:51:19.000Z</time>
      </trkpt>
      <trkpt lat="47.32146" lon="-2.43183">
        <ele>3.4000000953674</ele>
        <time>2021-05-27T07:51:20.000Z</time>
      </trkpt>
      <trkpt lat="47.32139" lon="-2.43187">
        <ele>3</ele>
        <time>2021-05-27T07:51:21.000Z</time>
      </trkpt>
      <trkpt lat="47.32131" lon="-2.4319">
        <ele>2.5999999046326</ele>
        <time>2021-05-27T07:51:22.000Z</time>
      </trkpt>
      <trkpt lat="47.32093" lon="-2.43206">
        <ele>2.2000000476837</ele>
        <time>2021-05-27T07:51:27.000Z</time>
      </trkpt>
      <trkpt lat="47.32086" lon="-2.43209">
        <ele>1.7999999523163</ele>
        <time>2021-05-27T07:51:28.000Z</time>
      </trkpt>
      <trkpt lat="47.32079" lon="-2.43213">
        <ele>1.2000000476837</ele>
        <time>2021-05-27T07:51:29.000Z</time>
      </trkpt>
      <trkpt lat="47.32071" lon="-2.43217">
        <ele>0.80000001192093</ele>
        <time>2021-05-27T07:51:30.000Z</time>
      </trkpt>
      <trkpt lat="47.32065" lon="-2.4322">
        <ele>0.40000000596046</ele>
        <time>2021-05-27T07:51:31.000Z</time>
      </trkpt>
      <trkpt lat="47.32047" lon="-2.43235">
        <ele>0.40000000596046</ele>
        <time>2021-05-27T07:51:34.000Z</time>
      </trkpt>
      <trkpt lat="47.3204" lon="-2.43239">
        <ele>28.4</ele>
        <time>2021-05-27T07:51:35.000Z</time>
      </trkpt>
      <trkpt lat="47.32033" lon="-2.43244">
        <ele>-0.60000002384186</ele>
        <time>2021-05-27T07:51:36.000Z</time>
      </trkpt>
      <trkpt lat="47.32027" lon="-2.43249">
        <ele>-1</ele>
        <time>2021-05-27T07:51:37.000Z</time>
      </trkpt>
      <trkpt lat="47.3202" lon="-2.43254">
        <ele>-1.3999999761581</ele>
        <time>2021-05-27T07:51:38.000Z</time>
      </trkpt>
      <trkpt lat="47.32013" lon="-2.43259">
        <ele>-1.7999999523163</ele>
        <time>2021-05-27T07:51:39.000Z</time>
      </trkpt>
      <trkpt lat="47.32" lon="-2.43266">
        <ele>-2.2000000476837</ele>
        <time>2021-05-27T07:51:41.000Z</time>
      </trkpt>
      <trkpt lat="47.31994" lon="-2.4327">
        <ele>-2.7999999523163</ele>
        <time>2021-05-27T07:51:42.000Z</time>
      </trkpt>
      <trkpt lat="47.31988" lon="-2.43273">
        <ele>-3.2000000476837</ele>
        <time>2021-05-27T07:51:43.000Z</time>
      </trkpt>
      <trkpt lat="47.31984" lon="-2.43276">
        <ele>-3.5999999046326</ele>
        <time>2021-05-27T07:51:44.000Z</time>
      </trkpt>
      <trkpt lat="47.31981" lon="-2.43281">
        <ele>-4</ele>
        <time>2021-05-27T07:51:45.000Z</time>
      </trkpt>
      <trkpt lat="47.31978" lon="-2.43289">
        <ele>-4.4000000953674</ele>
        <time>2021-05-27T07:51:46.000Z</time>
      </trkpt>
      <trkpt lat="47.31977" lon="-2.43296">
        <ele>-4.8000001907349</ele>
        <time>2021-05-27T07:51:47.000Z</time>
      </trkpt>
      <trkpt lat="47.31976" lon="-2.43304">
        <ele>-5.1999998092651</ele>
        <time>2021-05-27T07:51:48.000Z</time>
      </trkpt>
      <trkpt lat="47.31975" lon="-2.43313">
        <ele>-5.5999999046326</ele>
        <time>2021-05-27T07:51:49.000Z</time>
      </trkpt>
      <trkpt lat="47.31974" lon="-2.43322">
        <ele>-6</ele>
        <time>2021-05-27T07:51:50.000Z</time>
      </trkpt>
      <trkpt lat="47.31971" lon="-2.43341">
        <ele>-6</ele>
        <time>2021-05-27T07:51:52.000Z</time>
      </trkpt>
      <trkpt lat="47.31965" lon="-2.4337">
        <ele>-6.4000000953674</ele>
        <time>2021-05-27T07:51:55.000Z</time>
      </trkpt>
      <trkpt lat="47.31962" lon="-2.4338">
        <ele>-7.4000000953674</ele>
        <time>2021-05-27T07:51:56.000Z</time>
      </trkpt>
      <trkpt lat="47.31959" lon="-2.4339">
        <ele>-7.8000001907349</ele>
        <time>2021-05-27T07:51:57.000Z</time>
      </trkpt>
      <trkpt lat="47.31955" lon="-2.434">
        <ele>-8.1999998092651</ele>
        <time>2021-05-27T07:51:58.000Z</time>
      </trkpt>
      <trkpt lat="47.31941" lon="-2.43442">
        <ele>-8.6000003814697</ele>
        <time>2021-05-27T07:52:02.000Z</time>
      </trkpt>
      <trkpt lat="47.31938" lon="-2.43453">
        <ele>-9.1999998092651</ele>
        <time>2021-05-27T07:52:03.000Z</time>
      </trkpt>
      <trkpt lat="47.31935" lon="-2.43464">
        <ele>-9.6000003814697</ele>
        <time>2021-05-27T07:52:04.000Z</time>
      </trkpt>
      <trkpt lat="47.31931" lon="-2.43475">
        <ele>-10.199999809265</ele>
        <time>2021-05-27T07:52:05.000Z</time>
      </trkpt>
      <trkpt lat="47.31929" lon="-2.43487">
        <ele>-10.60000038147</ele>
        <time>2021-05-27T07:52:06.000Z</time>
      </trkpt>
      <trkpt lat="47.31927" lon="-2.43499">
        <ele>-11.199999809265</ele>
        <time>2021-05-27T07:52:07.000Z</time>
      </trkpt>
      <trkpt lat="47.31925" lon="-2.43512">
        <ele>-11.60000038147</ele>
        <time>2021-05-27T07:52:08.000Z</time>
      </trkpt>
      <trkpt lat="47.31925" lon="-2.43524">
        <ele>-12</ele>
        <time>2021-05-27T07:52:09.000Z</time>
      </trkpt>
      <trkpt lat="47.31926" lon="-2.43536">
        <ele>-12.39999961853</ele>
        <time>2021-05-27T07:52:10.000Z</time>
      </trkpt>
      <trkpt lat="47.31927" lon="-2.43547">
        <ele>-12.800000190735</ele>
        <time>2021-05-27T07:52:11.000Z</time>
      </trkpt>
      <trkpt lat="47.31927" lon="-2.43569">
        <ele>-12.800000190735</ele>
        <time>2021-05-27T07:52:13.000Z</time>
      </trkpt>
      <trkpt lat="47.31919" lon="-2.436">
        <ele>-12.800000190735</ele>
        <time>2021-05-27T07:52:16.000Z</time>
      </trkpt>
      <trkpt lat="47.31913" lon="-2.43606">
        <ele>-13.199999809265</ele>
        <time>2021-05-27T07:52:17.000Z</time>
      </trkpt>
      <trkpt lat="47.31907" lon="-2.43612">
        <ele>-13.800000190735</ele>
        <time>2021-05-27T07:52:18.000Z</time>
      </trkpt>
      <trkpt lat="47.31901" lon="-2.43617">
        <ele>-14.199999809265</ele>
        <time>2021-05-27T07:52:19.000Z</time>
      </trkpt>
      <trkpt lat="47.31896" lon="-2.43623">
        <ele>-14.60000038147</ele>
        <time>2021-05-27T07:52:20.000Z</time>
      </trkpt>
      <trkpt lat="47.31891" lon="-2.4363">
        <ele>-15</ele>
        <time>2021-05-27T07:52:21.000Z</time>
      </trkpt>
      <trkpt lat="47.31888" lon="-2.43638">
        <ele>-15.39999961853</ele>
        <time>2021-05-27T07:52:22.000Z</time>
      </trkpt>
      <trkpt lat="47.31888" lon="-2.43646">
        <ele>-16</ele>
        <time>2021-05-27T07:52:23.000Z</time>
      </trkpt>
      <trkpt lat="47.31889" lon="-2.43654">
        <ele>-16.39999961853</ele>
        <time>2021-05-27T07:52:24.000Z</time>
      </trkpt>
      <trkpt lat="47.31891" lon="-2.4366">
        <ele>-17</ele>
        <time>2021-05-27T07:52:25.000Z</time>
      </trkpt>
      <trkpt lat="47.31894" lon="-2.43665">
        <ele>-17.39999961853</ele>
        <time>2021-05-27T07:52:26.000Z</time>
      </trkpt>
      <trkpt lat="47.31897" lon="-2.43669">
        <ele>-17.799999237061</ele>
        <time>2021-05-27T07:52:27.000Z</time>
      </trkpt>
      <trkpt lat="47.31901" lon="-2.43675">
        <ele>-18.200000762939</ele>
        <time>2021-05-27T07:52:28.000Z</time>
      </trkpt>
      <trkpt lat="47.31904" lon="-2.43681">
        <ele>-18.60000038147</ele>
        <time>2021-05-27T07:52:29.000Z</time>
      </trkpt>
      <trkpt lat="47.31908" lon="-2.43689">
        <ele>-19</ele>
        <time>2021-05-27T07:52:30.000Z</time>
      </trkpt>
      <trkpt lat="47.31912" lon="-2.43697">
        <ele>-19.39999961853</ele>
        <time>2021-05-27T07:52:31.000Z</time>
      </trkpt>
      <trkpt lat="47.31922" lon="-2.43722">
        <ele>-19.39999961853</ele>
        <time>2021-05-27T07:52:34.000Z</time>
      </trkpt>
      <trkpt lat="47.31942" lon="-2.43778">
        <ele>-19.39999961853</ele>
        <time>2021-05-27T07:52:41.000Z</time>
      </trkpt>
      <trkpt lat="47.31962" lon="-2.43819">
        <ele>-19.39999961853</ele>
        <time>2021-05-27T07:52:47.000Z</time>
      </trkpt>
      <trkpt lat="47.31972" lon="-2.43835">
        <ele>-19</ele>
        <time>2021-05-27T07:52:50.000Z</time>
      </trkpt>
      <trkpt lat="47.31976" lon="-2.43838">
        <ele>-18.60000038147</ele>
        <time>2021-05-27T07:52:51.000Z</time>
      </trkpt>
      <trkpt lat="47.31981" lon="-2.4384">
        <ele>-18.200000762939</ele>
        <time>2021-05-27T07:52:52.000Z</time>
      </trkpt>
      <trkpt lat="47.31986" lon="-2.4384">
        <ele>-17.799999237061</ele>
        <time>2021-05-27T07:52:53.000Z</time>
      </trkpt>
      <trkpt lat="47.3199" lon="-2.43837">
        <ele>-17.39999961853</ele>
        <time>2021-05-27T07:52:54.000Z</time>
      </trkpt>
      <trkpt lat="47.31994" lon="-2.43833">
        <ele>-17.39999961853</ele>
        <time>2021-05-27T07:52:55.000Z</time>
      </trkpt>
      <trkpt lat="47.31998" lon="-2.43829">
        <ele>-17.39999961853</ele>
        <time>2021-05-27T07:52:56.000Z</time>
      </trkpt>
      <trkpt lat="47.32001" lon="-2.43826">
        <ele>-17.39999961853</ele>
        <time>2021-05-27T07:52:57.000Z</time>
      </trkpt>
      <trkpt lat="47.32007" lon="-2.4382">
        <ele>-17</ele>
        <time>2021-05-27T07:52:59.000Z</time>
      </trkpt>
      <trkpt lat="47.3201" lon="-2.43817">
        <ele>-16.60000038147</ele>
        <time>2021-05-27T07:53:00.000Z</time>
      </trkpt>
      <trkpt lat="47.32013" lon="-2.43814">
        <ele>-16.200000762939</ele>
        <time>2021-05-27T07:53:01.000Z</time>
      </trkpt>
      <trkpt lat="47.32016" lon="-2.43812">
        <ele>-15.800000190735</ele>
        <time>2021-05-27T07:53:02.000Z</time>
      </trkpt>
      <trkpt lat="47.32018" lon="-2.43809">
        <ele>-15.199999809265</ele>
        <time>2021-05-27T07:53:03.000Z</time>
      </trkpt>
      <trkpt lat="47.32027" lon="-2.43802">
        <ele>-14.800000190735</ele>
        <time>2021-05-27T07:53:06.000Z</time>
      </trkpt>
      <trkpt lat="47.3203" lon="-2.43801">
        <ele>-14.39999961853</ele>
        <time>2021-05-27T07:53:07.000Z</time>
      </trkpt>
      <trkpt lat="47.32033" lon="-2.43803">
        <ele>-14</ele>
        <time>2021-05-27T07:53:08.000Z</time>
      </trkpt>
      <trkpt lat="47.32035" lon="-2.43806">
        <ele>-13.60000038147</ele>
        <time>2021-05-27T07:53:09.000Z</time>
      </trkpt>
      <trkpt lat="47.32037" lon="-2.4381">
        <ele>-13.199999809265</ele>
        <time>2021-05-27T07:53:10.000Z</time>
      </trkpt>
      <trkpt lat="47.32042" lon="-2.4382">
        <ele>-12.60000038147</ele>
        <time>2021-05-27T07:53:12.000Z</time>
      </trkpt>
      <trkpt lat="47.32044" lon="-2.43825">
        <ele>-12.199999809265</ele>
        <time>2021-05-27T07:53:13.000Z</time>
      </trkpt>
      <trkpt lat="47.32047" lon="-2.43829">
        <ele>-11.800000190735</ele>
        <time>2021-05-27T07:53:14.000Z</time>
      </trkpt>
      <trkpt lat="47.3205" lon="-2.43834">
        <ele>-11.39999961853</ele>
        <time>2021-05-27T07:53:15.000Z</time>
      </trkpt>
      <trkpt lat="47.32052" lon="-2.43839">
        <ele>-11</ele>
        <time>2021-05-27T07:53:16.000Z</time>
      </trkpt>
      <trkpt lat="47.32054" lon="-2.43844">
        <ele>-11</ele>
        <time>2021-05-27T07:53:17.000Z</time>
      </trkpt>
      <trkpt lat="47.32057" lon="-2.43848">
        <ele>-11</ele>
        <time>2021-05-27T07:53:18.000Z</time>
      </trkpt>
      <trkpt lat="47.32068" lon="-2.43869">
        <ele>-11</ele>
        <time>2021-05-27T07:53:22.000Z</time>
      </trkpt>
      <trkpt lat="47.32088" lon="-2.43896">
        <ele>-11</ele>
        <time>2021-05-27T07:53:28.000Z</time>
      </trkpt>
      <trkpt lat="47.321" lon="-2.43903">
        <ele>-10.60000038147</ele>
        <time>2021-05-27T07:53:31.000Z</time>
      </trkpt>
      <trkpt lat="47.32104" lon="-2.43905">
        <ele>-10.199999809265</ele>
        <time>2021-05-27T07:53:32.000Z</time>
      </trkpt>
      <trkpt lat="47.32108" lon="-2.43907">
        <ele>-9.6000003814697</ele>
        <time>2021-05-27T07:53:33.000Z</time>
      </trkpt>
      <trkpt lat="47.32112" lon="-2.43908">
        <ele>-8.8000001907349</ele>
        <time>2021-05-27T07:53:34.000Z</time>
      </trkpt>
      <trkpt lat="47.3212" lon="-2.43913">
        <ele>-8.8000001907349</ele>
        <time>2021-05-27T07:53:36.000Z</time>
      </trkpt>
      <trkpt lat="47.32133" lon="-2.43925">
        <ele>-8.3999996185303</ele>
        <time>2021-05-27T07:53:40.000Z</time>
      </trkpt>
      <trkpt lat="47.32136" lon="-2.43928">
        <ele>-8</ele>
        <time>2021-05-27T07:53:41.000Z</time>
      </trkpt>
      <trkpt lat="47.32139" lon="-2.43932">
        <ele>-7.5999999046326</ele>
        <time>2021-05-27T07:53:42.000Z</time>
      </trkpt>
      <trkpt lat="47.32141" lon="-2.43936">
        <ele>-7.1999998092651</ele>
        <time>2021-05-27T07:53:43.000Z</time>
      </trkpt>
      <trkpt lat="47.32144" lon="-2.4394">
        <ele>-6.8000001907349</ele>
        <time>2021-05-27T07:53:44.000Z</time>
      </trkpt>
      <trkpt lat="47.32152" lon="-2.43952">
        <ele>-6.8000001907349</ele>
        <time>2021-05-27T07:53:47.000Z</time>
      </trkpt>
      <trkpt lat="47.32155" lon="-2.43956">
        <ele>-6.4000000953674</ele>
        <time>2021-05-27T07:53:48.000Z</time>
      </trkpt>
      <trkpt lat="47.32157" lon="-2.4396">
        <ele>-5.8000001907349</ele>
        <time>2021-05-27T07:53:49.000Z</time>
      </trkpt>
      <trkpt lat="47.3216" lon="-2.43964">
        <ele>-5.4000000953674</ele>
        <time>2021-05-27T07:53:50.000Z</time>
      </trkpt>
      <trkpt lat="47.32163" lon="-2.43968">
        <ele>-5</ele>
        <time>2021-05-27T07:53:51.000Z</time>
      </trkpt>
      <trkpt lat="47.32165" lon="-2.43972">
        <ele>-4.5999999046326</ele>
        <time>2021-05-27T07:53:52.000Z</time>
      </trkpt>
      <trkpt lat="47.32184" lon="-2.43998">
        <ele>-4.1999998092651</ele>
        <time>2021-05-27T07:53:59.000Z</time>
      </trkpt>
      <trkpt lat="47.32187" lon="-2.44002">
        <ele>-3.7999999523163</ele>
        <time>2021-05-27T07:54:00.000Z</time>
      </trkpt>
      <trkpt lat="47.3219" lon="-2.44005">
        <ele>-3.4000000953674</ele>
        <time>2021-05-27T07:54:01.000Z</time>
      </trkpt>
      <trkpt lat="47.32193" lon="-2.44009">
        <ele>-3</ele>
        <time>2021-05-27T07:54:02.000Z</time>
      </trkpt>
      <trkpt lat="47.32196" lon="-2.44012">
        <ele>-2.5999999046326</ele>
        <time>2021-05-27T07:54:03.000Z</time>
      </trkpt>
      <trkpt lat="47.32209" lon="-2.44027">
        <ele>-2.5999999046326</ele>
        <time>2021-05-27T07:54:07.000Z</time>
      </trkpt>
      <trkpt lat="47.32227" lon="-2.44041">
        <ele>-2.5999999046326</ele>
        <time>2021-05-27T07:54:12.000Z</time>
      </trkpt>
      <trkpt lat="47.32238" lon="-2.44045">
        <ele>-2.5999999046326</ele>
        <time>2021-05-27T07:54:15.000Z</time>
      </trkpt>
      <trkpt lat="47.32243" lon="-2.44045">
        <ele>-2.2000000476837</ele>
        <time>2021-05-27T07:54:16.000Z</time>
      </trkpt>
      <trkpt lat="47.32247" lon="-2.44045">
        <ele>-1.7999999523163</ele>
        <time>2021-05-27T07:54:17.000Z</time>
      </trkpt>
      <trkpt lat="47.32251" lon="-2.44044">
        <ele>-1.3999999761581</ele>
        <time>2021-05-27T07:54:18.000Z</time>
      </trkpt>
      <trkpt lat="47.32255" lon="-2.44044">
        <ele>-1</ele>
        <time>2021-05-27T07:54:19.000Z</time>
      </trkpt>
      <trkpt lat="47.3226" lon="-2.44045">
        <ele>-0.60000002384186</ele>
        <time>2021-05-27T07:54:20.000Z</time>
      </trkpt>
      <trkpt lat="47.32264" lon="-2.44046">
        <ele>-0.60000002384186</ele>
        <time>2021-05-27T07:54:21.000Z</time>
      </trkpt>
      <trkpt lat="47.3228" lon="-2.4405">
        <ele>-0.60000002384186</ele>
        <time>2021-05-27T07:54:25.000Z</time>
      </trkpt>
      <trkpt lat="47.32291" lon="-2.44054">
        <ele>-0.60000002384186</ele>
        <time>2021-05-27T07:54:28.000Z</time>
      </trkpt>
      <trkpt lat="47.32305" lon="-2.44058">
        <ele>-0.60000002384186</ele>
        <time>2021-05-27T07:54:31.000Z</time>
      </trkpt>
      <trkpt lat="47.32309" lon="-2.4406">
        <ele>-0.60000002384186</ele>
        <time>2021-05-27T07:54:32.000Z</time>
      </trkpt>
      <trkpt lat="47.32318" lon="-2.44063">
        <ele>-0.20000000298023</ele>
        <time>2021-05-27T07:54:34.000Z</time>
      </trkpt>
      <trkpt lat="47.32323" lon="-2.44064">
        <ele>0.20000000298023</ele>
        <time>2021-05-27T07:54:35.000Z</time>
      </trkpt>
      <trkpt lat="47.32327" lon="-2.44065">
        <ele>0.60000002384186</ele>
        <time>2021-05-27T07:54:36.000Z</time>
      </trkpt>
      <trkpt lat="47.32331" lon="-2.44067">
        <ele>1</ele>
        <time>2021-05-27T07:54:37.000Z</time>
      </trkpt>
      <trkpt lat="47.32335" lon="-2.44068">
        <ele>1.3999999761581</ele>
        <time>2021-05-27T07:54:38.000Z</time>
      </trkpt>
      <trkpt lat="47.32355" lon="-2.4407">
        <ele>1.3999999761581</ele>
        <time>2021-05-27T07:54:43.000Z</time>
      </trkpt>
      <trkpt lat="47.32375" lon="-2.44064">
        <ele>2.2000000476837</ele>
        <time>2021-05-27T07:54:48.000Z</time>
      </trkpt>
      <trkpt lat="47.32379" lon="-2.44062">
        <ele>2.5999999046326</ele>
        <time>2021-05-27T07:54:49.000Z</time>
      </trkpt>
      <trkpt lat="47.32382" lon="-2.4406">
        <ele>3</ele>
        <time>2021-05-27T07:54:50.000Z</time>
      </trkpt>
      <trkpt lat="47.32386" lon="-2.44059">
        <ele>3.4000000953674</ele>
        <time>2021-05-27T07:54:51.000Z</time>
      </trkpt>
      <trkpt lat="47.32404" lon="-2.44049">
        <ele>3.4000000953674</ele>
        <time>2021-05-27T07:54:56.000Z</time>
      </trkpt>
      <trkpt lat="47.32418" lon="-2.4404">
        <ele>3.7999999523163</ele>
        <time>2021-05-27T07:55:00.000Z</time>
      </trkpt>
      <trkpt lat="47.32421" lon="-2.44038">
        <ele>4.1999998092651</ele>
        <time>2021-05-27T07:55:01.000Z</time>
      </trkpt>
      <trkpt lat="47.32425" lon="-2.44036">
        <ele>4.5999999046326</ele>
        <time>2021-05-27T07:55:02.000Z</time>
      </trkpt>
      <trkpt lat="47.32429" lon="-2.44033">
        <ele>5</ele>
        <time>2021-05-27T07:55:03.000Z</time>
      </trkpt>
      <trkpt lat="47.32432" lon="-2.4403">
        <ele>5.4000000953674</ele>
        <time>2021-05-27T07:55:04.000Z</time>
      </trkpt>
      <trkpt lat="47.32465" lon="-2.44007">
        <ele>5.4000000953674</ele>
        <time>2021-05-27T07:55:12.000Z</time>
      </trkpt>
      <trkpt lat="47.32474" lon="-2.44001">
        <ele>5.8000001907349</ele>
        <time>2021-05-27T07:55:14.000Z</time>
      </trkpt>
      <trkpt lat="47.32478" lon="-2.43999">
        <ele>6.1999998092651</ele>
        <time>2021-05-27T07:55:15.000Z</time>
      </trkpt>
      <trkpt lat="47.32482" lon="-2.43996">
        <ele>6.5999999046326</ele>
        <time>2021-05-27T07:55:16.000Z</time>
      </trkpt>
      <trkpt lat="47.32485" lon="-2.43994">
        <ele>7</ele>
        <time>2021-05-27T07:55:17.000Z</time>
      </trkpt>
      <trkpt lat="47.32488" lon="-2.43992">
        <ele>7.4000000953674</ele>
        <time>2021-05-27T07:55:18.000Z</time>
      </trkpt>
      <trkpt lat="47.32492" lon="-2.43989">
        <ele>7.4000000953674</ele>
        <time>2021-05-27T07:55:20.000Z</time>
      </trkpt>
      <trkpt lat="47.32499" lon="-2.43986">
        <ele>7.4000000953674</ele>
        <time>2021-05-27T07:55:24.000Z</time>
      </trkpt>
      <trkpt lat="47.32503" lon="-2.43986">
        <ele>7.4000000953674</ele>
        <time>2021-05-27T07:55:30.000Z</time>
      </trkpt>
      <trkpt lat="47.32503" lon="-2.43987">
        <ele>7.4000000953674</ele>
        <time>2021-05-27T07:55:31.000Z</time>
      </trkpt>
      <trkpt lat="47.32506" lon="-2.4399">
        <ele>7.4000000953674</ele>
        <time>2021-05-27T07:55:49.000Z</time>
      </trkpt>
      <trkpt lat="47.32509" lon="-2.43994">
        <ele>7.4000000953674</ele>
        <time>2021-05-27T07:55:51.000Z</time>
      </trkpt>
      <trkpt lat="47.32526" lon="-2.44013">
        <ele>7.4000000953674</ele>
        <time>2021-05-27T07:55:57.000Z</time>
      </trkpt>
      <trkpt lat="47.32534" lon="-2.44018">
        <ele>7.4000000953674</ele>
        <time>2021-05-27T07:55:59.000Z</time>
      </trkpt>
      <trkpt lat="47.3255" lon="-2.44027">
        <ele>7.4000000953674</ele>
        <time>2021-05-27T07:56:03.000Z</time>
      </trkpt>
      <trkpt lat="47.3257" lon="-2.44038">
        <ele>7.4000000953674</ele>
        <time>2021-05-27T07:56:09.000Z</time>
      </trkpt>
      <trkpt lat="47.32569" lon="-2.44048">
        <ele>7.4000000953674</ele>
        <time>2021-05-27T07:56:12.000Z</time>
      </trkpt>
      <trkpt lat="47.32564" lon="-2.44055">
        <ele>8</ele>
        <time>2021-05-27T07:56:14.000Z</time>
      </trkpt>
      <trkpt lat="47.32561" lon="-2.44058">
        <ele>8.3999996185303</ele>
        <time>2021-05-27T07:56:15.000Z</time>
      </trkpt>
      <trkpt lat="47.32559" lon="-2.44064">
        <ele>8.8000001907349</ele>
        <time>2021-05-27T07:56:16.000Z</time>
      </trkpt>
      <trkpt lat="47.32557" lon="-2.44069">
        <ele>9.1999998092651</ele>
        <time>2021-05-27T07:56:17.000Z</time>
      </trkpt>
      <trkpt lat="47.32555" lon="-2.44075">
        <ele>9.6000003814697</ele>
        <time>2021-05-27T07:56:18.000Z</time>
      </trkpt>
      <trkpt lat="47.3255" lon="-2.441">
        <ele>9.6000003814697</ele>
        <time>2021-05-27T07:56:22.000Z</time>
      </trkpt>
      <trkpt lat="47.32548" lon="-2.44106">
        <ele>9.6000003814697</ele>
        <time>2021-05-27T07:56:23.000Z</time>
      </trkpt>
      <trkpt lat="47.3253" lon="-2.44161">
        <ele>9.6000003814697</ele>
        <time>2021-05-27T07:56:32.000Z</time>
      </trkpt>
      <trkpt lat="47.32525" lon="-2.44187">
        <ele>9.6000003814697</ele>
        <time>2021-05-27T07:56:36.000Z</time>
      </trkpt>
      <trkpt lat="47.32525" lon="-2.44193">
        <ele>9.6000003814697</ele>
        <time>2021-05-27T07:56:37.000Z</time>
      </trkpt>
      <trkpt lat="47.32526" lon="-2.44207">
        <ele>9.6000003814697</ele>
        <time>2021-05-27T07:56:40.000Z</time>
      </trkpt>
      <trkpt lat="47.32527" lon="-2.44211">
        <ele>9.6000003814697</ele>
        <time>2021-05-27T07:56:41.000Z</time>
      </trkpt>
      <trkpt lat="47.32538" lon="-2.44228">
        <ele>9.6000003814697</ele>
        <time>2021-05-27T07:56:47.000Z</time>
      </trkpt>
      <trkpt lat="47.32543" lon="-2.44235">
        <ele>9.6000003814697</ele>
        <time>2021-05-27T07:56:52.000Z</time>
      </trkpt>
      <trkpt lat="47.32548" lon="-2.44243">
        <ele>9.6000003814697</ele>
        <time>2021-05-27T07:56:57.000Z</time>
      </trkpt>
      <trkpt lat="47.32548" lon="-2.44245">
        <ele>9.6000003814697</ele>
        <time>2021-05-27T07:56:59.000Z</time>
      </trkpt>
      <trkpt lat="47.3255" lon="-2.44247">
        <ele>9.6000003814697</ele>
        <time>2021-05-27T07:57:47.000Z</time>
      </trkpt>
      <trkpt lat="47.32552" lon="-2.4425">
        <ele>9.6000003814697</ele>
        <time>2021-05-27T07:57:48.000Z</time>
      </trkpt>
      <trkpt lat="47.32557" lon="-2.44263">
        <ele>9.6000003814697</ele>
        <time>2021-05-27T07:57:51.000Z</time>
      </trkpt>
      <trkpt lat="47.32559" lon="-2.44273">
        <ele>9.6000003814697</ele>
        <time>2021-05-27T07:57:53.000Z</time>
      </trkpt>
      <trkpt lat="47.32563" lon="-2.44297">
        <ele>9.1999998092651</ele>
        <time>2021-05-27T07:57:57.000Z</time>
      </trkpt>
      <trkpt lat="47.32565" lon="-2.44303">
        <ele>8.8000001907349</ele>
        <time>2021-05-27T07:57:58.000Z</time>
      </trkpt>
      <trkpt lat="47.32568" lon="-2.44308">
        <ele>8.3999996185303</ele>
        <time>2021-05-27T07:57:59.000Z</time>
      </trkpt>
      <trkpt lat="47.32571" lon="-2.44315">
        <ele>8</ele>
        <time>2021-05-27T07:58:00.000Z</time>
      </trkpt>
      <trkpt lat="47.32574" lon="-2.44322">
        <ele>7.5999999046326</ele>
        <time>2021-05-27T07:58:01.000Z</time>
      </trkpt>
      <trkpt lat="47.32576" lon="-2.44328">
        <ele>7.5999999046326</ele>
        <time>2021-05-27T07:58:02.000Z</time>
      </trkpt>
      <trkpt lat="47.32579" lon="-2.44334">
        <ele>7.5999999046326</ele>
        <time>2021-05-27T07:58:03.000Z</time>
      </trkpt>
      <trkpt lat="47.32584" lon="-2.44347">
        <ele>7.5999999046326</ele>
        <time>2021-05-27T07:58:05.000Z</time>
      </trkpt>
      <trkpt lat="47.32591" lon="-2.44364">
        <ele>7.5999999046326</ele>
        <time>2021-05-27T07:58:08.000Z</time>
      </trkpt>
      <trkpt lat="47.32606" lon="-2.4438">
        <ele>7.5999999046326</ele>
        <time>2021-05-27T07:58:12.000Z</time>
      </trkpt>
      <trkpt lat="47.32609" lon="-2.44382">
        <ele>7.5999999046326</ele>
        <time>2021-05-27T07:58:13.000Z</time>
      </trkpt>
      <trkpt lat="47.3262" lon="-2.44396">
        <ele>7.5999999046326</ele>
        <time>2021-05-27T07:58:18.000Z</time>
      </trkpt>
      <trkpt lat="47.32632" lon="-2.4442">
        <ele>7.5999999046326</ele>
        <time>2021-05-27T07:58:24.000Z</time>
      </trkpt>
      <trkpt lat="47.32644" lon="-2.4445">
        <ele>7.5999999046326</ele>
        <time>2021-05-27T07:58:30.000Z</time>
      </trkpt>
      <trkpt lat="47.3265" lon="-2.44468">
        <ele>8</ele>
        <time>2021-05-27T07:58:33.000Z</time>
      </trkpt>
      <trkpt lat="47.32651" lon="-2.44475">
        <ele>8.3999996185303</ele>
        <time>2021-05-27T07:58:34.000Z</time>
      </trkpt>
      <trkpt lat="47.32653" lon="-2.44481">
        <ele>9</ele>
        <time>2021-05-27T07:58:35.000Z</time>
      </trkpt>
      <trkpt lat="47.32655" lon="-2.44486">
        <ele>9.3999996185303</ele>
        <time>2021-05-27T07:58:36.000Z</time>
      </trkpt>
      <trkpt lat="47.32658" lon="-2.44491">
        <ele>9.8000001907349</ele>
        <time>2021-05-27T07:58:37.000Z</time>
      </trkpt>
      <trkpt lat="47.32662" lon="-2.44494">
        <ele>9.8000001907349</ele>
        <time>2021-05-27T07:58:38.000Z</time>
      </trkpt>
      <trkpt lat="47.32671" lon="-2.44502">
        <ele>9.8000001907349</ele>
        <time>2021-05-27T07:58:41.000Z</time>
      </trkpt>
      <trkpt lat="47.32667" lon="-2.44513">
        <ele>9.8000001907349</ele>
        <time>2021-05-27T07:58:44.000Z</time>
      </trkpt>
      <trkpt lat="47.32658" lon="-2.44525">
        <ele>9.8000001907349</ele>
        <time>2021-05-27T07:58:47.000Z</time>
      </trkpt>
      <trkpt lat="47.32655" lon="-2.44529">
        <ele>9.8000001907349</ele>
        <time>2021-05-27T07:58:48.000Z</time>
      </trkpt>
      <trkpt lat="47.32651" lon="-2.44535">
        <ele>9.8000001907349</ele>
        <time>2021-05-27T07:58:49.000Z</time>
      </trkpt>
      <trkpt lat="47.32637" lon="-2.44563">
        <ele>9.8000001907349</ele>
        <time>2021-05-27T07:58:53.000Z</time>
      </trkpt>
      <trkpt lat="47.32613" lon="-2.44603">
        <ele>9.8000001907349</ele>
        <time>2021-05-27T07:58:59.000Z</time>
      </trkpt>
      <trkpt lat="47.32609" lon="-2.44611">
        <ele>9.1999998092651</ele>
        <time>2021-05-27T07:59:00.000Z</time>
      </trkpt>
      <trkpt lat="47.32605" lon="-2.44618">
        <ele>8.8000001907349</ele>
        <time>2021-05-27T07:59:01.000Z</time>
      </trkpt>
      <trkpt lat="47.326" lon="-2.44624">
        <ele>8.3999996185303</ele>
        <time>2021-05-27T07:59:02.000Z</time>
      </trkpt>
      <trkpt lat="47.32596" lon="-2.4463">
        <ele>8</ele>
        <time>2021-05-27T07:59:03.000Z</time>
      </trkpt>
      <trkpt lat="47.32592" lon="-2.44636">
        <ele>7.4000000953674</ele>
        <time>2021-05-27T07:59:04.000Z</time>
      </trkpt>
      <trkpt lat="47.32587" lon="-2.44641">
        <ele>7.4000000953674</ele>
        <time>2021-05-27T07:59:05.000Z</time>
      </trkpt>
      <trkpt lat="47.32574" lon="-2.44655">
        <ele>7</ele>
        <time>2021-05-27T07:59:08.000Z</time>
      </trkpt>
      <trkpt lat="47.32569" lon="-2.44659">
        <ele>6.5999999046326</ele>
        <time>2021-05-27T07:59:09.000Z</time>
      </trkpt>
      <trkpt lat="47.32564" lon="-2.44663">
        <ele>6.1999998092651</ele>
        <time>2021-05-27T07:59:10.000Z</time>
      </trkpt>
      <trkpt lat="47.32558" lon="-2.44668">
        <ele>5.5999999046326</ele>
        <time>2021-05-27T07:59:11.000Z</time>
      </trkpt>
      <trkpt lat="47.32553" lon="-2.44674">
        <ele>5.1999998092651</ele>
        <time>2021-05-27T07:59:12.000Z</time>
      </trkpt>
      <trkpt lat="47.32539" lon="-2.44695">
        <ele>4.8000001907349</ele>
        <time>2021-05-27T07:59:15.000Z</time>
      </trkpt>
      <trkpt lat="47.32535" lon="-2.44702">
        <ele>4.1999998092651</ele>
        <time>2021-05-27T07:59:16.000Z</time>
      </trkpt>
      <trkpt lat="47.32532" lon="-2.44709">
        <ele>3.7999999523163</ele>
        <time>2021-05-27T07:59:17.000Z</time>
      </trkpt>
      <trkpt lat="47.32531" lon="-2.44717">
        <ele>3.4000000953674</ele>
        <time>2021-05-27T07:59:18.000Z</time>
      </trkpt>
      <trkpt lat="47.32529" lon="-2.44725">
        <ele>2.2000000476837</ele>
        <time>2021-05-27T07:59:19.000Z</time>
      </trkpt>
      <trkpt lat="47.32525" lon="-2.44732">
        <ele>1.7999999523163</ele>
        <time>2021-05-27T07:59:20.000Z</time>
      </trkpt>
      <trkpt lat="47.32521" lon="-2.44737">
        <ele>1.2000000476837</ele>
        <time>2021-05-27T07:59:21.000Z</time>
      </trkpt>
      <trkpt lat="47.32518" lon="-2.44743">
        <ele>0.80000001192093</ele>
        <time>2021-05-27T07:59:22.000Z</time>
      </trkpt>
      <trkpt lat="47.32512" lon="-2.44749">
        <ele>0.80000001192093</ele>
        <time>2021-05-27T07:59:23.000Z</time>
      </trkpt>
      <trkpt lat="47.32499" lon="-2.4476">
        <ele>0.80000001192093</ele>
        <time>2021-05-27T07:59:25.000Z</time>
      </trkpt>
      <trkpt lat="47.32485" lon="-2.44772">
        <ele>0.40000000596046</ele>
        <time>2021-05-27T07:59:27.000Z</time>
      </trkpt>
      <trkpt lat="47.32478" lon="-2.44778">
        <ele>-0.20000000298023</ele>
        <time>2021-05-27T07:59:28.000Z</time>
      </trkpt>
      <trkpt lat="47.3247" lon="-2.44783">
        <ele>-0.60000002384186</ele>
        <time>2021-05-27T07:59:29.000Z</time>
      </trkpt>
      <trkpt lat="47.32463" lon="-2.44789">
        <ele>-1</ele>
        <time>2021-05-27T07:59:30.000Z</time>
      </trkpt>
      <trkpt lat="47.32454" lon="-2.44795">
        <ele>-1.3999999761581</ele>
        <time>2021-05-27T07:59:31.000Z</time>
      </trkpt>
      <trkpt lat="47.32445" lon="-2.44801">
        <ele>-1.7999999523163</ele>
        <time>2021-05-27T07:59:32.000Z</time>
      </trkpt>
      <trkpt lat="47.32437" lon="-2.44808">
        <ele>-2.2000000476837</ele>
        <time>2021-05-27T07:59:33.000Z</time>
      </trkpt>
      <trkpt lat="47.32429" lon="-2.44815">
        <ele>-2.5999999046326</ele>
        <time>2021-05-27T07:59:34.000Z</time>
      </trkpt>
      <trkpt lat="47.32421" lon="-2.44821">
        <ele>-3</ele>
        <time>2021-05-27T07:59:35.000Z</time>
      </trkpt>
      <trkpt lat="47.32412" lon="-2.44827">
        <ele>-3.4000000953674</ele>
        <time>2021-05-27T07:59:36.000Z</time>
      </trkpt>
      <trkpt lat="47.32404" lon="-2.44833">
        <ele>-3.4000000953674</ele>
        <time>2021-05-27T07:59:37.000Z</time>
      </trkpt>
      <trkpt lat="47.32395" lon="-2.44839">
        <ele>-4</ele>
        <time>2021-05-27T07:59:38.000Z</time>
      </trkpt>
      <trkpt lat="47.32386" lon="-2.44845">
        <ele>-4.5999999046326</ele>
        <time>2021-05-27T07:59:39.000Z</time>
      </trkpt>
      <trkpt lat="47.32379" lon="-2.4485">
        <ele>-5</ele>
        <time>2021-05-27T07:59:40.000Z</time>
      </trkpt>
      <trkpt lat="47.32372" lon="-2.44855">
        <ele>-5.5999999046326</ele>
        <time>2021-05-27T07:59:41.000Z</time>
      </trkpt>
      <trkpt lat="47.32366" lon="-2.44859">
        <ele>-6.1999998092651</ele>
        <time>2021-05-27T07:59:42.000Z</time>
      </trkpt>
      <trkpt lat="47.32361" lon="-2.44864">
        <ele>-6.1999998092651</ele>
        <time>2021-05-27T07:59:43.000Z</time>
      </trkpt>
      <trkpt lat="47.32356" lon="-2.44869">
        <ele>-6.5999999046326</ele>
        <time>2021-05-27T07:59:44.000Z</time>
      </trkpt>
      <trkpt lat="47.3235" lon="-2.44875">
        <ele>-7</ele>
        <time>2021-05-27T07:59:45.000Z</time>
      </trkpt>
      <trkpt lat="47.32345" lon="-2.4488">
        <ele>-7.4000000953674</ele>
        <time>2021-05-27T07:59:46.000Z</time>
      </trkpt>
      <trkpt lat="47.32341" lon="-2.44886">
        <ele>-7.8000001907349</ele>
        <time>2021-05-27T07:59:47.000Z</time>
      </trkpt>
      <trkpt lat="47.32336" lon="-2.44891">
        <ele>-8.1999998092651</ele>
        <time>2021-05-27T07:59:48.000Z</time>
      </trkpt>
      <trkpt lat="47.32326" lon="-2.44903">
        <ele>-8.1999998092651</ele>
        <time>2021-05-27T07:59:50.000Z</time>
      </trkpt>
      <trkpt lat="47.32315" lon="-2.44916">
        <ele>-8.1999998092651</ele>
        <time>2021-05-27T07:59:52.000Z</time>
      </trkpt>
      <trkpt lat="47.32276" lon="-2.44961">
        <ele>-8.1999998092651</ele>
        <time>2021-05-27T07:59:59.000Z</time>
      </trkpt>
      <trkpt lat="47.32253" lon="-2.44986">
        <ele>-8.6000003814697</ele>
        <time>2021-05-27T08:00:03.000Z</time>
      </trkpt>
      <trkpt lat="47.32247" lon="-2.44993">
        <ele>-9</ele>
        <time>2021-05-27T08:00:04.000Z</time>
      </trkpt>
      <trkpt lat="47.32241" lon="-2.45">
        <ele>-9.6000003814697</ele>
        <time>2021-05-27T08:00:05.000Z</time>
      </trkpt>
      <trkpt lat="47.32236" lon="-2.45007">
        <ele>-10.199999809265</ele>
        <time>2021-05-27T08:00:06.000Z</time>
      </trkpt>
      <trkpt lat="47.32231" lon="-2.45013">
        <ele>-10.800000190735</ele>
        <time>2021-05-27T08:00:07.000Z</time>
      </trkpt>
      <trkpt lat="47.32227" lon="-2.45019">
        <ele>-11.199999809265</ele>
        <time>2021-05-27T08:00:08.000Z</time>
      </trkpt>
      <trkpt lat="47.32223" lon="-2.45023">
        <ele>-13</ele>
        <time>2021-05-27T08:00:09.000Z</time>
      </trkpt>
      <trkpt lat="47.3222" lon="-2.45026">
        <ele>-13.800000190735</ele>
        <time>2021-05-27T08:00:10.000Z</time>
      </trkpt>
      <trkpt lat="47.32218" lon="-2.45029">
        <ele>-14.60000038147</ele>
        <time>2021-05-27T08:00:11.000Z</time>
      </trkpt>
      <trkpt lat="47.32217" lon="-2.45033">
        <ele>-15.199999809265</ele>
        <time>2021-05-27T08:00:12.000Z</time>
      </trkpt>
      <trkpt lat="47.32217" lon="-2.45038">
        <ele>-15.800000190735</ele>
        <time>2021-05-27T08:00:13.000Z</time>
      </trkpt>
      <trkpt lat="47.32219" lon="-2.45044">
        <ele>-16.39999961853</ele>
        <time>2021-05-27T08:00:14.000Z</time>
      </trkpt>
      <trkpt lat="47.32222" lon="-2.45049">
        <ele>-17</ele>
        <time>2021-05-27T08:00:15.000Z</time>
      </trkpt>
      <trkpt lat="47.32225" lon="-2.45054">
        <ele>-17.60000038147</ele>
        <time>2021-05-27T08:00:16.000Z</time>
      </trkpt>
      <trkpt lat="47.32243" lon="-2.45096">
        <ele>-17.60000038147</ele>
        <time>2021-05-27T08:00:22.000Z</time>
      </trkpt>
      <trkpt lat="47.32263" lon="-2.45154">
        <ele>-17.60000038147</ele>
        <time>2021-05-27T08:00:29.000Z</time>
      </trkpt>
      <trkpt lat="47.32272" lon="-2.45191">
        <ele>-18</ele>
        <time>2021-05-27T08:00:33.000Z</time>
      </trkpt>
      <trkpt lat="47.32276" lon="-2.45201">
        <ele>-19</ele>
        <time>2021-05-27T08:00:34.000Z</time>
      </trkpt>
      <trkpt lat="47.3228" lon="-2.4521">
        <ele>-19.60000038147</ele>
        <time>2021-05-27T08:00:35.000Z</time>
      </trkpt>
      <trkpt lat="47.32285" lon="-2.4522">
        <ele>-20</ele>
        <time>2021-05-27T08:00:36.000Z</time>
      </trkpt>
      <trkpt lat="47.32289" lon="-2.45228">
        <ele>-20.39999961853</ele>
        <time>2021-05-27T08:00:37.000Z</time>
      </trkpt>
      <trkpt lat="47.32292" lon="-2.45236">
        <ele>-21</ele>
        <time>2021-05-27T08:00:38.000Z</time>
      </trkpt>
      <trkpt lat="47.32296" lon="-2.45244">
        <ele>-21.39999961853</ele>
        <time>2021-05-27T08:00:39.000Z</time>
      </trkpt>
      <trkpt lat="47.32299" lon="-2.45251">
        <ele>-21.799999237061</ele>
        <time>2021-05-27T08:00:40.000Z</time>
      </trkpt>
      <trkpt lat="47.323" lon="-2.45258">
        <ele>-22.200000762939</ele>
        <time>2021-05-27T08:00:41.000Z</time>
      </trkpt>
      <trkpt lat="47.32304" lon="-2.45271">
        <ele>-22.200000762939</ele>
        <time>2021-05-27T08:00:43.000Z</time>
      </trkpt>
      <trkpt lat="47.32313" lon="-2.45307">
        <ele>-21.799999237061</ele>
        <time>2021-05-27T08:00:49.000Z</time>
      </trkpt>
      <trkpt lat="47.32314" lon="-2.45313">
        <ele>-21.39999961853</ele>
        <time>2021-05-27T08:00:50.000Z</time>
      </trkpt>
      <trkpt lat="47.32315" lon="-2.45318">
        <ele>-21</ele>
        <time>2021-05-27T08:00:51.000Z</time>
      </trkpt>
      <trkpt lat="47.32315" lon="-2.45324">
        <ele>-20.60000038147</ele>
        <time>2021-05-27T08:00:52.000Z</time>
      </trkpt>
      <trkpt lat="47.32314" lon="-2.4533">
        <ele>-20.200000762939</ele>
        <time>2021-05-27T08:00:53.000Z</time>
      </trkpt>
      <trkpt lat="47.32315" lon="-2.45353">
        <ele>-20.200000762939</ele>
        <time>2021-05-27T08:00:56.000Z</time>
      </trkpt>
      <trkpt lat="47.32317" lon="-2.45393">
        <ele>-20.60000038147</ele>
        <time>2021-05-27T08:01:01.000Z</time>
      </trkpt>
      <trkpt lat="47.32316" lon="-2.45399">
        <ele>-21.200000762939</ele>
        <time>2021-05-27T08:01:02.000Z</time>
      </trkpt>
      <trkpt lat="47.32314" lon="-2.45407">
        <ele>-21.60000038147</ele>
        <time>2021-05-27T08:01:03.000Z</time>
      </trkpt>
      <trkpt lat="47.32312" lon="-2.45415">
        <ele>-22.200000762939</ele>
        <time>2021-05-27T08:01:04.000Z</time>
      </trkpt>
      <trkpt lat="47.32314" lon="-2.45423">
        <ele>-22.60000038147</ele>
        <time>2021-05-27T08:01:05.000Z</time>
      </trkpt>
      <trkpt lat="47.32321" lon="-2.45438">
        <ele>-22.60000038147</ele>
        <time>2021-05-27T08:01:07.000Z</time>
      </trkpt>
      <trkpt lat="47.32325" lon="-2.45445">
        <ele>-22.60000038147</ele>
        <time>2021-05-27T08:01:08.000Z</time>
      </trkpt>
      <trkpt lat="47.32351" lon="-2.45484">
        <ele>-22.60000038147</ele>
        <time>2021-05-27T08:01:14.000Z</time>
      </trkpt>
      <trkpt lat="47.32378" lon="-2.45525">
        <ele>-22.60000038147</ele>
        <time>2021-05-27T08:01:21.000Z</time>
      </trkpt>
      <trkpt lat="47.32392" lon="-2.45554">
        <ele>-22.60000038147</ele>
        <time>2021-05-27T08:01:26.000Z</time>
      </trkpt>
      <trkpt lat="47.32395" lon="-2.45558">
        <ele>-22.60000038147</ele>
        <time>2021-05-27T08:01:27.000Z</time>
      </trkpt>
      <trkpt lat="47.32398" lon="-2.45562">
        <ele>-22.60000038147</ele>
        <time>2021-05-27T08:01:28.000Z</time>
      </trkpt>
      <trkpt lat="47.32412" lon="-2.45576">
        <ele>-22.60000038147</ele>
        <time>2021-05-27T08:01:32.000Z</time>
      </trkpt>
      <trkpt lat="47.32418" lon="-2.45597">
        <ele>-22.60000038147</ele>
        <time>2021-05-27T08:01:36.000Z</time>
      </trkpt>
      <trkpt lat="47.32419" lon="-2.45603">
        <ele>-22.60000038147</ele>
        <time>2021-05-27T08:01:37.000Z</time>
      </trkpt>
      <trkpt lat="47.32429" lon="-2.45625">
        <ele>-22.60000038147</ele>
        <time>2021-05-27T08:01:41.000Z</time>
      </trkpt>
      <trkpt lat="47.32432" lon="-2.4563">
        <ele>-22.60000038147</ele>
        <time>2021-05-27T08:01:42.000Z</time>
      </trkpt>
      <trkpt lat="47.32453" lon="-2.45663">
        <ele>-22.60000038147</ele>
        <time>2021-05-27T08:01:48.000Z</time>
      </trkpt>
      <trkpt lat="47.32476" lon="-2.45698">
        <ele>-23</ele>
        <time>2021-05-27T08:01:54.000Z</time>
      </trkpt>
      <trkpt lat="47.32479" lon="-2.45704">
        <ele>-23.39999961853</ele>
        <time>2021-05-27T08:01:55.000Z</time>
      </trkpt>
      <trkpt lat="47.32482" lon="-2.45711">
        <ele>-23.799999237061</ele>
        <time>2021-05-27T08:01:56.000Z</time>
      </trkpt>
      <trkpt lat="47.32486" lon="-2.45717">
        <ele>-24.200000762939</ele>
        <time>2021-05-27T08:01:57.000Z</time>
      </trkpt>
      <trkpt lat="47.32489" lon="-2.45723">
        <ele>-24.60000038147</ele>
        <time>2021-05-27T08:01:58.000Z</time>
      </trkpt>
      <trkpt lat="47.32502" lon="-2.45746">
        <ele>-24.60000038147</ele>
        <time>2021-05-27T08:02:02.000Z</time>
      </trkpt>
      <trkpt lat="47.32528" lon="-2.45793">
        <ele>-24.60000038147</ele>
        <time>2021-05-27T08:02:10.000Z</time>
      </trkpt>
      <trkpt lat="47.32532" lon="-2.45799">
        <ele>-24.60000038147</ele>
        <time>2021-05-27T08:02:11.000Z</time>
      </trkpt>
      <trkpt lat="47.32538" lon="-2.45811">
        <ele>-24.60000038147</ele>
        <time>2021-05-27T08:02:13.000Z</time>
      </trkpt>
      <trkpt lat="47.32543" lon="-2.45815">
        <ele>-24.60000038147</ele>
        <time>2021-05-27T08:02:14.000Z</time>
      </trkpt>
      <trkpt lat="47.32561" lon="-2.45842">
        <ele>-24.60000038147</ele>
        <time>2021-05-27T08:02:19.000Z</time>
      </trkpt>
      <trkpt lat="47.32565" lon="-2.45849">
        <ele>-24.60000038147</ele>
        <time>2021-05-27T08:02:20.000Z</time>
      </trkpt>
      <trkpt lat="47.32577" lon="-2.45873">
        <ele>-24.60000038147</ele>
        <time>2021-05-27T08:02:24.000Z</time>
      </trkpt>
      <trkpt lat="47.32583" lon="-2.45882">
        <ele>-24.60000038147</ele>
        <time>2021-05-27T08:02:26.000Z</time>
      </trkpt>
      <trkpt lat="47.32606" lon="-2.4591">
        <ele>-24.60000038147</ele>
        <time>2021-05-27T08:02:33.000Z</time>
      </trkpt>
      <trkpt lat="47.32624" lon="-2.4594">
        <ele>-24.60000038147</ele>
        <time>2021-05-27T08:02:39.000Z</time>
      </trkpt>
      <trkpt lat="47.32639" lon="-2.4596">
        <ele>-24.60000038147</ele>
        <time>2021-05-27T08:02:43.000Z</time>
      </trkpt>
      <trkpt lat="47.32648" lon="-2.45968">
        <ele>-24.60000038147</ele>
        <time>2021-05-27T08:02:45.000Z</time>
      </trkpt>
      <trkpt lat="47.32666" lon="-2.45984">
        <ele>-24.60000038147</ele>
        <time>2021-05-27T08:02:50.000Z</time>
      </trkpt>
      <trkpt lat="47.32674" lon="-2.45995">
        <ele>-24.60000038147</ele>
        <time>2021-05-27T08:02:55.000Z</time>
      </trkpt>
      <trkpt lat="47.32678" lon="-2.46">
        <ele>-24.60000038147</ele>
        <time>2021-05-27T08:02:59.000Z</time>
      </trkpt>
      <trkpt lat="47.3268" lon="-2.46004">
        <ele>-24.60000038147</ele>
        <time>2021-05-27T08:03:01.000Z</time>
      </trkpt>
      <trkpt lat="47.3269" lon="-2.46018">
        <ele>-24.60000038147</ele>
        <time>2021-05-27T08:03:07.000Z</time>
      </trkpt>
      <trkpt lat="47.32705" lon="-2.46036">
        <ele>-24.60000038147</ele>
        <time>2021-05-27T08:03:14.000Z</time>
      </trkpt>
      <trkpt lat="47.32717" lon="-2.46047">
        <ele>-24.60000038147</ele>
        <time>2021-05-27T08:03:20.000Z</time>
      </trkpt>
      <trkpt lat="47.32721" lon="-2.46054">
        <ele>-24.200000762939</ele>
        <time>2021-05-27T08:03:22.000Z</time>
      </trkpt>
      <trkpt lat="47.32723" lon="-2.46056">
        <ele>-23.799999237061</ele>
        <time>2021-05-27T08:03:23.000Z</time>
      </trkpt>
      <trkpt lat="47.32724" lon="-2.46057">
        <ele>-23.39999961853</ele>
        <time>2021-05-27T08:03:24.000Z</time>
      </trkpt>
      <trkpt lat="47.32725" lon="-2.46059">
        <ele>-23</ele>
        <time>2021-05-27T08:03:25.000Z</time>
      </trkpt>
      <trkpt lat="47.32726" lon="-2.46061">
        <ele>-22.60000038147</ele>
        <time>2021-05-27T08:03:26.000Z</time>
      </trkpt>
      <trkpt lat="47.32736" lon="-2.46073">
        <ele>-22.60000038147</ele>
        <time>2021-05-27T08:03:31.000Z</time>
      </trkpt>
      <trkpt lat="47.3275" lon="-2.46095">
        <ele>-22.60000038147</ele>
        <time>2021-05-27T08:03:38.000Z</time>
      </trkpt>
      <trkpt lat="47.32755" lon="-2.4611">
        <ele>-22.200000762939</ele>
        <time>2021-05-27T08:03:43.000Z</time>
      </trkpt>
      <trkpt lat="47.32757" lon="-2.46114">
        <ele>-21.799999237061</ele>
        <time>2021-05-27T08:03:44.000Z</time>
      </trkpt>
      <trkpt lat="47.32757" lon="-2.46116">
        <ele>-21.39999961853</ele>
        <time>2021-05-27T08:03:45.000Z</time>
      </trkpt>
      <trkpt lat="47.32758" lon="-2.46119">
        <ele>-21</ele>
        <time>2021-05-27T08:03:46.000Z</time>
      </trkpt>
      <trkpt lat="47.32758" lon="-2.46121">
        <ele>-20.60000038147</ele>
        <time>2021-05-27T08:03:47.000Z</time>
      </trkpt>
      <trkpt lat="47.32764" lon="-2.46139">
        <ele>-20.60000038147</ele>
        <time>2021-05-27T08:03:50.000Z</time>
      </trkpt>
      <trkpt lat="47.32768" lon="-2.46148">
        <ele>-20.60000038147</ele>
        <time>2021-05-27T08:03:52.000Z</time>
      </trkpt>
      <trkpt lat="47.32777" lon="-2.46159">
        <ele>-20.200000762939</ele>
        <time>2021-05-27T08:03:55.000Z</time>
      </trkpt>
      <trkpt lat="47.32779" lon="-2.46163">
        <ele>-19.60000038147</ele>
        <time>2021-05-27T08:03:56.000Z</time>
      </trkpt>
      <trkpt lat="47.32782" lon="-2.46166">
        <ele>-19.200000762939</ele>
        <time>2021-05-27T08:03:57.000Z</time>
      </trkpt>
      <trkpt lat="47.32784" lon="-2.46169">
        <ele>-18.799999237061</ele>
        <time>2021-05-27T08:03:58.000Z</time>
      </trkpt>
      <trkpt lat="47.32786" lon="-2.46171">
        <ele>-18.39999961853</ele>
        <time>2021-05-27T08:03:59.000Z</time>
      </trkpt>
      <trkpt lat="47.32792" lon="-2.46177">
        <ele>-18.39999961853</ele>
        <time>2021-05-27T08:04:02.000Z</time>
      </trkpt>
      <trkpt lat="47.3281" lon="-2.46189">
        <ele>-18.39999961853</ele>
        <time>2021-05-27T08:04:08.000Z</time>
      </trkpt>
      <trkpt lat="47.32825" lon="-2.4619">
        <ele>-18.39999961853</ele>
        <time>2021-05-27T08:04:13.000Z</time>
      </trkpt>
      <trkpt lat="47.32834" lon="-2.46185">
        <ele>-18</ele>
        <time>2021-05-27T08:04:16.000Z</time>
      </trkpt>
      <trkpt lat="47.32837" lon="-2.46182">
        <ele>-17</ele>
        <time>2021-05-27T08:04:17.000Z</time>
      </trkpt>
      <trkpt lat="47.32839" lon="-2.4618">
        <ele>-16.60000038147</ele>
        <time>2021-05-27T08:04:18.000Z</time>
      </trkpt>
      <trkpt lat="47.32842" lon="-2.46177">
        <ele>-16.200000762939</ele>
        <time>2021-05-27T08:04:19.000Z</time>
      </trkpt>
      <trkpt lat="47.32855" lon="-2.46171">
        <ele>-15.800000190735</ele>
        <time>2021-05-27T08:04:23.000Z</time>
      </trkpt>
      <trkpt lat="47.32859" lon="-2.46169">
        <ele>-15.39999961853</ele>
        <time>2021-05-27T08:04:24.000Z</time>
      </trkpt>
      <trkpt lat="47.32862" lon="-2.46167">
        <ele>-15</ele>
        <time>2021-05-27T08:04:25.000Z</time>
      </trkpt>
      <trkpt lat="47.32866" lon="-2.46166">
        <ele>-14.60000038147</ele>
        <time>2021-05-27T08:04:26.000Z</time>
      </trkpt>
      <trkpt lat="47.32869" lon="-2.46164">
        <ele>-14.199999809265</ele>
        <time>2021-05-27T08:04:27.000Z</time>
      </trkpt>
      <trkpt lat="47.32881" lon="-2.46157">
        <ele>-13.800000190735</ele>
        <time>2021-05-27T08:04:31.000Z</time>
      </trkpt>
      <trkpt lat="47.32884" lon="-2.46155">
        <ele>-13.199999809265</ele>
        <time>2021-05-27T08:04:32.000Z</time>
      </trkpt>
      <trkpt lat="47.32886" lon="-2.46153">
        <ele>-12.800000190735</ele>
        <time>2021-05-27T08:04:33.000Z</time>
      </trkpt>
      <trkpt lat="47.32889" lon="-2.46152">
        <ele>-12.39999961853</ele>
        <time>2021-05-27T08:04:34.000Z</time>
      </trkpt>
      <trkpt lat="47.32892" lon="-2.46151">
        <ele>-12</ele>
        <time>2021-05-27T08:04:35.000Z</time>
      </trkpt>
      <trkpt lat="47.32899" lon="-2.46151">
        <ele>-12</ele>
        <time>2021-05-27T08:04:38.000Z</time>
      </trkpt>
      <trkpt lat="47.32901" lon="-2.46154">
        <ele>-12</ele>
        <time>2021-05-27T08:04:39.000Z</time>
      </trkpt>
      <trkpt lat="47.32907" lon="-2.46166">
        <ele>-12</ele>
        <time>2021-05-27T08:04:42.000Z</time>
      </trkpt>
      <trkpt lat="47.3291" lon="-2.46177">
        <ele>-12</ele>
        <time>2021-05-27T08:04:44.000Z</time>
      </trkpt>
      <trkpt lat="47.32916" lon="-2.46199">
        <ele>-12</ele>
        <time>2021-05-27T08:04:48.000Z</time>
      </trkpt>
      <trkpt lat="47.32921" lon="-2.46211">
        <ele>-12</ele>
        <time>2021-05-27T08:04:50.000Z</time>
      </trkpt>
      <trkpt lat="47.32928" lon="-2.46236">
        <ele>-12</ele>
        <time>2021-05-27T08:04:54.000Z</time>
      </trkpt>
      <trkpt lat="47.32929" lon="-2.46242">
        <ele>-12</ele>
        <time>2021-05-27T08:04:55.000Z</time>
      </trkpt>
      <trkpt lat="47.32938" lon="-2.46274">
        <ele>-12</ele>
        <time>2021-05-27T08:05:00.000Z</time>
      </trkpt>
      <trkpt lat="47.32941" lon="-2.46286">
        <ele>-12</ele>
        <time>2021-05-27T08:05:02.000Z</time>
      </trkpt>
      <trkpt lat="47.32948" lon="-2.46312">
        <ele>-12</ele>
        <time>2021-05-27T08:05:06.000Z</time>
      </trkpt>
      <trkpt lat="47.3296" lon="-2.46357">
        <ele>-12</ele>
        <time>2021-05-27T08:05:11.000Z</time>
      </trkpt>
      <trkpt lat="47.32963" lon="-2.46381">
        <ele>-12</ele>
        <time>2021-05-27T08:05:13.000Z</time>
      </trkpt>
      <trkpt lat="47.32964" lon="-2.46407">
        <ele>-12</ele>
        <time>2021-05-27T08:05:15.000Z</time>
      </trkpt>
      <trkpt lat="47.32964" lon="-2.46422">
        <ele>-12.39999961853</ele>
        <time>2021-05-27T08:05:16.000Z</time>
      </trkpt>
      <trkpt lat="47.32964" lon="-2.46438">
        <ele>-13</ele>
        <time>2021-05-27T08:05:17.000Z</time>
      </trkpt>
      <trkpt lat="47.32963" lon="-2.46454">
        <ele>-13.60000038147</ele>
        <time>2021-05-27T08:05:18.000Z</time>
      </trkpt>
      <trkpt lat="47.32962" lon="-2.46469">
        <ele>-14</ele>
        <time>2021-05-27T08:05:19.000Z</time>
      </trkpt>
      <trkpt lat="47.32961" lon="-2.46486">
        <ele>-14.60000038147</ele>
        <time>2021-05-27T08:05:20.000Z</time>
      </trkpt>
      <trkpt lat="47.3296" lon="-2.46503">
        <ele>-15.199999809265</ele>
        <time>2021-05-27T08:05:21.000Z</time>
      </trkpt>
      <trkpt lat="47.32958" lon="-2.46518">
        <ele>-15.60000038147</ele>
        <time>2021-05-27T08:05:22.000Z</time>
      </trkpt>
      <trkpt lat="47.32957" lon="-2.46532">
        <ele>-16.39999961853</ele>
        <time>2021-05-27T08:05:23.000Z</time>
      </trkpt>
      <trkpt lat="47.32956" lon="-2.46544">
        <ele>-17</ele>
        <time>2021-05-27T08:05:24.000Z</time>
      </trkpt>
      <trkpt lat="47.32957" lon="-2.46554">
        <ele>-17.799999237061</ele>
        <time>2021-05-27T08:05:25.000Z</time>
      </trkpt>
      <trkpt lat="47.3296" lon="-2.46561">
        <ele>-18.60000038147</ele>
        <time>2021-05-27T08:05:26.000Z</time>
      </trkpt>
      <trkpt lat="47.32965" lon="-2.46567">
        <ele>-19.60000038147</ele>
        <time>2021-05-27T08:05:27.000Z</time>
      </trkpt>
      <trkpt lat="47.32969" lon="-2.46568">
        <ele>-20.799999237061</ele>
        <time>2021-05-27T08:05:28.000Z</time>
      </trkpt>
      <trkpt lat="47.32974" lon="-2.46566">
        <ele>-21.799999237061</ele>
        <time>2021-05-27T08:05:29.000Z</time>
      </trkpt>
      <trkpt lat="47.32978" lon="-2.46564">
        <ele>-22.799999237061</ele>
        <time>2021-05-27T08:05:30.000Z</time>
      </trkpt>
      <trkpt lat="47.32982" lon="-2.46562">
        <ele>-23.799999237061</ele>
        <time>2021-05-27T08:05:31.000Z</time>
      </trkpt>
      <trkpt lat="47.32998" lon="-2.46553">
        <ele>-23.799999237061</ele>
        <time>2021-05-27T08:05:35.000Z</time>
      </trkpt>
      <trkpt lat="47.33006" lon="-2.4655">
        <ele>-23.39999961853</ele>
        <time>2021-05-27T08:05:37.000Z</time>
      </trkpt>
      <trkpt lat="47.33011" lon="-2.46547">
        <ele>-23</ele>
        <time>2021-05-27T08:05:38.000Z</time>
      </trkpt>
      <trkpt lat="47.33015" lon="-2.46545">
        <ele>-22.60000038147</ele>
        <time>2021-05-27T08:05:39.000Z</time>
      </trkpt>
      <trkpt lat="47.33019" lon="-2.46544">
        <ele>-22</ele>
        <time>2021-05-27T08:05:40.000Z</time>
      </trkpt>
      <trkpt lat="47.33023" lon="-2.46543">
        <ele>-21.60000038147</ele>
        <time>2021-05-27T08:05:41.000Z</time>
      </trkpt>
      <trkpt lat="47.33037" lon="-2.4654">
        <ele>-21.200000762939</ele>
        <time>2021-05-27T08:05:44.000Z</time>
      </trkpt>
      <trkpt lat="47.33042" lon="-2.46538">
        <ele>-20.799999237061</ele>
        <time>2021-05-27T08:05:45.000Z</time>
      </trkpt>
      <trkpt lat="47.33046" lon="-2.46537">
        <ele>-20.39999961853</ele>
        <time>2021-05-27T08:05:46.000Z</time>
      </trkpt>
      <trkpt lat="47.33051" lon="-2.46536">
        <ele>-20</ele>
        <time>2021-05-27T08:05:47.000Z</time>
      </trkpt>
      <trkpt lat="47.33055" lon="-2.46534">
        <ele>-19.60000038147</ele>
        <time>2021-05-27T08:05:48.000Z</time>
      </trkpt>
      <trkpt lat="47.33074" lon="-2.46525">
        <ele>-19.60000038147</ele>
        <time>2021-05-27T08:05:53.000Z</time>
      </trkpt>
      <trkpt lat="47.33081" lon="-2.46522">
        <ele>-19.200000762939</ele>
        <time>2021-05-27T08:05:55.000Z</time>
      </trkpt>
      <trkpt lat="47.33084" lon="-2.4652">
        <ele>-18.799999237061</ele>
        <time>2021-05-27T08:05:56.000Z</time>
      </trkpt>
      <trkpt lat="47.33087" lon="-2.46519">
        <ele>-18.39999961853</ele>
        <time>2021-05-27T08:05:57.000Z</time>
      </trkpt>
      <trkpt lat="47.3309" lon="-2.46518">
        <ele>-17.799999237061</ele>
        <time>2021-05-27T08:05:58.000Z</time>
      </trkpt>
      <trkpt lat="47.33093" lon="-2.46517">
        <ele>-17.39999961853</ele>
        <time>2021-05-27T08:05:59.000Z</time>
      </trkpt>
      <trkpt lat="47.33102" lon="-2.46514">
        <ele>-17</ele>
        <time>2021-05-27T08:06:02.000Z</time>
      </trkpt>
      <trkpt lat="47.33104" lon="-2.46512">
        <ele>-16.60000038147</ele>
        <time>2021-05-27T08:06:03.000Z</time>
      </trkpt>
      <trkpt lat="47.33107" lon="-2.46511">
        <ele>-16.200000762939</ele>
        <time>2021-05-27T08:06:04.000Z</time>
      </trkpt>
      <trkpt lat="47.3311" lon="-2.46509">
        <ele>-15.800000190735</ele>
        <time>2021-05-27T08:06:05.000Z</time>
      </trkpt>
      <trkpt lat="47.33112" lon="-2.46507">
        <ele>-15.39999961853</ele>
        <time>2021-05-27T08:06:06.000Z</time>
      </trkpt>
      <trkpt lat="47.33124" lon="-2.46501">
        <ele>-15.39999961853</ele>
        <time>2021-05-27T08:06:11.000Z</time>
      </trkpt>
      <trkpt lat="47.33128" lon="-2.46499">
        <ele>-15</ele>
        <time>2021-05-27T08:06:13.000Z</time>
      </trkpt>
      <trkpt lat="47.33131" lon="-2.46498">
        <ele>-14.60000038147</ele>
        <time>2021-05-27T08:06:14.000Z</time>
      </trkpt>
      <trkpt lat="47.33133" lon="-2.46497">
        <ele>-14.199999809265</ele>
        <time>2021-05-27T08:06:15.000Z</time>
      </trkpt>
      <trkpt lat="47.33136" lon="-2.46496">
        <ele>-13.800000190735</ele>
        <time>2021-05-27T08:06:16.000Z</time>
      </trkpt>
      <trkpt lat="47.33139" lon="-2.46496">
        <ele>-13.39999961853</ele>
        <time>2021-05-27T08:06:17.000Z</time>
      </trkpt>
      <trkpt lat="47.33141" lon="-2.46495">
        <ele>-13.39999961853</ele>
        <time>2021-05-27T08:06:18.000Z</time>
      </trkpt>
      <trkpt lat="47.33158" lon="-2.46491">
        <ele>-13.39999961853</ele>
        <time>2021-05-27T08:06:24.000Z</time>
      </trkpt>
      <trkpt lat="47.33165" lon="-2.46487">
        <ele>-13</ele>
        <time>2021-05-27T08:06:27.000Z</time>
      </trkpt>
      <trkpt lat="47.33167" lon="-2.46486">
        <ele>-12.60000038147</ele>
        <time>2021-05-27T08:06:28.000Z</time>
      </trkpt>
      <trkpt lat="47.3317" lon="-2.46484">
        <ele>-12.199999809265</ele>
        <time>2021-05-27T08:06:29.000Z</time>
      </trkpt>
      <trkpt lat="47.33172" lon="-2.46483">
        <ele>-11.800000190735</ele>
        <time>2021-05-27T08:06:30.000Z</time>
      </trkpt>
      <trkpt lat="47.33175" lon="-2.46482">
        <ele>-11.39999961853</ele>
        <time>2021-05-27T08:06:31.000Z</time>
      </trkpt>
      <trkpt lat="47.3319" lon="-2.46476">
        <ele>-11.39999961853</ele>
        <time>2021-05-27T08:06:37.000Z</time>
      </trkpt>
      <trkpt lat="47.33191" lon="-2.46476">
        <ele>-11</ele>
        <time>2021-05-27T08:06:38.000Z</time>
      </trkpt>
      <trkpt lat="47.33192" lon="-2.46475">
        <ele>-10.60000038147</ele>
        <time>2021-05-27T08:06:39.000Z</time>
      </trkpt>
      <trkpt lat="47.33194" lon="-2.46475">
        <ele>-10.199999809265</ele>
        <time>2021-05-27T08:06:40.000Z</time>
      </trkpt>
      <trkpt lat="47.33196" lon="-2.46474">
        <ele>-9.6000003814697</ele>
        <time>2021-05-27T08:06:41.000Z</time>
      </trkpt>
      <trkpt lat="47.33198" lon="-2.46474">
        <ele>-9.1999998092651</ele>
        <time>2021-05-27T08:06:42.000Z</time>
      </trkpt>
      <trkpt lat="47.3321" lon="-2.46475">
        <ele>-8.8000001907349</ele>
        <time>2021-05-27T08:06:48.000Z</time>
      </trkpt>
      <trkpt lat="47.33212" lon="-2.46474">
        <ele>-8.3999996185303</ele>
        <time>2021-05-27T08:06:49.000Z</time>
      </trkpt>
      <trkpt lat="47.33214" lon="-2.46472">
        <ele>-8</ele>
        <time>2021-05-27T08:06:50.000Z</time>
      </trkpt>
      <trkpt lat="47.33216" lon="-2.46472">
        <ele>-7.5999999046326</ele>
        <time>2021-05-27T08:06:51.000Z</time>
      </trkpt>
      <trkpt lat="47.33218" lon="-2.46472">
        <ele>-7.1999998092651</ele>
        <time>2021-05-27T08:06:52.000Z</time>
      </trkpt>
      <trkpt lat="47.33224" lon="-2.46465">
        <ele>-7.1999998092651</ele>
        <time>2021-05-27T08:06:55.000Z</time>
      </trkpt>
      <trkpt lat="47.33226" lon="-2.46462">
        <ele>-6.8000001907349</ele>
        <time>2021-05-27T08:06:56.000Z</time>
      </trkpt>
      <trkpt lat="47.33227" lon="-2.46458">
        <ele>-6.1999998092651</ele>
        <time>2021-05-27T08:06:57.000Z</time>
      </trkpt>
      <trkpt lat="47.33228" lon="-2.46455">
        <ele>-5.8000001907349</ele>
        <time>2021-05-27T08:06:58.000Z</time>
      </trkpt>
      <trkpt lat="47.3323" lon="-2.46452">
        <ele>-5.4000000953674</ele>
        <time>2021-05-27T08:06:59.000Z</time>
      </trkpt>
      <trkpt lat="47.33232" lon="-2.46448">
        <ele>-5</ele>
        <time>2021-05-27T08:07:00.000Z</time>
      </trkpt>
      <trkpt lat="47.33235" lon="-2.46441">
        <ele>-5</ele>
        <time>2021-05-27T08:07:02.000Z</time>
      </trkpt>
      <trkpt lat="47.3325" lon="-2.46429">
        <ele>-5</ele>
        <time>2021-05-27T08:07:08.000Z</time>
      </trkpt>
      <trkpt lat="47.33252" lon="-2.46429">
        <ele>-4.1999998092651</ele>
        <time>2021-05-27T08:07:09.000Z</time>
      </trkpt>
      <trkpt lat="47.33254" lon="-2.46429">
        <ele>-3.7999999523163</ele>
        <time>2021-05-27T08:07:10.000Z</time>
      </trkpt>
      <trkpt lat="47.33257" lon="-2.46429">
        <ele>-3.4000000953674</ele>
        <time>2021-05-27T08:07:11.000Z</time>
      </trkpt>
      <trkpt lat="47.33259" lon="-2.46429">
        <ele>-3</ele>
        <time>2021-05-27T08:07:12.000Z</time>
      </trkpt>
      <trkpt lat="47.33265" lon="-2.46429">
        <ele>-3</ele>
        <time>2021-05-27T08:07:14.000Z</time>
      </trkpt>
      <trkpt lat="47.33276" lon="-2.4644">
        <ele>-3</ele>
        <time>2021-05-27T08:07:19.000Z</time>
      </trkpt>
      <trkpt lat="47.33282" lon="-2.46463">
        <ele>-3</ele>
        <time>2021-05-27T08:07:25.000Z</time>
      </trkpt>
      <trkpt lat="47.33282" lon="-2.46478">
        <ele>-3</ele>
        <time>2021-05-27T08:07:29.000Z</time>
      </trkpt>
      <trkpt lat="47.33286" lon="-2.46497">
        <ele>-3</ele>
        <time>2021-05-27T08:07:34.000Z</time>
      </trkpt>
      <trkpt lat="47.33289" lon="-2.46531">
        <ele>-3</ele>
        <time>2021-05-27T08:07:39.000Z</time>
      </trkpt>
      <trkpt lat="47.33296" lon="-2.46576">
        <ele>-3</ele>
        <time>2021-05-27T08:07:45.000Z</time>
      </trkpt>
      <trkpt lat="47.33298" lon="-2.46583">
        <ele>-3.4000000953674</ele>
        <time>2021-05-27T08:07:46.000Z</time>
      </trkpt>
      <trkpt lat="47.333" lon="-2.4659">
        <ele>-3.7999999523163</ele>
        <time>2021-05-27T08:07:47.000Z</time>
      </trkpt>
      <trkpt lat="47.33303" lon="-2.46595">
        <ele>-4.1999998092651</ele>
        <time>2021-05-27T08:07:48.000Z</time>
      </trkpt>
      <trkpt lat="47.33305" lon="-2.466">
        <ele>-4.5999999046326</ele>
        <time>2021-05-27T08:07:49.000Z</time>
      </trkpt>
      <trkpt lat="47.33308" lon="-2.46605">
        <ele>-5</ele>
        <time>2021-05-27T08:07:50.000Z</time>
      </trkpt>
      <trkpt lat="47.33327" lon="-2.46632">
        <ele>-5</ele>
        <time>2021-05-27T08:07:57.000Z</time>
      </trkpt>
      <trkpt lat="47.33326" lon="-2.46645">
        <ele>-5</ele>
        <time>2021-05-27T08:08:01.000Z</time>
      </trkpt>
      <trkpt lat="47.33326" lon="-2.4665">
        <ele>-5.4000000953674</ele>
        <time>2021-05-27T08:08:03.000Z</time>
      </trkpt>
      <trkpt lat="47.33325" lon="-2.46652">
        <ele>-5.8000001907349</ele>
        <time>2021-05-27T08:08:04.000Z</time>
      </trkpt>
      <trkpt lat="47.33325" lon="-2.46653">
        <ele>-6.1999998092651</ele>
        <time>2021-05-27T08:08:05.000Z</time>
      </trkpt>
      <trkpt lat="47.33325" lon="-2.46655">
        <ele>-6.5999999046326</ele>
        <time>2021-05-27T08:08:06.000Z</time>
      </trkpt>
      <trkpt lat="47.33325" lon="-2.46657">
        <ele>-7</ele>
        <time>2021-05-27T08:08:07.000Z</time>
      </trkpt>
      <trkpt lat="47.33327" lon="-2.46661">
        <ele>-7</ele>
        <time>2021-05-27T08:08:10.000Z</time>
      </trkpt>
      <trkpt lat="47.33331" lon="-2.46658">
        <ele>-7</ele>
        <time>2021-05-27T08:08:12.000Z</time>
      </trkpt>
      <trkpt lat="47.3334" lon="-2.46653">
        <ele>-7</ele>
        <time>2021-05-27T08:08:16.000Z</time>
      </trkpt>
      <trkpt lat="47.33343" lon="-2.46652">
        <ele>-7</ele>
        <time>2021-05-27T08:08:17.000Z</time>
      </trkpt>
      <trkpt lat="47.33363" lon="-2.46645">
        <ele>-7</ele>
        <time>2021-05-27T08:08:23.000Z</time>
      </trkpt>
      <trkpt lat="47.33378" lon="-2.46634">
        <ele>-7</ele>
        <time>2021-05-27T08:08:28.000Z</time>
      </trkpt>
      <trkpt lat="47.3338" lon="-2.46632">
        <ele>-6.5999999046326</ele>
        <time>2021-05-27T08:08:29.000Z</time>
      </trkpt>
      <trkpt lat="47.33382" lon="-2.46629">
        <ele>-6.1999998092651</ele>
        <time>2021-05-27T08:08:30.000Z</time>
      </trkpt>
      <trkpt lat="47.33384" lon="-2.46625">
        <ele>-5.8000001907349</ele>
        <time>2021-05-27T08:08:31.000Z</time>
      </trkpt>
      <trkpt lat="47.33387" lon="-2.46622">
        <ele>-5.4000000953674</ele>
        <time>2021-05-27T08:08:32.000Z</time>
      </trkpt>
      <trkpt lat="47.3339" lon="-2.46619">
        <ele>-5</ele>
        <time>2021-05-27T08:08:33.000Z</time>
      </trkpt>
      <trkpt lat="47.33403" lon="-2.46604">
        <ele>-5</ele>
        <time>2021-05-27T08:08:39.000Z</time>
      </trkpt>
      <trkpt lat="47.3341" lon="-2.46599">
        <ele>-4.5999999046326</ele>
        <time>2021-05-27T08:08:42.000Z</time>
      </trkpt>
      <trkpt lat="47.33412" lon="-2.46597">
        <ele>-4.1999998092651</ele>
        <time>2021-05-27T08:08:43.000Z</time>
      </trkpt>
      <trkpt lat="47.33414" lon="-2.46595">
        <ele>-3.7999999523163</ele>
        <time>2021-05-27T08:08:44.000Z</time>
      </trkpt>
      <trkpt lat="47.33417" lon="-2.46593">
        <ele>-3.4000000953674</ele>
        <time>2021-05-27T08:08:45.000Z</time>
      </trkpt>
      <trkpt lat="47.3342" lon="-2.46591">
        <ele>-2.7999999523163</ele>
        <time>2021-05-27T08:08:46.000Z</time>
      </trkpt>
      <trkpt lat="47.33423" lon="-2.46588">
        <ele>-2.7999999523163</ele>
        <time>2021-05-27T08:08:47.000Z</time>
      </trkpt>
      <trkpt lat="47.33433" lon="-2.46583">
        <ele>-2.4000000953674</ele>
        <time>2021-05-27T08:08:50.000Z</time>
      </trkpt>
      <trkpt lat="47.33437" lon="-2.46581">
        <ele>-2</ele>
        <time>2021-05-27T08:08:51.000Z</time>
      </trkpt>
      <trkpt lat="47.33439" lon="-2.4658">
        <ele>-1.6000000238419</ele>
        <time>2021-05-27T08:08:52.000Z</time>
      </trkpt>
      <trkpt lat="47.33442" lon="-2.46578">
        <ele>-1.2000000476837</ele>
        <time>2021-05-27T08:08:53.000Z</time>
      </trkpt>
      <trkpt lat="47.33444" lon="-2.46575">
        <ele>-0.60000002384186</ele>
        <time>2021-05-27T08:08:54.000Z</time>
      </trkpt>
      <trkpt lat="47.33455" lon="-2.46562">
        <ele>-0.60000002384186</ele>
        <time>2021-05-27T08:08:59.000Z</time>
      </trkpt>
      <trkpt lat="47.3346" lon="-2.46557">
        <ele>-0.20000000298023</ele>
        <time>2021-05-27T08:09:01.000Z</time>
      </trkpt>
      <trkpt lat="47.33462" lon="-2.46554">
        <ele>0.20000000298023</ele>
        <time>2021-05-27T08:09:02.000Z</time>
      </trkpt>
      <trkpt lat="47.33464" lon="-2.46551">
        <ele>0.60000002384186</ele>
        <time>2021-05-27T08:09:03.000Z</time>
      </trkpt>
      <trkpt lat="47.33466" lon="-2.46549">
        <ele>1</ele>
        <time>2021-05-27T08:09:04.000Z</time>
      </trkpt>
      <trkpt lat="47.33468" lon="-2.46546">
        <ele>1.3999999761581</ele>
        <time>2021-05-27T08:09:05.000Z</time>
      </trkpt>
      <trkpt lat="47.33479" lon="-2.4653">
        <ele>1.3999999761581</ele>
        <time>2021-05-27T08:09:10.000Z</time>
      </trkpt>
      <trkpt lat="47.33484" lon="-2.46524">
        <ele>1.7999999523163</ele>
        <time>2021-05-27T08:09:12.000Z</time>
      </trkpt>
      <trkpt lat="47.33486" lon="-2.46521">
        <ele>2.4000000953674</ele>
        <time>2021-05-27T08:09:13.000Z</time>
      </trkpt>
      <trkpt lat="47.33488" lon="-2.46517">
        <ele>3.2000000476837</ele>
        <time>2021-05-27T08:09:14.000Z</time>
      </trkpt>
      <trkpt lat="47.3349" lon="-2.46514">
        <ele>3.5999999046326</ele>
        <time>2021-05-27T08:09:15.000Z</time>
      </trkpt>
      <trkpt lat="47.33492" lon="-2.46512">
        <ele>3.5999999046326</ele>
        <time>2021-05-27T08:09:16.000Z</time>
      </trkpt>
      <trkpt lat="47.3351" lon="-2.46495">
        <ele>3.5999999046326</ele>
        <time>2021-05-27T08:09:23.000Z</time>
      </trkpt>
      <trkpt lat="47.33514" lon="-2.46491">
        <ele>4</ele>
        <time>2021-05-27T08:09:25.000Z</time>
      </trkpt>
      <trkpt lat="47.33516" lon="-2.46489">
        <ele>4.4000000953674</ele>
        <time>2021-05-27T08:09:26.000Z</time>
      </trkpt>
      <trkpt lat="47.33517" lon="-2.46487">
        <ele>4.8000001907349</ele>
        <time>2021-05-27T08:09:27.000Z</time>
      </trkpt>
      <trkpt lat="47.3352" lon="-2.46487">
        <ele>5.1999998092651</ele>
        <time>2021-05-27T08:09:28.000Z</time>
      </trkpt>
      <trkpt lat="47.33523" lon="-2.46488">
        <ele>5.5999999046326</ele>
        <time>2021-05-27T08:09:29.000Z</time>
      </trkpt>
      <trkpt lat="47.33532" lon="-2.46491">
        <ele>5.5999999046326</ele>
        <time>2021-05-27T08:09:34.000Z</time>
      </trkpt>
      <trkpt lat="47.33532" lon="-2.4649">
        <ele>5.5999999046326</ele>
        <time>2021-05-27T08:09:36.000Z</time>
      </trkpt>
      <trkpt lat="47.33535" lon="-2.46493">
        <ele>5.5999999046326</ele>
        <time>2021-05-27T08:10:58.000Z</time>
      </trkpt>
      <trkpt lat="47.33537" lon="-2.46496">
        <ele>5.5999999046326</ele>
        <time>2021-05-27T08:10:59.000Z</time>
      </trkpt>
      <trkpt lat="47.33541" lon="-2.46516">
        <ele>5.5999999046326</ele>
        <time>2021-05-27T08:11:02.000Z</time>
      </trkpt>
      <trkpt lat="47.33544" lon="-2.4653">
        <ele>5.5999999046326</ele>
        <time>2021-05-27T08:11:04.000Z</time>
      </trkpt>
      <trkpt lat="47.33547" lon="-2.4655">
        <ele>5.5999999046326</ele>
        <time>2021-05-27T08:11:07.000Z</time>
      </trkpt>
      <trkpt lat="47.33548" lon="-2.46557">
        <ele>5.5999999046326</ele>
        <time>2021-05-27T08:11:08.000Z</time>
      </trkpt>
      <trkpt lat="47.33554" lon="-2.46578">
        <ele>5.5999999046326</ele>
        <time>2021-05-27T08:11:11.000Z</time>
      </trkpt>
      <trkpt lat="47.3356" lon="-2.46587">
        <ele>5.5999999046326</ele>
        <time>2021-05-27T08:11:13.000Z</time>
      </trkpt>
      <trkpt lat="47.33567" lon="-2.46592">
        <ele>5.1999998092651</ele>
        <time>2021-05-27T08:11:15.000Z</time>
      </trkpt>
      <trkpt lat="47.3357" lon="-2.46596">
        <ele>4.4000000953674</ele>
        <time>2021-05-27T08:11:16.000Z</time>
      </trkpt>
      <trkpt lat="47.33571" lon="-2.46601">
        <ele>4</ele>
        <time>2021-05-27T08:11:17.000Z</time>
      </trkpt>
      <trkpt lat="47.33573" lon="-2.46606">
        <ele>3.5999999046326</ele>
        <time>2021-05-27T08:11:18.000Z</time>
      </trkpt>
      <trkpt lat="47.33582" lon="-2.46636">
        <ele>3.5999999046326</ele>
        <time>2021-05-27T08:11:23.000Z</time>
      </trkpt>
      <trkpt lat="47.33601" lon="-2.46683">
        <ele>3.5999999046326</ele>
        <time>2021-05-27T08:11:31.000Z</time>
      </trkpt>
      <trkpt lat="47.33616" lon="-2.46722">
        <ele>3.5999999046326</ele>
        <time>2021-05-27T08:11:38.000Z</time>
      </trkpt>
      <trkpt lat="47.33619" lon="-2.46748">
        <ele>3.5999999046326</ele>
        <time>2021-05-27T08:11:43.000Z</time>
      </trkpt>
      <trkpt lat="47.33614" lon="-2.46758">
        <ele>3.5999999046326</ele>
        <time>2021-05-27T08:11:45.000Z</time>
      </trkpt>
      <trkpt lat="47.3361" lon="-2.46762">
        <ele>3.5999999046326</ele>
        <time>2021-05-27T08:11:46.000Z</time>
      </trkpt>
      <trkpt lat="47.33582" lon="-2.4679">
        <ele>3.2000000476837</ele>
        <time>2021-05-27T08:11:52.000Z</time>
      </trkpt>
      <trkpt lat="47.33577" lon="-2.46796">
        <ele>2.5999999046326</ele>
        <time>2021-05-27T08:11:53.000Z</time>
      </trkpt>
      <trkpt lat="47.33572" lon="-2.46802">
        <ele>2.2000000476837</ele>
        <time>2021-05-27T08:11:54.000Z</time>
      </trkpt>
      <trkpt lat="47.33567" lon="-2.46809">
        <ele>1.6000000238419</ele>
        <time>2021-05-27T08:11:55.000Z</time>
      </trkpt>
      <trkpt lat="47.33561" lon="-2.46815">
        <ele>1.2000000476837</ele>
        <time>2021-05-27T08:11:56.000Z</time>
      </trkpt>
      <trkpt lat="47.33555" lon="-2.46821">
        <ele>0.80000001192093</ele>
        <time>2021-05-27T08:11:57.000Z</time>
      </trkpt>
      <trkpt lat="47.3355" lon="-2.46826">
        <ele>0.20000000298023</ele>
        <time>2021-05-27T08:11:58.000Z</time>
      </trkpt>
      <trkpt lat="47.33545" lon="-2.4683">
        <ele>-0.20000000298023</ele>
        <time>2021-05-27T08:11:59.000Z</time>
      </trkpt>
      <trkpt lat="47.33541" lon="-2.46834">
        <ele>-0.80000001192093</ele>
        <time>2021-05-27T08:12:00.000Z</time>
      </trkpt>
      <trkpt lat="47.33538" lon="-2.46838">
        <ele>-1.6000000238419</ele>
        <time>2021-05-27T08:12:01.000Z</time>
      </trkpt>
      <trkpt lat="47.33536" lon="-2.46842">
        <ele>-2.2000000476837</ele>
        <time>2021-05-27T08:12:02.000Z</time>
      </trkpt>
      <trkpt lat="47.33533" lon="-2.46847">
        <ele>-2.7999999523163</ele>
        <time>2021-05-27T08:12:03.000Z</time>
      </trkpt>
      <trkpt lat="47.33533" lon="-2.46853">
        <ele>-3.4000000953674</ele>
        <time>2021-05-27T08:12:04.000Z</time>
      </trkpt>
      <trkpt lat="47.33533" lon="-2.46867">
        <ele>-3.7999999523163</ele>
        <time>2021-05-27T08:12:06.000Z</time>
      </trkpt>
      <trkpt lat="47.33533" lon="-2.46873">
        <ele>-4.8000001907349</ele>
        <time>2021-05-27T08:12:07.000Z</time>
      </trkpt>
      <trkpt lat="47.33532" lon="-2.46878">
        <ele>-5.1999998092651</ele>
        <time>2021-05-27T08:12:08.000Z</time>
      </trkpt>
      <trkpt lat="47.3353" lon="-2.46883">
        <ele>-5.5999999046326</ele>
        <time>2021-05-27T08:12:09.000Z</time>
      </trkpt>
      <trkpt lat="47.33524" lon="-2.46892">
        <ele>-6</ele>
        <time>2021-05-27T08:12:11.000Z</time>
      </trkpt>
      <trkpt lat="47.33521" lon="-2.46896">
        <ele>-6.4000000953674</ele>
        <time>2021-05-27T08:12:12.000Z</time>
      </trkpt>
      <trkpt lat="47.33517" lon="-2.46899">
        <ele>-6.8000001907349</ele>
        <time>2021-05-27T08:12:13.000Z</time>
      </trkpt>
      <trkpt lat="47.33513" lon="-2.46903">
        <ele>-7.4000000953674</ele>
        <time>2021-05-27T08:12:14.000Z</time>
      </trkpt>
      <trkpt lat="47.3351" lon="-2.46906">
        <ele>-7.8000001907349</ele>
        <time>2021-05-27T08:12:15.000Z</time>
      </trkpt>
      <trkpt lat="47.33506" lon="-2.4691">
        <ele>-7.8000001907349</ele>
        <time>2021-05-27T08:12:17.000Z</time>
      </trkpt>
      <trkpt lat="47.33502" lon="-2.46913">
        <ele>-8.1999998092651</ele>
        <time>2021-05-27T08:12:20.000Z</time>
      </trkpt>
      <trkpt lat="47.33501" lon="-2.46914">
        <ele>-8.6000003814697</ele>
        <time>2021-05-27T08:12:21.000Z</time>
      </trkpt>
      <trkpt lat="47.33499" lon="-2.46916">
        <ele>-9</ele>
        <time>2021-05-27T08:12:22.000Z</time>
      </trkpt>
      <trkpt lat="47.33498" lon="-2.46917">
        <ele>-9.3999996185303</ele>
        <time>2021-05-27T08:12:23.000Z</time>
      </trkpt>
      <trkpt lat="47.33496" lon="-2.46917">
        <ele>-9.8000001907349</ele>
        <time>2021-05-27T08:12:24.000Z</time>
      </trkpt>
      <trkpt lat="47.33487" lon="-2.46923">
        <ele>-9.8000001907349</ele>
        <time>2021-05-27T08:12:29.000Z</time>
      </trkpt>
      <trkpt lat="47.33484" lon="-2.46926">
        <ele>-9.8000001907349</ele>
        <time>2021-05-27T08:12:32.000Z</time>
      </trkpt>
      <trkpt lat="47.33482" lon="-2.46927">
        <ele>-9.8000001907349</ele>
        <time>2021-05-27T08:12:53.000Z</time>
      </trkpt>
      <trkpt lat="47.33481" lon="-2.46928">
        <ele>-9.8000001907349</ele>
        <time>2021-05-27T08:12:54.000Z</time>
      </trkpt>
      <trkpt lat="47.33473" lon="-2.46939">
        <ele>-9.8000001907349</ele>
        <time>2021-05-27T08:13:00.000Z</time>
      </trkpt>
      <trkpt lat="47.33472" lon="-2.46941">
        <ele>-10.199999809265</ele>
        <time>2021-05-27T08:13:01.000Z</time>
      </trkpt>
      <trkpt lat="47.3347" lon="-2.46942">
        <ele>-10.60000038147</ele>
        <time>2021-05-27T08:13:02.000Z</time>
      </trkpt>
      <trkpt lat="47.33469" lon="-2.46944">
        <ele>-11</ele>
        <time>2021-05-27T08:13:03.000Z</time>
      </trkpt>
      <trkpt lat="47.33467" lon="-2.46946">
        <ele>-11.39999961853</ele>
        <time>2021-05-27T08:13:04.000Z</time>
      </trkpt>
      <trkpt lat="47.33466" lon="-2.46948">
        <ele>-11.800000190735</ele>
        <time>2021-05-27T08:13:05.000Z</time>
      </trkpt>
      <trkpt lat="47.33465" lon="-2.4695">
        <ele>-11.800000190735</ele>
        <time>2021-05-27T08:13:06.000Z</time>
      </trkpt>
      <trkpt lat="47.33454" lon="-2.46967">
        <ele>-11.800000190735</ele>
        <time>2021-05-27T08:13:11.000Z</time>
      </trkpt>
      <trkpt lat="47.33431" lon="-2.46999">
        <ele>-11.800000190735</ele>
        <time>2021-05-27T08:13:18.000Z</time>
      </trkpt>
      <trkpt lat="47.33406" lon="-2.47045">
        <ele>-11.800000190735</ele>
        <time>2021-05-27T08:13:26.000Z</time>
      </trkpt>
      <trkpt lat="47.33393" lon="-2.47086">
        <ele>-11.800000190735</ele>
        <time>2021-05-27T08:13:32.000Z</time>
      </trkpt>
      <trkpt lat="47.3339" lon="-2.47099">
        <ele>-12.199999809265</ele>
        <time>2021-05-27T08:13:34.000Z</time>
      </trkpt>
      <trkpt lat="47.33389" lon="-2.47107">
        <ele>-12.60000038147</ele>
        <time>2021-05-27T08:13:35.000Z</time>
      </trkpt>
      <trkpt lat="47.33388" lon="-2.47114">
        <ele>-13.199999809265</ele>
        <time>2021-05-27T08:13:36.000Z</time>
      </trkpt>
      <trkpt lat="47.33386" lon="-2.4712">
        <ele>-13.60000038147</ele>
        <time>2021-05-27T08:13:37.000Z</time>
      </trkpt>
      <trkpt lat="47.33384" lon="-2.47126">
        <ele>-14</ele>
        <time>2021-05-27T08:13:38.000Z</time>
      </trkpt>
      <trkpt lat="47.3338" lon="-2.47138">
        <ele>-14</ele>
        <time>2021-05-27T08:13:40.000Z</time>
      </trkpt>
      <trkpt lat="47.33373" lon="-2.47151">
        <ele>-14</ele>
        <time>2021-05-27T08:13:43.000Z</time>
      </trkpt>
      <trkpt lat="47.33368" lon="-2.47162">
        <ele>-14</ele>
        <time>2021-05-27T08:13:48.000Z</time>
      </trkpt>
      <trkpt lat="47.33368" lon="-2.47163">
        <ele>-16</ele>
        <time>2021-05-27T08:14:09.000Z</time>
      </trkpt>
      <trkpt lat="47.33369" lon="-2.47172">
        <ele>-16</ele>
        <time>2021-05-27T08:14:12.000Z</time>
      </trkpt>
      <trkpt lat="47.33372" lon="-2.47196">
        <ele>-16</ele>
        <time>2021-05-27T08:14:17.000Z</time>
      </trkpt>
      <trkpt lat="47.33377" lon="-2.4723">
        <ele>-16</ele>
        <time>2021-05-27T08:14:23.000Z</time>
      </trkpt>
      <trkpt lat="47.33379" lon="-2.47244">
        <ele>-16</ele>
        <time>2021-05-27T08:14:25.000Z</time>
      </trkpt>
      <trkpt lat="47.33385" lon="-2.47299">
        <ele>-16</ele>
        <time>2021-05-27T08:14:32.000Z</time>
      </trkpt>
      <trkpt lat="47.33387" lon="-2.47328">
        <ele>-16</ele>
        <time>2021-05-27T08:14:36.000Z</time>
      </trkpt>
      <trkpt lat="47.3339" lon="-2.47342">
        <ele>-16</ele>
        <time>2021-05-27T08:14:38.000Z</time>
      </trkpt>
      <trkpt lat="47.33403" lon="-2.47387">
        <ele>-16</ele>
        <time>2021-05-27T08:14:45.000Z</time>
      </trkpt>
      <trkpt lat="47.33405" lon="-2.47395">
        <ele>-16</ele>
        <time>2021-05-27T08:14:46.000Z</time>
      </trkpt>
      <trkpt lat="47.33412" lon="-2.47426">
        <ele>-16</ele>
        <time>2021-05-27T08:14:50.000Z</time>
      </trkpt>
      <trkpt lat="47.33418" lon="-2.47455">
        <ele>-16</ele>
        <time>2021-05-27T08:14:54.000Z</time>
      </trkpt>
      <trkpt lat="47.33425" lon="-2.47476">
        <ele>-16</ele>
        <time>2021-05-27T08:14:57.000Z</time>
      </trkpt>
      <trkpt lat="47.33429" lon="-2.4749">
        <ele>-16</ele>
        <time>2021-05-27T08:14:59.000Z</time>
      </trkpt>
      <trkpt lat="47.33439" lon="-2.47515">
        <ele>-16</ele>
        <time>2021-05-27T08:15:03.000Z</time>
      </trkpt>
      <trkpt lat="47.33464" lon="-2.47566">
        <ele>-16</ele>
        <time>2021-05-27T08:15:11.000Z</time>
      </trkpt>
      <trkpt lat="47.33483" lon="-2.47599">
        <ele>-16</ele>
        <time>2021-05-27T08:15:16.000Z</time>
      </trkpt>
      <trkpt lat="47.33487" lon="-2.47603">
        <ele>-16</ele>
        <time>2021-05-27T08:15:17.000Z</time>
      </trkpt>
      <trkpt lat="47.33502" lon="-2.47616">
        <ele>-16</ele>
        <time>2021-05-27T08:15:20.000Z</time>
      </trkpt>
      <trkpt lat="47.33509" lon="-2.47629">
        <ele>-16</ele>
        <time>2021-05-27T08:15:22.000Z</time>
      </trkpt>
      <trkpt lat="47.33524" lon="-2.47665">
        <ele>-16</ele>
        <time>2021-05-27T08:15:27.000Z</time>
      </trkpt>
      <trkpt lat="47.33529" lon="-2.4767">
        <ele>-16</ele>
        <time>2021-05-27T08:15:28.000Z</time>
      </trkpt>
      <trkpt lat="47.33543" lon="-2.47679">
        <ele>-16</ele>
        <time>2021-05-27T08:15:31.000Z</time>
      </trkpt>
      <trkpt lat="47.33552" lon="-2.47685">
        <ele>-16</ele>
        <time>2021-05-27T08:15:33.000Z</time>
      </trkpt>
      <trkpt lat="47.33564" lon="-2.47694">
        <ele>-15.60000038147</ele>
        <time>2021-05-27T08:15:36.000Z</time>
      </trkpt>
      <trkpt lat="47.33568" lon="-2.47697">
        <ele>-15</ele>
        <time>2021-05-27T08:15:37.000Z</time>
      </trkpt>
      <trkpt lat="47.33573" lon="-2.47699">
        <ele>-14.60000038147</ele>
        <time>2021-05-27T08:15:38.000Z</time>
      </trkpt>
      <trkpt lat="47.33577" lon="-2.47701">
        <ele>-14.199999809265</ele>
        <time>2021-05-27T08:15:39.000Z</time>
      </trkpt>
      <trkpt lat="47.33582" lon="-2.47701">
        <ele>-13.800000190735</ele>
        <time>2021-05-27T08:15:40.000Z</time>
      </trkpt>
      <trkpt lat="47.33594" lon="-2.47696">
        <ele>-13.800000190735</ele>
        <time>2021-05-27T08:15:43.000Z</time>
      </trkpt>
      <trkpt lat="47.33605" lon="-2.47684">
        <ele>-13.800000190735</ele>
        <time>2021-05-27T08:15:46.000Z</time>
      </trkpt>
      <trkpt lat="47.33612" lon="-2.47676">
        <ele>-13.800000190735</ele>
        <time>2021-05-27T08:15:48.000Z</time>
      </trkpt>
      <trkpt lat="47.33622" lon="-2.47665">
        <ele>-13.800000190735</ele>
        <time>2021-05-27T08:15:51.000Z</time>
      </trkpt>
      <trkpt lat="47.33638" lon="-2.47653">
        <ele>-13.800000190735</ele>
        <time>2021-05-27T08:15:55.000Z</time>
      </trkpt>
      <trkpt lat="47.33663" lon="-2.47634">
        <ele>-13.800000190735</ele>
        <time>2021-05-27T08:16:02.000Z</time>
      </trkpt>
      <trkpt lat="47.33688" lon="-2.47616">
        <ele>-13.800000190735</ele>
        <time>2021-05-27T08:16:09.000Z</time>
      </trkpt>
      <trkpt lat="47.33711" lon="-2.47615">
        <ele>-13.800000190735</ele>
        <time>2021-05-27T08:16:14.000Z</time>
      </trkpt>
      <trkpt lat="47.33737" lon="-2.47621">
        <ele>-13.800000190735</ele>
        <time>2021-05-27T08:16:20.000Z</time>
      </trkpt>
      <trkpt lat="47.33752" lon="-2.47639">
        <ele>-13.800000190735</ele>
        <time>2021-05-27T08:16:24.000Z</time>
      </trkpt>
      <trkpt lat="47.33755" lon="-2.47645">
        <ele>-13.800000190735</ele>
        <time>2021-05-27T08:16:25.000Z</time>
      </trkpt>
      <trkpt lat="47.3376" lon="-2.47656">
        <ele>-13.800000190735</ele>
        <time>2021-05-27T08:16:27.000Z</time>
      </trkpt>
      <trkpt lat="47.33766" lon="-2.47669">
        <ele>-13.800000190735</ele>
        <time>2021-05-27T08:16:29.000Z</time>
      </trkpt>
      <trkpt lat="47.33778" lon="-2.47684">
        <ele>-13.800000190735</ele>
        <time>2021-05-27T08:16:32.000Z</time>
      </trkpt>
      <trkpt lat="47.33783" lon="-2.4769">
        <ele>-13.800000190735</ele>
        <time>2021-05-27T08:16:33.000Z</time>
      </trkpt>
      <trkpt lat="47.33803" lon="-2.47713">
        <ele>-14.199999809265</ele>
        <time>2021-05-27T08:16:37.000Z</time>
      </trkpt>
      <trkpt lat="47.33807" lon="-2.47719">
        <ele>-14.60000038147</ele>
        <time>2021-05-27T08:16:38.000Z</time>
      </trkpt>
      <trkpt lat="47.33812" lon="-2.47724">
        <ele>-15</ele>
        <time>2021-05-27T08:16:39.000Z</time>
      </trkpt>
      <trkpt lat="47.33817" lon="-2.4773">
        <ele>-15.39999961853</ele>
        <time>2021-05-27T08:16:40.000Z</time>
      </trkpt>
      <trkpt lat="47.33822" lon="-2.47736">
        <ele>-15.800000190735</ele>
        <time>2021-05-27T08:16:41.000Z</time>
      </trkpt>
      <trkpt lat="47.3384" lon="-2.47757">
        <ele>-15.800000190735</ele>
        <time>2021-05-27T08:16:45.000Z</time>
      </trkpt>
      <trkpt lat="47.33848" lon="-2.47768">
        <ele>-15.800000190735</ele>
        <time>2021-05-27T08:16:47.000Z</time>
      </trkpt>
      <trkpt lat="47.33852" lon="-2.4778">
        <ele>-15.800000190735</ele>
        <time>2021-05-27T08:16:49.000Z</time>
      </trkpt>
      <trkpt lat="47.33847" lon="-2.47801">
        <ele>-15.800000190735</ele>
        <time>2021-05-27T08:16:52.000Z</time>
      </trkpt>
      <trkpt lat="47.3384" lon="-2.47814">
        <ele>-15.800000190735</ele>
        <time>2021-05-27T08:16:54.000Z</time>
      </trkpt>
      <trkpt lat="47.33828" lon="-2.47835">
        <ele>-15.800000190735</ele>
        <time>2021-05-27T08:16:57.000Z</time>
      </trkpt>
      <trkpt lat="47.33808" lon="-2.47871">
        <ele>-16.799999237061</ele>
        <time>2021-05-27T08:17:02.000Z</time>
      </trkpt>
      <trkpt lat="47.33803" lon="-2.47879">
        <ele>-17.200000762939</ele>
        <time>2021-05-27T08:17:03.000Z</time>
      </trkpt>
      <trkpt lat="47.33799" lon="-2.47887">
        <ele>-17.60000038147</ele>
        <time>2021-05-27T08:17:04.000Z</time>
      </trkpt>
      <trkpt lat="47.33794" lon="-2.47894">
        <ele>-18</ele>
        <time>2021-05-27T08:17:05.000Z</time>
      </trkpt>
      <trkpt lat="47.33777" lon="-2.47927">
        <ele>-18</ele>
        <time>2021-05-27T08:17:09.000Z</time>
      </trkpt>
      <trkpt lat="47.33766" lon="-2.47953">
        <ele>-18</ele>
        <time>2021-05-27T08:17:12.000Z</time>
      </trkpt>
      <trkpt lat="47.33763" lon="-2.47962">
        <ele>-18.39999961853</ele>
        <time>2021-05-27T08:17:13.000Z</time>
      </trkpt>
      <trkpt lat="47.33761" lon="-2.47971">
        <ele>-18.799999237061</ele>
        <time>2021-05-27T08:17:14.000Z</time>
      </trkpt>
      <trkpt lat="47.33759" lon="-2.4798">
        <ele>-19.200000762939</ele>
        <time>2021-05-27T08:17:15.000Z</time>
      </trkpt>
      <trkpt lat="47.33756" lon="-2.47988">
        <ele>-19.60000038147</ele>
        <time>2021-05-27T08:17:16.000Z</time>
      </trkpt>
      <trkpt lat="47.33754" lon="-2.47997">
        <ele>-20</ele>
        <time>2021-05-27T08:17:17.000Z</time>
      </trkpt>
      <trkpt lat="47.33747" lon="-2.48028">
        <ele>-20</ele>
        <time>2021-05-27T08:17:21.000Z</time>
      </trkpt>
      <trkpt lat="47.33737" lon="-2.48079">
        <ele>-20.39999961853</ele>
        <time>2021-05-27T08:17:28.000Z</time>
      </trkpt>
      <trkpt lat="47.33735" lon="-2.48088">
        <ele>-20.799999237061</ele>
        <time>2021-05-27T08:17:29.000Z</time>
      </trkpt>
      <trkpt lat="47.33734" lon="-2.48097">
        <ele>-21.200000762939</ele>
        <time>2021-05-27T08:17:30.000Z</time>
      </trkpt>
      <trkpt lat="47.33732" lon="-2.48106">
        <ele>-21.60000038147</ele>
        <time>2021-05-27T08:17:31.000Z</time>
      </trkpt>
      <trkpt lat="47.33731" lon="-2.48115">
        <ele>-22</ele>
        <time>2021-05-27T08:17:32.000Z</time>
      </trkpt>
      <trkpt lat="47.33729" lon="-2.48124">
        <ele>-22</ele>
        <time>2021-05-27T08:17:33.000Z</time>
      </trkpt>
      <trkpt lat="47.33726" lon="-2.48171">
        <ele>-22</ele>
        <time>2021-05-27T08:17:38.000Z</time>
      </trkpt>
      <trkpt lat="47.33726" lon="-2.4818">
        <ele>-22.39999961853</ele>
        <time>2021-05-27T08:17:39.000Z</time>
      </trkpt>
      <trkpt lat="47.33725" lon="-2.48189">
        <ele>-22.799999237061</ele>
        <time>2021-05-27T08:17:40.000Z</time>
      </trkpt>
      <trkpt lat="47.33725" lon="-2.48197">
        <ele>-23.200000762939</ele>
        <time>2021-05-27T08:17:41.000Z</time>
      </trkpt>
      <trkpt lat="47.33725" lon="-2.48206">
        <ele>-23.799999237061</ele>
        <time>2021-05-27T08:17:42.000Z</time>
      </trkpt>
      <trkpt lat="47.33724" lon="-2.48215">
        <ele>-24.200000762939</ele>
        <time>2021-05-27T08:17:43.000Z</time>
      </trkpt>
      <trkpt lat="47.33723" lon="-2.48242">
        <ele>-24.200000762939</ele>
        <time>2021-05-27T08:17:46.000Z</time>
      </trkpt>
      <trkpt lat="47.33721" lon="-2.48302">
        <ele>-24.60000038147</ele>
        <time>2021-05-27T08:17:53.000Z</time>
      </trkpt>
      <trkpt lat="47.33721" lon="-2.48309">
        <ele>-25</ele>
        <time>2021-05-27T08:17:54.000Z</time>
      </trkpt>
      <trkpt lat="47.33722" lon="-2.48315">
        <ele>-25.39999961853</ele>
        <time>2021-05-27T08:17:55.000Z</time>
      </trkpt>
      <trkpt lat="47.33721" lon="-2.4832">
        <ele>-25.799999237061</ele>
        <time>2021-05-27T08:17:56.000Z</time>
      </trkpt>
      <trkpt lat="47.3372" lon="-2.48324">
        <ele>-26.200000762939</ele>
        <time>2021-05-27T08:17:57.000Z</time>
      </trkpt>
      <trkpt lat="47.33706" lon="-2.48335">
        <ele>-26.200000762939</ele>
        <time>2021-05-27T08:18:01.000Z</time>
      </trkpt>
      <trkpt lat="47.33701" lon="-2.48337">
        <ele>-26.200000762939</ele>
        <time>2021-05-27T08:18:02.000Z</time>
      </trkpt>
      <trkpt lat="47.33689" lon="-2.4834">
        <ele>-26.60000038147</ele>
        <time>2021-05-27T08:18:04.000Z</time>
      </trkpt>
      <trkpt lat="47.33683" lon="-2.48342">
        <ele>-27</ele>
        <time>2021-05-27T08:18:05.000Z</time>
      </trkpt>
      <trkpt lat="47.33676" lon="-2.48343">
        <ele>-27.39999961853</ele>
        <time>2021-05-27T08:18:06.000Z</time>
      </trkpt>
      <trkpt lat="47.33669" lon="-2.48345">
        <ele>-27.799999237061</ele>
        <time>2021-05-27T08:18:07.000Z</time>
      </trkpt>
      <trkpt lat="47.33662" lon="-2.48349">
        <ele>-28.200000762939</ele>
        <time>2021-05-27T08:18:08.000Z</time>
      </trkpt>
      <trkpt lat="47.33654" lon="-2.48353">
        <ele>-28.200000762939</ele>
        <time>2021-05-27T08:18:09.000Z</time>
      </trkpt>
      <trkpt lat="47.33648" lon="-2.48359">
        <ele>-28.799999237061</ele>
        <time>2021-05-27T08:18:10.000Z</time>
      </trkpt>
      <trkpt lat="47.33641" lon="-2.48366">
        <ele>-29.200000762939</ele>
        <time>2021-05-27T08:18:11.000Z</time>
      </trkpt>
      <trkpt lat="47.33635" lon="-2.48374">
        <ele>-29.60000038147</ele>
        <time>2021-05-27T08:18:12.000Z</time>
      </trkpt>
      <trkpt lat="47.3363" lon="-2.48382">
        <ele>-30</ele>
        <time>2021-05-27T08:18:13.000Z</time>
      </trkpt>
      <trkpt lat="47.33625" lon="-2.48391">
        <ele>-30.39999961853</ele>
        <time>2021-05-27T08:18:14.000Z</time>
      </trkpt>
      <trkpt lat="47.33618" lon="-2.4842">
        <ele>-30.39999961853</ele>
        <time>2021-05-27T08:18:17.000Z</time>
      </trkpt>
      <trkpt lat="47.33616" lon="-2.4843">
        <ele>-30.39999961853</ele>
        <time>2021-05-27T08:18:18.000Z</time>
      </trkpt>
      <trkpt lat="47.33602" lon="-2.48484">
        <ele>-30.39999961853</ele>
        <time>2021-05-27T08:18:24.000Z</time>
      </trkpt>
      <trkpt lat="47.33576" lon="-2.48535">
        <ele>-30.39999961853</ele>
        <time>2021-05-27T08:18:31.000Z</time>
      </trkpt>
      <trkpt lat="47.33546" lon="-2.48593">
        <ele>-30.39999961853</ele>
        <time>2021-05-27T08:18:39.000Z</time>
      </trkpt>
      <trkpt lat="47.33513" lon="-2.48651">
        <ele>-30.39999961853</ele>
        <time>2021-05-27T08:18:48.000Z</time>
      </trkpt>
      <trkpt lat="47.33487" lon="-2.48686">
        <ele>-30.39999961853</ele>
        <time>2021-05-27T08:18:55.000Z</time>
      </trkpt>
      <trkpt lat="47.33455" lon="-2.48726">
        <ele>-30.39999961853</ele>
        <time>2021-05-27T08:19:03.000Z</time>
      </trkpt>
      <trkpt lat="47.33427" lon="-2.48761">
        <ele>-30.39999961853</ele>
        <time>2021-05-27T08:19:10.000Z</time>
      </trkpt>
      <trkpt lat="47.33407" lon="-2.48786">
        <ele>-30.799999237061</ele>
        <time>2021-05-27T08:19:15.000Z</time>
      </trkpt>
      <trkpt lat="47.33403" lon="-2.48791">
        <ele>-31.200000762939</ele>
        <time>2021-05-27T08:19:16.000Z</time>
      </trkpt>
      <trkpt lat="47.33399" lon="-2.48796">
        <ele>-31.60000038147</ele>
        <time>2021-05-27T08:19:17.000Z</time>
      </trkpt>
      <trkpt lat="47.33395" lon="-2.48801">
        <ele>-32</ele>
        <time>2021-05-27T08:19:18.000Z</time>
      </trkpt>
      <trkpt lat="47.33391" lon="-2.48806">
        <ele>-32.599998474121</ele>
        <time>2021-05-27T08:19:19.000Z</time>
      </trkpt>
      <trkpt lat="47.33378" lon="-2.4882">
        <ele>-32.599998474121</ele>
        <time>2021-05-27T08:19:22.000Z</time>
      </trkpt>
      <trkpt lat="47.33369" lon="-2.48828">
        <ele>-32.599998474121</ele>
        <time>2021-05-27T08:19:24.000Z</time>
      </trkpt>
      <trkpt lat="47.33349" lon="-2.48834">
        <ele>-32.599998474121</ele>
        <time>2021-05-27T08:19:28.000Z</time>
      </trkpt>
      <trkpt lat="47.33338" lon="-2.48834">
        <ele>-32.599998474121</ele>
        <time>2021-05-27T08:19:30.000Z</time>
      </trkpt>
      <trkpt lat="47.33313" lon="-2.48831">
        <ele>-32.599998474121</ele>
        <time>2021-05-27T08:19:35.000Z</time>
      </trkpt>
      <trkpt lat="47.333" lon="-2.48833">
        <ele>-32.599998474121</ele>
        <time>2021-05-27T08:19:38.000Z</time>
      </trkpt>
      <trkpt lat="47.3329" lon="-2.48838">
        <ele>-32.599998474121</ele>
        <time>2021-05-27T08:19:40.000Z</time>
      </trkpt>
      <trkpt lat="47.33278" lon="-2.48848">
        <ele>-32.599998474121</ele>
        <time>2021-05-27T08:19:43.000Z</time>
      </trkpt>
      <trkpt lat="47.33268" lon="-2.48861">
        <ele>-32.599998474121</ele>
        <time>2021-05-27T08:19:46.000Z</time>
      </trkpt>
      <trkpt lat="47.33249" lon="-2.48879">
        <ele>-32.599998474121</ele>
        <time>2021-05-27T08:19:52.000Z</time>
      </trkpt>
      <trkpt lat="47.33241" lon="-2.48868">
        <ele>-32.599998474121</ele>
        <time>2021-05-27T08:19:55.000Z</time>
      </trkpt>
      <trkpt lat="47.33237" lon="-2.48855">
        <ele>-32.599998474121</ele>
        <time>2021-05-27T08:19:57.000Z</time>
      </trkpt>
      <trkpt lat="47.3323" lon="-2.48834">
        <ele>-32.599998474121</ele>
        <time>2021-05-27T08:20:00.000Z</time>
      </trkpt>
      <trkpt lat="47.33214" lon="-2.4878">
        <ele>-32.599998474121</ele>
        <time>2021-05-27T08:20:07.000Z</time>
      </trkpt>
      <trkpt lat="47.33204" lon="-2.48733">
        <ele>-32.599998474121</ele>
        <time>2021-05-27T08:20:13.000Z</time>
      </trkpt>
      <trkpt lat="47.33192" lon="-2.4869">
        <ele>-32.599998474121</ele>
        <time>2021-05-27T08:20:19.000Z</time>
      </trkpt>
      <trkpt lat="47.33185" lon="-2.48648">
        <ele>-32.599998474121</ele>
        <time>2021-05-27T08:20:24.000Z</time>
      </trkpt>
      <trkpt lat="47.33184" lon="-2.48587">
        <ele>-32.599998474121</ele>
        <time>2021-05-27T08:20:31.000Z</time>
      </trkpt>
      <trkpt lat="47.33184" lon="-2.48555">
        <ele>-32.599998474121</ele>
        <time>2021-05-27T08:20:35.000Z</time>
      </trkpt>
      <trkpt lat="47.33178" lon="-2.48543">
        <ele>-32.599998474121</ele>
        <time>2021-05-27T08:20:37.000Z</time>
      </trkpt>
      <trkpt lat="47.33164" lon="-2.48535">
        <ele>-32.599998474121</ele>
        <time>2021-05-27T08:20:40.000Z</time>
      </trkpt>
      <trkpt lat="47.33154" lon="-2.48532">
        <ele>-32.599998474121</ele>
        <time>2021-05-27T08:20:42.000Z</time>
      </trkpt>
      <trkpt lat="47.33137" lon="-2.48528">
        <ele>-32.599998474121</ele>
        <time>2021-05-27T08:20:45.000Z</time>
      </trkpt>
      <trkpt lat="47.33103" lon="-2.48527">
        <ele>-32.599998474121</ele>
        <time>2021-05-27T08:20:51.000Z</time>
      </trkpt>
      <trkpt lat="47.33064" lon="-2.48537">
        <ele>-32.599998474121</ele>
        <time>2021-05-27T08:20:58.000Z</time>
      </trkpt>
      <trkpt lat="47.33045" lon="-2.48549">
        <ele>-32.599998474121</ele>
        <time>2021-05-27T08:21:02.000Z</time>
      </trkpt>
      <trkpt lat="47.33036" lon="-2.48555">
        <ele>-32.599998474121</ele>
        <time>2021-05-27T08:21:04.000Z</time>
      </trkpt>
      <trkpt lat="47.33001" lon="-2.48579">
        <ele>-32.599998474121</ele>
        <time>2021-05-27T08:21:11.000Z</time>
      </trkpt>
      <trkpt lat="47.3297" lon="-2.48593">
        <ele>-32.599998474121</ele>
        <time>2021-05-27T08:21:17.000Z</time>
      </trkpt>
      <trkpt lat="47.32939" lon="-2.48602">
        <ele>-32.599998474121</ele>
        <time>2021-05-27T08:21:23.000Z</time>
      </trkpt>
      <trkpt lat="47.32934" lon="-2.48602">
        <ele>-32.599998474121</ele>
        <time>2021-05-27T08:21:24.000Z</time>
      </trkpt>
      <trkpt lat="47.32913" lon="-2.48593">
        <ele>-32.599998474121</ele>
        <time>2021-05-27T08:21:29.000Z</time>
      </trkpt>
      <trkpt lat="47.32898" lon="-2.48596">
        <ele>-32.599998474121</ele>
        <time>2021-05-27T08:21:33.000Z</time>
      </trkpt>
      <trkpt lat="47.32893" lon="-2.48599">
        <ele>-32.599998474121</ele>
        <time>2021-05-27T08:21:35.000Z</time>
      </trkpt>
      <trkpt lat="47.3289" lon="-2.486">
        <ele>-32.599998474121</ele>
        <time>2021-05-27T08:21:36.000Z</time>
      </trkpt>
      <trkpt lat="47.32886" lon="-2.48597">
        <ele>-32.599998474121</ele>
        <time>2021-05-27T08:21:38.000Z</time>
      </trkpt>
      <trkpt lat="47.32885" lon="-2.48595">
        <ele>-32.599998474121</ele>
        <time>2021-05-27T08:21:40.000Z</time>
      </trkpt>
      <trkpt lat="47.32885" lon="-2.48592">
        <ele>-32.599998474121</ele>
        <time>2021-05-27T08:21:44.000Z</time>
      </trkpt>
      <trkpt lat="47.32886" lon="-2.4859">
        <ele>-32.599998474121</ele>
        <time>2021-05-27T08:21:45.000Z</time>
      </trkpt>
      <trkpt lat="47.32895" lon="-2.48581">
        <ele>-32.599998474121</ele>
        <time>2021-05-27T08:21:48.000Z</time>
      </trkpt>
      <trkpt lat="47.32899" lon="-2.48578">
        <ele>-32.599998474121</ele>
        <time>2021-05-27T08:21:49.000Z</time>
      </trkpt>
      <trkpt lat="47.32903" lon="-2.48574">
        <ele>-32.599998474121</ele>
        <time>2021-05-27T08:21:50.000Z</time>
      </trkpt>
      <trkpt lat="47.32918" lon="-2.48556">
        <ele>-32.599998474121</ele>
        <time>2021-05-27T08:21:54.000Z</time>
      </trkpt>
      <trkpt lat="47.3295" lon="-2.48515">
        <ele>-32.599998474121</ele>
        <time>2021-05-27T08:22:02.000Z</time>
      </trkpt>
      <trkpt lat="47.3298" lon="-2.48488">
        <ele>-32.599998474121</ele>
        <time>2021-05-27T08:22:08.000Z</time>
      </trkpt>
      <trkpt lat="47.33024" lon="-2.48461">
        <ele>-32.599998474121</ele>
        <time>2021-05-27T08:22:16.000Z</time>
      </trkpt>
      <trkpt lat="47.33065" lon="-2.48434">
        <ele>-32.599998474121</ele>
        <time>2021-05-27T08:22:24.000Z</time>
      </trkpt>
      <trkpt lat="47.33098" lon="-2.48414">
        <ele>-32.599998474121</ele>
        <time>2021-05-27T08:22:31.000Z</time>
      </trkpt>
      <trkpt lat="47.33117" lon="-2.48397">
        <ele>-32.599998474121</ele>
        <time>2021-05-27T08:22:36.000Z</time>
      </trkpt>
      <trkpt lat="47.33119" lon="-2.48391">
        <ele>-32.599998474121</ele>
        <time>2021-05-27T08:22:37.000Z</time>
      </trkpt>
      <trkpt lat="47.33119" lon="-2.48376">
        <ele>-32.599998474121</ele>
        <time>2021-05-27T08:22:40.000Z</time>
      </trkpt>
      <trkpt lat="47.33117" lon="-2.48371">
        <ele>-32.599998474121</ele>
        <time>2021-05-27T08:22:41.000Z</time>
      </trkpt>
      <trkpt lat="47.33111" lon="-2.48356">
        <ele>-32.599998474121</ele>
        <time>2021-05-27T08:22:46.000Z</time>
      </trkpt>
      <trkpt lat="47.33107" lon="-2.48351">
        <ele>-32.599998474121</ele>
        <time>2021-05-27T08:22:49.000Z</time>
      </trkpt>
      <trkpt lat="47.33106" lon="-2.48346">
        <ele>-32.599998474121</ele>
        <time>2021-05-27T08:22:51.000Z</time>
      </trkpt>
      <trkpt lat="47.33105" lon="-2.48335">
        <ele>-32.599998474121</ele>
        <time>2021-05-27T08:22:55.000Z</time>
      </trkpt>
      <trkpt lat="47.33104" lon="-2.4833">
        <ele>-32.599998474121</ele>
        <time>2021-05-27T08:22:57.000Z</time>
      </trkpt>
      <trkpt lat="47.33101" lon="-2.48313">
        <ele>-32.599998474121</ele>
        <time>2021-05-27T08:23:05.000Z</time>
      </trkpt>
      <trkpt lat="47.33101" lon="-2.48312">
        <ele>-32.599998474121</ele>
        <time>2021-05-27T08:23:07.000Z</time>
      </trkpt>
      <trkpt lat="47.33103" lon="-2.48311">
        <ele>-34.599998474121</ele>
        <time>2021-05-27T08:42:24.000Z</time>
      </trkpt>
      <trkpt lat="47.33104" lon="-2.48313">
        <ele>-34.599998474121</ele>
        <time>2021-05-27T08:42:25.000Z</time>
      </trkpt>
      <trkpt lat="47.33108" lon="-2.48318">
        <ele>-34.599998474121</ele>
        <time>2021-05-27T08:42:28.000Z</time>
      </trkpt>
      <trkpt lat="47.33112" lon="-2.4832">
        <ele>-34.599998474121</ele>
        <time>2021-05-27T08:42:30.000Z</time>
      </trkpt>
      <trkpt lat="47.33127" lon="-2.4833">
        <ele>-34.599998474121</ele>
        <time>2021-05-27T08:42:37.000Z</time>
      </trkpt>
      <trkpt lat="47.33133" lon="-2.48345">
        <ele>-34.599998474121</ele>
        <time>2021-05-27T08:42:41.000Z</time>
      </trkpt>
      <trkpt lat="47.33136" lon="-2.48346">
        <ele>-34.599998474121</ele>
        <time>2021-05-27T08:42:42.000Z</time>
      </trkpt>
      <trkpt lat="47.33139" lon="-2.48344">
        <ele>-34.599998474121</ele>
        <time>2021-05-27T08:42:43.000Z</time>
      </trkpt>
      <trkpt lat="47.3314" lon="-2.48341">
        <ele>-34.599998474121</ele>
        <time>2021-05-27T08:42:44.000Z</time>
      </trkpt>
      <trkpt lat="47.3314" lon="-2.48332">
        <ele>-34.599998474121</ele>
        <time>2021-05-27T08:42:46.000Z</time>
      </trkpt>
      <trkpt lat="47.3314" lon="-2.48296">
        <ele>-34.599998474121</ele>
        <time>2021-05-27T08:42:52.000Z</time>
      </trkpt>
      <trkpt lat="47.33138" lon="-2.48244">
        <ele>-34.599998474121</ele>
        <time>2021-05-27T08:42:59.000Z</time>
      </trkpt>
      <trkpt lat="47.33137" lon="-2.4818">
        <ele>-34.599998474121</ele>
        <time>2021-05-27T08:43:07.000Z</time>
      </trkpt>
      <trkpt lat="47.33139" lon="-2.48121">
        <ele>-34.599998474121</ele>
        <time>2021-05-27T08:43:14.000Z</time>
      </trkpt>
      <trkpt lat="47.33142" lon="-2.48044">
        <ele>-34.599998474121</ele>
        <time>2021-05-27T08:43:23.000Z</time>
      </trkpt>
      <trkpt lat="47.33146" lon="-2.47961">
        <ele>-34.599998474121</ele>
        <time>2021-05-27T08:43:33.000Z</time>
      </trkpt>
      <trkpt lat="47.33148" lon="-2.47939">
        <ele>-34.599998474121</ele>
        <time>2021-05-27T08:43:36.000Z</time>
      </trkpt>
      <trkpt lat="47.33152" lon="-2.47921">
        <ele>-34.599998474121</ele>
        <time>2021-05-27T08:43:39.000Z</time>
      </trkpt>
      <trkpt lat="47.33166" lon="-2.47892">
        <ele>-34.599998474121</ele>
        <time>2021-05-27T08:43:44.000Z</time>
      </trkpt>
      <trkpt lat="47.33168" lon="-2.47886">
        <ele>-34.599998474121</ele>
        <time>2021-05-27T08:43:45.000Z</time>
      </trkpt>
      <trkpt lat="47.33179" lon="-2.47869">
        <ele>-34.599998474121</ele>
        <time>2021-05-27T08:43:48.000Z</time>
      </trkpt>
      <trkpt lat="47.33189" lon="-2.47855">
        <ele>-34.599998474121</ele>
        <time>2021-05-27T08:43:51.000Z</time>
      </trkpt>
      <trkpt lat="47.33196" lon="-2.47846">
        <ele>-34.599998474121</ele>
        <time>2021-05-27T08:43:53.000Z</time>
      </trkpt>
      <trkpt lat="47.33218" lon="-2.4782">
        <ele>-34.599998474121</ele>
        <time>2021-05-27T08:43:59.000Z</time>
      </trkpt>
      <trkpt lat="47.3325" lon="-2.47782">
        <ele>-34.599998474121</ele>
        <time>2021-05-27T08:44:08.000Z</time>
      </trkpt>
      <trkpt lat="47.33276" lon="-2.47758">
        <ele>-34.599998474121</ele>
        <time>2021-05-27T08:44:16.000Z</time>
      </trkpt>
      <trkpt lat="47.33299" lon="-2.47741">
        <ele>-34.599998474121</ele>
        <time>2021-05-27T08:44:24.000Z</time>
      </trkpt>
      <trkpt lat="47.33308" lon="-2.47736">
        <ele>-34.200000762939</ele>
        <time>2021-05-27T08:44:27.000Z</time>
      </trkpt>
      <trkpt lat="47.33312" lon="-2.47734">
        <ele>-33.799999237061</ele>
        <time>2021-05-27T08:44:28.000Z</time>
      </trkpt>
      <trkpt lat="47.33314" lon="-2.47732">
        <ele>-33.400001525879</ele>
        <time>2021-05-27T08:44:29.000Z</time>
      </trkpt>
      <trkpt lat="47.33318" lon="-2.47729">
        <ele>-32.799999237061</ele>
        <time>2021-05-27T08:44:30.000Z</time>
      </trkpt>
      <trkpt lat="47.33321" lon="-2.47727">
        <ele>-32.400001525879</ele>
        <time>2021-05-27T08:44:31.000Z</time>
      </trkpt>
      <trkpt lat="47.33333" lon="-2.47716">
        <ele>-32.400001525879</ele>
        <time>2021-05-27T08:44:36.000Z</time>
      </trkpt>
      <trkpt lat="47.33347" lon="-2.47703">
        <ele>-32.400001525879</ele>
        <time>2021-05-27T08:44:43.000Z</time>
      </trkpt>
      <trkpt lat="47.33353" lon="-2.47697">
        <ele>-32.400001525879</ele>
        <time>2021-05-27T08:44:49.000Z</time>
      </trkpt>
      <trkpt lat="47.33354" lon="-2.47696">
        <ele>-32.400001525879</ele>
        <time>2021-05-27T08:44:50.000Z</time>
      </trkpt>
      <trkpt lat="47.33362" lon="-2.47689">
        <ele>-31.200000762939</ele>
        <time>2021-05-27T08:44:58.000Z</time>
      </trkpt>
      <trkpt lat="47.33364" lon="-2.47687">
        <ele>-30.799999237061</ele>
        <time>2021-05-27T08:44:59.000Z</time>
      </trkpt>
      <trkpt lat="47.33366" lon="-2.47685">
        <ele>-30.39999961853</ele>
        <time>2021-05-27T08:45:00.000Z</time>
      </trkpt>
      <trkpt lat="47.33368" lon="-2.47683">
        <ele>-30.39999961853</ele>
        <time>2021-05-27T08:45:01.000Z</time>
      </trkpt>
      <trkpt lat="47.33386" lon="-2.4767">
        <ele>-30.39999961853</ele>
        <time>2021-05-27T08:45:09.000Z</time>
      </trkpt>
      <trkpt lat="47.33395" lon="-2.47658">
        <ele>-30.39999961853</ele>
        <time>2021-05-27T08:45:14.000Z</time>
      </trkpt>
      <trkpt lat="47.33399" lon="-2.47655">
        <ele>-30.39999961853</ele>
        <time>2021-05-27T08:45:18.000Z</time>
      </trkpt>
      <trkpt lat="47.33402" lon="-2.47651">
        <ele>-30.39999961853</ele>
        <time>2021-05-27T08:45:36.000Z</time>
      </trkpt>
      <trkpt lat="47.33404" lon="-2.47649">
        <ele>-30.39999961853</ele>
        <time>2021-05-27T08:45:37.000Z</time>
      </trkpt>
      <trkpt lat="47.33415" lon="-2.47639">
        <ele>-30.39999961853</ele>
        <time>2021-05-27T08:45:42.000Z</time>
      </trkpt>
      <trkpt lat="47.33419" lon="-2.47637">
        <ele>-30</ele>
        <time>2021-05-27T08:45:44.000Z</time>
      </trkpt>
      <trkpt lat="47.3342" lon="-2.47636">
        <ele>-29.60000038147</ele>
        <time>2021-05-27T08:45:45.000Z</time>
      </trkpt>
      <trkpt lat="47.33421" lon="-2.47635">
        <ele>-29.200000762939</ele>
        <time>2021-05-27T08:45:46.000Z</time>
      </trkpt>
      <trkpt lat="47.33422" lon="-2.47635">
        <ele>-28.799999237061</ele>
        <time>2021-05-27T08:45:47.000Z</time>
      </trkpt>
      <trkpt lat="47.33424" lon="-2.47634">
        <ele>-28.39999961853</ele>
        <time>2021-05-27T08:45:48.000Z</time>
      </trkpt>
      <trkpt lat="47.33429" lon="-2.47632">
        <ele>-28.39999961853</ele>
        <time>2021-05-27T08:45:52.000Z</time>
      </trkpt>
      <trkpt lat="47.33431" lon="-2.47631">
        <ele>-28</ele>
        <time>2021-05-27T08:45:54.000Z</time>
      </trkpt>
      <trkpt lat="47.33433" lon="-2.4763">
        <ele>-27.60000038147</ele>
        <time>2021-05-27T08:45:55.000Z</time>
      </trkpt>
      <trkpt lat="47.33434" lon="-2.47629">
        <ele>-27</ele>
        <time>2021-05-27T08:45:56.000Z</time>
      </trkpt>
      <trkpt lat="47.33435" lon="-2.47628">
        <ele>-26.60000038147</ele>
        <time>2021-05-27T08:45:57.000Z</time>
      </trkpt>
      <trkpt lat="47.33436" lon="-2.47628">
        <ele>-26.200000762939</ele>
        <time>2021-05-27T08:45:58.000Z</time>
      </trkpt>
      <trkpt lat="47.33436" lon="-2.47628">
        <ele>-26.200000762939</ele>
        <time>2021-05-27T08:45:59.000Z</time>
      </trkpt>
      <trkpt lat="47.33448" lon="-2.47623">
        <ele>-23.799999237061</ele>
        <time>2021-05-27T08:46:42.000Z</time>
      </trkpt>
      <trkpt lat="47.33449" lon="-2.47622">
        <ele>-23.39999961853</ele>
        <time>2021-05-27T08:46:43.000Z</time>
      </trkpt>
      <trkpt lat="47.33451" lon="-2.4762">
        <ele>-23</ele>
        <time>2021-05-27T08:46:44.000Z</time>
      </trkpt>
      <trkpt lat="47.33452" lon="-2.47619">
        <ele>-22.60000038147</ele>
        <time>2021-05-27T08:46:45.000Z</time>
      </trkpt>
      <trkpt lat="47.33454" lon="-2.47617">
        <ele>-22.200000762939</ele>
        <time>2021-05-27T08:46:46.000Z</time>
      </trkpt>
      <trkpt lat="47.33464" lon="-2.4761">
        <ele>-22.200000762939</ele>
        <time>2021-05-27T08:46:52.000Z</time>
      </trkpt>
      <trkpt lat="47.33473" lon="-2.47601">
        <ele>-21.60000038147</ele>
        <time>2021-05-27T08:46:58.000Z</time>
      </trkpt>
      <trkpt lat="47.33474" lon="-2.47599">
        <ele>-21.200000762939</ele>
        <time>2021-05-27T08:46:59.000Z</time>
      </trkpt>
      <trkpt lat="47.33474" lon="-2.47597">
        <ele>-20.799999237061</ele>
        <time>2021-05-27T08:47:00.000Z</time>
      </trkpt>
      <trkpt lat="47.33474" lon="-2.47594">
        <ele>-20.39999961853</ele>
        <time>2021-05-27T08:47:01.000Z</time>
      </trkpt>
      <trkpt lat="47.33474" lon="-2.47592">
        <ele>-20</ele>
        <time>2021-05-27T08:47:02.000Z</time>
      </trkpt>
      <trkpt lat="47.33474" lon="-2.4759">
        <ele>-20</ele>
        <time>2021-05-27T08:47:03.000Z</time>
      </trkpt>
      <trkpt lat="47.33472" lon="-2.47585">
        <ele>-20</ele>
        <time>2021-05-27T08:47:05.000Z</time>
      </trkpt>
      <trkpt lat="47.33469" lon="-2.47576">
        <ele>-20</ele>
        <time>2021-05-27T08:47:08.000Z</time>
      </trkpt>
      <trkpt lat="47.33458" lon="-2.47555">
        <ele>-20</ele>
        <time>2021-05-27T08:47:14.000Z</time>
      </trkpt>
      <trkpt lat="47.33448" lon="-2.47536">
        <ele>-19.60000038147</ele>
        <time>2021-05-27T08:47:20.000Z</time>
      </trkpt>
      <trkpt lat="47.33446" lon="-2.47532">
        <ele>-19.200000762939</ele>
        <time>2021-05-27T08:47:21.000Z</time>
      </trkpt>
      <trkpt lat="47.33445" lon="-2.47529">
        <ele>-18.799999237061</ele>
        <time>2021-05-27T08:47:22.000Z</time>
      </trkpt>
      <trkpt lat="47.33443" lon="-2.47525">
        <ele>-18.39999961853</ele>
        <time>2021-05-27T08:47:23.000Z</time>
      </trkpt>
      <trkpt lat="47.33442" lon="-2.47522">
        <ele>-18</ele>
        <time>2021-05-27T08:47:24.000Z</time>
      </trkpt>
      <trkpt lat="47.33436" lon="-2.47507">
        <ele>-18</ele>
        <time>2021-05-27T08:47:28.000Z</time>
      </trkpt>
      <trkpt lat="47.33424" lon="-2.47476">
        <ele>-18</ele>
        <time>2021-05-27T08:47:36.000Z</time>
      </trkpt>
      <trkpt lat="47.33417" lon="-2.47456">
        <ele>-18</ele>
        <time>2021-05-27T08:47:41.000Z</time>
      </trkpt>
      <trkpt lat="47.33411" lon="-2.47425">
        <ele>-18</ele>
        <time>2021-05-27T08:47:46.000Z</time>
      </trkpt>
      <trkpt lat="47.33406" lon="-2.474">
        <ele>-18</ele>
        <time>2021-05-27T08:47:50.000Z</time>
      </trkpt>
      <trkpt lat="47.33401" lon="-2.47383">
        <ele>-18</ele>
        <time>2021-05-27T08:47:53.000Z</time>
      </trkpt>
      <trkpt lat="47.3339" lon="-2.47341">
        <ele>-18</ele>
        <time>2021-05-27T08:48:00.000Z</time>
      </trkpt>
      <trkpt lat="47.33384" lon="-2.47306">
        <ele>-18</ele>
        <time>2021-05-27T08:48:05.000Z</time>
      </trkpt>
      <trkpt lat="47.33378" lon="-2.47247">
        <ele>-18</ele>
        <time>2021-05-27T08:48:12.000Z</time>
      </trkpt>
      <trkpt lat="47.3337" lon="-2.47197">
        <ele>-18</ele>
        <time>2021-05-27T08:48:19.000Z</time>
      </trkpt>
      <trkpt lat="47.33366" lon="-2.47165">
        <ele>-18</ele>
        <time>2021-05-27T08:48:23.000Z</time>
      </trkpt>
      <trkpt lat="47.33366" lon="-2.47157">
        <ele>-18</ele>
        <time>2021-05-27T08:48:24.000Z</time>
      </trkpt>
      <trkpt lat="47.33374" lon="-2.47137">
        <ele>-18</ele>
        <time>2021-05-27T08:48:27.000Z</time>
      </trkpt>
      <trkpt lat="47.33377" lon="-2.47131">
        <ele>-18</ele>
        <time>2021-05-27T08:48:28.000Z</time>
      </trkpt>
      <trkpt lat="47.33386" lon="-2.4711">
        <ele>-18</ele>
        <time>2021-05-27T08:48:31.000Z</time>
      </trkpt>
      <trkpt lat="47.33388" lon="-2.47095">
        <ele>-18</ele>
        <time>2021-05-27T08:48:33.000Z</time>
      </trkpt>
      <trkpt lat="47.33394" lon="-2.47067">
        <ele>-18</ele>
        <time>2021-05-27T08:48:37.000Z</time>
      </trkpt>
      <trkpt lat="47.33397" lon="-2.47061">
        <ele>-18</ele>
        <time>2021-05-27T08:48:38.000Z</time>
      </trkpt>
      <trkpt lat="47.33412" lon="-2.47023">
        <ele>-18</ele>
        <time>2021-05-27T08:48:44.000Z</time>
      </trkpt>
      <trkpt lat="47.3343" lon="-2.46997">
        <ele>-17.60000038147</ele>
        <time>2021-05-27T08:48:49.000Z</time>
      </trkpt>
      <trkpt lat="47.33433" lon="-2.46992">
        <ele>-17.200000762939</ele>
        <time>2021-05-27T08:48:50.000Z</time>
      </trkpt>
      <trkpt lat="47.33436" lon="-2.46987">
        <ele>-16.799999237061</ele>
        <time>2021-05-27T08:48:51.000Z</time>
      </trkpt>
      <trkpt lat="47.3344" lon="-2.46982">
        <ele>-16.39999961853</ele>
        <time>2021-05-27T08:48:52.000Z</time>
      </trkpt>
      <trkpt lat="47.33443" lon="-2.46977">
        <ele>-16</ele>
        <time>2021-05-27T08:48:53.000Z</time>
      </trkpt>
      <trkpt lat="47.33454" lon="-2.46962">
        <ele>-16</ele>
        <time>2021-05-27T08:48:57.000Z</time>
      </trkpt>
      <trkpt lat="47.33459" lon="-2.46955">
        <ele>-16</ele>
        <time>2021-05-27T08:49:02.000Z</time>
      </trkpt>
      <trkpt lat="47.3346" lon="-2.46954">
        <ele>-16</ele>
        <time>2021-05-27T08:49:04.000Z</time>
      </trkpt>
      <trkpt lat="47.33462" lon="-2.46949">
        <ele>-16</ele>
        <time>2021-05-27T08:49:32.000Z</time>
      </trkpt>
      <trkpt lat="47.33465" lon="-2.46945">
        <ele>-16</ele>
        <time>2021-05-27T08:49:34.000Z</time>
      </trkpt>
      <trkpt lat="47.33475" lon="-2.46928">
        <ele>-16</ele>
        <time>2021-05-27T08:49:42.000Z</time>
      </trkpt>
      <trkpt lat="47.33483" lon="-2.4692">
        <ele>-16</ele>
        <time>2021-05-27T08:49:48.000Z</time>
      </trkpt>
      <trkpt lat="47.33489" lon="-2.46916">
        <ele>-15.60000038147</ele>
        <time>2021-05-27T08:49:51.000Z</time>
      </trkpt>
      <trkpt lat="47.33491" lon="-2.46916">
        <ele>-15</ele>
        <time>2021-05-27T08:49:52.000Z</time>
      </trkpt>
      <trkpt lat="47.33493" lon="-2.46914">
        <ele>-14.60000038147</ele>
        <time>2021-05-27T08:49:53.000Z</time>
      </trkpt>
      <trkpt lat="47.33495" lon="-2.46913">
        <ele>-14.199999809265</ele>
        <time>2021-05-27T08:49:54.000Z</time>
      </trkpt>
      <trkpt lat="47.33497" lon="-2.4691">
        <ele>-13.800000190735</ele>
        <time>2021-05-27T08:49:55.000Z</time>
      </trkpt>
      <trkpt lat="47.33508" lon="-2.46899">
        <ele>-13.800000190735</ele>
        <time>2021-05-27T08:50:00.000Z</time>
      </trkpt>
      <trkpt lat="47.33519" lon="-2.46888">
        <ele>-13.39999961853</ele>
        <time>2021-05-27T08:50:06.000Z</time>
      </trkpt>
      <trkpt lat="47.33521" lon="-2.46886">
        <ele>-13</ele>
        <time>2021-05-27T08:50:07.000Z</time>
      </trkpt>
      <trkpt lat="47.33522" lon="-2.46883">
        <ele>-12.60000038147</ele>
        <time>2021-05-27T08:50:08.000Z</time>
      </trkpt>
      <trkpt lat="47.33524" lon="-2.46881">
        <ele>-12.199999809265</ele>
        <time>2021-05-27T08:50:09.000Z</time>
      </trkpt>
      <trkpt lat="47.33526" lon="-2.46877">
        <ele>-11.800000190735</ele>
        <time>2021-05-27T08:50:10.000Z</time>
      </trkpt>
      <trkpt lat="47.33528" lon="-2.46873">
        <ele>-11.800000190735</ele>
        <time>2021-05-27T08:50:11.000Z</time>
      </trkpt>
      <trkpt lat="47.33529" lon="-2.46869">
        <ele>-11.800000190735</ele>
        <time>2021-05-27T08:50:12.000Z</time>
      </trkpt>
      <trkpt lat="47.33529" lon="-2.46848">
        <ele>-11.800000190735</ele>
        <time>2021-05-27T08:50:17.000Z</time>
      </trkpt>
      <trkpt lat="47.33531" lon="-2.46841">
        <ele>-11.39999961853</ele>
        <time>2021-05-27T08:50:19.000Z</time>
      </trkpt>
      <trkpt lat="47.33532" lon="-2.46838">
        <ele>-10.800000190735</ele>
        <time>2021-05-27T08:50:20.000Z</time>
      </trkpt>
      <trkpt lat="47.33534" lon="-2.46836">
        <ele>-10.39999961853</ele>
        <time>2021-05-27T08:50:21.000Z</time>
      </trkpt>
      <trkpt lat="47.33536" lon="-2.46833">
        <ele>-9.6000003814697</ele>
        <time>2021-05-27T08:50:22.000Z</time>
      </trkpt>
      <trkpt lat="47.33547" lon="-2.46819">
        <ele>-9.6000003814697</ele>
        <time>2021-05-27T08:50:27.000Z</time>
      </trkpt>
      <trkpt lat="47.33555" lon="-2.46813">
        <ele>-9.1999998092651</ele>
        <time>2021-05-27T08:50:30.000Z</time>
      </trkpt>
      <trkpt lat="47.33557" lon="-2.46812">
        <ele>-8.8000001907349</ele>
        <time>2021-05-27T08:50:31.000Z</time>
      </trkpt>
      <trkpt lat="47.3356" lon="-2.4681">
        <ele>-8.3999996185303</ele>
        <time>2021-05-27T08:50:32.000Z</time>
      </trkpt>
      <trkpt lat="47.33562" lon="-2.46808">
        <ele>-8</ele>
        <time>2021-05-27T08:50:33.000Z</time>
      </trkpt>
      <trkpt lat="47.33565" lon="-2.46806">
        <ele>-7.4000000953674</ele>
        <time>2021-05-27T08:50:34.000Z</time>
      </trkpt>
      <trkpt lat="47.33576" lon="-2.46793">
        <ele>-7</ele>
        <time>2021-05-27T08:50:39.000Z</time>
      </trkpt>
      <trkpt lat="47.33578" lon="-2.4679">
        <ele>-6.5999999046326</ele>
        <time>2021-05-27T08:50:40.000Z</time>
      </trkpt>
      <trkpt lat="47.3358" lon="-2.46787">
        <ele>-6.1999998092651</ele>
        <time>2021-05-27T08:50:41.000Z</time>
      </trkpt>
      <trkpt lat="47.33581" lon="-2.46784">
        <ele>-5.8000001907349</ele>
        <time>2021-05-27T08:50:42.000Z</time>
      </trkpt>
      <trkpt lat="47.33583" lon="-2.46782">
        <ele>-5.4000000953674</ele>
        <time>2021-05-27T08:50:43.000Z</time>
      </trkpt>
      <trkpt lat="47.33587" lon="-2.46778">
        <ele>-5.4000000953674</ele>
        <time>2021-05-27T08:50:45.000Z</time>
      </trkpt>
      <trkpt lat="47.33589" lon="-2.46775">
        <ele>-4.5999999046326</ele>
        <time>2021-05-27T08:50:46.000Z</time>
      </trkpt>
      <trkpt lat="47.33592" lon="-2.46772">
        <ele>-4.1999998092651</ele>
        <time>2021-05-27T08:50:47.000Z</time>
      </trkpt>
      <trkpt lat="47.33594" lon="-2.4677">
        <ele>-3.7999999523163</ele>
        <time>2021-05-27T08:50:48.000Z</time>
      </trkpt>
      <trkpt lat="47.33596" lon="-2.46768">
        <ele>-3.2000000476837</ele>
        <time>2021-05-27T08:50:49.000Z</time>
      </trkpt>
      <trkpt lat="47.33603" lon="-2.4676">
        <ele>-3.2000000476837</ele>
        <time>2021-05-27T08:50:53.000Z</time>
      </trkpt>
      <trkpt lat="47.33607" lon="-2.46755">
        <ele>-2.7999999523163</ele>
        <time>2021-05-27T08:50:56.000Z</time>
      </trkpt>
      <trkpt lat="47.33609" lon="-2.46753">
        <ele>-2.4000000953674</ele>
        <time>2021-05-27T08:50:57.000Z</time>
      </trkpt>
      <trkpt lat="47.3361" lon="-2.46751">
        <ele>-2</ele>
        <time>2021-05-27T08:50:58.000Z</time>
      </trkpt>
      <trkpt lat="47.33611" lon="-2.46749">
        <ele>-1.6000000238419</ele>
        <time>2021-05-27T08:50:59.000Z</time>
      </trkpt>
      <trkpt lat="47.33611" lon="-2.46747">
        <ele>-1.2000000476837</ele>
        <time>2021-05-27T08:51:00.000Z</time>
      </trkpt>
      <trkpt lat="47.33614" lon="-2.4673">
        <ele>-1.2000000476837</ele>
        <time>2021-05-27T08:51:07.000Z</time>
      </trkpt>
      <trkpt lat="47.33608" lon="-2.46709">
        <ele>-1.2000000476837</ele>
        <time>2021-05-27T08:51:13.000Z</time>
      </trkpt>
      <trkpt lat="47.33601" lon="-2.46687">
        <ele>-1.2000000476837</ele>
        <time>2021-05-27T08:51:19.000Z</time>
      </trkpt>
      <trkpt lat="47.33588" lon="-2.46653">
        <ele>-1.2000000476837</ele>
        <time>2021-05-27T08:51:26.000Z</time>
      </trkpt>
      <trkpt lat="47.33576" lon="-2.46625">
        <ele>-1.2000000476837</ele>
        <time>2021-05-27T08:51:32.000Z</time>
      </trkpt>
      <trkpt lat="47.33569" lon="-2.46604">
        <ele>-1.2000000476837</ele>
        <time>2021-05-27T08:51:37.000Z</time>
      </trkpt>
      <trkpt lat="47.3356" lon="-2.4659">
        <ele>-1.2000000476837</ele>
        <time>2021-05-27T08:51:42.000Z</time>
      </trkpt>
      <trkpt lat="47.33551" lon="-2.46571">
        <ele>-1.2000000476837</ele>
        <time>2021-05-27T08:51:47.000Z</time>
      </trkpt>
      <trkpt lat="47.33546" lon="-2.46541">
        <ele>-1.2000000476837</ele>
        <time>2021-05-27T08:51:53.000Z</time>
      </trkpt>
      <trkpt lat="47.33542" lon="-2.46518">
        <ele>-0.80000001192093</ele>
        <time>2021-05-27T08:51:58.000Z</time>
      </trkpt>
      <trkpt lat="47.3354" lon="-2.46513">
        <ele>-0.40000000596046</ele>
        <time>2021-05-27T08:51:59.000Z</time>
      </trkpt>
      <trkpt lat="47.33538" lon="-2.46507">
        <ele>40.1</ele>
        <time>2021-05-27T08:52:00.000Z</time>
      </trkpt>
      <trkpt lat="47.33536" lon="-2.46502">
        <ele>0.80000001192093</ele>
        <time>2021-05-27T08:52:01.000Z</time>
      </trkpt>
      <trkpt lat="47.33533" lon="-2.46491">
        <ele>0.80000001192093</ele>
        <time>2021-05-27T08:52:04.000Z</time>
      </trkpt>
      <trkpt lat="47.33532" lon="-2.46489">
        <ele>1.2000000476837</ele>
        <time>2021-05-27T08:52:05.000Z</time>
      </trkpt>
      <trkpt lat="47.3353" lon="-2.46489">
        <ele>1.6000000238419</ele>
        <time>2021-05-27T08:52:06.000Z</time>
      </trkpt>
      <trkpt lat="47.33527" lon="-2.46489">
        <ele>2</ele>
        <time>2021-05-27T08:52:07.000Z</time>
      </trkpt>
      <trkpt lat="47.33524" lon="-2.46489">
        <ele>2.4000000953674</ele>
        <time>2021-05-27T08:52:08.000Z</time>
      </trkpt>
      <trkpt lat="47.33521" lon="-2.46488">
        <ele>3</ele>
        <time>2021-05-27T08:52:09.000Z</time>
      </trkpt>
      <trkpt lat="47.33518" lon="-2.46488">
        <ele>3</ele>
        <time>2021-05-27T08:52:10.000Z</time>
      </trkpt>
      <trkpt lat="47.33513" lon="-2.4649">
        <ele>3</ele>
        <time>2021-05-27T08:52:11.000Z</time>
      </trkpt>
      <trkpt lat="47.33501" lon="-2.46503">
        <ele>3</ele>
        <time>2021-05-27T08:52:14.000Z</time>
      </trkpt>
      <trkpt lat="47.33488" lon="-2.46519">
        <ele>2.4000000953674</ele>
        <time>2021-05-27T08:52:18.000Z</time>
      </trkpt>
      <trkpt lat="47.33484" lon="-2.46523">
        <ele>2</ele>
        <time>2021-05-27T08:52:19.000Z</time>
      </trkpt>
      <trkpt lat="47.33481" lon="-2.46526">
        <ele>1.6000000238419</ele>
        <time>2021-05-27T08:52:20.000Z</time>
      </trkpt>
      <trkpt lat="47.33478" lon="-2.46529">
        <ele>1.2000000476837</ele>
        <time>2021-05-27T08:52:21.000Z</time>
      </trkpt>
      <trkpt lat="47.33474" lon="-2.46534">
        <ele>0.60000002384186</ele>
        <time>2021-05-27T08:52:22.000Z</time>
      </trkpt>
      <trkpt lat="47.33461" lon="-2.46552">
        <ele>0.60000002384186</ele>
        <time>2021-05-27T08:52:26.000Z</time>
      </trkpt>
      <trkpt lat="47.33453" lon="-2.46562">
        <ele>0.60000002384186</ele>
        <time>2021-05-27T08:52:28.000Z</time>
      </trkpt>
      <trkpt lat="47.33448" lon="-2.46567">
        <ele>0.20000000298023</ele>
        <time>2021-05-27T08:52:29.000Z</time>
      </trkpt>
      <trkpt lat="47.33443" lon="-2.46571">
        <ele>-0.20000000298023</ele>
        <time>2021-05-27T08:52:30.000Z</time>
      </trkpt>
      <trkpt lat="47.33437" lon="-2.46577">
        <ele>-0.60000002384186</ele>
        <time>2021-05-27T08:52:31.000Z</time>
      </trkpt>
      <trkpt lat="47.33432" lon="-2.46581">
        <ele>-1</ele>
        <time>2021-05-27T08:52:32.000Z</time>
      </trkpt>
      <trkpt lat="47.33427" lon="-2.46585">
        <ele>-1.3999999761581</ele>
        <time>2021-05-27T08:52:33.000Z</time>
      </trkpt>
      <trkpt lat="47.33423" lon="-2.46588">
        <ele>-1.7999999523163</ele>
        <time>2021-05-27T08:52:34.000Z</time>
      </trkpt>
      <trkpt lat="47.33418" lon="-2.4659">
        <ele>-2.4000000953674</ele>
        <time>2021-05-27T08:52:35.000Z</time>
      </trkpt>
      <trkpt lat="47.33415" lon="-2.46593">
        <ele>-2.7999999523163</ele>
        <time>2021-05-27T08:52:36.000Z</time>
      </trkpt>
      <trkpt lat="47.33412" lon="-2.46596">
        <ele>-3.2000000476837</ele>
        <time>2021-05-27T08:52:37.000Z</time>
      </trkpt>
      <trkpt lat="47.33409" lon="-2.466">
        <ele>-3.7999999523163</ele>
        <time>2021-05-27T08:52:38.000Z</time>
      </trkpt>
      <trkpt lat="47.33406" lon="-2.46604">
        <ele>-4.1999998092651</ele>
        <time>2021-05-27T08:52:39.000Z</time>
      </trkpt>
      <trkpt lat="47.33403" lon="-2.46608">
        <ele>-4.5999999046326</ele>
        <time>2021-05-27T08:52:40.000Z</time>
      </trkpt>
      <trkpt lat="47.33399" lon="-2.46612">
        <ele>-5</ele>
        <time>2021-05-27T08:52:41.000Z</time>
      </trkpt>
      <trkpt lat="47.33395" lon="-2.46617">
        <ele>-5.4000000953674</ele>
        <time>2021-05-27T08:52:42.000Z</time>
      </trkpt>
      <trkpt lat="47.33391" lon="-2.46621">
        <ele>-5.8000001907349</ele>
        <time>2021-05-27T08:52:43.000Z</time>
      </trkpt>
      <trkpt lat="47.33383" lon="-2.4663">
        <ele>-6.1999998092651</ele>
        <time>2021-05-27T08:52:45.000Z</time>
      </trkpt>
      <trkpt lat="47.33379" lon="-2.46634">
        <ele>-6.5999999046326</ele>
        <time>2021-05-27T08:52:47.000Z</time>
      </trkpt>
      <trkpt lat="47.33375" lon="-2.46637">
        <ele>-7</ele>
        <time>2021-05-27T08:52:48.000Z</time>
      </trkpt>
      <trkpt lat="47.3337" lon="-2.46641">
        <ele>-7.4000000953674</ele>
        <time>2021-05-27T08:52:49.000Z</time>
      </trkpt>
      <trkpt lat="47.33365" lon="-2.46644">
        <ele>-8</ele>
        <time>2021-05-27T08:52:50.000Z</time>
      </trkpt>
      <trkpt lat="47.33359" lon="-2.46646">
        <ele>-8</ele>
        <time>2021-05-27T08:52:51.000Z</time>
      </trkpt>
      <trkpt lat="47.3335" lon="-2.46649">
        <ele>-8</ele>
        <time>2021-05-27T08:52:53.000Z</time>
      </trkpt>
      <trkpt lat="47.33346" lon="-2.4665">
        <ele>-8</ele>
        <time>2021-05-27T08:52:54.000Z</time>
      </trkpt>
      <trkpt lat="47.33343" lon="-2.46651">
        <ele>-8.3999996185303</ele>
        <time>2021-05-27T08:52:55.000Z</time>
      </trkpt>
      <trkpt lat="47.33341" lon="-2.46652">
        <ele>-8.8000001907349</ele>
        <time>2021-05-27T08:52:56.000Z</time>
      </trkpt>
      <trkpt lat="47.33339" lon="-2.46653">
        <ele>-9.1999998092651</ele>
        <time>2021-05-27T08:52:57.000Z</time>
      </trkpt>
      <trkpt lat="47.33337" lon="-2.46653">
        <ele>-9.6000003814697</ele>
        <time>2021-05-27T08:52:58.000Z</time>
      </trkpt>
      <trkpt lat="47.33335" lon="-2.46654">
        <ele>-10.199999809265</ele>
        <time>2021-05-27T08:52:59.000Z</time>
      </trkpt>
      <trkpt lat="47.33328" lon="-2.46658">
        <ele>-10.199999809265</ele>
        <time>2021-05-27T08:53:03.000Z</time>
      </trkpt>
      <trkpt lat="47.33327" lon="-2.46655">
        <ele>-10.199999809265</ele>
        <time>2021-05-27T08:53:04.000Z</time>
      </trkpt>
      <trkpt lat="47.33328" lon="-2.46648">
        <ele>-10.199999809265</ele>
        <time>2021-05-27T08:53:06.000Z</time>
      </trkpt>
      <trkpt lat="47.3333" lon="-2.46632">
        <ele>-10.199999809265</ele>
        <time>2021-05-27T08:53:11.000Z</time>
      </trkpt>
      <trkpt lat="47.33324" lon="-2.46622">
        <ele>-10.199999809265</ele>
        <time>2021-05-27T08:53:15.000Z</time>
      </trkpt>
      <trkpt lat="47.33322" lon="-2.4662">
        <ele>-10.199999809265</ele>
        <time>2021-05-27T08:53:16.000Z</time>
      </trkpt>
      <trkpt lat="47.33307" lon="-2.46599">
        <ele>-10.199999809265</ele>
        <time>2021-05-27T08:53:22.000Z</time>
      </trkpt>
      <trkpt lat="47.33297" lon="-2.4658">
        <ele>-10.199999809265</ele>
        <time>2021-05-27T08:53:26.000Z</time>
      </trkpt>
      <trkpt lat="47.33293" lon="-2.46568">
        <ele>-10.199999809265</ele>
        <time>2021-05-27T08:53:28.000Z</time>
      </trkpt>
      <trkpt lat="47.3329" lon="-2.4655">
        <ele>-10.199999809265</ele>
        <time>2021-05-27T08:53:31.000Z</time>
      </trkpt>
      <trkpt lat="47.3329" lon="-2.46544">
        <ele>-10.199999809265</ele>
        <time>2021-05-27T08:53:32.000Z</time>
      </trkpt>
      <trkpt lat="47.33289" lon="-2.46531">
        <ele>-10.199999809265</ele>
        <time>2021-05-27T08:53:34.000Z</time>
      </trkpt>
      <trkpt lat="47.33284" lon="-2.46496">
        <ele>-9.6000003814697</ele>
        <time>2021-05-27T08:53:40.000Z</time>
      </trkpt>
      <trkpt lat="47.33284" lon="-2.46491">
        <ele>-9.1999998092651</ele>
        <time>2021-05-27T08:53:41.000Z</time>
      </trkpt>
      <trkpt lat="47.33283" lon="-2.46485">
        <ele>-8.8000001907349</ele>
        <time>2021-05-27T08:53:42.000Z</time>
      </trkpt>
      <trkpt lat="47.33282" lon="-2.4648">
        <ele>-8.3999996185303</ele>
        <time>2021-05-27T08:53:43.000Z</time>
      </trkpt>
      <trkpt lat="47.33282" lon="-2.46476">
        <ele>-8</ele>
        <time>2021-05-27T08:53:44.000Z</time>
      </trkpt>
      <trkpt lat="47.33278" lon="-2.46458">
        <ele>-8</ele>
        <time>2021-05-27T08:53:48.000Z</time>
      </trkpt>
      <trkpt lat="47.33271" lon="-2.46435">
        <ele>-7.5999999046326</ele>
        <time>2021-05-27T08:53:54.000Z</time>
      </trkpt>
      <trkpt lat="47.33269" lon="-2.46432">
        <ele>-7.1999998092651</ele>
        <time>2021-05-27T08:53:55.000Z</time>
      </trkpt>
      <trkpt lat="47.33266" lon="-2.4643">
        <ele>-6.8000001907349</ele>
        <time>2021-05-27T08:53:56.000Z</time>
      </trkpt>
      <trkpt lat="47.33262" lon="-2.46429">
        <ele>-6.4000000953674</ele>
        <time>2021-05-27T08:53:57.000Z</time>
      </trkpt>
      <trkpt lat="47.33258" lon="-2.46428">
        <ele>-6</ele>
        <time>2021-05-27T08:53:58.000Z</time>
      </trkpt>
      <trkpt lat="47.33254" lon="-2.46428">
        <ele>-6</ele>
        <time>2021-05-27T08:53:59.000Z</time>
      </trkpt>
      <trkpt lat="47.3325" lon="-2.46429">
        <ele>-6</ele>
        <time>2021-05-27T08:54:00.000Z</time>
      </trkpt>
      <trkpt lat="47.33246" lon="-2.4643">
        <ele>-6</ele>
        <time>2021-05-27T08:54:01.000Z</time>
      </trkpt>
      <trkpt lat="47.33237" lon="-2.46437">
        <ele>-6</ele>
        <time>2021-05-27T08:54:03.000Z</time>
      </trkpt>
      <trkpt lat="47.33223" lon="-2.46462">
        <ele>-6</ele>
        <time>2021-05-27T08:54:07.000Z</time>
      </trkpt>
      <trkpt lat="47.33221" lon="-2.46467">
        <ele>-6.4000000953674</ele>
        <time>2021-05-27T08:54:08.000Z</time>
      </trkpt>
      <trkpt lat="47.33218" lon="-2.46469">
        <ele>-6.8000001907349</ele>
        <time>2021-05-27T08:54:09.000Z</time>
      </trkpt>
      <trkpt lat="47.33216" lon="-2.46471">
        <ele>-7.1999998092651</ele>
        <time>2021-05-27T08:54:10.000Z</time>
      </trkpt>
      <trkpt lat="47.33213" lon="-2.46471">
        <ele>-7.5999999046326</ele>
        <time>2021-05-27T08:54:11.000Z</time>
      </trkpt>
      <trkpt lat="47.33211" lon="-2.46472">
        <ele>-8.1999998092651</ele>
        <time>2021-05-27T08:54:12.000Z</time>
      </trkpt>
      <trkpt lat="47.33208" lon="-2.46473">
        <ele>-8.6000003814697</ele>
        <time>2021-05-27T08:54:13.000Z</time>
      </trkpt>
      <trkpt lat="47.33205" lon="-2.46474">
        <ele>-9</ele>
        <time>2021-05-27T08:54:14.000Z</time>
      </trkpt>
      <trkpt lat="47.33202" lon="-2.46473">
        <ele>-9.3999996185303</ele>
        <time>2021-05-27T08:54:15.000Z</time>
      </trkpt>
      <trkpt lat="47.33198" lon="-2.46473">
        <ele>-9.8000001907349</ele>
        <time>2021-05-27T08:54:16.000Z</time>
      </trkpt>
      <trkpt lat="47.33194" lon="-2.46474">
        <ele>-10.199999809265</ele>
        <time>2021-05-27T08:54:17.000Z</time>
      </trkpt>
      <trkpt lat="47.33186" lon="-2.46477">
        <ele>-10.199999809265</ele>
        <time>2021-05-27T08:54:19.000Z</time>
      </trkpt>
      <trkpt lat="47.33181" lon="-2.46479">
        <ele>-10.60000038147</ele>
        <time>2021-05-27T08:54:20.000Z</time>
      </trkpt>
      <trkpt lat="47.33175" lon="-2.46482">
        <ele>-11</ele>
        <time>2021-05-27T08:54:21.000Z</time>
      </trkpt>
      <trkpt lat="47.3317" lon="-2.46485">
        <ele>-11.39999961853</ele>
        <time>2021-05-27T08:54:22.000Z</time>
      </trkpt>
      <trkpt lat="47.33164" lon="-2.46488">
        <ele>-11.800000190735</ele>
        <time>2021-05-27T08:54:23.000Z</time>
      </trkpt>
      <trkpt lat="47.33158" lon="-2.46491">
        <ele>-12.199999809265</ele>
        <time>2021-05-27T08:54:24.000Z</time>
      </trkpt>
      <trkpt lat="47.33152" lon="-2.46493">
        <ele>-12.60000038147</ele>
        <time>2021-05-27T08:54:25.000Z</time>
      </trkpt>
      <trkpt lat="47.33147" lon="-2.46494">
        <ele>-13</ele>
        <time>2021-05-27T08:54:26.000Z</time>
      </trkpt>
      <trkpt lat="47.3314" lon="-2.46495">
        <ele>-13.39999961853</ele>
        <time>2021-05-27T08:54:27.000Z</time>
      </trkpt>
      <trkpt lat="47.33135" lon="-2.46496">
        <ele>-13.800000190735</ele>
        <time>2021-05-27T08:54:28.000Z</time>
      </trkpt>
      <trkpt lat="47.33129" lon="-2.46497">
        <ele>-14.39999961853</ele>
        <time>2021-05-27T08:54:29.000Z</time>
      </trkpt>
      <trkpt lat="47.33113" lon="-2.46502">
        <ele>-14.800000190735</ele>
        <time>2021-05-27T08:54:32.000Z</time>
      </trkpt>
      <trkpt lat="47.3311" lon="-2.46504">
        <ele>-15.199999809265</ele>
        <time>2021-05-27T08:54:33.000Z</time>
      </trkpt>
      <trkpt lat="47.33106" lon="-2.46506">
        <ele>-15.800000190735</ele>
        <time>2021-05-27T08:54:34.000Z</time>
      </trkpt>
      <trkpt lat="47.33101" lon="-2.46508">
        <ele>-16.200000762939</ele>
        <time>2021-05-27T08:54:35.000Z</time>
      </trkpt>
      <trkpt lat="47.33097" lon="-2.4651">
        <ele>-16.60000038147</ele>
        <time>2021-05-27T08:54:36.000Z</time>
      </trkpt>
      <trkpt lat="47.33072" lon="-2.46524">
        <ele>-17.200000762939</ele>
        <time>2021-05-27T08:54:40.000Z</time>
      </trkpt>
      <trkpt lat="47.33065" lon="-2.46527">
        <ele>-17.60000038147</ele>
        <time>2021-05-27T08:54:41.000Z</time>
      </trkpt>
      <trkpt lat="47.33057" lon="-2.4653">
        <ele>-18</ele>
        <time>2021-05-27T08:54:42.000Z</time>
      </trkpt>
      <trkpt lat="47.3305" lon="-2.46534">
        <ele>-18.39999961853</ele>
        <time>2021-05-27T08:54:43.000Z</time>
      </trkpt>
      <trkpt lat="47.33044" lon="-2.46536">
        <ele>-19</ele>
        <time>2021-05-27T08:54:44.000Z</time>
      </trkpt>
      <trkpt lat="47.33037" lon="-2.46538">
        <ele>-19.39999961853</ele>
        <time>2021-05-27T08:54:45.000Z</time>
      </trkpt>
      <trkpt lat="47.33032" lon="-2.46538">
        <ele>-19.799999237061</ele>
        <time>2021-05-27T08:54:46.000Z</time>
      </trkpt>
      <trkpt lat="47.33026" lon="-2.46538">
        <ele>-20.39999961853</ele>
        <time>2021-05-27T08:54:47.000Z</time>
      </trkpt>
      <trkpt lat="47.3302" lon="-2.46538">
        <ele>-21.39999961853</ele>
        <time>2021-05-27T08:54:48.000Z</time>
      </trkpt>
      <trkpt lat="47.33014" lon="-2.4654">
        <ele>-21.799999237061</ele>
        <time>2021-05-27T08:54:49.000Z</time>
      </trkpt>
      <trkpt lat="47.33008" lon="-2.46543">
        <ele>-22.200000762939</ele>
        <time>2021-05-27T08:54:50.000Z</time>
      </trkpt>
      <trkpt lat="47.33002" lon="-2.46547">
        <ele>-22.60000038147</ele>
        <time>2021-05-27T08:54:51.000Z</time>
      </trkpt>
      <trkpt lat="47.32996" lon="-2.4655">
        <ele>-23.200000762939</ele>
        <time>2021-05-27T08:54:52.000Z</time>
      </trkpt>
      <trkpt lat="47.32978" lon="-2.46559">
        <ele>-23.200000762939</ele>
        <time>2021-05-27T08:54:55.000Z</time>
      </trkpt>
      <trkpt lat="47.32972" lon="-2.46562">
        <ele>-23.60000038147</ele>
        <time>2021-05-27T08:54:56.000Z</time>
      </trkpt>
      <trkpt lat="47.32967" lon="-2.46563">
        <ele>-24.200000762939</ele>
        <time>2021-05-27T08:54:57.000Z</time>
      </trkpt>
      <trkpt lat="47.32963" lon="-2.46564">
        <ele>-24.799999237061</ele>
        <time>2021-05-27T08:54:58.000Z</time>
      </trkpt>
      <trkpt lat="47.32959" lon="-2.46561">
        <ele>-25.60000038147</ele>
        <time>2021-05-27T08:54:59.000Z</time>
      </trkpt>
      <trkpt lat="47.32955" lon="-2.46556">
        <ele>-26.39999961853</ele>
        <time>2021-05-27T08:55:00.000Z</time>
      </trkpt>
      <trkpt lat="47.32953" lon="-2.46549">
        <ele>-27</ele>
        <time>2021-05-27T08:55:01.000Z</time>
      </trkpt>
      <trkpt lat="47.32952" lon="-2.46542">
        <ele>-27.799999237061</ele>
        <time>2021-05-27T08:55:02.000Z</time>
      </trkpt>
      <trkpt lat="47.32951" lon="-2.46534">
        <ele>-28.60000038147</ele>
        <time>2021-05-27T08:55:03.000Z</time>
      </trkpt>
      <trkpt lat="47.32953" lon="-2.46511">
        <ele>-28.60000038147</ele>
        <time>2021-05-27T08:55:06.000Z</time>
      </trkpt>
      <trkpt lat="47.32956" lon="-2.46461">
        <ele>-28.60000038147</ele>
        <time>2021-05-27T08:55:13.000Z</time>
      </trkpt>
      <trkpt lat="47.32957" lon="-2.46435">
        <ele>-28</ele>
        <time>2021-05-27T08:55:17.000Z</time>
      </trkpt>
      <trkpt lat="47.32957" lon="-2.46429">
        <ele>-27.60000038147</ele>
        <time>2021-05-27T08:55:18.000Z</time>
      </trkpt>
      <trkpt lat="47.32957" lon="-2.46422">
        <ele>-27.200000762939</ele>
        <time>2021-05-27T08:55:19.000Z</time>
      </trkpt>
      <trkpt lat="47.32958" lon="-2.46415">
        <ele>-26.60000038147</ele>
        <time>2021-05-27T08:55:20.000Z</time>
      </trkpt>
      <trkpt lat="47.32958" lon="-2.46409">
        <ele>-26.200000762939</ele>
        <time>2021-05-27T08:55:21.000Z</time>
      </trkpt>
      <trkpt lat="47.32959" lon="-2.46397">
        <ele>-25.799999237061</ele>
        <time>2021-05-27T08:55:23.000Z</time>
      </trkpt>
      <trkpt lat="47.32959" lon="-2.46392">
        <ele>-25.200000762939</ele>
        <time>2021-05-27T08:55:24.000Z</time>
      </trkpt>
      <trkpt lat="47.32959" lon="-2.46386">
        <ele>-24.799999237061</ele>
        <time>2021-05-27T08:55:25.000Z</time>
      </trkpt>
      <trkpt lat="47.32959" lon="-2.4638">
        <ele>-24.39999961853</ele>
        <time>2021-05-27T08:55:26.000Z</time>
      </trkpt>
      <trkpt lat="47.32959" lon="-2.46375">
        <ele>-23.799999237061</ele>
        <time>2021-05-27T08:55:27.000Z</time>
      </trkpt>
      <trkpt lat="47.32958" lon="-2.46369">
        <ele>-23.39999961853</ele>
        <time>2021-05-27T08:55:28.000Z</time>
      </trkpt>
      <trkpt lat="47.32958" lon="-2.46364">
        <ele>-23</ele>
        <time>2021-05-27T08:55:29.000Z</time>
      </trkpt>
      <trkpt lat="47.32957" lon="-2.46359">
        <ele>-22.60000038147</ele>
        <time>2021-05-27T08:55:30.000Z</time>
      </trkpt>
      <trkpt lat="47.32955" lon="-2.46353">
        <ele>-22.200000762939</ele>
        <time>2021-05-27T08:55:31.000Z</time>
      </trkpt>
      <trkpt lat="47.32954" lon="-2.46347">
        <ele>-21.799999237061</ele>
        <time>2021-05-27T08:55:32.000Z</time>
      </trkpt>
      <trkpt lat="47.32953" lon="-2.46342">
        <ele>-21.39999961853</ele>
        <time>2021-05-27T08:55:33.000Z</time>
      </trkpt>
      <trkpt lat="47.32951" lon="-2.46336">
        <ele>-21</ele>
        <time>2021-05-27T08:55:34.000Z</time>
      </trkpt>
      <trkpt lat="47.3295" lon="-2.46331">
        <ele>-20.60000038147</ele>
        <time>2021-05-27T08:55:35.000Z</time>
      </trkpt>
      <trkpt lat="47.32948" lon="-2.46326">
        <ele>-20.200000762939</ele>
        <time>2021-05-27T08:55:36.000Z</time>
      </trkpt>
      <trkpt lat="47.32947" lon="-2.4632">
        <ele>-19.799999237061</ele>
        <time>2021-05-27T08:55:37.000Z</time>
      </trkpt>
      <trkpt lat="47.32943" lon="-2.4631">
        <ele>-19.39999961853</ele>
        <time>2021-05-27T08:55:39.000Z</time>
      </trkpt>
      <trkpt lat="47.32942" lon="-2.46305">
        <ele>-18.799999237061</ele>
        <time>2021-05-27T08:55:40.000Z</time>
      </trkpt>
      <trkpt lat="47.3294" lon="-2.463">
        <ele>-18.39999961853</ele>
        <time>2021-05-27T08:55:41.000Z</time>
      </trkpt>
      <trkpt lat="47.32939" lon="-2.46294">
        <ele>-18</ele>
        <time>2021-05-27T08:55:42.000Z</time>
      </trkpt>
      <trkpt lat="47.32937" lon="-2.46288">
        <ele>-17.60000038147</ele>
        <time>2021-05-27T08:55:43.000Z</time>
      </trkpt>
      <trkpt lat="47.32932" lon="-2.46271">
        <ele>-17.60000038147</ele>
        <time>2021-05-27T08:55:46.000Z</time>
      </trkpt>
      <trkpt lat="47.32918" lon="-2.46218">
        <ele>-17.200000762939</ele>
        <time>2021-05-27T08:55:54.000Z</time>
      </trkpt>
      <trkpt lat="47.32916" lon="-2.46212">
        <ele>-16.799999237061</ele>
        <time>2021-05-27T08:55:55.000Z</time>
      </trkpt>
      <trkpt lat="47.32914" lon="-2.46205">
        <ele>-16.39999961853</ele>
        <time>2021-05-27T08:55:56.000Z</time>
      </trkpt>
      <trkpt lat="47.32913" lon="-2.46199">
        <ele>-16</ele>
        <time>2021-05-27T08:55:57.000Z</time>
      </trkpt>
      <trkpt lat="47.32912" lon="-2.46193">
        <ele>-15.60000038147</ele>
        <time>2021-05-27T08:55:58.000Z</time>
      </trkpt>
      <trkpt lat="47.32907" lon="-2.46171">
        <ele>-15.60000038147</ele>
        <time>2021-05-27T08:56:02.000Z</time>
      </trkpt>
      <trkpt lat="47.32897" lon="-2.46149">
        <ele>-15.60000038147</ele>
        <time>2021-05-27T08:56:07.000Z</time>
      </trkpt>
      <trkpt lat="47.32893" lon="-2.46148">
        <ele>-15.60000038147</ele>
        <time>2021-05-27T08:56:08.000Z</time>
      </trkpt>
      <trkpt lat="47.32881" lon="-2.46153">
        <ele>-15.60000038147</ele>
        <time>2021-05-27T08:56:11.000Z</time>
      </trkpt>
      <trkpt lat="47.32871" lon="-2.4616">
        <ele>-15.60000038147</ele>
        <time>2021-05-27T08:56:13.000Z</time>
      </trkpt>
      <trkpt lat="47.32855" lon="-2.46172">
        <ele>-15.60000038147</ele>
        <time>2021-05-27T08:56:16.000Z</time>
      </trkpt>
      <trkpt lat="47.32837" lon="-2.46182">
        <ele>-16</ele>
        <time>2021-05-27T08:56:19.000Z</time>
      </trkpt>
      <trkpt lat="47.32832" lon="-2.46185">
        <ele>-16.60000038147</ele>
        <time>2021-05-27T08:56:20.000Z</time>
      </trkpt>
      <trkpt lat="47.32826" lon="-2.46188">
        <ele>-17</ele>
        <time>2021-05-27T08:56:21.000Z</time>
      </trkpt>
      <trkpt lat="47.32821" lon="-2.46191">
        <ele>-17.60000038147</ele>
        <time>2021-05-27T08:56:22.000Z</time>
      </trkpt>
      <trkpt lat="47.32816" lon="-2.46192">
        <ele>-18</ele>
        <time>2021-05-27T08:56:23.000Z</time>
      </trkpt>
      <trkpt lat="47.3281" lon="-2.46191">
        <ele>-18.39999961853</ele>
        <time>2021-05-27T08:56:24.000Z</time>
      </trkpt>
      <trkpt lat="47.32805" lon="-2.46189">
        <ele>-18.799999237061</ele>
        <time>2021-05-27T08:56:25.000Z</time>
      </trkpt>
      <trkpt lat="47.328" lon="-2.46187">
        <ele>-19.60000038147</ele>
        <time>2021-05-27T08:56:26.000Z</time>
      </trkpt>
      <trkpt lat="47.32796" lon="-2.46184">
        <ele>-20</ele>
        <time>2021-05-27T08:56:27.000Z</time>
      </trkpt>
      <trkpt lat="47.32781" lon="-2.46169">
        <ele>-20</ele>
        <time>2021-05-27T08:56:30.000Z</time>
      </trkpt>
      <trkpt lat="47.32776" lon="-2.46163">
        <ele>-20.39999961853</ele>
        <time>2021-05-27T08:56:31.000Z</time>
      </trkpt>
      <trkpt lat="47.32772" lon="-2.46157">
        <ele>-21</ele>
        <time>2021-05-27T08:56:32.000Z</time>
      </trkpt>
      <trkpt lat="47.32768" lon="-2.4615">
        <ele>-21.39999961853</ele>
        <time>2021-05-27T08:56:33.000Z</time>
      </trkpt>
      <trkpt lat="47.32765" lon="-2.46144">
        <ele>-21.799999237061</ele>
        <time>2021-05-27T08:56:34.000Z</time>
      </trkpt>
      <trkpt lat="47.32763" lon="-2.46138">
        <ele>-22.200000762939</ele>
        <time>2021-05-27T08:56:35.000Z</time>
      </trkpt>
      <trkpt lat="47.3276" lon="-2.46125">
        <ele>-22.200000762939</ele>
        <time>2021-05-27T08:56:38.000Z</time>
      </trkpt>
      <trkpt lat="47.32759" lon="-2.4612">
        <ele>-22.60000038147</ele>
        <time>2021-05-27T08:56:39.000Z</time>
      </trkpt>
      <trkpt lat="47.32757" lon="-2.46115">
        <ele>-23.200000762939</ele>
        <time>2021-05-27T08:56:40.000Z</time>
      </trkpt>
      <trkpt lat="47.32756" lon="-2.4611">
        <ele>-23.60000038147</ele>
        <time>2021-05-27T08:56:41.000Z</time>
      </trkpt>
      <trkpt lat="47.32754" lon="-2.46106">
        <ele>-24</ele>
        <time>2021-05-27T08:56:42.000Z</time>
      </trkpt>
      <trkpt lat="47.32752" lon="-2.46102">
        <ele>-24.39999961853</ele>
        <time>2021-05-27T08:56:43.000Z</time>
      </trkpt>
      <trkpt lat="47.3275" lon="-2.46096">
        <ele>-24.39999961853</ele>
        <time>2021-05-27T08:56:44.000Z</time>
      </trkpt>
      <trkpt lat="47.3274" lon="-2.46082">
        <ele>-24.39999961853</ele>
        <time>2021-05-27T08:56:48.000Z</time>
      </trkpt>
      <trkpt lat="47.32736" lon="-2.46078">
        <ele>-24.799999237061</ele>
        <time>2021-05-27T08:56:50.000Z</time>
      </trkpt>
      <trkpt lat="47.32735" lon="-2.46076">
        <ele>-25.799999237061</ele>
        <time>2021-05-27T08:56:51.000Z</time>
      </trkpt>
      <trkpt lat="47.32733" lon="-2.46074">
        <ele>-26.200000762939</ele>
        <time>2021-05-27T08:56:52.000Z</time>
      </trkpt>
      <trkpt lat="47.32732" lon="-2.46072">
        <ele>-26.60000038147</ele>
        <time>2021-05-27T08:56:53.000Z</time>
      </trkpt>
      <trkpt lat="47.32731" lon="-2.46071">
        <ele>-26.60000038147</ele>
        <time>2021-05-27T08:56:54.000Z</time>
      </trkpt>
      <trkpt lat="47.32719" lon="-2.46058">
        <ele>-26.60000038147</ele>
        <time>2021-05-27T08:57:00.000Z</time>
      </trkpt>
      <trkpt lat="47.32705" lon="-2.46047">
        <ele>-26.60000038147</ele>
        <time>2021-05-27T08:57:05.000Z</time>
      </trkpt>
      <trkpt lat="47.32704" lon="-2.46044">
        <ele>-26.60000038147</ele>
        <time>2021-05-27T08:57:06.000Z</time>
      </trkpt>
      <trkpt lat="47.32698" lon="-2.46033">
        <ele>-26.60000038147</ele>
        <time>2021-05-27T08:57:09.000Z</time>
      </trkpt>
      <trkpt lat="47.32693" lon="-2.46024">
        <ele>-27</ele>
        <time>2021-05-27T08:57:12.000Z</time>
      </trkpt>
      <trkpt lat="47.32691" lon="-2.46022">
        <ele>-27.39999961853</ele>
        <time>2021-05-27T08:57:13.000Z</time>
      </trkpt>
      <trkpt lat="47.32689" lon="-2.46018">
        <ele>-27.799999237061</ele>
        <time>2021-05-27T08:57:14.000Z</time>
      </trkpt>
      <trkpt lat="47.32687" lon="-2.46016">
        <ele>-28.200000762939</ele>
        <time>2021-05-27T08:57:15.000Z</time>
      </trkpt>
      <trkpt lat="47.32685" lon="-2.46015">
        <ele>-28.60000038147</ele>
        <time>2021-05-27T08:57:16.000Z</time>
      </trkpt>
      <trkpt lat="47.32679" lon="-2.46007">
        <ele>-28.60000038147</ele>
        <time>2021-05-27T08:57:20.000Z</time>
      </trkpt>
      <trkpt lat="47.32676" lon="-2.46001">
        <ele>-28.60000038147</ele>
        <time>2021-05-27T08:57:22.000Z</time>
      </trkpt>
      <trkpt lat="47.32664" lon="-2.45988">
        <ele>-28.60000038147</ele>
        <time>2021-05-27T08:57:27.000Z</time>
      </trkpt>
      <trkpt lat="47.32648" lon="-2.45974">
        <ele>-28.60000038147</ele>
        <time>2021-05-27T08:57:31.000Z</time>
      </trkpt>
      <trkpt lat="47.32644" lon="-2.4597">
        <ele>-28.60000038147</ele>
        <time>2021-05-27T08:57:32.000Z</time>
      </trkpt>
      <trkpt lat="47.32635" lon="-2.4596">
        <ele>-28.60000038147</ele>
        <time>2021-05-27T08:57:34.000Z</time>
      </trkpt>
      <trkpt lat="47.32623" lon="-2.45941">
        <ele>-28.60000038147</ele>
        <time>2021-05-27T08:57:37.000Z</time>
      </trkpt>
      <trkpt lat="47.326" lon="-2.45904">
        <ele>-28.60000038147</ele>
        <time>2021-05-27T08:57:43.000Z</time>
      </trkpt>
      <trkpt lat="47.3257" lon="-2.45861">
        <ele>-28.60000038147</ele>
        <time>2021-05-27T08:57:50.000Z</time>
      </trkpt>
      <trkpt lat="47.32543" lon="-2.45818">
        <ele>-28.60000038147</ele>
        <time>2021-05-27T08:57:56.000Z</time>
      </trkpt>
      <trkpt lat="47.32529" lon="-2.45798">
        <ele>-28.60000038147</ele>
        <time>2021-05-27T08:57:59.000Z</time>
      </trkpt>
      <trkpt lat="47.3252" lon="-2.45782">
        <ele>-28.60000038147</ele>
        <time>2021-05-27T08:58:01.000Z</time>
      </trkpt>
      <trkpt lat="47.32497" lon="-2.4574">
        <ele>-28.60000038147</ele>
        <time>2021-05-27T08:58:06.000Z</time>
      </trkpt>
      <trkpt lat="47.3246" lon="-2.45676">
        <ele>-28.60000038147</ele>
        <time>2021-05-27T08:58:14.000Z</time>
      </trkpt>
      <trkpt lat="47.3243" lon="-2.45633">
        <ele>-28.60000038147</ele>
        <time>2021-05-27T08:58:20.000Z</time>
      </trkpt>
      <trkpt lat="47.32413" lon="-2.45601">
        <ele>-28.60000038147</ele>
        <time>2021-05-27T08:58:25.000Z</time>
      </trkpt>
      <trkpt lat="47.32403" lon="-2.45577">
        <ele>-28.60000038147</ele>
        <time>2021-05-27T08:58:29.000Z</time>
      </trkpt>
      <trkpt lat="47.324" lon="-2.45571">
        <ele>-28.60000038147</ele>
        <time>2021-05-27T08:58:30.000Z</time>
      </trkpt>
      <trkpt lat="47.32385" lon="-2.45546">
        <ele>-28.60000038147</ele>
        <time>2021-05-27T08:58:35.000Z</time>
      </trkpt>
      <trkpt lat="47.32374" lon="-2.45522">
        <ele>-28.60000038147</ele>
        <time>2021-05-27T08:58:39.000Z</time>
      </trkpt>
      <trkpt lat="47.32369" lon="-2.45511">
        <ele>-28.60000038147</ele>
        <time>2021-05-27T08:58:41.000Z</time>
      </trkpt>
      <trkpt lat="47.32365" lon="-2.45506">
        <ele>-28.60000038147</ele>
        <time>2021-05-27T08:58:42.000Z</time>
      </trkpt>
      <trkpt lat="47.32348" lon="-2.45481">
        <ele>-28.60000038147</ele>
        <time>2021-05-27T08:58:46.000Z</time>
      </trkpt>
      <trkpt lat="47.32325" lon="-2.45442">
        <ele>-28.60000038147</ele>
        <time>2021-05-27T08:58:52.000Z</time>
      </trkpt>
      <trkpt lat="47.3231" lon="-2.45417">
        <ele>-28.60000038147</ele>
        <time>2021-05-27T08:58:56.000Z</time>
      </trkpt>
      <trkpt lat="47.32308" lon="-2.4541">
        <ele>-28.60000038147</ele>
        <time>2021-05-27T08:58:57.000Z</time>
      </trkpt>
      <trkpt lat="47.32313" lon="-2.45395">
        <ele>-28.60000038147</ele>
        <time>2021-05-27T08:59:00.000Z</time>
      </trkpt>
      <trkpt lat="47.32316" lon="-2.4538">
        <ele>-28.60000038147</ele>
        <time>2021-05-27T08:59:03.000Z</time>
      </trkpt>
      <trkpt lat="47.32316" lon="-2.45369">
        <ele>-28.60000038147</ele>
        <time>2021-05-27T08:59:05.000Z</time>
      </trkpt>
      <trkpt lat="47.32312" lon="-2.45331">
        <ele>-28.200000762939</ele>
        <time>2021-05-27T08:59:12.000Z</time>
      </trkpt>
      <trkpt lat="47.32312" lon="-2.45325">
        <ele>-27.60000038147</ele>
        <time>2021-05-27T08:59:13.000Z</time>
      </trkpt>
      <trkpt lat="47.32312" lon="-2.45319">
        <ele>-27.200000762939</ele>
        <time>2021-05-27T08:59:14.000Z</time>
      </trkpt>
      <trkpt lat="47.32312" lon="-2.45313">
        <ele>-26.799999237061</ele>
        <time>2021-05-27T08:59:15.000Z</time>
      </trkpt>
      <trkpt lat="47.32312" lon="-2.45307">
        <ele>-26.39999961853</ele>
        <time>2021-05-27T08:59:16.000Z</time>
      </trkpt>
      <trkpt lat="47.3231" lon="-2.45296">
        <ele>-26.39999961853</ele>
        <time>2021-05-27T08:59:18.000Z</time>
      </trkpt>
      <trkpt lat="47.32299" lon="-2.45256">
        <ele>-26.39999961853</ele>
        <time>2021-05-27T08:59:24.000Z</time>
      </trkpt>
      <trkpt lat="47.32286" lon="-2.45222">
        <ele>-26.39999961853</ele>
        <time>2021-05-27T08:59:28.000Z</time>
      </trkpt>
      <trkpt lat="47.32265" lon="-2.45177">
        <ele>-26.39999961853</ele>
        <time>2021-05-27T08:59:34.000Z</time>
      </trkpt>
      <trkpt lat="47.32257" lon="-2.45144">
        <ele>-26.39999961853</ele>
        <time>2021-05-27T08:59:39.000Z</time>
      </trkpt>
      <trkpt lat="47.32246" lon="-2.45108">
        <ele>-26</ele>
        <time>2021-05-27T08:59:45.000Z</time>
      </trkpt>
      <trkpt lat="47.32243" lon="-2.45101">
        <ele>-25.200000762939</ele>
        <time>2021-05-27T08:59:46.000Z</time>
      </trkpt>
      <trkpt lat="47.32241" lon="-2.45095">
        <ele>-24.799999237061</ele>
        <time>2021-05-27T08:59:47.000Z</time>
      </trkpt>
      <trkpt lat="47.32238" lon="-2.45088">
        <ele>-24.39999961853</ele>
        <time>2021-05-27T08:59:48.000Z</time>
      </trkpt>
      <trkpt lat="47.32218" lon="-2.45045">
        <ele>-24.39999961853</ele>
        <time>2021-05-27T08:59:55.000Z</time>
      </trkpt>
      <trkpt lat="47.32203" lon="-2.45014">
        <ele>-24.39999961853</ele>
        <time>2021-05-27T09:00:00.000Z</time>
      </trkpt>
      <trkpt lat="47.322" lon="-2.45009">
        <ele>-24.39999961853</ele>
        <time>2021-05-27T09:00:01.000Z</time>
      </trkpt>
      <trkpt lat="47.32197" lon="-2.45003">
        <ele>-24.39999961853</ele>
        <time>2021-05-27T09:00:02.000Z</time>
      </trkpt>
      <trkpt lat="47.32194" lon="-2.4499">
        <ele>-24.39999961853</ele>
        <time>2021-05-27T09:00:05.000Z</time>
      </trkpt>
      <trkpt lat="47.32193" lon="-2.44988">
        <ele>-24.39999961853</ele>
        <time>2021-05-27T09:00:08.000Z</time>
      </trkpt>
      <trkpt lat="47.32191" lon="-2.44985">
        <ele>-24.39999961853</ele>
        <time>2021-05-27T09:00:23.000Z</time>
      </trkpt>
      <trkpt lat="47.3218" lon="-2.44971">
        <ele>-24.39999961853</ele>
        <time>2021-05-27T09:00:28.000Z</time>
      </trkpt>
      <trkpt lat="47.32156" lon="-2.4495">
        <ele>-24.39999961853</ele>
        <time>2021-05-27T09:00:34.000Z</time>
      </trkpt>
      <trkpt lat="47.32137" lon="-2.44934">
        <ele>-24.39999961853</ele>
        <time>2021-05-27T09:00:38.000Z</time>
      </trkpt>
      <trkpt lat="47.32129" lon="-2.44922">
        <ele>-24.799999237061</ele>
        <time>2021-05-27T09:00:40.000Z</time>
      </trkpt>
      <trkpt lat="47.32126" lon="-2.44915">
        <ele>-25.200000762939</ele>
        <time>2021-05-27T09:00:41.000Z</time>
      </trkpt>
      <trkpt lat="47.32122" lon="-2.44908">
        <ele>-25.60000038147</ele>
        <time>2021-05-27T09:00:42.000Z</time>
      </trkpt>
      <trkpt lat="47.32119" lon="-2.44901">
        <ele>-26</ele>
        <time>2021-05-27T09:00:43.000Z</time>
      </trkpt>
      <trkpt lat="47.32115" lon="-2.44894">
        <ele>-26.39999961853</ele>
        <time>2021-05-27T09:00:44.000Z</time>
      </trkpt>
      <trkpt lat="47.32109" lon="-2.4488">
        <ele>-26.39999961853</ele>
        <time>2021-05-27T09:00:46.000Z</time>
      </trkpt>
      <trkpt lat="47.32087" lon="-2.44829">
        <ele>-26.39999961853</ele>
        <time>2021-05-27T09:00:53.000Z</time>
      </trkpt>
      <trkpt lat="47.32062" lon="-2.44771">
        <ele>-26.39999961853</ele>
        <time>2021-05-27T09:01:01.000Z</time>
      </trkpt>
      <trkpt lat="47.3205" lon="-2.44751">
        <ele>-26.799999237061</ele>
        <time>2021-05-27T09:01:04.000Z</time>
      </trkpt>
      <trkpt lat="47.32046" lon="-2.44745">
        <ele>-27.200000762939</ele>
        <time>2021-05-27T09:01:05.000Z</time>
      </trkpt>
      <trkpt lat="47.32042" lon="-2.44738">
        <ele>-27.60000038147</ele>
        <time>2021-05-27T09:01:06.000Z</time>
      </trkpt>
      <trkpt lat="47.32038" lon="-2.44732">
        <ele>-28</ele>
        <time>2021-05-27T09:01:07.000Z</time>
      </trkpt>
      <trkpt lat="47.32034" lon="-2.44727">
        <ele>-28.39999961853</ele>
        <time>2021-05-27T09:01:08.000Z</time>
      </trkpt>
      <trkpt lat="47.32014" lon="-2.44697">
        <ele>-28.39999961853</ele>
        <time>2021-05-27T09:01:13.000Z</time>
      </trkpt>
      <trkpt lat="47.31983" lon="-2.44655">
        <ele>-28.39999961853</ele>
        <time>2021-05-27T09:01:20.000Z</time>
      </trkpt>
      <trkpt lat="47.31949" lon="-2.44618">
        <ele>-28.39999961853</ele>
        <time>2021-05-27T09:01:27.000Z</time>
      </trkpt>
      <trkpt lat="47.31918" lon="-2.44582">
        <ele>-28.39999961853</ele>
        <time>2021-05-27T09:01:34.000Z</time>
      </trkpt>
      <trkpt lat="47.3191" lon="-2.44573">
        <ele>-28.799999237061</ele>
        <time>2021-05-27T09:01:36.000Z</time>
      </trkpt>
      <trkpt lat="47.31907" lon="-2.44569">
        <ele>-29.200000762939</ele>
        <time>2021-05-27T09:01:37.000Z</time>
      </trkpt>
      <trkpt lat="47.31902" lon="-2.44567">
        <ele>-29.60000038147</ele>
        <time>2021-05-27T09:01:38.000Z</time>
      </trkpt>
      <trkpt lat="47.31897" lon="-2.44567">
        <ele>-30</ele>
        <time>2021-05-27T09:01:39.000Z</time>
      </trkpt>
      <trkpt lat="47.31892" lon="-2.44571">
        <ele>-30.39999961853</ele>
        <time>2021-05-27T09:01:40.000Z</time>
      </trkpt>
      <trkpt lat="47.31885" lon="-2.44583">
        <ele>-30.39999961853</ele>
        <time>2021-05-27T09:01:42.000Z</time>
      </trkpt>
      <trkpt lat="47.31881" lon="-2.44598">
        <ele>-30.39999961853</ele>
        <time>2021-05-27T09:01:44.000Z</time>
      </trkpt>
      <trkpt lat="47.31873" lon="-2.44621">
        <ele>-30.39999961853</ele>
        <time>2021-05-27T09:01:47.000Z</time>
      </trkpt>
      <trkpt lat="47.31854" lon="-2.44672">
        <ele>-30.39999961853</ele>
        <time>2021-05-27T09:01:53.000Z</time>
      </trkpt>
      <trkpt lat="47.31849" lon="-2.4468">
        <ele>-30.39999961853</ele>
        <time>2021-05-27T09:01:54.000Z</time>
      </trkpt>
      <trkpt lat="47.31832" lon="-2.44708">
        <ele>-30.39999961853</ele>
        <time>2021-05-27T09:01:58.000Z</time>
      </trkpt>
      <trkpt lat="47.31827" lon="-2.44714">
        <ele>-30.39999961853</ele>
        <time>2021-05-27T09:01:59.000Z</time>
      </trkpt>
      <trkpt lat="47.3181" lon="-2.44728">
        <ele>-30.39999961853</ele>
        <time>2021-05-27T09:02:02.000Z</time>
      </trkpt>
      <trkpt lat="47.31798" lon="-2.44734">
        <ele>-30.39999961853</ele>
        <time>2021-05-27T09:02:04.000Z</time>
      </trkpt>
      <trkpt lat="47.31779" lon="-2.44743">
        <ele>-30.39999961853</ele>
        <time>2021-05-27T09:02:07.000Z</time>
      </trkpt>
      <trkpt lat="47.31768" lon="-2.44751">
        <ele>-30.39999961853</ele>
        <time>2021-05-27T09:02:09.000Z</time>
      </trkpt>
      <trkpt lat="47.31754" lon="-2.44765">
        <ele>-30.39999961853</ele>
        <time>2021-05-27T09:02:12.000Z</time>
      </trkpt>
      <trkpt lat="47.3174" lon="-2.44778">
        <ele>-31</ele>
        <time>2021-05-27T09:02:15.000Z</time>
      </trkpt>
      <trkpt lat="47.31735" lon="-2.44782">
        <ele>-31.39999961853</ele>
        <time>2021-05-27T09:02:16.000Z</time>
      </trkpt>
      <trkpt lat="47.31731" lon="-2.44783">
        <ele>-31.799999237061</ele>
        <time>2021-05-27T09:02:17.000Z</time>
      </trkpt>
      <trkpt lat="47.31727" lon="-2.44784">
        <ele>-32.200000762939</ele>
        <time>2021-05-27T09:02:18.000Z</time>
      </trkpt>
      <trkpt lat="47.31723" lon="-2.44782">
        <ele>-32.599998474121</ele>
        <time>2021-05-27T09:02:19.000Z</time>
      </trkpt>
      <trkpt lat="47.31716" lon="-2.44772">
        <ele>-32.599998474121</ele>
        <time>2021-05-27T09:02:21.000Z</time>
      </trkpt>
      <trkpt lat="47.31704" lon="-2.44741">
        <ele>-32.599998474121</ele>
        <time>2021-05-27T09:02:25.000Z</time>
      </trkpt>
      <trkpt lat="47.31674" lon="-2.4467">
        <ele>-32.599998474121</ele>
        <time>2021-05-27T09:02:34.000Z</time>
      </trkpt>
      <trkpt lat="47.31648" lon="-2.44609">
        <ele>-32.599998474121</ele>
        <time>2021-05-27T09:02:42.000Z</time>
      </trkpt>
      <trkpt lat="47.31624" lon="-2.44563">
        <ele>-32.599998474121</ele>
        <time>2021-05-27T09:02:49.000Z</time>
      </trkpt>
      <trkpt lat="47.31596" lon="-2.44513">
        <ele>-32.599998474121</ele>
        <time>2021-05-27T09:02:56.000Z</time>
      </trkpt>
      <trkpt lat="47.31582" lon="-2.44469">
        <ele>-32.599998474121</ele>
        <time>2021-05-27T09:03:01.000Z</time>
      </trkpt>
      <trkpt lat="47.31578" lon="-2.44451">
        <ele>-33.400001525879</ele>
        <time>2021-05-27T09:03:03.000Z</time>
      </trkpt>
      <trkpt lat="47.31576" lon="-2.44442">
        <ele>-33.799999237061</ele>
        <time>2021-05-27T09:03:04.000Z</time>
      </trkpt>
      <trkpt lat="47.31575" lon="-2.44432">
        <ele>-34.200000762939</ele>
        <time>2021-05-27T09:03:05.000Z</time>
      </trkpt>
      <trkpt lat="47.31573" lon="-2.44422">
        <ele>-34.599998474121</ele>
        <time>2021-05-27T09:03:06.000Z</time>
      </trkpt>
      <trkpt lat="47.31569" lon="-2.44395">
        <ele>-34.599998474121</ele>
        <time>2021-05-27T09:03:09.000Z</time>
      </trkpt>
      <trkpt lat="47.31559" lon="-2.4433">
        <ele>-34.599998474121</ele>
        <time>2021-05-27T09:03:16.000Z</time>
      </trkpt>
      <trkpt lat="47.31548" lon="-2.4426">
        <ele>-34.599998474121</ele>
        <time>2021-05-27T09:03:24.000Z</time>
      </trkpt>
      <trkpt lat="47.31534" lon="-2.44193">
        <ele>-34.599998474121</ele>
        <time>2021-05-27T09:03:32.000Z</time>
      </trkpt>
      <trkpt lat="47.31516" lon="-2.44152">
        <ele>-34.599998474121</ele>
        <time>2021-05-27T09:03:38.000Z</time>
      </trkpt>
      <trkpt lat="47.31488" lon="-2.44113">
        <ele>-34.599998474121</ele>
        <time>2021-05-27T09:03:44.000Z</time>
      </trkpt>
      <trkpt lat="47.31448" lon="-2.44061">
        <ele>-34.599998474121</ele>
        <time>2021-05-27T09:03:52.000Z</time>
      </trkpt>
      <trkpt lat="47.31417" lon="-2.4402">
        <ele>-34.599998474121</ele>
        <time>2021-05-27T09:03:59.000Z</time>
      </trkpt>
      <trkpt lat="47.31385" lon="-2.43979">
        <ele>-34.599998474121</ele>
        <time>2021-05-27T09:04:06.000Z</time>
      </trkpt>
      <trkpt lat="47.31366" lon="-2.43953">
        <ele>-34.599998474121</ele>
        <time>2021-05-27T09:04:10.000Z</time>
      </trkpt>
      <trkpt lat="47.31356" lon="-2.4393">
        <ele>-34.599998474121</ele>
        <time>2021-05-27T09:04:13.000Z</time>
      </trkpt>
      <trkpt lat="47.31352" lon="-2.43922">
        <ele>-34.599998474121</ele>
        <time>2021-05-27T09:04:14.000Z</time>
      </trkpt>
      <trkpt lat="47.31332" lon="-2.43868">
        <ele>-34.599998474121</ele>
        <time>2021-05-27T09:04:21.000Z</time>
      </trkpt>
      <trkpt lat="47.31314" lon="-2.43828">
        <ele>-34.599998474121</ele>
        <time>2021-05-27T09:04:27.000Z</time>
      </trkpt>
      <trkpt lat="47.3131" lon="-2.43822">
        <ele>-34.599998474121</ele>
        <time>2021-05-27T09:04:28.000Z</time>
      </trkpt>
      <trkpt lat="47.31292" lon="-2.43796">
        <ele>-34.599998474121</ele>
        <time>2021-05-27T09:04:32.000Z</time>
      </trkpt>
      <trkpt lat="47.31284" lon="-2.4378">
        <ele>-34.599998474121</ele>
        <time>2021-05-27T09:04:34.000Z</time>
      </trkpt>
      <trkpt lat="47.31254" lon="-2.43704">
        <ele>-34.599998474121</ele>
        <time>2021-05-27T09:04:43.000Z</time>
      </trkpt>
      <trkpt lat="47.31237" lon="-2.4364">
        <ele>-34.599998474121</ele>
        <time>2021-05-27T09:04:50.000Z</time>
      </trkpt>
      <trkpt lat="47.31227" lon="-2.43576">
        <ele>-34.599998474121</ele>
        <time>2021-05-27T09:04:57.000Z</time>
      </trkpt>
      <trkpt lat="47.31217" lon="-2.43504">
        <ele>-34.599998474121</ele>
        <time>2021-05-27T09:05:05.000Z</time>
      </trkpt>
      <trkpt lat="47.31205" lon="-2.43424">
        <ele>-34.599998474121</ele>
        <time>2021-05-27T09:05:14.000Z</time>
      </trkpt>
      <trkpt lat="47.31195" lon="-2.43353">
        <ele>-34.599998474121</ele>
        <time>2021-05-27T09:05:22.000Z</time>
      </trkpt>
      <trkpt lat="47.31189" lon="-2.43328">
        <ele>-34.599998474121</ele>
        <time>2021-05-27T09:05:25.000Z</time>
      </trkpt>
      <trkpt lat="47.31181" lon="-2.43304">
        <ele>-34.599998474121</ele>
        <time>2021-05-27T09:05:28.000Z</time>
      </trkpt>
      <trkpt lat="47.31161" lon="-2.4327">
        <ele>-34.599998474121</ele>
        <time>2021-05-27T09:05:33.000Z</time>
      </trkpt>
      <trkpt lat="47.31122" lon="-2.4321">
        <ele>-34.599998474121</ele>
        <time>2021-05-27T09:05:42.000Z</time>
      </trkpt>
      <trkpt lat="47.31118" lon="-2.43205">
        <ele>-34.599998474121</ele>
        <time>2021-05-27T09:05:43.000Z</time>
      </trkpt>
      <trkpt lat="47.31111" lon="-2.43194">
        <ele>-34.599998474121</ele>
        <time>2021-05-27T09:05:45.000Z</time>
      </trkpt>
      <trkpt lat="47.311" lon="-2.43195">
        <ele>-34.599998474121</ele>
        <time>2021-05-27T09:05:47.000Z</time>
      </trkpt>
      <trkpt lat="47.31085" lon="-2.43206">
        <ele>-34.599998474121</ele>
        <time>2021-05-27T09:05:50.000Z</time>
      </trkpt>
      <trkpt lat="47.3108" lon="-2.43211">
        <ele>-34.599998474121</ele>
        <time>2021-05-27T09:05:51.000Z</time>
      </trkpt>
      <trkpt lat="47.31048" lon="-2.43242">
        <ele>-34.599998474121</ele>
        <time>2021-05-27T09:05:57.000Z</time>
      </trkpt>
      <trkpt lat="47.31033" lon="-2.43262">
        <ele>-34.599998474121</ele>
        <time>2021-05-27T09:06:00.000Z</time>
      </trkpt>
      <trkpt lat="47.3102" lon="-2.43283">
        <ele>-34.599998474121</ele>
        <time>2021-05-27T09:06:03.000Z</time>
      </trkpt>
      <trkpt lat="47.30993" lon="-2.43309">
        <ele>-34.599998474121</ele>
        <time>2021-05-27T09:06:08.000Z</time>
      </trkpt>
      <trkpt lat="47.30961" lon="-2.43324">
        <ele>-34.599998474121</ele>
        <time>2021-05-27T09:06:13.000Z</time>
      </trkpt>
      <trkpt lat="47.30917" lon="-2.43342">
        <ele>-34.599998474121</ele>
        <time>2021-05-27T09:06:20.000Z</time>
      </trkpt>
      <trkpt lat="47.30873" lon="-2.43359">
        <ele>-34.599998474121</ele>
        <time>2021-05-27T09:06:27.000Z</time>
      </trkpt>
      <trkpt lat="47.30823" lon="-2.43383">
        <ele>-34.599998474121</ele>
        <time>2021-05-27T09:06:35.000Z</time>
      </trkpt>
      <trkpt lat="47.30785" lon="-2.4339">
        <ele>-34.599998474121</ele>
        <time>2021-05-27T09:06:41.000Z</time>
      </trkpt>
      <trkpt lat="47.30733" lon="-2.4339">
        <ele>-34.599998474121</ele>
        <time>2021-05-27T09:06:49.000Z</time>
      </trkpt>
      <trkpt lat="47.30682" lon="-2.43393">
        <ele>-34.599998474121</ele>
        <time>2021-05-27T09:06:57.000Z</time>
      </trkpt>
      <trkpt lat="47.30638" lon="-2.43404">
        <ele>-34.599998474121</ele>
        <time>2021-05-27T09:07:04.000Z</time>
      </trkpt>
      <trkpt lat="47.30594" lon="-2.43413">
        <ele>-34.599998474121</ele>
        <time>2021-05-27T09:07:11.000Z</time>
      </trkpt>
      <trkpt lat="47.30546" lon="-2.43419">
        <ele>-34.599998474121</ele>
        <time>2021-05-27T09:07:19.000Z</time>
      </trkpt>
      <trkpt lat="47.30534" lon="-2.43416">
        <ele>-34.599998474121</ele>
        <time>2021-05-27T09:07:21.000Z</time>
      </trkpt>
      <trkpt lat="47.30509" lon="-2.43413">
        <ele>-34.599998474121</ele>
        <time>2021-05-27T09:07:25.000Z</time>
      </trkpt>
      <trkpt lat="47.30466" lon="-2.4341">
        <ele>-34.599998474121</ele>
        <time>2021-05-27T09:07:32.000Z</time>
      </trkpt>
      <trkpt lat="47.3044" lon="-2.4342">
        <ele>-34.599998474121</ele>
        <time>2021-05-27T09:07:37.000Z</time>
      </trkpt>
      <trkpt lat="47.30426" lon="-2.43405">
        <ele>-34.599998474121</ele>
        <time>2021-05-27T09:07:40.000Z</time>
      </trkpt>
      <trkpt lat="47.3042" lon="-2.4338">
        <ele>-34.599998474121</ele>
        <time>2021-05-27T09:07:43.000Z</time>
      </trkpt>
      <trkpt lat="47.30418" lon="-2.43372">
        <ele>-34.599998474121</ele>
        <time>2021-05-27T09:07:44.000Z</time>
      </trkpt>
      <trkpt lat="47.30407" lon="-2.43314">
        <ele>-34.599998474121</ele>
        <time>2021-05-27T09:07:51.000Z</time>
      </trkpt>
      <trkpt lat="47.30389" lon="-2.43247">
        <ele>-34.599998474121</ele>
        <time>2021-05-27T09:07:59.000Z</time>
      </trkpt>
      <trkpt lat="47.30373" lon="-2.43235">
        <ele>-34.599998474121</ele>
        <time>2021-05-27T09:08:02.000Z</time>
      </trkpt>
      <trkpt lat="47.30348" lon="-2.4324">
        <ele>-34.599998474121</ele>
        <time>2021-05-27T09:08:06.000Z</time>
      </trkpt>
      <trkpt lat="47.30335" lon="-2.43244">
        <ele>-34.599998474121</ele>
        <time>2021-05-27T09:08:08.000Z</time>
      </trkpt>
      <trkpt lat="47.30314" lon="-2.43249">
        <ele>-34.599998474121</ele>
        <time>2021-05-27T09:08:11.000Z</time>
      </trkpt>
      <trkpt lat="47.3026" lon="-2.43263">
        <ele>-34.599998474121</ele>
        <time>2021-05-27T09:08:19.000Z</time>
      </trkpt>
      <trkpt lat="47.30206" lon="-2.43286">
        <ele>-34.599998474121</ele>
        <time>2021-05-27T09:08:28.000Z</time>
      </trkpt>
      <trkpt lat="47.30158" lon="-2.43307">
        <ele>-34.599998474121</ele>
        <time>2021-05-27T09:08:36.000Z</time>
      </trkpt>
      <trkpt lat="47.30114" lon="-2.4332">
        <ele>-34.599998474121</ele>
        <time>2021-05-27T09:08:43.000Z</time>
      </trkpt>
      <trkpt lat="47.30065" lon="-2.43332">
        <ele>-34.599998474121</ele>
        <time>2021-05-27T09:08:51.000Z</time>
      </trkpt>
      <trkpt lat="47.30042" lon="-2.43336">
        <ele>-34.599998474121</ele>
        <time>2021-05-27T09:08:55.000Z</time>
      </trkpt>
      <trkpt lat="47.30029" lon="-2.43335">
        <ele>-34.599998474121</ele>
        <time>2021-05-27T09:08:57.000Z</time>
      </trkpt>
      <trkpt lat="47.30012" lon="-2.4333">
        <ele>-34.599998474121</ele>
        <time>2021-05-27T09:09:00.000Z</time>
      </trkpt>
      <trkpt lat="47.30002" lon="-2.43323">
        <ele>-34.599998474121</ele>
        <time>2021-05-27T09:09:02.000Z</time>
      </trkpt>
      <trkpt lat="47.29969" lon="-2.43296">
        <ele>-34.599998474121</ele>
        <time>2021-05-27T09:09:08.000Z</time>
      </trkpt>
      <trkpt lat="47.2995" lon="-2.43297">
        <ele>-34.599998474121</ele>
        <time>2021-05-27T09:09:11.000Z</time>
      </trkpt>
      <trkpt lat="47.2994" lon="-2.43302">
        <ele>-34.599998474121</ele>
        <time>2021-05-27T09:09:13.000Z</time>
      </trkpt>
      <trkpt lat="47.29924" lon="-2.43308">
        <ele>-34.599998474121</ele>
        <time>2021-05-27T09:09:16.000Z</time>
      </trkpt>
      <trkpt lat="47.29901" lon="-2.43314">
        <ele>-34.599998474121</ele>
        <time>2021-05-27T09:09:21.000Z</time>
      </trkpt>
      <trkpt lat="47.29888" lon="-2.4332">
        <ele>-35</ele>
        <time>2021-05-27T09:09:26.000Z</time>
      </trkpt>
      <trkpt lat="47.29887" lon="-2.43319">
        <ele>-35.400001525879</ele>
        <time>2021-05-27T09:09:27.000Z</time>
      </trkpt>
      <trkpt lat="47.29886" lon="-2.43319">
        <ele>-35.799999237061</ele>
        <time>2021-05-27T09:09:28.000Z</time>
      </trkpt>
      <trkpt lat="47.29887" lon="-2.43319">
        <ele>-36.200000762939</ele>
        <time>2021-05-27T09:09:29.000Z</time>
      </trkpt>
      <trkpt lat="47.29885" lon="-2.43319">
        <ele>-36.599998474121</ele>
        <time>2021-05-27T09:09:40.000Z</time>
      </trkpt>
      <trkpt lat="47.29876" lon="-2.43309">
        <ele>-36.599998474121</ele>
        <time>2021-05-27T09:09:46.000Z</time>
      </trkpt>
      <trkpt lat="47.29868" lon="-2.43289">
        <ele>-36.599998474121</ele>
        <time>2021-05-27T09:09:52.000Z</time>
      </trkpt>
      <trkpt lat="47.29852" lon="-2.43256">
        <ele>-36.599998474121</ele>
        <time>2021-05-27T09:09:58.000Z</time>
      </trkpt>
      <trkpt lat="47.29837" lon="-2.43224">
        <ele>-36.599998474121</ele>
        <time>2021-05-27T09:10:04.000Z</time>
      </trkpt>
      <trkpt lat="47.29834" lon="-2.43219">
        <ele>-36.599998474121</ele>
        <time>2021-05-27T09:10:05.000Z</time>
      </trkpt>
      <trkpt lat="47.29825" lon="-2.43207">
        <ele>-36.599998474121</ele>
        <time>2021-05-27T09:10:08.000Z</time>
      </trkpt>
      <trkpt lat="47.29815" lon="-2.43196">
        <ele>-36.599998474121</ele>
        <time>2021-05-27T09:10:11.000Z</time>
      </trkpt>
      <trkpt lat="47.29807" lon="-2.4319">
        <ele>-36.599998474121</ele>
        <time>2021-05-27T09:10:13.000Z</time>
      </trkpt>
      <trkpt lat="47.29791" lon="-2.43189">
        <ele>-36.599998474121</ele>
        <time>2021-05-27T09:10:16.000Z</time>
      </trkpt>
      <trkpt lat="47.29781" lon="-2.43191">
        <ele>-36.599998474121</ele>
        <time>2021-05-27T09:10:18.000Z</time>
      </trkpt>
      <trkpt lat="47.29753" lon="-2.43197">
        <ele>-36.599998474121</ele>
        <time>2021-05-27T09:10:23.000Z</time>
      </trkpt>
      <trkpt lat="47.29699" lon="-2.43212">
        <ele>-36.599998474121</ele>
        <time>2021-05-27T09:10:33.000Z</time>
      </trkpt>
      <trkpt lat="47.29657" lon="-2.43224">
        <ele>-36.599998474121</ele>
        <time>2021-05-27T09:10:41.000Z</time>
      </trkpt>
      <trkpt lat="47.29629" lon="-2.43231">
        <ele>-36.599998474121</ele>
        <time>2021-05-27T09:10:46.000Z</time>
      </trkpt>
      <trkpt lat="47.29623" lon="-2.43233">
        <ele>-36.599998474121</ele>
        <time>2021-05-27T09:10:47.000Z</time>
      </trkpt>
      <trkpt lat="47.29593" lon="-2.43247">
        <ele>-36.599998474121</ele>
        <time>2021-05-27T09:10:53.000Z</time>
      </trkpt>
      <trkpt lat="47.29589" lon="-2.4325">
        <ele>-36.599998474121</ele>
        <time>2021-05-27T09:10:54.000Z</time>
      </trkpt>
      <trkpt lat="47.29576" lon="-2.43258">
        <ele>-36.200000762939</ele>
        <time>2021-05-27T09:10:57.000Z</time>
      </trkpt>
      <trkpt lat="47.29571" lon="-2.4326">
        <ele>-35.799999237061</ele>
        <time>2021-05-27T09:10:58.000Z</time>
      </trkpt>
      <trkpt lat="47.29567" lon="-2.43263">
        <ele>-35.400001525879</ele>
        <time>2021-05-27T09:10:59.000Z</time>
      </trkpt>
      <trkpt lat="47.29563" lon="-2.43268">
        <ele>-35</ele>
        <time>2021-05-27T09:11:00.000Z</time>
      </trkpt>
      <trkpt lat="47.29561" lon="-2.43274">
        <ele>-34.599998474121</ele>
        <time>2021-05-27T09:11:01.000Z</time>
      </trkpt>
      <trkpt lat="47.29557" lon="-2.4328">
        <ele>-34.599998474121</ele>
        <time>2021-05-27T09:11:02.000Z</time>
      </trkpt>
      <trkpt lat="47.29538" lon="-2.43316">
        <ele>-34.599998474121</ele>
        <time>2021-05-27T09:11:08.000Z</time>
      </trkpt>
      <trkpt lat="47.29516" lon="-2.43357">
        <ele>-34.599998474121</ele>
        <time>2021-05-27T09:11:15.000Z</time>
      </trkpt>
      <trkpt lat="47.29493" lon="-2.43399">
        <ele>-34.599998474121</ele>
        <time>2021-05-27T09:11:22.000Z</time>
      </trkpt>
      <trkpt lat="47.29484" lon="-2.43416">
        <ele>-34.599998474121</ele>
        <time>2021-05-27T09:11:25.000Z</time>
      </trkpt>
      <trkpt lat="47.29474" lon="-2.43434">
        <ele>-34.599998474121</ele>
        <time>2021-05-27T09:11:28.000Z</time>
      </trkpt>
      <trkpt lat="47.29459" lon="-2.43463">
        <ele>-34.599998474121</ele>
        <time>2021-05-27T09:11:33.000Z</time>
      </trkpt>
      <trkpt lat="47.29454" lon="-2.43465">
        <ele>-34.599998474121</ele>
        <time>2021-05-27T09:11:34.000Z</time>
      </trkpt>
      <trkpt lat="47.29445" lon="-2.43456">
        <ele>-34.599998474121</ele>
        <time>2021-05-27T09:11:37.000Z</time>
      </trkpt>
      <trkpt lat="47.29444" lon="-2.4345">
        <ele>-34.599998474121</ele>
        <time>2021-05-27T09:11:38.000Z</time>
      </trkpt>
      <trkpt lat="47.29442" lon="-2.43445">
        <ele>-34.599998474121</ele>
        <time>2021-05-27T09:11:39.000Z</time>
      </trkpt>
      <trkpt lat="47.29437" lon="-2.43427">
        <ele>-34.599998474121</ele>
        <time>2021-05-27T09:11:42.000Z</time>
      </trkpt>
      <trkpt lat="47.29435" lon="-2.43414">
        <ele>-34.599998474121</ele>
        <time>2021-05-27T09:11:44.000Z</time>
      </trkpt>
      <trkpt lat="47.29432" lon="-2.43395">
        <ele>-34.599998474121</ele>
        <time>2021-05-27T09:11:47.000Z</time>
      </trkpt>
      <trkpt lat="47.29429" lon="-2.43391">
        <ele>-34.599998474121</ele>
        <time>2021-05-27T09:11:48.000Z</time>
      </trkpt>
      <trkpt lat="47.29415" lon="-2.43386">
        <ele>-34.599998474121</ele>
        <time>2021-05-27T09:11:51.000Z</time>
      </trkpt>
      <trkpt lat="47.29411" lon="-2.43383">
        <ele>-34.599998474121</ele>
        <time>2021-05-27T09:11:52.000Z</time>
      </trkpt>
      <trkpt lat="47.29407" lon="-2.43374">
        <ele>-34.599998474121</ele>
        <time>2021-05-27T09:11:54.000Z</time>
      </trkpt>
      <trkpt lat="47.29406" lon="-2.43355">
        <ele>-34.599998474121</ele>
        <time>2021-05-27T09:11:57.000Z</time>
      </trkpt>
      <trkpt lat="47.29404" lon="-2.43349">
        <ele>-34.599998474121</ele>
        <time>2021-05-27T09:11:58.000Z</time>
      </trkpt>
      <trkpt lat="47.29381" lon="-2.43317">
        <ele>-34.599998474121</ele>
        <time>2021-05-27T09:12:04.000Z</time>
      </trkpt>
      <trkpt lat="47.29367" lon="-2.43299">
        <ele>-34.599998474121</ele>
        <time>2021-05-27T09:12:07.000Z</time>
      </trkpt>
      <trkpt lat="47.29361" lon="-2.43285">
        <ele>-34.599998474121</ele>
        <time>2021-05-27T09:12:09.000Z</time>
      </trkpt>
      <trkpt lat="47.29359" lon="-2.4326">
        <ele>-34.599998474121</ele>
        <time>2021-05-27T09:12:12.000Z</time>
      </trkpt>
      <trkpt lat="47.29358" lon="-2.43252">
        <ele>-34.599998474121</ele>
        <time>2021-05-27T09:12:13.000Z</time>
      </trkpt>
      <trkpt lat="47.29359" lon="-2.43245">
        <ele>-34.599998474121</ele>
        <time>2021-05-27T09:12:14.000Z</time>
      </trkpt>
      <trkpt lat="47.29364" lon="-2.43226">
        <ele>-34.599998474121</ele>
        <time>2021-05-27T09:12:17.000Z</time>
      </trkpt>
      <trkpt lat="47.29368" lon="-2.43221">
        <ele>-34.599998474121</ele>
        <time>2021-05-27T09:12:18.000Z</time>
      </trkpt>
      <trkpt lat="47.29373" lon="-2.43206">
        <ele>-34.599998474121</ele>
        <time>2021-05-27T09:12:20.000Z</time>
      </trkpt>
      <trkpt lat="47.29371" lon="-2.43181">
        <ele>-34.599998474121</ele>
        <time>2021-05-27T09:12:23.000Z</time>
      </trkpt>
      <trkpt lat="47.29368" lon="-2.43165">
        <ele>-34.599998474121</ele>
        <time>2021-05-27T09:12:25.000Z</time>
      </trkpt>
      <trkpt lat="47.29358" lon="-2.43133">
        <ele>-34.599998474121</ele>
        <time>2021-05-27T09:12:29.000Z</time>
      </trkpt>
      <trkpt lat="47.29351" lon="-2.43118">
        <ele>-34.599998474121</ele>
        <time>2021-05-27T09:12:31.000Z</time>
      </trkpt>
      <trkpt lat="47.29338" lon="-2.43093">
        <ele>-34.599998474121</ele>
        <time>2021-05-27T09:12:35.000Z</time>
      </trkpt>
      <trkpt lat="47.29327" lon="-2.43084">
        <ele>-34.599998474121</ele>
        <time>2021-05-27T09:12:37.000Z</time>
      </trkpt>
      <trkpt lat="47.29317" lon="-2.43078">
        <ele>-34.599998474121</ele>
        <time>2021-05-27T09:12:39.000Z</time>
      </trkpt>
      <trkpt lat="47.29312" lon="-2.43075">
        <ele>-34.599998474121</ele>
        <time>2021-05-27T09:12:40.000Z</time>
      </trkpt>
      <trkpt lat="47.29304" lon="-2.43064">
        <ele>-34.599998474121</ele>
        <time>2021-05-27T09:12:42.000Z</time>
      </trkpt>
      <trkpt lat="47.29302" lon="-2.43039">
        <ele>-34.599998474121</ele>
        <time>2021-05-27T09:12:45.000Z</time>
      </trkpt>
      <trkpt lat="47.29304" lon="-2.43022">
        <ele>-34.599998474121</ele>
        <time>2021-05-27T09:12:47.000Z</time>
      </trkpt>
      <trkpt lat="47.2931" lon="-2.42981">
        <ele>-34.599998474121</ele>
        <time>2021-05-27T09:12:52.000Z</time>
      </trkpt>
      <trkpt lat="47.29311" lon="-2.42964">
        <ele>-34.599998474121</ele>
        <time>2021-05-27T09:12:54.000Z</time>
      </trkpt>
      <trkpt lat="47.2931" lon="-2.42947">
        <ele>-34.599998474121</ele>
        <time>2021-05-27T09:12:56.000Z</time>
      </trkpt>
      <trkpt lat="47.2931" lon="-2.42938">
        <ele>-34.599998474121</ele>
        <time>2021-05-27T09:12:57.000Z</time>
      </trkpt>
      <trkpt lat="47.29314" lon="-2.42913">
        <ele>-34.599998474121</ele>
        <time>2021-05-27T09:13:00.000Z</time>
      </trkpt>
      <trkpt lat="47.29323" lon="-2.42874">
        <ele>-34.599998474121</ele>
        <time>2021-05-27T09:13:05.000Z</time>
      </trkpt>
      <trkpt lat="47.29325" lon="-2.42867">
        <ele>-34.599998474121</ele>
        <time>2021-05-27T09:13:06.000Z</time>
      </trkpt>
      <trkpt lat="47.29347" lon="-2.42824">
        <ele>-34.599998474121</ele>
        <time>2021-05-27T09:13:12.000Z</time>
      </trkpt>
      <trkpt lat="47.29371" lon="-2.42799">
        <ele>-34.599998474121</ele>
        <time>2021-05-27T09:13:17.000Z</time>
      </trkpt>
      <trkpt lat="47.29374" lon="-2.42792">
        <ele>-34.599998474121</ele>
        <time>2021-05-27T09:13:18.000Z</time>
      </trkpt>
      <trkpt lat="47.2938" lon="-2.42769">
        <ele>-34.599998474121</ele>
        <time>2021-05-27T09:13:21.000Z</time>
      </trkpt>
      <trkpt lat="47.29382" lon="-2.4276">
        <ele>-34.599998474121</ele>
        <time>2021-05-27T09:13:22.000Z</time>
      </trkpt>
      <trkpt lat="47.29401" lon="-2.42705">
        <ele>-34.599998474121</ele>
        <time>2021-05-27T09:13:29.000Z</time>
      </trkpt>
      <trkpt lat="47.29414" lon="-2.42674">
        <ele>-34.599998474121</ele>
        <time>2021-05-27T09:13:33.000Z</time>
      </trkpt>
      <trkpt lat="47.29415" lon="-2.42665">
        <ele>-34.599998474121</ele>
        <time>2021-05-27T09:13:34.000Z</time>
      </trkpt>
      <trkpt lat="47.29419" lon="-2.42614">
        <ele>-34.599998474121</ele>
        <time>2021-05-27T09:13:40.000Z</time>
      </trkpt>
      <trkpt lat="47.2942" lon="-2.42597">
        <ele>-34.599998474121</ele>
        <time>2021-05-27T09:13:42.000Z</time>
      </trkpt>
      <trkpt lat="47.29425" lon="-2.42581">
        <ele>-34.599998474121</ele>
        <time>2021-05-27T09:13:44.000Z</time>
      </trkpt>
      <trkpt lat="47.29433" lon="-2.4257">
        <ele>-34.599998474121</ele>
        <time>2021-05-27T09:13:46.000Z</time>
      </trkpt>
      <trkpt lat="47.29442" lon="-2.42559">
        <ele>-34.599998474121</ele>
        <time>2021-05-27T09:13:48.000Z</time>
      </trkpt>
      <trkpt lat="47.29452" lon="-2.42549">
        <ele>-34.599998474121</ele>
        <time>2021-05-27T09:13:50.000Z</time>
      </trkpt>
      <trkpt lat="47.29466" lon="-2.42535">
        <ele>-34.599998474121</ele>
        <time>2021-05-27T09:13:53.000Z</time>
      </trkpt>
      <trkpt lat="47.29499" lon="-2.425">
        <ele>-34.599998474121</ele>
        <time>2021-05-27T09:14:00.000Z</time>
      </trkpt>
      <trkpt lat="47.29504" lon="-2.42494">
        <ele>-34.599998474121</ele>
        <time>2021-05-27T09:14:01.000Z</time>
      </trkpt>
      <trkpt lat="47.29519" lon="-2.42479">
        <ele>-34.599998474121</ele>
        <time>2021-05-27T09:14:04.000Z</time>
      </trkpt>
      <trkpt lat="47.29525" lon="-2.42474">
        <ele>-34.599998474121</ele>
        <time>2021-05-27T09:14:05.000Z</time>
      </trkpt>
      <trkpt lat="47.2954" lon="-2.42455">
        <ele>-34.599998474121</ele>
        <time>2021-05-27T09:14:08.000Z</time>
      </trkpt>
      <trkpt lat="47.29543" lon="-2.42449">
        <ele>-34.599998474121</ele>
        <time>2021-05-27T09:14:09.000Z</time>
      </trkpt>
      <trkpt lat="47.2955" lon="-2.42437">
        <ele>-34.599998474121</ele>
        <time>2021-05-27T09:14:11.000Z</time>
      </trkpt>
      <trkpt lat="47.29559" lon="-2.42428">
        <ele>-34.599998474121</ele>
        <time>2021-05-27T09:14:13.000Z</time>
      </trkpt>
      <trkpt lat="47.2958" lon="-2.42423">
        <ele>-34.599998474121</ele>
        <time>2021-05-27T09:14:17.000Z</time>
      </trkpt>
      <trkpt lat="47.296" lon="-2.4243">
        <ele>-34.599998474121</ele>
        <time>2021-05-27T09:14:21.000Z</time>
      </trkpt>
      <trkpt lat="47.29605" lon="-2.42432">
        <ele>-34.599998474121</ele>
        <time>2021-05-27T09:14:22.000Z</time>
      </trkpt>
      <trkpt lat="47.2962" lon="-2.42435">
        <ele>-34.599998474121</ele>
        <time>2021-05-27T09:14:26.000Z</time>
      </trkpt>
      <trkpt lat="47.29626" lon="-2.4242">
        <ele>-34.599998474121</ele>
        <time>2021-05-27T09:14:29.000Z</time>
      </trkpt>
      <trkpt lat="47.29627" lon="-2.42412">
        <ele>-34.599998474121</ele>
        <time>2021-05-27T09:14:30.000Z</time>
      </trkpt>
      <trkpt lat="47.29635" lon="-2.42378">
        <ele>-34.599998474121</ele>
        <time>2021-05-27T09:14:34.000Z</time>
      </trkpt>
      <trkpt lat="47.29647" lon="-2.42331">
        <ele>-34.599998474121</ele>
        <time>2021-05-27T09:14:39.000Z</time>
      </trkpt>
      <trkpt lat="47.29664" lon="-2.42257">
        <ele>-34.599998474121</ele>
        <time>2021-05-27T09:14:47.000Z</time>
      </trkpt>
      <trkpt lat="47.2968" lon="-2.42211">
        <ele>-34.599998474121</ele>
        <time>2021-05-27T09:14:53.000Z</time>
      </trkpt>
      <trkpt lat="47.29702" lon="-2.42171">
        <ele>-34.599998474121</ele>
        <time>2021-05-27T09:14:59.000Z</time>
      </trkpt>
      <trkpt lat="47.29733" lon="-2.42114">
        <ele>-34.599998474121</ele>
        <time>2021-05-27T09:15:07.000Z</time>
      </trkpt>
      <trkpt lat="47.29764" lon="-2.42058">
        <ele>-34.599998474121</ele>
        <time>2021-05-27T09:15:15.000Z</time>
      </trkpt>
      <trkpt lat="47.29783" lon="-2.4202">
        <ele>-34.599998474121</ele>
        <time>2021-05-27T09:15:20.000Z</time>
      </trkpt>
      <trkpt lat="47.29786" lon="-2.42002">
        <ele>-34.599998474121</ele>
        <time>2021-05-27T09:15:22.000Z</time>
      </trkpt>
      <trkpt lat="47.29783" lon="-2.41974">
        <ele>-34.599998474121</ele>
        <time>2021-05-27T09:15:25.000Z</time>
      </trkpt>
      <trkpt lat="47.29781" lon="-2.41965">
        <ele>-34.599998474121</ele>
        <time>2021-05-27T09:15:26.000Z</time>
      </trkpt>
      <trkpt lat="47.29767" lon="-2.41897">
        <ele>-34.599998474121</ele>
        <time>2021-05-27T09:15:34.000Z</time>
      </trkpt>
      <trkpt lat="47.29766" lon="-2.41889">
        <ele>-34.599998474121</ele>
        <time>2021-05-27T09:15:35.000Z</time>
      </trkpt>
      <trkpt lat="47.29765" lon="-2.41855">
        <ele>-34.599998474121</ele>
        <time>2021-05-27T09:15:39.000Z</time>
      </trkpt>
      <trkpt lat="47.29769" lon="-2.41799">
        <ele>-34.599998474121</ele>
        <time>2021-05-27T09:15:46.000Z</time>
      </trkpt>
      <trkpt lat="47.29767" lon="-2.41756">
        <ele>-34.599998474121</ele>
        <time>2021-05-27T09:15:52.000Z</time>
      </trkpt>
      <trkpt lat="47.2976" lon="-2.41746">
        <ele>-34.599998474121</ele>
        <time>2021-05-27T09:15:55.000Z</time>
      </trkpt>
      <trkpt lat="47.29739" lon="-2.41759">
        <ele>-34.599998474121</ele>
        <time>2021-05-27T09:15:59.000Z</time>
      </trkpt>
      <trkpt lat="47.2972" lon="-2.41786">
        <ele>-34.599998474121</ele>
        <time>2021-05-27T09:16:03.000Z</time>
      </trkpt>
      <trkpt lat="47.29715" lon="-2.41793">
        <ele>-34.599998474121</ele>
        <time>2021-05-27T09:16:04.000Z</time>
      </trkpt>
      <trkpt lat="47.29701" lon="-2.41815">
        <ele>-34.599998474121</ele>
        <time>2021-05-27T09:16:07.000Z</time>
      </trkpt>
      <trkpt lat="47.29688" lon="-2.41821">
        <ele>-34.599998474121</ele>
        <time>2021-05-27T09:16:09.000Z</time>
      </trkpt>
      <trkpt lat="47.29675" lon="-2.41823">
        <ele>-34.599998474121</ele>
        <time>2021-05-27T09:16:11.000Z</time>
      </trkpt>
      <trkpt lat="47.29668" lon="-2.41825">
        <ele>-34.599998474121</ele>
        <time>2021-05-27T09:16:12.000Z</time>
      </trkpt>
      <trkpt lat="47.29656" lon="-2.41829">
        <ele>-34.599998474121</ele>
        <time>2021-05-27T09:16:14.000Z</time>
      </trkpt>
      <trkpt lat="47.29641" lon="-2.41818">
        <ele>-34.599998474121</ele>
        <time>2021-05-27T09:16:17.000Z</time>
      </trkpt>
      <trkpt lat="47.29635" lon="-2.41793">
        <ele>-34.599998474121</ele>
        <time>2021-05-27T09:16:20.000Z</time>
      </trkpt>
      <trkpt lat="47.29625" lon="-2.41762">
        <ele>-34.599998474121</ele>
        <time>2021-05-27T09:16:24.000Z</time>
      </trkpt>
      <trkpt lat="47.29606" lon="-2.41736">
        <ele>-34.599998474121</ele>
        <time>2021-05-27T09:16:28.000Z</time>
      </trkpt>
      <trkpt lat="47.296" lon="-2.41731">
        <ele>-34.599998474121</ele>
        <time>2021-05-27T09:16:29.000Z</time>
      </trkpt>
      <trkpt lat="47.29575" lon="-2.41713">
        <ele>-34.599998474121</ele>
        <time>2021-05-27T09:16:33.000Z</time>
      </trkpt>
      <trkpt lat="47.29569" lon="-2.4171">
        <ele>-34.599998474121</ele>
        <time>2021-05-27T09:16:34.000Z</time>
      </trkpt>
      <trkpt lat="47.29548" lon="-2.41692">
        <ele>-34.599998474121</ele>
        <time>2021-05-27T09:16:38.000Z</time>
      </trkpt>
      <trkpt lat="47.29538" lon="-2.4167">
        <ele>-34.599998474121</ele>
        <time>2021-05-27T09:16:41.000Z</time>
      </trkpt>
      <trkpt lat="47.29532" lon="-2.41653">
        <ele>-34.599998474121</ele>
        <time>2021-05-27T09:16:43.000Z</time>
      </trkpt>
      <trkpt lat="47.29524" lon="-2.41609">
        <ele>-34.599998474121</ele>
        <time>2021-05-27T09:16:48.000Z</time>
      </trkpt>
      <trkpt lat="47.2953" lon="-2.41572">
        <ele>-34.599998474121</ele>
        <time>2021-05-27T09:16:52.000Z</time>
      </trkpt>
      <trkpt lat="47.29532" lon="-2.41564">
        <ele>-34.599998474121</ele>
        <time>2021-05-27T09:16:53.000Z</time>
      </trkpt>
      <trkpt lat="47.29539" lon="-2.41538">
        <ele>-34.599998474121</ele>
        <time>2021-05-27T09:16:56.000Z</time>
      </trkpt>
      <trkpt lat="47.29539" lon="-2.41529">
        <ele>-34.599998474121</ele>
        <time>2021-05-27T09:16:57.000Z</time>
      </trkpt>
      <trkpt lat="47.29533" lon="-2.41506">
        <ele>-34.599998474121</ele>
        <time>2021-05-27T09:17:00.000Z</time>
      </trkpt>
      <trkpt lat="47.29529" lon="-2.41499">
        <ele>-34.599998474121</ele>
        <time>2021-05-27T09:17:01.000Z</time>
      </trkpt>
      <trkpt lat="47.29526" lon="-2.41492">
        <ele>-34.599998474121</ele>
        <time>2021-05-27T09:17:02.000Z</time>
      </trkpt>
      <trkpt lat="47.29512" lon="-2.41476">
        <ele>-34.599998474121</ele>
        <time>2021-05-27T09:17:05.000Z</time>
      </trkpt>
      <trkpt lat="47.295" lon="-2.41477">
        <ele>-34.599998474121</ele>
        <time>2021-05-27T09:17:07.000Z</time>
      </trkpt>
      <trkpt lat="47.29489" lon="-2.41484">
        <ele>-34.599998474121</ele>
        <time>2021-05-27T09:17:09.000Z</time>
      </trkpt>
      <trkpt lat="47.29483" lon="-2.41486">
        <ele>-34.599998474121</ele>
        <time>2021-05-27T09:17:10.000Z</time>
      </trkpt>
      <trkpt lat="47.29477" lon="-2.41487">
        <ele>-34.599998474121</ele>
        <time>2021-05-27T09:17:11.000Z</time>
      </trkpt>
      <trkpt lat="47.29453" lon="-2.41486">
        <ele>-34.599998474121</ele>
        <time>2021-05-27T09:17:15.000Z</time>
      </trkpt>
      <trkpt lat="47.29448" lon="-2.41488">
        <ele>-34.599998474121</ele>
        <time>2021-05-27T09:17:16.000Z</time>
      </trkpt>
      <trkpt lat="47.29442" lon="-2.41489">
        <ele>-34.599998474121</ele>
        <time>2021-05-27T09:17:17.000Z</time>
      </trkpt>
      <trkpt lat="47.29432" lon="-2.41487">
        <ele>-34.599998474121</ele>
        <time>2021-05-27T09:17:19.000Z</time>
      </trkpt>
      <trkpt lat="47.29412" lon="-2.41465">
        <ele>-34.599998474121</ele>
        <time>2021-05-27T09:17:23.000Z</time>
      </trkpt>
      <trkpt lat="47.29388" lon="-2.4142">
        <ele>-34.599998474121</ele>
        <time>2021-05-27T09:17:29.000Z</time>
      </trkpt>
      <trkpt lat="47.29372" lon="-2.41382">
        <ele>-34.599998474121</ele>
        <time>2021-05-27T09:17:34.000Z</time>
      </trkpt>
      <trkpt lat="47.29367" lon="-2.41375">
        <ele>-34.599998474121</ele>
        <time>2021-05-27T09:17:35.000Z</time>
      </trkpt>
      <trkpt lat="47.29363" lon="-2.4137">
        <ele>-34.599998474121</ele>
        <time>2021-05-27T09:17:36.000Z</time>
      </trkpt>
      <trkpt lat="47.29353" lon="-2.41359">
        <ele>-34.599998474121</ele>
        <time>2021-05-27T09:17:38.000Z</time>
      </trkpt>
      <trkpt lat="47.2935" lon="-2.41352">
        <ele>-34.599998474121</ele>
        <time>2021-05-27T09:17:39.000Z</time>
      </trkpt>
      <trkpt lat="47.29346" lon="-2.41328">
        <ele>-34.599998474121</ele>
        <time>2021-05-27T09:17:42.000Z</time>
      </trkpt>
      <trkpt lat="47.29354" lon="-2.41308">
        <ele>-34.599998474121</ele>
        <time>2021-05-27T09:17:45.000Z</time>
      </trkpt>
      <trkpt lat="47.2936" lon="-2.41291">
        <ele>-34.599998474121</ele>
        <time>2021-05-27T09:17:49.000Z</time>
      </trkpt>
      <trkpt lat="47.29357" lon="-2.41279">
        <ele>-34.599998474121</ele>
        <time>2021-05-27T09:17:54.000Z</time>
      </trkpt>
      <trkpt lat="47.29356" lon="-2.4127">
        <ele>-34.599998474121</ele>
        <time>2021-05-27T09:17:57.000Z</time>
      </trkpt>
      <trkpt lat="47.29355" lon="-2.41261">
        <ele>-34.599998474121</ele>
        <time>2021-05-27T09:18:00.000Z</time>
      </trkpt>
      <trkpt lat="47.29353" lon="-2.41252">
        <ele>-34.599998474121</ele>
        <time>2021-05-27T09:18:05.000Z</time>
      </trkpt>
      <trkpt lat="47.29347" lon="-2.4124">
        <ele>-34.599998474121</ele>
        <time>2021-05-27T09:18:10.000Z</time>
      </trkpt>
      <trkpt lat="47.29338" lon="-2.41227">
        <ele>-34.599998474121</ele>
        <time>2021-05-27T09:18:15.000Z</time>
      </trkpt>
      <trkpt lat="47.2932" lon="-2.41206">
        <ele>-34.599998474121</ele>
        <time>2021-05-27T09:18:20.000Z</time>
      </trkpt>
      <trkpt lat="47.29302" lon="-2.41185">
        <ele>-34.599998474121</ele>
        <time>2021-05-27T09:18:24.000Z</time>
      </trkpt>
      <trkpt lat="47.29299" lon="-2.41179">
        <ele>-34.599998474121</ele>
        <time>2021-05-27T09:18:25.000Z</time>
      </trkpt>
      <trkpt lat="47.29288" lon="-2.41151">
        <ele>-34.599998474121</ele>
        <time>2021-05-27T09:18:29.000Z</time>
      </trkpt>
      <trkpt lat="47.29281" lon="-2.41137">
        <ele>-34.599998474121</ele>
        <time>2021-05-27T09:18:31.000Z</time>
      </trkpt>
      <trkpt lat="47.29254" lon="-2.41101">
        <ele>-34.599998474121</ele>
        <time>2021-05-27T09:18:37.000Z</time>
      </trkpt>
      <trkpt lat="47.29246" lon="-2.41088">
        <ele>-34.599998474121</ele>
        <time>2021-05-27T09:18:39.000Z</time>
      </trkpt>
      <trkpt lat="47.29245" lon="-2.41072">
        <ele>-34.599998474121</ele>
        <time>2021-05-27T09:18:41.000Z</time>
      </trkpt>
      <trkpt lat="47.29252" lon="-2.4106">
        <ele>-34.599998474121</ele>
        <time>2021-05-27T09:18:43.000Z</time>
      </trkpt>
      <trkpt lat="47.29255" lon="-2.41042">
        <ele>-34.599998474121</ele>
        <time>2021-05-27T09:18:45.000Z</time>
      </trkpt>
      <trkpt lat="47.29247" lon="-2.41028">
        <ele>-34.599998474121</ele>
        <time>2021-05-27T09:18:47.000Z</time>
      </trkpt>
      <trkpt lat="47.29242" lon="-2.41022">
        <ele>-34.599998474121</ele>
        <time>2021-05-27T09:18:48.000Z</time>
      </trkpt>
      <trkpt lat="47.29237" lon="-2.41014">
        <ele>-34.599998474121</ele>
        <time>2021-05-27T09:18:49.000Z</time>
      </trkpt>
      <trkpt lat="47.29228" lon="-2.40998">
        <ele>-34.599998474121</ele>
        <time>2021-05-27T09:18:51.000Z</time>
      </trkpt>
      <trkpt lat="47.29214" lon="-2.40963">
        <ele>-34.599998474121</ele>
        <time>2021-05-27T09:18:55.000Z</time>
      </trkpt>
      <trkpt lat="47.29209" lon="-2.40955">
        <ele>-34.599998474121</ele>
        <time>2021-05-27T09:18:56.000Z</time>
      </trkpt>
      <trkpt lat="47.29191" lon="-2.40945">
        <ele>-34.599998474121</ele>
        <time>2021-05-27T09:18:59.000Z</time>
      </trkpt>
      <trkpt lat="47.29184" lon="-2.40944">
        <ele>-34.599998474121</ele>
        <time>2021-05-27T09:19:00.000Z</time>
      </trkpt>
      <trkpt lat="47.29177" lon="-2.40942">
        <ele>-34.599998474121</ele>
        <time>2021-05-27T09:19:01.000Z</time>
      </trkpt>
      <trkpt lat="47.29166" lon="-2.40935">
        <ele>-34.599998474121</ele>
        <time>2021-05-27T09:19:03.000Z</time>
      </trkpt>
      <trkpt lat="47.29161" lon="-2.40918">
        <ele>-34.599998474121</ele>
        <time>2021-05-27T09:19:05.000Z</time>
      </trkpt>
      <trkpt lat="47.29165" lon="-2.4089">
        <ele>-34.599998474121</ele>
        <time>2021-05-27T09:19:08.000Z</time>
      </trkpt>
      <trkpt lat="47.29168" lon="-2.40881">
        <ele>-34.599998474121</ele>
        <time>2021-05-27T09:19:09.000Z</time>
      </trkpt>
      <trkpt lat="47.29172" lon="-2.40863">
        <ele>-34.599998474121</ele>
        <time>2021-05-27T09:19:11.000Z</time>
      </trkpt>
      <trkpt lat="47.29173" lon="-2.40854">
        <ele>-34.599998474121</ele>
        <time>2021-05-27T09:19:12.000Z</time>
      </trkpt>
      <trkpt lat="47.29171" lon="-2.40825">
        <ele>-34.599998474121</ele>
        <time>2021-05-27T09:19:15.000Z</time>
      </trkpt>
      <trkpt lat="47.29171" lon="-2.40816">
        <ele>-34.599998474121</ele>
        <time>2021-05-27T09:19:16.000Z</time>
      </trkpt>
      <trkpt lat="47.29181" lon="-2.4078">
        <ele>-34.599998474121</ele>
        <time>2021-05-27T09:19:20.000Z</time>
      </trkpt>
      <trkpt lat="47.29194" lon="-2.40746">
        <ele>-34.599998474121</ele>
        <time>2021-05-27T09:19:24.000Z</time>
      </trkpt>
      <trkpt lat="47.29198" lon="-2.40739">
        <ele>-34.599998474121</ele>
        <time>2021-05-27T09:19:25.000Z</time>
      </trkpt>
      <trkpt lat="47.29216" lon="-2.40714">
        <ele>-34.599998474121</ele>
        <time>2021-05-27T09:19:29.000Z</time>
      </trkpt>
      <trkpt lat="47.29224" lon="-2.407">
        <ele>-34.599998474121</ele>
        <time>2021-05-27T09:19:31.000Z</time>
      </trkpt>
      <trkpt lat="47.29227" lon="-2.40692">
        <ele>-34.599998474121</ele>
        <time>2021-05-27T09:19:32.000Z</time>
      </trkpt>
      <trkpt lat="47.29231" lon="-2.40663">
        <ele>-34.599998474121</ele>
        <time>2021-05-27T09:19:35.000Z</time>
      </trkpt>
      <trkpt lat="47.29222" lon="-2.40635">
        <ele>-34.599998474121</ele>
        <time>2021-05-27T09:19:38.000Z</time>
      </trkpt>
      <trkpt lat="47.292" lon="-2.40611">
        <ele>-34.599998474121</ele>
        <time>2021-05-27T09:19:42.000Z</time>
      </trkpt>
      <trkpt lat="47.29187" lon="-2.40615">
        <ele>-34.599998474121</ele>
        <time>2021-05-27T09:19:44.000Z</time>
      </trkpt>
      <trkpt lat="47.29166" lon="-2.40632">
        <ele>-34.599998474121</ele>
        <time>2021-05-27T09:19:48.000Z</time>
      </trkpt>
      <trkpt lat="47.29161" lon="-2.40636">
        <ele>-34.599998474121</ele>
        <time>2021-05-27T09:19:49.000Z</time>
      </trkpt>
      <trkpt lat="47.2915" lon="-2.40642">
        <ele>-34.599998474121</ele>
        <time>2021-05-27T09:19:51.000Z</time>
      </trkpt>
      <trkpt lat="47.29142" lon="-2.40637">
        <ele>-34.599998474121</ele>
        <time>2021-05-27T09:19:53.000Z</time>
      </trkpt>
      <trkpt lat="47.29139" lon="-2.40616">
        <ele>-34.599998474121</ele>
        <time>2021-05-27T09:19:56.000Z</time>
      </trkpt>
      <trkpt lat="47.2913" lon="-2.40584">
        <ele>-34.599998474121</ele>
        <time>2021-05-27T09:20:00.000Z</time>
      </trkpt>
      <trkpt lat="47.29126" lon="-2.40577">
        <ele>-34.599998474121</ele>
        <time>2021-05-27T09:20:01.000Z</time>
      </trkpt>
      <trkpt lat="47.29122" lon="-2.4057">
        <ele>-34.599998474121</ele>
        <time>2021-05-27T09:20:02.000Z</time>
      </trkpt>
      <trkpt lat="47.29108" lon="-2.40554">
        <ele>-34.599998474121</ele>
        <time>2021-05-27T09:20:05.000Z</time>
      </trkpt>
      <trkpt lat="47.29103" lon="-2.40548">
        <ele>-34.599998474121</ele>
        <time>2021-05-27T09:20:06.000Z</time>
      </trkpt>
      <trkpt lat="47.29098" lon="-2.40534">
        <ele>-34.599998474121</ele>
        <time>2021-05-27T09:20:08.000Z</time>
      </trkpt>
      <trkpt lat="47.29104" lon="-2.40511">
        <ele>-34.599998474121</ele>
        <time>2021-05-27T09:20:11.000Z</time>
      </trkpt>
      <trkpt lat="47.29124" lon="-2.40494">
        <ele>-34.599998474121</ele>
        <time>2021-05-27T09:20:15.000Z</time>
      </trkpt>
      <trkpt lat="47.29147" lon="-2.40486">
        <ele>-34.599998474121</ele>
        <time>2021-05-27T09:20:19.000Z</time>
      </trkpt>
      <trkpt lat="47.29152" lon="-2.40487">
        <ele>-34.599998474121</ele>
        <time>2021-05-27T09:20:20.000Z</time>
      </trkpt>
      <trkpt lat="47.29167" lon="-2.40503">
        <ele>-34.599998474121</ele>
        <time>2021-05-27T09:20:23.000Z</time>
      </trkpt>
      <trkpt lat="47.2918" lon="-2.40519">
        <ele>-34.599998474121</ele>
        <time>2021-05-27T09:20:26.000Z</time>
      </trkpt>
      <trkpt lat="47.2919" lon="-2.40516">
        <ele>-34.599998474121</ele>
        <time>2021-05-27T09:20:28.000Z</time>
      </trkpt>
      <trkpt lat="47.29195" lon="-2.40512">
        <ele>-34.599998474121</ele>
        <time>2021-05-27T09:20:29.000Z</time>
      </trkpt>
      <trkpt lat="47.29224" lon="-2.40495">
        <ele>-34.599998474121</ele>
        <time>2021-05-27T09:20:34.000Z</time>
      </trkpt>
      <trkpt lat="47.29268" lon="-2.40474">
        <ele>-34.599998474121</ele>
        <time>2021-05-27T09:20:41.000Z</time>
      </trkpt>
      <trkpt lat="47.2928" lon="-2.40469">
        <ele>-34.599998474121</ele>
        <time>2021-05-27T09:20:43.000Z</time>
      </trkpt>
      <trkpt lat="47.2929" lon="-2.40459">
        <ele>-34.599998474121</ele>
        <time>2021-05-27T09:20:45.000Z</time>
      </trkpt>
      <trkpt lat="47.29299" lon="-2.40434">
        <ele>-34.599998474121</ele>
        <time>2021-05-27T09:20:48.000Z</time>
      </trkpt>
      <trkpt lat="47.29302" lon="-2.40426">
        <ele>-34.599998474121</ele>
        <time>2021-05-27T09:20:49.000Z</time>
      </trkpt>
      <trkpt lat="47.29306" lon="-2.40409">
        <ele>-34.599998474121</ele>
        <time>2021-05-27T09:20:51.000Z</time>
      </trkpt>
      <trkpt lat="47.29304" lon="-2.40392">
        <ele>-34.599998474121</ele>
        <time>2021-05-27T09:20:53.000Z</time>
      </trkpt>
      <trkpt lat="47.29295" lon="-2.40378">
        <ele>-34.599998474121</ele>
        <time>2021-05-27T09:20:55.000Z</time>
      </trkpt>
      <trkpt lat="47.29285" lon="-2.40355">
        <ele>-34.599998474121</ele>
        <time>2021-05-27T09:20:58.000Z</time>
      </trkpt>
      <trkpt lat="47.29287" lon="-2.40338">
        <ele>-34.599998474121</ele>
        <time>2021-05-27T09:21:00.000Z</time>
      </trkpt>
      <trkpt lat="47.29301" lon="-2.40321">
        <ele>-34.599998474121</ele>
        <time>2021-05-27T09:21:03.000Z</time>
      </trkpt>
      <trkpt lat="47.29328" lon="-2.4029">
        <ele>-34.599998474121</ele>
        <time>2021-05-27T09:21:08.000Z</time>
      </trkpt>
      <trkpt lat="47.29356" lon="-2.40263">
        <ele>-34.599998474121</ele>
        <time>2021-05-27T09:21:13.000Z</time>
      </trkpt>
      <trkpt lat="47.29362" lon="-2.40258">
        <ele>-34.599998474121</ele>
        <time>2021-05-27T09:21:14.000Z</time>
      </trkpt>
      <trkpt lat="47.29378" lon="-2.40243">
        <ele>-34.599998474121</ele>
        <time>2021-05-27T09:21:17.000Z</time>
      </trkpt>
      <trkpt lat="47.29417" lon="-2.40219">
        <ele>-34.599998474121</ele>
        <time>2021-05-27T09:21:24.000Z</time>
      </trkpt>
      <trkpt lat="47.2943" lon="-2.40215">
        <ele>-34.599998474121</ele>
        <time>2021-05-27T09:21:26.000Z</time>
      </trkpt>
      <trkpt lat="47.29436" lon="-2.40216">
        <ele>-34.599998474121</ele>
        <time>2021-05-27T09:21:27.000Z</time>
      </trkpt>
      <trkpt lat="47.29445" lon="-2.40209">
        <ele>-34.599998474121</ele>
        <time>2021-05-27T09:21:29.000Z</time>
      </trkpt>
      <trkpt lat="47.29448" lon="-2.40193">
        <ele>-34.599998474121</ele>
        <time>2021-05-27T09:21:31.000Z</time>
      </trkpt>
      <trkpt lat="47.2945" lon="-2.40184">
        <ele>-34.599998474121</ele>
        <time>2021-05-27T09:21:32.000Z</time>
      </trkpt>
      <trkpt lat="47.29455" lon="-2.40147">
        <ele>-34.599998474121</ele>
        <time>2021-05-27T09:21:36.000Z</time>
      </trkpt>
      <trkpt lat="47.29457" lon="-2.40127">
        <ele>-34.599998474121</ele>
        <time>2021-05-27T09:21:38.000Z</time>
      </trkpt>
      <trkpt lat="47.29463" lon="-2.40084">
        <ele>-34.599998474121</ele>
        <time>2021-05-27T09:21:42.000Z</time>
      </trkpt>
      <trkpt lat="47.29464" lon="-2.40072">
        <ele>-34.599998474121</ele>
        <time>2021-05-27T09:21:43.000Z</time>
      </trkpt>
      <trkpt lat="47.29462" lon="-2.40017">
        <ele>-34.599998474121</ele>
        <time>2021-05-27T09:21:48.000Z</time>
      </trkpt>
      <trkpt lat="47.2946" lon="-2.40001">
        <ele>-34.599998474121</ele>
        <time>2021-05-27T09:21:50.000Z</time>
      </trkpt>
      <trkpt lat="47.29462" lon="-2.39977">
        <ele>-34.599998474121</ele>
        <time>2021-05-27T09:21:53.000Z</time>
      </trkpt>
      <trkpt lat="47.29469" lon="-2.39951">
        <ele>-34.599998474121</ele>
        <time>2021-05-27T09:21:57.000Z</time>
      </trkpt>
      <trkpt lat="47.29471" lon="-2.39945">
        <ele>-34.599998474121</ele>
        <time>2021-05-27T09:21:58.000Z</time>
      </trkpt>
      <trkpt lat="47.2948" lon="-2.39925">
        <ele>-34.599998474121</ele>
        <time>2021-05-27T09:22:03.000Z</time>
      </trkpt>
      <trkpt lat="47.29481" lon="-2.39911">
        <ele>-34.599998474121</ele>
        <time>2021-05-27T09:22:08.000Z</time>
      </trkpt>
      <trkpt lat="47.29482" lon="-2.39909">
        <ele>-34.599998474121</ele>
        <time>2021-05-27T09:22:10.000Z</time>
      </trkpt>
      <trkpt lat="47.29482" lon="-2.39908">
        <ele>-34.599998474121</ele>
        <time>2021-05-27T09:22:12.000Z</time>
      </trkpt>
      <trkpt lat="47.29483" lon="-2.39906">
        <ele>-34.599998474121</ele>
        <time>2021-05-27T09:22:13.000Z</time>
      </trkpt>
      <trkpt lat="47.29492" lon="-2.39899">
        <ele>-34.599998474121</ele>
        <time>2021-05-27T09:22:17.000Z</time>
      </trkpt>
      <trkpt lat="47.29496" lon="-2.39897">
        <ele>-34.599998474121</ele>
        <time>2021-05-27T09:22:18.000Z</time>
      </trkpt>
      <trkpt lat="47.29503" lon="-2.39889">
        <ele>-34.599998474121</ele>
        <time>2021-05-27T09:22:20.000Z</time>
      </trkpt>
      <trkpt lat="47.29514" lon="-2.39868">
        <ele>-34.599998474121</ele>
        <time>2021-05-27T09:22:24.000Z</time>
      </trkpt>
      <trkpt lat="47.2952" lon="-2.39858">
        <ele>-34.599998474121</ele>
        <time>2021-05-27T09:22:26.000Z</time>
      </trkpt>
      <trkpt lat="47.29529" lon="-2.39836">
        <ele>-34.599998474121</ele>
        <time>2021-05-27T09:22:31.000Z</time>
      </trkpt>
      <trkpt lat="47.29533" lon="-2.39827">
        <ele>-34.599998474121</ele>
        <time>2021-05-27T09:22:36.000Z</time>
      </trkpt>
      <trkpt lat="47.29537" lon="-2.39823">
        <ele>-34.599998474121</ele>
        <time>2021-05-27T09:23:28.000Z</time>
      </trkpt>
      <trkpt lat="47.29541" lon="-2.39815">
        <ele>-34.599998474121</ele>
        <time>2021-05-27T09:23:31.000Z</time>
      </trkpt>
      <trkpt lat="47.29552" lon="-2.39794">
        <ele>-34.599998474121</ele>
        <time>2021-05-27T09:23:36.000Z</time>
      </trkpt>
      <trkpt lat="47.29556" lon="-2.39784">
        <ele>-34.599998474121</ele>
        <time>2021-05-27T09:23:38.000Z</time>
      </trkpt>
      <trkpt lat="47.29562" lon="-2.39766">
        <ele>-34.599998474121</ele>
        <time>2021-05-27T09:23:41.000Z</time>
      </trkpt>
      <trkpt lat="47.29588" lon="-2.39717">
        <ele>-34.599998474121</ele>
        <time>2021-05-27T09:23:50.000Z</time>
      </trkpt>
      <trkpt lat="47.29614" lon="-2.39669">
        <ele>-34.599998474121</ele>
        <time>2021-05-27T09:23:59.000Z</time>
      </trkpt>
      <trkpt lat="47.29622" lon="-2.39656">
        <ele>-34.599998474121</ele>
        <time>2021-05-27T09:24:02.000Z</time>
      </trkpt>
      <trkpt lat="47.29627" lon="-2.39637">
        <ele>-34.599998474121</ele>
        <time>2021-05-27T09:24:06.000Z</time>
      </trkpt>
      <trkpt lat="47.29627" lon="-2.39633">
        <ele>-34.599998474121</ele>
        <time>2021-05-27T09:24:07.000Z</time>
      </trkpt>
      <trkpt lat="47.29629" lon="-2.39614">
        <ele>-34.599998474121</ele>
        <time>2021-05-27T09:24:12.000Z</time>
      </trkpt>
      <trkpt lat="47.2963" lon="-2.39586">
        <ele>-34.599998474121</ele>
        <time>2021-05-27T09:24:19.000Z</time>
      </trkpt>
      <trkpt lat="47.29628" lon="-2.39576">
        <ele>-34.599998474121</ele>
        <time>2021-05-27T09:24:24.000Z</time>
      </trkpt>
      <trkpt lat="47.29624" lon="-2.39576">
        <ele>-34.599998474121</ele>
        <time>2021-05-27T09:24:26.000Z</time>
      </trkpt>
      <trkpt lat="47.29614" lon="-2.39577">
        <ele>-34.200000762939</ele>
        <time>2021-05-27T09:24:31.000Z</time>
      </trkpt>
      <trkpt lat="47.29612" lon="-2.39577">
        <ele>-33.799999237061</ele>
        <time>2021-05-27T09:24:32.000Z</time>
      </trkpt>
      <trkpt lat="47.29611" lon="-2.39575">
        <ele>-33.400001525879</ele>
        <time>2021-05-27T09:24:33.000Z</time>
      </trkpt>
      <trkpt lat="47.2961" lon="-2.39572">
        <ele>-33</ele>
        <time>2021-05-27T09:24:34.000Z</time>
      </trkpt>
      <trkpt lat="47.29611" lon="-2.3957">
        <ele>-32.599998474121</ele>
        <time>2021-05-27T09:24:35.000Z</time>
      </trkpt>
      <trkpt lat="47.29616" lon="-2.39567">
        <ele>-32.599998474121</ele>
        <time>2021-05-27T09:24:38.000Z</time>
      </trkpt>
      <trkpt lat="47.29617" lon="-2.39566">
        <ele>-32.599998474121</ele>
        <time>2021-05-27T09:24:39.000Z</time>
      </trkpt>
      <trkpt lat="47.29624" lon="-2.39561">
        <ele>-32.200000762939</ele>
        <time>2021-05-27T09:24:44.000Z</time>
      </trkpt>
      <trkpt lat="47.29624" lon="-2.39558">
        <ele>-31.799999237061</ele>
        <time>2021-05-27T09:24:45.000Z</time>
      </trkpt>
      <trkpt lat="47.29624" lon="-2.39556">
        <ele>-31.39999961853</ele>
        <time>2021-05-27T09:24:46.000Z</time>
      </trkpt>
      <trkpt lat="47.29623" lon="-2.39554">
        <ele>-31</ele>
        <time>2021-05-27T09:24:47.000Z</time>
      </trkpt>
      <trkpt lat="47.29621" lon="-2.39554">
        <ele>-30.39999961853</ele>
        <time>2021-05-27T09:24:48.000Z</time>
      </trkpt>
      <trkpt lat="47.29618" lon="-2.39554">
        <ele>-30.39999961853</ele>
        <time>2021-05-27T09:24:49.000Z</time>
      </trkpt>
      <trkpt lat="47.29606" lon="-2.39555">
        <ele>-30.39999961853</ele>
        <time>2021-05-27T09:24:52.000Z</time>
      </trkpt>
      <trkpt lat="47.296" lon="-2.39553">
        <ele>-30.39999961853</ele>
        <time>2021-05-27T09:24:54.000Z</time>
      </trkpt>
      <trkpt lat="47.29597" lon="-2.39552">
        <ele>-30</ele>
        <time>2021-05-27T09:24:55.000Z</time>
      </trkpt>
      <trkpt lat="47.29594" lon="-2.39552">
        <ele>-29.60000038147</ele>
        <time>2021-05-27T09:24:56.000Z</time>
      </trkpt>
      <trkpt lat="47.29592" lon="-2.39551">
        <ele>-29.200000762939</ele>
        <time>2021-05-27T09:24:57.000Z</time>
      </trkpt>
      <trkpt lat="47.29589" lon="-2.3955">
        <ele>-28.799999237061</ele>
        <time>2021-05-27T09:24:58.000Z</time>
      </trkpt>
      <trkpt lat="47.29586" lon="-2.3955">
        <ele>-28.39999961853</ele>
        <time>2021-05-27T09:24:59.000Z</time>
      </trkpt>
      <trkpt lat="47.29579" lon="-2.39548">
        <ele>-28.39999961853</ele>
        <time>2021-05-27T09:25:01.000Z</time>
      </trkpt>
      <trkpt lat="47.29557" lon="-2.39542">
        <ele>-28.39999961853</ele>
        <time>2021-05-27T09:25:06.000Z</time>
      </trkpt>
      <trkpt lat="47.29553" lon="-2.39534">
        <ele>-28.39999961853</ele>
        <time>2021-05-27T09:25:09.000Z</time>
      </trkpt>
      <trkpt lat="47.29554" lon="-2.39522">
        <ele>-28.799999237061</ele>
        <time>2021-05-27T09:25:14.000Z</time>
      </trkpt>
      <trkpt lat="47.29553" lon="-2.39517">
        <ele>-29.200000762939</ele>
        <time>2021-05-27T09:25:15.000Z</time>
      </trkpt>
      <trkpt lat="47.29553" lon="-2.39513">
        <ele>-29.60000038147</ele>
        <time>2021-05-27T09:25:16.000Z</time>
      </trkpt>
      <trkpt lat="47.29553" lon="-2.3951">
        <ele>-30.39999961853</ele>
        <time>2021-05-27T09:25:17.000Z</time>
      </trkpt>
      <trkpt lat="47.29554" lon="-2.39506">
        <ele>-30.39999961853</ele>
        <time>2021-05-27T09:25:18.000Z</time>
      </trkpt>
      <trkpt lat="47.29554" lon="-2.39503">
        <ele>-30.799999237061</ele>
        <time>2021-05-27T09:25:19.000Z</time>
      </trkpt>
      <trkpt lat="47.29555" lon="-2.39499">
        <ele>-31.39999961853</ele>
        <time>2021-05-27T09:25:20.000Z</time>
      </trkpt>
      <trkpt lat="47.29556" lon="-2.39495">
        <ele>-31.799999237061</ele>
        <time>2021-05-27T09:25:21.000Z</time>
      </trkpt>
      <trkpt lat="47.29556" lon="-2.39491">
        <ele>-32.200000762939</ele>
        <time>2021-05-27T09:25:22.000Z</time>
      </trkpt>
      <trkpt lat="47.29556" lon="-2.39488">
        <ele>-32.599998474121</ele>
        <time>2021-05-27T09:25:23.000Z</time>
      </trkpt>
      <trkpt lat="47.29549" lon="-2.39484">
        <ele>-32.599998474121</ele>
        <time>2021-05-27T09:25:26.000Z</time>
      </trkpt>
      <trkpt lat="47.29546" lon="-2.39482">
        <ele>-32.599998474121</ele>
        <time>2021-05-27T09:25:27.000Z</time>
      </trkpt>
      <trkpt lat="47.29528" lon="-2.39473">
        <ele>-32.599998474121</ele>
        <time>2021-05-27T09:25:32.000Z</time>
      </trkpt>
      <trkpt lat="47.29504" lon="-2.39469">
        <ele>-32.599998474121</ele>
        <time>2021-05-27T09:25:39.000Z</time>
      </trkpt>
      <trkpt lat="47.29485" lon="-2.3947">
        <ele>-32.599998474121</ele>
        <time>2021-05-27T09:25:45.000Z</time>
      </trkpt>
      <trkpt lat="47.29469" lon="-2.3947">
        <ele>-32.599998474121</ele>
        <time>2021-05-27T09:25:51.000Z</time>
      </trkpt>
      <trkpt lat="47.29455" lon="-2.39471">
        <ele>-32.599998474121</ele>
        <time>2021-05-27T09:25:55.000Z</time>
      </trkpt>
      <trkpt lat="47.29427" lon="-2.39466">
        <ele>-32.599998474121</ele>
        <time>2021-05-27T09:26:01.000Z</time>
      </trkpt>
      <trkpt lat="47.29401" lon="-2.39465">
        <ele>-32.599998474121</ele>
        <time>2021-05-27T09:26:07.000Z</time>
      </trkpt>
      <trkpt lat="47.29388" lon="-2.39465">
        <ele>-32.599998474121</ele>
        <time>2021-05-27T09:26:10.000Z</time>
      </trkpt>
      <trkpt lat="47.29378" lon="-2.39462">
        <ele>-32.599998474121</ele>
        <time>2021-05-27T09:26:12.000Z</time>
      </trkpt>
      <trkpt lat="47.29363" lon="-2.39458">
        <ele>-32.599998474121</ele>
        <time>2021-05-27T09:26:15.000Z</time>
      </trkpt>
      <trkpt lat="47.29354" lon="-2.3945">
        <ele>-32.599998474121</ele>
        <time>2021-05-27T09:26:17.000Z</time>
      </trkpt>
      <trkpt lat="47.2935" lon="-2.39429">
        <ele>-32.599998474121</ele>
        <time>2021-05-27T09:26:20.000Z</time>
      </trkpt>
      <trkpt lat="47.29348" lon="-2.39401">
        <ele>-32.599998474121</ele>
        <time>2021-05-27T09:26:24.000Z</time>
      </trkpt>
      <trkpt lat="47.29347" lon="-2.39388">
        <ele>-32.599998474121</ele>
        <time>2021-05-27T09:26:26.000Z</time>
      </trkpt>
      <trkpt lat="47.29345" lon="-2.39332">
        <ele>-32.599998474121</ele>
        <time>2021-05-27T09:26:34.000Z</time>
      </trkpt>
      <trkpt lat="47.29332" lon="-2.39319">
        <ele>-32.599998474121</ele>
        <time>2021-05-27T09:26:37.000Z</time>
      </trkpt>
      <trkpt lat="47.29327" lon="-2.39316">
        <ele>-32.599998474121</ele>
        <time>2021-05-27T09:26:38.000Z</time>
      </trkpt>
      <trkpt lat="47.29294" lon="-2.39296">
        <ele>-32.599998474121</ele>
        <time>2021-05-27T09:26:44.000Z</time>
      </trkpt>
      <trkpt lat="47.29278" lon="-2.39287">
        <ele>-32.599998474121</ele>
        <time>2021-05-27T09:26:47.000Z</time>
      </trkpt>
      <trkpt lat="47.2926" lon="-2.39286">
        <ele>-32.599998474121</ele>
        <time>2021-05-27T09:26:50.000Z</time>
      </trkpt>
      <trkpt lat="47.29245" lon="-2.39294">
        <ele>-32.599998474121</ele>
        <time>2021-05-27T09:26:53.000Z</time>
      </trkpt>
      <trkpt lat="47.29235" lon="-2.39299">
        <ele>-32.599998474121</ele>
        <time>2021-05-27T09:26:55.000Z</time>
      </trkpt>
      <trkpt lat="47.29226" lon="-2.39306">
        <ele>-33</ele>
        <time>2021-05-27T09:26:57.000Z</time>
      </trkpt>
      <trkpt lat="47.29221" lon="-2.3931">
        <ele>-33.400001525879</ele>
        <time>2021-05-27T09:26:58.000Z</time>
      </trkpt>
      <trkpt lat="47.29216" lon="-2.39313">
        <ele>-33.799999237061</ele>
        <time>2021-05-27T09:26:59.000Z</time>
      </trkpt>
      <trkpt lat="47.29211" lon="-2.39315">
        <ele>-34.200000762939</ele>
        <time>2021-05-27T09:27:00.000Z</time>
      </trkpt>
      <trkpt lat="47.29206" lon="-2.39317">
        <ele>-34.599998474121</ele>
        <time>2021-05-27T09:27:01.000Z</time>
      </trkpt>
      <trkpt lat="47.29196" lon="-2.39319">
        <ele>-34.599998474121</ele>
        <time>2021-05-27T09:27:03.000Z</time>
      </trkpt>
      <trkpt lat="47.29167" lon="-2.39329">
        <ele>-34.599998474121</ele>
        <time>2021-05-27T09:27:09.000Z</time>
      </trkpt>
      <trkpt lat="47.29163" lon="-2.39331">
        <ele>-34.599998474121</ele>
        <time>2021-05-27T09:27:10.000Z</time>
      </trkpt>
      <trkpt lat="47.29146" lon="-2.39345">
        <ele>-34.599998474121</ele>
        <time>2021-05-27T09:27:15.000Z</time>
      </trkpt>
      <trkpt lat="47.29134" lon="-2.39362">
        <ele>-34.599998474121</ele>
        <time>2021-05-27T09:27:19.000Z</time>
      </trkpt>
      <trkpt lat="47.2913" lon="-2.39365">
        <ele>-34.599998474121</ele>
        <time>2021-05-27T09:27:20.000Z</time>
      </trkpt>
      <trkpt lat="47.29115" lon="-2.39373">
        <ele>-34.200000762939</ele>
        <time>2021-05-27T09:27:24.000Z</time>
      </trkpt>
      <trkpt lat="47.29111" lon="-2.39376">
        <ele>-33.799999237061</ele>
        <time>2021-05-27T09:27:25.000Z</time>
      </trkpt>
      <trkpt lat="47.29108" lon="-2.39378">
        <ele>-33.400001525879</ele>
        <time>2021-05-27T09:27:26.000Z</time>
      </trkpt>
      <trkpt lat="47.29105" lon="-2.3938">
        <ele>-33</ele>
        <time>2021-05-27T09:27:27.000Z</time>
      </trkpt>
      <trkpt lat="47.29101" lon="-2.39381">
        <ele>-32.599998474121</ele>
        <time>2021-05-27T09:27:28.000Z</time>
      </trkpt>
      <trkpt lat="47.29094" lon="-2.3938">
        <ele>-32.599998474121</ele>
        <time>2021-05-27T09:27:30.000Z</time>
      </trkpt>
      <trkpt lat="47.29091" lon="-2.39377">
        <ele>-32.599998474121</ele>
        <time>2021-05-27T09:27:31.000Z</time>
      </trkpt>
      <trkpt lat="47.29085" lon="-2.39368">
        <ele>-32.200000762939</ele>
        <time>2021-05-27T09:27:33.000Z</time>
      </trkpt>
      <trkpt lat="47.29082" lon="-2.39363">
        <ele>-31.799999237061</ele>
        <time>2021-05-27T09:27:34.000Z</time>
      </trkpt>
      <trkpt lat="47.29077" lon="-2.39359">
        <ele>-31.39999961853</ele>
        <time>2021-05-27T09:27:35.000Z</time>
      </trkpt>
      <trkpt lat="47.29072" lon="-2.39356">
        <ele>-31</ele>
        <time>2021-05-27T09:27:36.000Z</time>
      </trkpt>
      <trkpt lat="47.29068" lon="-2.39353">
        <ele>-30.60000038147</ele>
        <time>2021-05-27T09:27:37.000Z</time>
      </trkpt>
      <trkpt lat="47.2905" lon="-2.39344">
        <ele>-31</ele>
        <time>2021-05-27T09:27:41.000Z</time>
      </trkpt>
      <trkpt lat="47.29046" lon="-2.39343">
        <ele>-31.39999961853</ele>
        <time>2021-05-27T09:27:42.000Z</time>
      </trkpt>
      <trkpt lat="47.29042" lon="-2.39341">
        <ele>-32</ele>
        <time>2021-05-27T09:27:43.000Z</time>
      </trkpt>
      <trkpt lat="47.29038" lon="-2.39339">
        <ele>-32.799999237061</ele>
        <time>2021-05-27T09:27:44.000Z</time>
      </trkpt>
      <trkpt lat="47.29017" lon="-2.39329">
        <ele>-32.799999237061</ele>
        <time>2021-05-27T09:27:49.000Z</time>
      </trkpt>
      <trkpt lat="47.29001" lon="-2.39322">
        <ele>-32.799999237061</ele>
        <time>2021-05-27T09:27:55.000Z</time>
      </trkpt>
      <trkpt lat="47.28979" lon="-2.39317">
        <ele>-32.799999237061</ele>
        <time>2021-05-27T09:28:02.000Z</time>
      </trkpt>
      <trkpt lat="47.28959" lon="-2.3932">
        <ele>-32.799999237061</ele>
        <time>2021-05-27T09:28:09.000Z</time>
      </trkpt>
      <trkpt lat="47.28951" lon="-2.39315">
        <ele>-32.799999237061</ele>
        <time>2021-05-27T09:28:12.000Z</time>
      </trkpt>
      <trkpt lat="47.28949" lon="-2.3931">
        <ele>-32.799999237061</ele>
        <time>2021-05-27T09:28:13.000Z</time>
      </trkpt>
      <trkpt lat="47.2894" lon="-2.39281">
        <ele>-32.799999237061</ele>
        <time>2021-05-27T09:28:18.000Z</time>
      </trkpt>
      <trkpt lat="47.28935" lon="-2.3923">
        <ele>-32.799999237061</ele>
        <time>2021-05-27T09:28:26.000Z</time>
      </trkpt>
      <trkpt lat="47.28935" lon="-2.39202">
        <ele>-32.799999237061</ele>
        <time>2021-05-27T09:28:30.000Z</time>
      </trkpt>
      <trkpt lat="47.28935" lon="-2.39187">
        <ele>-32.799999237061</ele>
        <time>2021-05-27T09:28:32.000Z</time>
      </trkpt>
      <trkpt lat="47.28935" lon="-2.39158">
        <ele>-32.799999237061</ele>
        <time>2021-05-27T09:28:36.000Z</time>
      </trkpt>
      <trkpt lat="47.28938" lon="-2.39135">
        <ele>-32.799999237061</ele>
        <time>2021-05-27T09:28:39.000Z</time>
      </trkpt>
      <trkpt lat="47.28939" lon="-2.39128">
        <ele>-32.799999237061</ele>
        <time>2021-05-27T09:28:40.000Z</time>
      </trkpt>
      <trkpt lat="47.28946" lon="-2.3907">
        <ele>-32.799999237061</ele>
        <time>2021-05-27T09:28:48.000Z</time>
      </trkpt>
      <trkpt lat="47.28952" lon="-2.39024">
        <ele>-32.799999237061</ele>
        <time>2021-05-27T09:28:54.000Z</time>
      </trkpt>
      <trkpt lat="47.28954" lon="-2.38959">
        <ele>-32.799999237061</ele>
        <time>2021-05-27T09:29:02.000Z</time>
      </trkpt>
      <trkpt lat="47.28958" lon="-2.38891">
        <ele>-32.799999237061</ele>
        <time>2021-05-27T09:29:09.000Z</time>
      </trkpt>
      <trkpt lat="47.28962" lon="-2.38826">
        <ele>-32.799999237061</ele>
        <time>2021-05-27T09:29:16.000Z</time>
      </trkpt>
      <trkpt lat="47.28961" lon="-2.3876">
        <ele>-32.799999237061</ele>
        <time>2021-05-27T09:29:23.000Z</time>
      </trkpt>
      <trkpt lat="47.28961" lon="-2.387">
        <ele>-32.799999237061</ele>
        <time>2021-05-27T09:29:30.000Z</time>
      </trkpt>
      <trkpt lat="47.2896" lon="-2.38631">
        <ele>-32.799999237061</ele>
        <time>2021-05-27T09:29:38.000Z</time>
      </trkpt>
      <trkpt lat="47.28956" lon="-2.38555">
        <ele>-32.799999237061</ele>
        <time>2021-05-27T09:29:46.000Z</time>
      </trkpt>
      <trkpt lat="47.28949" lon="-2.38494">
        <ele>-32.799999237061</ele>
        <time>2021-05-27T09:29:53.000Z</time>
      </trkpt>
      <trkpt lat="47.28944" lon="-2.38442">
        <ele>-32.799999237061</ele>
        <time>2021-05-27T09:29:59.000Z</time>
      </trkpt>
      <trkpt lat="47.2894" lon="-2.3838">
        <ele>-32.799999237061</ele>
        <time>2021-05-27T09:30:06.000Z</time>
      </trkpt>
      <trkpt lat="47.28937" lon="-2.38324">
        <ele>-32.799999237061</ele>
        <time>2021-05-27T09:30:12.000Z</time>
      </trkpt>
      <trkpt lat="47.28938" lon="-2.38271">
        <ele>-32.799999237061</ele>
        <time>2021-05-27T09:30:19.000Z</time>
      </trkpt>
      <trkpt lat="47.28939" lon="-2.38232">
        <ele>-32.799999237061</ele>
        <time>2021-05-27T09:30:24.000Z</time>
      </trkpt>
      <trkpt lat="47.28938" lon="-2.38226">
        <ele>-32.799999237061</ele>
        <time>2021-05-27T09:30:25.000Z</time>
      </trkpt>
      <trkpt lat="47.28929" lon="-2.38209">
        <ele>-32.799999237061</ele>
        <time>2021-05-27T09:30:29.000Z</time>
      </trkpt>
      <trkpt lat="47.2891" lon="-2.38195">
        <ele>-32.799999237061</ele>
        <time>2021-05-27T09:30:32.000Z</time>
      </trkpt>
      <trkpt lat="47.28898" lon="-2.38163">
        <ele>-32.799999237061</ele>
        <time>2021-05-27T09:30:36.000Z</time>
      </trkpt>
      <trkpt lat="47.28897" lon="-2.38154">
        <ele>-32.799999237061</ele>
        <time>2021-05-27T09:30:37.000Z</time>
      </trkpt>
      <trkpt lat="47.28897" lon="-2.38144">
        <ele>-32.799999237061</ele>
        <time>2021-05-27T09:30:38.000Z</time>
      </trkpt>
      <trkpt lat="47.28901" lon="-2.38116">
        <ele>-32.799999237061</ele>
        <time>2021-05-27T09:30:41.000Z</time>
      </trkpt>
      <trkpt lat="47.28907" lon="-2.38042">
        <ele>-32.799999237061</ele>
        <time>2021-05-27T09:30:49.000Z</time>
      </trkpt>
      <trkpt lat="47.28911" lon="-2.37976">
        <ele>-32.799999237061</ele>
        <time>2021-05-27T09:30:56.000Z</time>
      </trkpt>
      <trkpt lat="47.28917" lon="-2.37905">
        <ele>-32.799999237061</ele>
        <time>2021-05-27T09:31:04.000Z</time>
      </trkpt>
      <trkpt lat="47.28923" lon="-2.37834">
        <ele>-32.799999237061</ele>
        <time>2021-05-27T09:31:12.000Z</time>
      </trkpt>
      <trkpt lat="47.28929" lon="-2.37786">
        <ele>-32.799999237061</ele>
        <time>2021-05-27T09:31:18.000Z</time>
      </trkpt>
      <trkpt lat="47.28934" lon="-2.37725">
        <ele>-32.799999237061</ele>
        <time>2021-05-27T09:31:26.000Z</time>
      </trkpt>
      <trkpt lat="47.28939" lon="-2.37688">
        <ele>-32.400001525879</ele>
        <time>2021-05-27T09:31:31.000Z</time>
      </trkpt>
      <trkpt lat="47.2894" lon="-2.37681">
        <ele>-32</ele>
        <time>2021-05-27T09:31:32.000Z</time>
      </trkpt>
      <trkpt lat="47.2894" lon="-2.37674">
        <ele>-31.60000038147</ele>
        <time>2021-05-27T09:31:33.000Z</time>
      </trkpt>
      <trkpt lat="47.2894" lon="-2.37667">
        <ele>-31.200000762939</ele>
        <time>2021-05-27T09:31:34.000Z</time>
      </trkpt>
      <trkpt lat="47.28941" lon="-2.37661">
        <ele>-30.799999237061</ele>
        <time>2021-05-27T09:31:35.000Z</time>
      </trkpt>
      <trkpt lat="47.28941" lon="-2.37654">
        <ele>-30.799999237061</ele>
        <time>2021-05-27T09:31:36.000Z</time>
      </trkpt>
      <trkpt lat="47.2894" lon="-2.37641">
        <ele>-30.799999237061</ele>
        <time>2021-05-27T09:31:39.000Z</time>
      </trkpt>
      <trkpt lat="47.28933" lon="-2.37642">
        <ele>-30.799999237061</ele>
        <time>2021-05-27T09:31:40.000Z</time>
      </trkpt>
      <trkpt lat="47.2893" lon="-2.37642">
        <ele>-30.799999237061</ele>
        <time>2021-05-27T09:31:41.000Z</time>
      </trkpt>
      <trkpt lat="47.28901" lon="-2.37649">
        <ele>-30.799999237061</ele>
        <time>2021-05-27T09:31:47.000Z</time>
      </trkpt>
      <trkpt lat="47.28877" lon="-2.37653">
        <ele>-30.799999237061</ele>
        <time>2021-05-27T09:31:52.000Z</time>
      </trkpt>
      <trkpt lat="47.28865" lon="-2.37644">
        <ele>-30.799999237061</ele>
        <time>2021-05-27T09:31:58.000Z</time>
      </trkpt>
      <trkpt lat="47.2886" lon="-2.37626">
        <ele>-30.799999237061</ele>
        <time>2021-05-27T09:32:04.000Z</time>
      </trkpt>
      <trkpt lat="47.2886" lon="-2.37622">
        <ele>-30.799999237061</ele>
        <time>2021-05-27T09:32:05.000Z</time>
      </trkpt>
      <trkpt lat="47.2886" lon="-2.37604">
        <ele>-30.799999237061</ele>
        <time>2021-05-27T09:32:09.000Z</time>
      </trkpt>
      <trkpt lat="47.2887" lon="-2.37576">
        <ele>-30.799999237061</ele>
        <time>2021-05-27T09:32:14.000Z</time>
      </trkpt>
      <trkpt lat="47.28883" lon="-2.37546">
        <ele>-30.799999237061</ele>
        <time>2021-05-27T09:32:20.000Z</time>
      </trkpt>
      <trkpt lat="47.28887" lon="-2.37536">
        <ele>-30.799999237061</ele>
        <time>2021-05-27T09:32:22.000Z</time>
      </trkpt>
      <trkpt lat="47.28888" lon="-2.37524">
        <ele>-30.799999237061</ele>
        <time>2021-05-27T09:32:24.000Z</time>
      </trkpt>
      <trkpt lat="47.28887" lon="-2.37512">
        <ele>-30.799999237061</ele>
        <time>2021-05-27T09:32:26.000Z</time>
      </trkpt>
      <trkpt lat="47.28884" lon="-2.37484">
        <ele>-30.799999237061</ele>
        <time>2021-05-27T09:32:30.000Z</time>
      </trkpt>
      <trkpt lat="47.28869" lon="-2.37431">
        <ele>-30.799999237061</ele>
        <time>2021-05-27T09:32:37.000Z</time>
      </trkpt>
      <trkpt lat="47.28862" lon="-2.37394">
        <ele>-30</ele>
        <time>2021-05-27T09:32:42.000Z</time>
      </trkpt>
      <trkpt lat="47.28861" lon="-2.37387">
        <ele>-29.60000038147</ele>
        <time>2021-05-27T09:32:43.000Z</time>
      </trkpt>
      <trkpt lat="47.2886" lon="-2.37379">
        <ele>-29.200000762939</ele>
        <time>2021-05-27T09:32:44.000Z</time>
      </trkpt>
      <trkpt lat="47.28859" lon="-2.37372">
        <ele>-28.799999237061</ele>
        <time>2021-05-27T09:32:45.000Z</time>
      </trkpt>
      <trkpt lat="47.28859" lon="-2.37365">
        <ele>-28.799999237061</ele>
        <time>2021-05-27T09:32:46.000Z</time>
      </trkpt>
      <trkpt lat="47.28855" lon="-2.37318">
        <ele>-28.799999237061</ele>
        <time>2021-05-27T09:32:53.000Z</time>
      </trkpt>
      <trkpt lat="47.28852" lon="-2.37274">
        <ele>-28.799999237061</ele>
        <time>2021-05-27T09:32:59.000Z</time>
      </trkpt>
      <trkpt lat="47.2885" lon="-2.37267">
        <ele>-28.799999237061</ele>
        <time>2021-05-27T09:33:00.000Z</time>
      </trkpt>
      <trkpt lat="47.28844" lon="-2.37241">
        <ele>-28.799999237061</ele>
        <time>2021-05-27T09:33:04.000Z</time>
      </trkpt>
      <trkpt lat="47.28837" lon="-2.37222">
        <ele>-28.799999237061</ele>
        <time>2021-05-27T09:33:07.000Z</time>
      </trkpt>
      <trkpt lat="47.28831" lon="-2.37206">
        <ele>-28.799999237061</ele>
        <time>2021-05-27T09:33:10.000Z</time>
      </trkpt>
      <trkpt lat="47.28823" lon="-2.37168">
        <ele>-28.799999237061</ele>
        <time>2021-05-27T09:33:16.000Z</time>
      </trkpt>
      <trkpt lat="47.28816" lon="-2.37136">
        <ele>-28.799999237061</ele>
        <time>2021-05-27T09:33:22.000Z</time>
      </trkpt>
      <trkpt lat="47.28812" lon="-2.37126">
        <ele>-28.799999237061</ele>
        <time>2021-05-27T09:33:27.000Z</time>
      </trkpt>
      <trkpt lat="47.28809" lon="-2.37115">
        <ele>-28.39999961853</ele>
        <time>2021-05-27T09:33:32.000Z</time>
      </trkpt>
      <trkpt lat="47.28809" lon="-2.37115">
        <ele>-28</ele>
        <time>2021-05-27T09:33:33.000Z</time>
      </trkpt>
      <trkpt lat="47.28808" lon="-2.37114">
        <ele>-27.60000038147</ele>
        <time>2021-05-27T09:33:34.000Z</time>
      </trkpt>
      <trkpt lat="47.28808" lon="-2.37114">
        <ele>-27.200000762939</ele>
        <time>2021-05-27T09:33:35.000Z</time>
      </trkpt>
      <trkpt lat="47.28804" lon="-2.37115">
        <ele>-25.799999237061</ele>
        <time>2021-05-27T09:33:40.000Z</time>
      </trkpt>
      <trkpt lat="47.28803" lon="-2.37116">
        <ele>-25.200000762939</ele>
        <time>2021-05-27T09:33:41.000Z</time>
      </trkpt>
      <trkpt lat="47.28801" lon="-2.37116">
        <ele>-24.799999237061</ele>
        <time>2021-05-27T09:33:42.000Z</time>
      </trkpt>
      <trkpt lat="47.28799" lon="-2.37117">
        <ele>-24.39999961853</ele>
        <time>2021-05-27T09:33:43.000Z</time>
      </trkpt>
      <trkpt lat="47.28795" lon="-2.37117">
        <ele>-24</ele>
        <time>2021-05-27T09:33:45.000Z</time>
      </trkpt>
      <trkpt lat="47.28793" lon="-2.37116">
        <ele>-23.39999961853</ele>
        <time>2021-05-27T09:33:46.000Z</time>
      </trkpt>
      <trkpt lat="47.2879" lon="-2.37115">
        <ele>-23</ele>
        <time>2021-05-27T09:33:47.000Z</time>
      </trkpt>
      <trkpt lat="47.28789" lon="-2.37113">
        <ele>-22.60000038147</ele>
        <time>2021-05-27T09:33:48.000Z</time>
      </trkpt>
      <trkpt lat="47.28787" lon="-2.3711">
        <ele>-22</ele>
        <time>2021-05-27T09:33:49.000Z</time>
      </trkpt>
      <trkpt lat="47.28782" lon="-2.3709">
        <ele>-22</ele>
        <time>2021-05-27T09:33:54.000Z</time>
      </trkpt>
      <trkpt lat="47.28781" lon="-2.37082">
        <ele>-21.200000762939</ele>
        <time>2021-05-27T09:33:56.000Z</time>
      </trkpt>
      <trkpt lat="47.28781" lon="-2.37078">
        <ele>-20.799999237061</ele>
        <time>2021-05-27T09:33:57.000Z</time>
      </trkpt>
      <trkpt lat="47.2878" lon="-2.37075">
        <ele>-20.39999961853</ele>
        <time>2021-05-27T09:33:58.000Z</time>
      </trkpt>
      <trkpt lat="47.2878" lon="-2.3707">
        <ele>-20</ele>
        <time>2021-05-27T09:33:59.000Z</time>
      </trkpt>
      <trkpt lat="47.28779" lon="-2.37062">
        <ele>-19.60000038147</ele>
        <time>2021-05-27T09:34:01.000Z</time>
      </trkpt>
      <trkpt lat="47.28779" lon="-2.37058">
        <ele>-19.200000762939</ele>
        <time>2021-05-27T09:34:02.000Z</time>
      </trkpt>
      <trkpt lat="47.28778" lon="-2.37053">
        <ele>-18.60000038147</ele>
        <time>2021-05-27T09:34:03.000Z</time>
      </trkpt>
      <trkpt lat="47.28777" lon="-2.37049">
        <ele>-18.200000762939</ele>
        <time>2021-05-27T09:34:04.000Z</time>
      </trkpt>
      <trkpt lat="47.28776" lon="-2.37046">
        <ele>-17.799999237061</ele>
        <time>2021-05-27T09:34:05.000Z</time>
      </trkpt>
      <trkpt lat="47.28775" lon="-2.3704">
        <ele>-17.799999237061</ele>
        <time>2021-05-27T09:34:07.000Z</time>
      </trkpt>
      <trkpt lat="47.28773" lon="-2.37018">
        <ele>-17.39999961853</ele>
        <time>2021-05-27T09:34:12.000Z</time>
      </trkpt>
      <trkpt lat="47.28771" lon="-2.37014">
        <ele>-17</ele>
        <time>2021-05-27T09:34:13.000Z</time>
      </trkpt>
      <trkpt lat="47.2877" lon="-2.3701">
        <ele>-16.60000038147</ele>
        <time>2021-05-27T09:34:14.000Z</time>
      </trkpt>
      <trkpt lat="47.28768" lon="-2.37007">
        <ele>-16.200000762939</ele>
        <time>2021-05-27T09:34:15.000Z</time>
      </trkpt>
      <trkpt lat="47.28767" lon="-2.37004">
        <ele>-15.800000190735</ele>
        <time>2021-05-27T09:34:16.000Z</time>
      </trkpt>
      <trkpt lat="47.2876" lon="-2.36989">
        <ele>-15.800000190735</ele>
        <time>2021-05-27T09:34:20.000Z</time>
      </trkpt>
      <trkpt lat="47.28754" lon="-2.36964">
        <ele>-15.800000190735</ele>
        <time>2021-05-27T09:34:27.000Z</time>
      </trkpt>
      <trkpt lat="47.28753" lon="-2.36954">
        <ele>-16.200000762939</ele>
        <time>2021-05-27T09:34:29.000Z</time>
      </trkpt>
      <trkpt lat="47.28751" lon="-2.36947">
        <ele>-16.60000038147</ele>
        <time>2021-05-27T09:34:30.000Z</time>
      </trkpt>
      <trkpt lat="47.2875" lon="-2.36941">
        <ele>-17.200000762939</ele>
        <time>2021-05-27T09:34:31.000Z</time>
      </trkpt>
      <trkpt lat="47.28748" lon="-2.36937">
        <ele>-17.799999237061</ele>
        <time>2021-05-27T09:34:32.000Z</time>
      </trkpt>
      <trkpt lat="47.28745" lon="-2.36933">
        <ele>-18.39999961853</ele>
        <time>2021-05-27T09:34:33.000Z</time>
      </trkpt>
      <trkpt lat="47.28743" lon="-2.36929">
        <ele>-19</ele>
        <time>2021-05-27T09:34:34.000Z</time>
      </trkpt>
      <trkpt lat="47.28741" lon="-2.36925">
        <ele>-19.60000038147</ele>
        <time>2021-05-27T09:34:35.000Z</time>
      </trkpt>
      <trkpt lat="47.2874" lon="-2.36922">
        <ele>-20.200000762939</ele>
        <time>2021-05-27T09:34:36.000Z</time>
      </trkpt>
      <trkpt lat="47.28739" lon="-2.36921">
        <ele>-20.60000038147</ele>
        <time>2021-05-27T09:34:37.000Z</time>
      </trkpt>
      <trkpt lat="47.28737" lon="-2.3692">
        <ele>-21</ele>
        <time>2021-05-27T09:34:38.000Z</time>
      </trkpt>
      <trkpt lat="47.28737" lon="-2.36919">
        <ele>-21.39999961853</ele>
        <time>2021-05-27T09:34:39.000Z</time>
      </trkpt>
      <trkpt lat="47.28736" lon="-2.36919">
        <ele>-21.799999237061</ele>
        <time>2021-05-27T09:34:40.000Z</time>
      </trkpt>
      <trkpt lat="47.28735" lon="-2.36919">
        <ele>-22.200000762939</ele>
        <time>2021-05-27T09:34:41.000Z</time>
      </trkpt>
      <trkpt lat="47.28729" lon="-2.36922">
        <ele>-22.200000762939</ele>
        <time>2021-05-27T09:34:47.000Z</time>
      </trkpt>
      <trkpt lat="47.28736" lon="-2.36917">
        <ele>-22.200000762939</ele>
        <time>2021-05-27T09:36:03.000Z</time>
      </trkpt>
      <trkpt lat="47.28739" lon="-2.36915">
        <ele>-22.200000762939</ele>
        <time>2021-05-27T09:36:04.000Z</time>
      </trkpt>
      <trkpt lat="47.28752" lon="-2.36898">
        <ele>-22.200000762939</ele>
        <time>2021-05-27T09:36:08.000Z</time>
      </trkpt>
      <trkpt lat="47.28766" lon="-2.36853">
        <ele>-22.200000762939</ele>
        <time>2021-05-27T09:36:16.000Z</time>
      </trkpt>
      <trkpt lat="47.28774" lon="-2.36818">
        <ele>-21.39999961853</ele>
        <time>2021-05-27T09:36:23.000Z</time>
      </trkpt>
      <trkpt lat="47.28775" lon="-2.36813">
        <ele>-21</ele>
        <time>2021-05-27T09:36:24.000Z</time>
      </trkpt>
      <trkpt lat="47.28776" lon="-2.36808">
        <ele>-20.60000038147</ele>
        <time>2021-05-27T09:36:25.000Z</time>
      </trkpt>
      <trkpt lat="47.28777" lon="-2.36804">
        <ele>-20.200000762939</ele>
        <time>2021-05-27T09:36:26.000Z</time>
      </trkpt>
      <trkpt lat="47.28783" lon="-2.36785">
        <ele>-20.200000762939</ele>
        <time>2021-05-27T09:36:30.000Z</time>
      </trkpt>
      <trkpt lat="47.28788" lon="-2.3677">
        <ele>-19.799999237061</ele>
        <time>2021-05-27T09:36:33.000Z</time>
      </trkpt>
      <trkpt lat="47.28789" lon="-2.36765">
        <ele>-19.39999961853</ele>
        <time>2021-05-27T09:36:34.000Z</time>
      </trkpt>
      <trkpt lat="47.28791" lon="-2.36761">
        <ele>-19</ele>
        <time>2021-05-27T09:36:35.000Z</time>
      </trkpt>
      <trkpt lat="47.28792" lon="-2.36755">
        <ele>-18.60000038147</ele>
        <time>2021-05-27T09:36:36.000Z</time>
      </trkpt>
      <trkpt lat="47.28793" lon="-2.36751">
        <ele>-18.200000762939</ele>
        <time>2021-05-27T09:36:37.000Z</time>
      </trkpt>
      <trkpt lat="47.28796" lon="-2.36739">
        <ele>-18.200000762939</ele>
        <time>2021-05-27T09:36:39.000Z</time>
      </trkpt>
      <trkpt lat="47.28804" lon="-2.36717">
        <ele>-17.799999237061</ele>
        <time>2021-05-27T09:36:44.000Z</time>
      </trkpt>
      <trkpt lat="47.28804" lon="-2.36714">
        <ele>-17.39999961853</ele>
        <time>2021-05-27T09:36:45.000Z</time>
      </trkpt>
      <trkpt lat="47.28805" lon="-2.3671">
        <ele>-17</ele>
        <time>2021-05-27T09:36:46.000Z</time>
      </trkpt>
      <trkpt lat="47.28806" lon="-2.36706">
        <ele>-16.60000038147</ele>
        <time>2021-05-27T09:36:47.000Z</time>
      </trkpt>
      <trkpt lat="47.28806" lon="-2.36702">
        <ele>-16.200000762939</ele>
        <time>2021-05-27T09:36:48.000Z</time>
      </trkpt>
      <trkpt lat="47.28807" lon="-2.36699">
        <ele>-15.800000190735</ele>
        <time>2021-05-27T09:36:49.000Z</time>
      </trkpt>
      <trkpt lat="47.28808" lon="-2.36696">
        <ele>-15.39999961853</ele>
        <time>2021-05-27T09:36:50.000Z</time>
      </trkpt>
      <trkpt lat="47.28808" lon="-2.36692">
        <ele>-15</ele>
        <time>2021-05-27T09:36:51.000Z</time>
      </trkpt>
      <trkpt lat="47.28809" lon="-2.36689">
        <ele>-14.60000038147</ele>
        <time>2021-05-27T09:36:52.000Z</time>
      </trkpt>
      <trkpt lat="47.2881" lon="-2.36686">
        <ele>-14</ele>
        <time>2021-05-27T09:36:53.000Z</time>
      </trkpt>
      <trkpt lat="47.28811" lon="-2.3668">
        <ele>-13.60000038147</ele>
        <time>2021-05-27T09:36:55.000Z</time>
      </trkpt>
      <trkpt lat="47.28812" lon="-2.36677">
        <ele>-13.199999809265</ele>
        <time>2021-05-27T09:36:56.000Z</time>
      </trkpt>
      <trkpt lat="47.28813" lon="-2.36673">
        <ele>-12.800000190735</ele>
        <time>2021-05-27T09:36:57.000Z</time>
      </trkpt>
      <trkpt lat="47.28813" lon="-2.3667">
        <ele>-12.199999809265</ele>
        <time>2021-05-27T09:36:58.000Z</time>
      </trkpt>
      <trkpt lat="47.28814" lon="-2.36667">
        <ele>-11.800000190735</ele>
        <time>2021-05-27T09:36:59.000Z</time>
      </trkpt>
      <trkpt lat="47.28817" lon="-2.36661">
        <ele>-11.39999961853</ele>
        <time>2021-05-27T09:37:01.000Z</time>
      </trkpt>
      <trkpt lat="47.28819" lon="-2.36657">
        <ele>-11</ele>
        <time>2021-05-27T09:37:02.000Z</time>
      </trkpt>
      <trkpt lat="47.28823" lon="-2.36653">
        <ele>-10.39999961853</ele>
        <time>2021-05-27T09:37:03.000Z</time>
      </trkpt>
      <trkpt lat="47.28827" lon="-2.36649">
        <ele>-10</ele>
        <time>2021-05-27T09:37:04.000Z</time>
      </trkpt>
      <trkpt lat="47.2883" lon="-2.36646">
        <ele>-9.6000003814697</ele>
        <time>2021-05-27T09:37:05.000Z</time>
      </trkpt>
      <trkpt lat="47.28833" lon="-2.36641">
        <ele>-9.6000003814697</ele>
        <time>2021-05-27T09:37:06.000Z</time>
      </trkpt>
      <trkpt lat="47.28856" lon="-2.36607">
        <ele>-9.6000003814697</ele>
        <time>2021-05-27T09:37:14.000Z</time>
      </trkpt>
      <trkpt lat="47.28864" lon="-2.36595">
        <ele>-9.6000003814697</ele>
        <time>2021-05-27T09:37:17.000Z</time>
      </trkpt>
      <trkpt lat="47.28875" lon="-2.36576">
        <ele>-9.6000003814697</ele>
        <time>2021-05-27T09:37:20.000Z</time>
      </trkpt>
      <trkpt lat="47.28882" lon="-2.36561">
        <ele>-9.6000003814697</ele>
        <time>2021-05-27T09:37:22.000Z</time>
      </trkpt>
      <trkpt lat="47.28885" lon="-2.36543">
        <ele>-9.6000003814697</ele>
        <time>2021-05-27T09:37:25.000Z</time>
      </trkpt>
      <trkpt lat="47.28882" lon="-2.36534">
        <ele>-9</ele>
        <time>2021-05-27T09:37:27.000Z</time>
      </trkpt>
      <trkpt lat="47.28881" lon="-2.36529">
        <ele>-8.6000003814697</ele>
        <time>2021-05-27T09:37:28.000Z</time>
      </trkpt>
      <trkpt lat="47.2888" lon="-2.36525">
        <ele>-8.1999998092651</ele>
        <time>2021-05-27T09:37:29.000Z</time>
      </trkpt>
      <trkpt lat="47.28879" lon="-2.36522">
        <ele>-7.5999999046326</ele>
        <time>2021-05-27T09:37:30.000Z</time>
      </trkpt>
      <trkpt lat="47.28877" lon="-2.36518">
        <ele>-7.1999998092651</ele>
        <time>2021-05-27T09:37:31.000Z</time>
      </trkpt>
      <trkpt lat="47.28872" lon="-2.36507">
        <ele>-7.1999998092651</ele>
        <time>2021-05-27T09:37:34.000Z</time>
      </trkpt>
      <trkpt lat="47.28871" lon="-2.36505">
        <ele>-6.8000001907349</ele>
        <time>2021-05-27T09:37:35.000Z</time>
      </trkpt>
      <trkpt lat="47.28869" lon="-2.36502">
        <ele>-6.4000000953674</ele>
        <time>2021-05-27T09:37:36.000Z</time>
      </trkpt>
      <trkpt lat="47.28868" lon="-2.36498">
        <ele>-5.4000000953674</ele>
        <time>2021-05-27T09:37:37.000Z</time>
      </trkpt>
      <trkpt lat="47.28866" lon="-2.36494">
        <ele>-5</ele>
        <time>2021-05-27T09:37:38.000Z</time>
      </trkpt>
      <trkpt lat="47.28865" lon="-2.36483">
        <ele>-5</ele>
        <time>2021-05-27T09:37:40.000Z</time>
      </trkpt>
      <trkpt lat="47.28862" lon="-2.36452">
        <ele>-4.5999999046326</ele>
        <time>2021-05-27T09:37:47.000Z</time>
      </trkpt>
      <trkpt lat="47.28861" lon="-2.36449">
        <ele>-4</ele>
        <time>2021-05-27T09:37:48.000Z</time>
      </trkpt>
      <trkpt lat="47.2886" lon="-2.36445">
        <ele>-3.5999999046326</ele>
        <time>2021-05-27T09:37:49.000Z</time>
      </trkpt>
      <trkpt lat="47.28859" lon="-2.36441">
        <ele>-3.2000000476837</ele>
        <time>2021-05-27T09:37:50.000Z</time>
      </trkpt>
      <trkpt lat="47.28857" lon="-2.36438">
        <ele>-2.7999999523163</ele>
        <time>2021-05-27T09:37:51.000Z</time>
      </trkpt>
      <trkpt lat="47.28856" lon="-2.36429">
        <ele>-2.4000000953674</ele>
        <time>2021-05-27T09:37:53.000Z</time>
      </trkpt>
      <trkpt lat="47.28855" lon="-2.36425">
        <ele>-2</ele>
        <time>2021-05-27T09:37:54.000Z</time>
      </trkpt>
      <trkpt lat="47.28854" lon="-2.36421">
        <ele>-1.6000000238419</ele>
        <time>2021-05-27T09:37:55.000Z</time>
      </trkpt>
      <trkpt lat="47.28852" lon="-2.36419">
        <ele>-1</ele>
        <time>2021-05-27T09:37:56.000Z</time>
      </trkpt>
      <trkpt lat="47.28851" lon="-2.36417">
        <ele>-0.60000002384186</ele>
        <time>2021-05-27T09:37:57.000Z</time>
      </trkpt>
      <trkpt lat="47.28849" lon="-2.36415">
        <ele>-0.20000000298023</ele>
        <time>2021-05-27T09:37:58.000Z</time>
      </trkpt>
      <trkpt lat="47.28848" lon="-2.36413">
        <ele>0.20000000298023</ele>
        <time>2021-05-27T09:37:59.000Z</time>
      </trkpt>
      <trkpt lat="47.28846" lon="-2.36411">
        <ele>0.60000002384186</ele>
        <time>2021-05-27T09:38:00.000Z</time>
      </trkpt>
      <trkpt lat="47.28844" lon="-2.3641">
        <ele>1</ele>
        <time>2021-05-27T09:38:01.000Z</time>
      </trkpt>
      <trkpt lat="47.28841" lon="-2.36408">
        <ele>1.3999999761581</ele>
        <time>2021-05-27T09:38:02.000Z</time>
      </trkpt>
      <trkpt lat="47.28837" lon="-2.36408">
        <ele>1.3999999761581</ele>
        <time>2021-05-27T09:38:04.000Z</time>
      </trkpt>
      <trkpt lat="47.28833" lon="-2.36411">
        <ele>1.3999999761581</ele>
        <time>2021-05-27T09:38:06.000Z</time>
      </trkpt>
      <trkpt lat="47.28824" lon="-2.36425">
        <ele>1.3999999761581</ele>
        <time>2021-05-27T09:38:10.000Z</time>
      </trkpt>
      <trkpt lat="47.28823" lon="-2.36429">
        <ele>1.3999999761581</ele>
        <time>2021-05-27T09:38:11.000Z</time>
      </trkpt>
      <trkpt lat="47.28811" lon="-2.36453">
        <ele>1.3999999761581</ele>
        <time>2021-05-27T09:38:17.000Z</time>
      </trkpt>
      <trkpt lat="47.28802" lon="-2.3646">
        <ele>1.3999999761581</ele>
        <time>2021-05-27T09:38:22.000Z</time>
      </trkpt>
      <trkpt lat="47.28802" lon="-2.36461">
        <ele>1.3999999761581</ele>
        <time>2021-05-27T09:38:24.000Z</time>
      </trkpt>
      <trkpt lat="47.28798" lon="-2.36491">
        <ele>-0.60000002384186</ele>
        <time>2021-05-27T09:40:39.000Z</time>
      </trkpt>
      <trkpt lat="47.28798" lon="-2.36495">
        <ele>-0.60000002384186</ele>
        <time>2021-05-27T09:40:40.000Z</time>
      </trkpt>
      <trkpt lat="47.28794" lon="-2.36524">
        <ele>-0.60000002384186</ele>
        <time>2021-05-27T09:40:46.000Z</time>
      </trkpt>
      <trkpt lat="47.28795" lon="-2.3653">
        <ele>-1</ele>
        <time>2021-05-27T09:40:47.000Z</time>
      </trkpt>
      <trkpt lat="47.28796" lon="-2.36537">
        <ele>-1.3999999761581</ele>
        <time>2021-05-27T09:40:48.000Z</time>
      </trkpt>
      <trkpt lat="47.28797" lon="-2.36543">
        <ele>-1.7999999523163</ele>
        <time>2021-05-27T09:40:49.000Z</time>
      </trkpt>
      <trkpt lat="47.28798" lon="-2.36549">
        <ele>-2.2000000476837</ele>
        <time>2021-05-27T09:40:50.000Z</time>
      </trkpt>
      <trkpt lat="47.28799" lon="-2.36554">
        <ele>-2.5999999046326</ele>
        <time>2021-05-27T09:40:51.000Z</time>
      </trkpt>
      <trkpt lat="47.28804" lon="-2.36577">
        <ele>-2.5999999046326</ele>
        <time>2021-05-27T09:40:55.000Z</time>
      </trkpt>
      <trkpt lat="47.28808" lon="-2.36596">
        <ele>-3</ele>
        <time>2021-05-27T09:40:58.000Z</time>
      </trkpt>
      <trkpt lat="47.28808" lon="-2.36603">
        <ele>-3.4000000953674</ele>
        <time>2021-05-27T09:40:59.000Z</time>
      </trkpt>
      <trkpt lat="47.28809" lon="-2.3661">
        <ele>-3.7999999523163</ele>
        <time>2021-05-27T09:41:00.000Z</time>
      </trkpt>
      <trkpt lat="47.2881" lon="-2.36617">
        <ele>-4.4000000953674</ele>
        <time>2021-05-27T09:41:01.000Z</time>
      </trkpt>
      <trkpt lat="47.28812" lon="-2.36622">
        <ele>-4.8000001907349</ele>
        <time>2021-05-27T09:41:02.000Z</time>
      </trkpt>
      <trkpt lat="47.28811" lon="-2.36629">
        <ele>-4.8000001907349</ele>
        <time>2021-05-27T09:41:04.000Z</time>
      </trkpt>
      <trkpt lat="47.28808" lon="-2.36633">
        <ele>-4.8000001907349</ele>
        <time>2021-05-27T09:41:06.000Z</time>
      </trkpt>
      <trkpt lat="47.28804" lon="-2.36636">
        <ele>-5.1999998092651</ele>
        <time>2021-05-27T09:41:08.000Z</time>
      </trkpt>
      <trkpt lat="47.28802" lon="-2.36637">
        <ele>-5.5999999046326</ele>
        <time>2021-05-27T09:41:09.000Z</time>
      </trkpt>
      <trkpt lat="47.288" lon="-2.3664">
        <ele>-6</ele>
        <time>2021-05-27T09:41:10.000Z</time>
      </trkpt>
      <trkpt lat="47.28799" lon="-2.36643">
        <ele>-6.4000000953674</ele>
        <time>2021-05-27T09:41:11.000Z</time>
      </trkpt>
      <trkpt lat="47.28797" lon="-2.36646">
        <ele>-6.8000001907349</ele>
        <time>2021-05-27T09:41:12.000Z</time>
      </trkpt>
      <trkpt lat="47.28794" lon="-2.36652">
        <ele>-6.8000001907349</ele>
        <time>2021-05-27T09:41:15.000Z</time>
      </trkpt>
      <trkpt lat="47.28789" lon="-2.36659">
        <ele>-6.8000001907349</ele>
        <time>2021-05-27T09:41:22.000Z</time>
      </trkpt>
      <trkpt lat="47.28789" lon="-2.36658">
        <ele>-6.8000001907349</ele>
        <time>2021-05-27T09:41:24.000Z</time>
      </trkpt>
      <trkpt lat="47.288" lon="-2.36687">
        <ele>-9.8000001907349</ele>
        <time>2021-05-27T09:42:07.000Z</time>
      </trkpt>
      <trkpt lat="47.28802" lon="-2.36692">
        <ele>-10.199999809265</ele>
        <time>2021-05-27T09:42:08.000Z</time>
      </trkpt>
      <trkpt lat="47.28802" lon="-2.36697">
        <ele>-11.199999809265</ele>
        <time>2021-05-27T09:42:09.000Z</time>
      </trkpt>
      <trkpt lat="47.28803" lon="-2.36721">
        <ele>-11.60000038147</ele>
        <time>2021-05-27T09:42:12.000Z</time>
      </trkpt>
      <trkpt lat="47.28802" lon="-2.36729">
        <ele>-12</ele>
        <time>2021-05-27T09:42:13.000Z</time>
      </trkpt>
      <trkpt lat="47.28801" lon="-2.36738">
        <ele>-12.60000038147</ele>
        <time>2021-05-27T09:42:14.000Z</time>
      </trkpt>
      <trkpt lat="47.288" lon="-2.36746">
        <ele>-13</ele>
        <time>2021-05-27T09:42:15.000Z</time>
      </trkpt>
      <trkpt lat="47.28798" lon="-2.36756">
        <ele>-13.39999961853</ele>
        <time>2021-05-27T09:42:16.000Z</time>
      </trkpt>
      <trkpt lat="47.28797" lon="-2.36765">
        <ele>-13.39999961853</ele>
        <time>2021-05-27T09:42:17.000Z</time>
      </trkpt>
      <trkpt lat="47.28794" lon="-2.36784">
        <ele>-13.800000190735</ele>
        <time>2021-05-27T09:42:19.000Z</time>
      </trkpt>
      <trkpt lat="47.28792" lon="-2.36794">
        <ele>-14.39999961853</ele>
        <time>2021-05-27T09:42:20.000Z</time>
      </trkpt>
      <trkpt lat="47.2879" lon="-2.36804">
        <ele>-14.800000190735</ele>
        <time>2021-05-27T09:42:21.000Z</time>
      </trkpt>
      <trkpt lat="47.28788" lon="-2.36814">
        <ele>-15.199999809265</ele>
        <time>2021-05-27T09:42:22.000Z</time>
      </trkpt>
      <trkpt lat="47.28787" lon="-2.36825">
        <ele>-15.60000038147</ele>
        <time>2021-05-27T09:42:23.000Z</time>
      </trkpt>
      <trkpt lat="47.28785" lon="-2.36836">
        <ele>-15.60000038147</ele>
        <time>2021-05-27T09:42:24.000Z</time>
      </trkpt>
      <trkpt lat="47.28782" lon="-2.36858">
        <ele>-16</ele>
        <time>2021-05-27T09:42:26.000Z</time>
      </trkpt>
      <trkpt lat="47.28781" lon="-2.36869">
        <ele>-16.60000038147</ele>
        <time>2021-05-27T09:42:27.000Z</time>
      </trkpt>
      <trkpt lat="47.28779" lon="-2.36878">
        <ele>-17.200000762939</ele>
        <time>2021-05-27T09:42:28.000Z</time>
      </trkpt>
      <trkpt lat="47.28776" lon="-2.36886">
        <ele>-18</ele>
        <time>2021-05-27T09:42:29.000Z</time>
      </trkpt>
      <trkpt lat="47.28772" lon="-2.36892">
        <ele>-18.60000038147</ele>
        <time>2021-05-27T09:42:30.000Z</time>
      </trkpt>
      <trkpt lat="47.28768" lon="-2.36898">
        <ele>-19.39999961853</ele>
        <time>2021-05-27T09:42:31.000Z</time>
      </trkpt>
      <trkpt lat="47.28764" lon="-2.36901">
        <ele>-20.200000762939</ele>
        <time>2021-05-27T09:42:32.000Z</time>
      </trkpt>
      <trkpt lat="47.28756" lon="-2.36905">
        <ele>-20.200000762939</ele>
        <time>2021-05-27T09:42:34.000Z</time>
      </trkpt>
      <trkpt lat="47.28752" lon="-2.36906">
        <ele>-20.200000762939</ele>
        <time>2021-05-27T09:42:35.000Z</time>
      </trkpt>
      <trkpt lat="47.28734" lon="-2.36907">
        <ele>-20.200000762939</ele>
        <time>2021-05-27T09:42:40.000Z</time>
      </trkpt>
      <trkpt lat="47.28727" lon="-2.36903">
        <ele>-19.60000038147</ele>
        <time>2021-05-27T09:42:43.000Z</time>
      </trkpt>
      <trkpt lat="47.28725" lon="-2.36901">
        <ele>-19.200000762939</ele>
        <time>2021-05-27T09:42:44.000Z</time>
      </trkpt>
      <trkpt lat="47.28724" lon="-2.369">
        <ele>-18.799999237061</ele>
        <time>2021-05-27T09:42:45.000Z</time>
      </trkpt>
      <trkpt lat="47.28723" lon="-2.36898">
        <ele>-18.39999961853</ele>
        <time>2021-05-27T09:42:46.000Z</time>
      </trkpt>
      <trkpt lat="47.28722" lon="-2.36896">
        <ele>-18</ele>
        <time>2021-05-27T09:42:47.000Z</time>
      </trkpt>
      <trkpt lat="47.28718" lon="-2.36884">
        <ele>-18</ele>
        <time>2021-05-27T09:42:51.000Z</time>
      </trkpt>
      <trkpt lat="47.28714" lon="-2.36877">
        <ele>-17.60000038147</ele>
        <time>2021-05-27T09:42:53.000Z</time>
      </trkpt>
      <trkpt lat="47.28712" lon="-2.36873">
        <ele>-17.200000762939</ele>
        <time>2021-05-27T09:42:54.000Z</time>
      </trkpt>
      <trkpt lat="47.28708" lon="-2.36868">
        <ele>-16.799999237061</ele>
        <time>2021-05-27T09:42:55.000Z</time>
      </trkpt>
      <trkpt lat="47.28704" lon="-2.36864">
        <ele>-16.39999961853</ele>
        <time>2021-05-27T09:42:56.000Z</time>
      </trkpt>
      <trkpt lat="47.28701" lon="-2.3686">
        <ele>-16</ele>
        <time>2021-05-27T09:42:57.000Z</time>
      </trkpt>
      <trkpt lat="47.28684" lon="-2.36831">
        <ele>-16</ele>
        <time>2021-05-27T09:43:04.000Z</time>
      </trkpt>
      <trkpt lat="47.28679" lon="-2.36821">
        <ele>-15.39999961853</ele>
        <time>2021-05-27T09:43:07.000Z</time>
      </trkpt>
      <trkpt lat="47.28677" lon="-2.36818">
        <ele>-15</ele>
        <time>2021-05-27T09:43:08.000Z</time>
      </trkpt>
      <trkpt lat="47.28674" lon="-2.36815">
        <ele>-14.60000038147</ele>
        <time>2021-05-27T09:43:09.000Z</time>
      </trkpt>
      <trkpt lat="47.28671" lon="-2.36813">
        <ele>-14.199999809265</ele>
        <time>2021-05-27T09:43:10.000Z</time>
      </trkpt>
      <trkpt lat="47.28667" lon="-2.36811">
        <ele>-13.800000190735</ele>
        <time>2021-05-27T09:43:11.000Z</time>
      </trkpt>
      <trkpt lat="47.2866" lon="-2.3681">
        <ele>-13.800000190735</ele>
        <time>2021-05-27T09:43:14.000Z</time>
      </trkpt>
      <trkpt lat="47.28656" lon="-2.36813">
        <ele>-13.800000190735</ele>
        <time>2021-05-27T09:43:16.000Z</time>
      </trkpt>
      <trkpt lat="47.28652" lon="-2.36818">
        <ele>-13.800000190735</ele>
        <time>2021-05-27T09:43:18.000Z</time>
      </trkpt>
      <trkpt lat="47.28638" lon="-2.36835">
        <ele>-13.800000190735</ele>
        <time>2021-05-27T09:43:22.000Z</time>
      </trkpt>
      <trkpt lat="47.28622" lon="-2.36847">
        <ele>-13.800000190735</ele>
        <time>2021-05-27T09:43:25.000Z</time>
      </trkpt>
      <trkpt lat="47.28604" lon="-2.36847">
        <ele>-14.199999809265</ele>
        <time>2021-05-27T09:43:27.000Z</time>
      </trkpt>
      <trkpt lat="47.28597" lon="-2.36844">
        <ele>-14.60000038147</ele>
        <time>2021-05-27T09:43:28.000Z</time>
      </trkpt>
      <trkpt lat="47.28591" lon="-2.3684">
        <ele>-15</ele>
        <time>2021-05-27T09:43:29.000Z</time>
      </trkpt>
      <trkpt lat="47.28588" lon="-2.36835">
        <ele>-15.39999961853</ele>
        <time>2021-05-27T09:43:30.000Z</time>
      </trkpt>
      <trkpt lat="47.28585" lon="-2.36829">
        <ele>-15.800000190735</ele>
        <time>2021-05-27T09:43:31.000Z</time>
      </trkpt>
      <trkpt lat="47.28581" lon="-2.36825">
        <ele>-15.800000190735</ele>
        <time>2021-05-27T09:43:32.000Z</time>
      </trkpt>
      <trkpt lat="47.28572" lon="-2.3681">
        <ele>-15.800000190735</ele>
        <time>2021-05-27T09:43:35.000Z</time>
      </trkpt>
      <trkpt lat="47.28554" lon="-2.36776">
        <ele>-15.800000190735</ele>
        <time>2021-05-27T09:43:41.000Z</time>
      </trkpt>
      <trkpt lat="47.2854" lon="-2.36747">
        <ele>-15.39999961853</ele>
        <time>2021-05-27T09:43:46.000Z</time>
      </trkpt>
      <trkpt lat="47.28537" lon="-2.36741">
        <ele>-15</ele>
        <time>2021-05-27T09:43:47.000Z</time>
      </trkpt>
      <trkpt lat="47.28534" lon="-2.36736">
        <ele>-14.199999809265</ele>
        <time>2021-05-27T09:43:48.000Z</time>
      </trkpt>
      <trkpt lat="47.28532" lon="-2.36731">
        <ele>-13.800000190735</ele>
        <time>2021-05-27T09:43:49.000Z</time>
      </trkpt>
      <trkpt lat="47.28521" lon="-2.36707">
        <ele>-13.800000190735</ele>
        <time>2021-05-27T09:43:54.000Z</time>
      </trkpt>
      <trkpt lat="47.2852" lon="-2.36704">
        <ele>-13.39999961853</ele>
        <time>2021-05-27T09:43:55.000Z</time>
      </trkpt>
      <trkpt lat="47.28518" lon="-2.36699">
        <ele>-13</ele>
        <time>2021-05-27T09:43:56.000Z</time>
      </trkpt>
      <trkpt lat="47.28517" lon="-2.36695">
        <ele>-12.60000038147</ele>
        <time>2021-05-27T09:43:57.000Z</time>
      </trkpt>
      <trkpt lat="47.28515" lon="-2.36692">
        <ele>-12.199999809265</ele>
        <time>2021-05-27T09:43:58.000Z</time>
      </trkpt>
      <trkpt lat="47.28513" lon="-2.36689">
        <ele>-11.800000190735</ele>
        <time>2021-05-27T09:43:59.000Z</time>
      </trkpt>
      <trkpt lat="47.2851" lon="-2.36687">
        <ele>-11.800000190735</ele>
        <time>2021-05-27T09:44:00.000Z</time>
      </trkpt>
      <trkpt lat="47.28495" lon="-2.36673">
        <ele>-11.800000190735</ele>
        <time>2021-05-27T09:44:06.000Z</time>
      </trkpt>
      <trkpt lat="47.28493" lon="-2.36668">
        <ele>-11.800000190735</ele>
        <time>2021-05-27T09:44:07.000Z</time>
      </trkpt>
      <trkpt lat="47.28488" lon="-2.36652">
        <ele>-11.39999961853</ele>
        <time>2021-05-27T09:44:10.000Z</time>
      </trkpt>
      <trkpt lat="47.28487" lon="-2.36646">
        <ele>-11</ele>
        <time>2021-05-27T09:44:11.000Z</time>
      </trkpt>
      <trkpt lat="47.28485" lon="-2.36641">
        <ele>-10.39999961853</ele>
        <time>2021-05-27T09:44:12.000Z</time>
      </trkpt>
      <trkpt lat="47.28484" lon="-2.36635">
        <ele>-9.6000003814697</ele>
        <time>2021-05-27T09:44:13.000Z</time>
      </trkpt>
      <trkpt lat="47.28482" lon="-2.3662">
        <ele>-9.6000003814697</ele>
        <time>2021-05-27T09:44:16.000Z</time>
      </trkpt>
      <trkpt lat="47.28474" lon="-2.36575">
        <ele>-9.6000003814697</ele>
        <time>2021-05-27T09:44:24.000Z</time>
      </trkpt>
      <trkpt lat="47.28469" lon="-2.36563">
        <ele>-9.6000003814697</ele>
        <time>2021-05-27T09:44:29.000Z</time>
      </trkpt>
      <trkpt lat="47.28471" lon="-2.36562">
        <ele>-9.6000003814697</ele>
        <time>2021-05-27T09:44:39.000Z</time>
      </trkpt>
      <trkpt lat="47.28476" lon="-2.36557">
        <ele>-9.6000003814697</ele>
        <time>2021-05-27T09:44:41.000Z</time>
      </trkpt>
      <trkpt lat="47.28484" lon="-2.36546">
        <ele>-9.6000003814697</ele>
        <time>2021-05-27T09:44:44.000Z</time>
      </trkpt>
      <trkpt lat="47.28493" lon="-2.36535">
        <ele>-9.6000003814697</ele>
        <time>2021-05-27T09:44:47.000Z</time>
      </trkpt>
      <trkpt lat="47.28515" lon="-2.36509">
        <ele>-9.1999998092651</ele>
        <time>2021-05-27T09:44:53.000Z</time>
      </trkpt>
      <trkpt lat="47.28518" lon="-2.36505">
        <ele>-8.8000001907349</ele>
        <time>2021-05-27T09:44:54.000Z</time>
      </trkpt>
      <trkpt lat="47.2852" lon="-2.36501">
        <ele>-8.3999996185303</ele>
        <time>2021-05-27T09:44:55.000Z</time>
      </trkpt>
      <trkpt lat="47.28523" lon="-2.36497">
        <ele>-8</ele>
        <time>2021-05-27T09:44:56.000Z</time>
      </trkpt>
      <trkpt lat="47.28524" lon="-2.36493">
        <ele>-7.4000000953674</ele>
        <time>2021-05-27T09:44:57.000Z</time>
      </trkpt>
      <trkpt lat="47.28526" lon="-2.36488">
        <ele>-7.4000000953674</ele>
        <time>2021-05-27T09:44:58.000Z</time>
      </trkpt>
      <trkpt lat="47.28521" lon="-2.36467">
        <ele>-7.4000000953674</ele>
        <time>2021-05-27T09:45:02.000Z</time>
      </trkpt>
      <trkpt lat="47.28509" lon="-2.36446">
        <ele>-7.4000000953674</ele>
        <time>2021-05-27T09:45:06.000Z</time>
      </trkpt>
      <trkpt lat="47.28501" lon="-2.36439">
        <ele>-7</ele>
        <time>2021-05-27T09:45:08.000Z</time>
      </trkpt>
      <trkpt lat="47.28497" lon="-2.36436">
        <ele>-6.5999999046326</ele>
        <time>2021-05-27T09:45:09.000Z</time>
      </trkpt>
      <trkpt lat="47.28493" lon="-2.36432">
        <ele>-6.1999998092651</ele>
        <time>2021-05-27T09:45:10.000Z</time>
      </trkpt>
      <trkpt lat="47.28489" lon="-2.36428">
        <ele>-5.8000001907349</ele>
        <time>2021-05-27T09:45:11.000Z</time>
      </trkpt>
      <trkpt lat="47.28485" lon="-2.36425">
        <ele>-5.4000000953674</ele>
        <time>2021-05-27T09:45:12.000Z</time>
      </trkpt>
      <trkpt lat="47.28473" lon="-2.36411">
        <ele>-5.4000000953674</ele>
        <time>2021-05-27T09:45:16.000Z</time>
      </trkpt>
      <trkpt lat="47.28465" lon="-2.36403">
        <ele>-5.4000000953674</ele>
        <time>2021-05-27T09:45:20.000Z</time>
      </trkpt>
      <trkpt lat="47.28454" lon="-2.36382">
        <ele>-5.4000000953674</ele>
        <time>2021-05-27T09:45:26.000Z</time>
      </trkpt>
      <trkpt lat="47.2844" lon="-2.36357">
        <ele>-5.4000000953674</ele>
        <time>2021-05-27T09:45:32.000Z</time>
      </trkpt>
      <trkpt lat="47.28419" lon="-2.36332">
        <ele>-5.4000000953674</ele>
        <time>2021-05-27T09:45:37.000Z</time>
      </trkpt>
      <trkpt lat="47.28413" lon="-2.36328">
        <ele>-5.8000001907349</ele>
        <time>2021-05-27T09:45:38.000Z</time>
      </trkpt>
      <trkpt lat="47.28408" lon="-2.36324">
        <ele>-6.1999998092651</ele>
        <time>2021-05-27T09:45:39.000Z</time>
      </trkpt>
      <trkpt lat="47.28403" lon="-2.36321">
        <ele>-6.5999999046326</ele>
        <time>2021-05-27T09:45:40.000Z</time>
      </trkpt>
      <trkpt lat="47.28397" lon="-2.36319">
        <ele>-7</ele>
        <time>2021-05-27T09:45:41.000Z</time>
      </trkpt>
      <trkpt lat="47.28392" lon="-2.36316">
        <ele>-7.5999999046326</ele>
        <time>2021-05-27T09:45:42.000Z</time>
      </trkpt>
      <trkpt lat="47.28387" lon="-2.36313">
        <ele>-7.5999999046326</ele>
        <time>2021-05-27T09:45:43.000Z</time>
      </trkpt>
      <trkpt lat="47.28375" lon="-2.36303">
        <ele>-7.5999999046326</ele>
        <time>2021-05-27T09:45:46.000Z</time>
      </trkpt>
      <trkpt lat="47.28372" lon="-2.36298">
        <ele>-8</ele>
        <time>2021-05-27T09:45:47.000Z</time>
      </trkpt>
      <trkpt lat="47.28369" lon="-2.36294">
        <ele>-8.3999996185303</ele>
        <time>2021-05-27T09:45:48.000Z</time>
      </trkpt>
      <trkpt lat="47.28367" lon="-2.36287">
        <ele>-8.8000001907349</ele>
        <time>2021-05-27T09:45:49.000Z</time>
      </trkpt>
      <trkpt lat="47.28364" lon="-2.36283">
        <ele>-9.1999998092651</ele>
        <time>2021-05-27T09:45:50.000Z</time>
      </trkpt>
      <trkpt lat="47.28364" lon="-2.36278">
        <ele>-9.6000003814697</ele>
        <time>2021-05-27T09:45:51.000Z</time>
      </trkpt>
      <trkpt lat="47.28365" lon="-2.36273">
        <ele>-9.6000003814697</ele>
        <time>2021-05-27T09:45:52.000Z</time>
      </trkpt>
      <trkpt lat="47.2837" lon="-2.36262">
        <ele>-9.6000003814697</ele>
        <time>2021-05-27T09:45:55.000Z</time>
      </trkpt>
      <trkpt lat="47.28375" lon="-2.36256">
        <ele>-9.6000003814697</ele>
        <time>2021-05-27T09:45:57.000Z</time>
      </trkpt>
      <trkpt lat="47.28385" lon="-2.36243">
        <ele>-9.1999998092651</ele>
        <time>2021-05-27T09:46:01.000Z</time>
      </trkpt>
      <trkpt lat="47.28387" lon="-2.36239">
        <ele>-8.8000001907349</ele>
        <time>2021-05-27T09:46:02.000Z</time>
      </trkpt>
      <trkpt lat="47.28389" lon="-2.36236">
        <ele>-8.1999998092651</ele>
        <time>2021-05-27T09:46:03.000Z</time>
      </trkpt>
      <trkpt lat="47.28392" lon="-2.36232">
        <ele>-7.8000001907349</ele>
        <time>2021-05-27T09:46:04.000Z</time>
      </trkpt>
      <trkpt lat="47.28395" lon="-2.3623">
        <ele>-7.4000000953674</ele>
        <time>2021-05-27T09:46:05.000Z</time>
      </trkpt>
      <trkpt lat="47.28403" lon="-2.36223">
        <ele>-7</ele>
        <time>2021-05-27T09:46:08.000Z</time>
      </trkpt>
      <trkpt lat="47.28407" lon="-2.3622">
        <ele>-6.5999999046326</ele>
        <time>2021-05-27T09:46:09.000Z</time>
      </trkpt>
      <trkpt lat="47.2841" lon="-2.36219">
        <ele>-6.1999998092651</ele>
        <time>2021-05-27T09:46:10.000Z</time>
      </trkpt>
      <trkpt lat="47.28413" lon="-2.36219">
        <ele>-5.8000001907349</ele>
        <time>2021-05-27T09:46:11.000Z</time>
      </trkpt>
      <trkpt lat="47.28415" lon="-2.36218">
        <ele>-5.1999998092651</ele>
        <time>2021-05-27T09:46:12.000Z</time>
      </trkpt>
      <trkpt lat="47.28424" lon="-2.36212">
        <ele>-5.1999998092651</ele>
        <time>2021-05-27T09:46:16.000Z</time>
      </trkpt>
      <trkpt lat="47.2843" lon="-2.36208">
        <ele>-5.1999998092651</ele>
        <time>2021-05-27T09:46:21.000Z</time>
      </trkpt>
      <trkpt lat="47.28433" lon="-2.36205">
        <ele>-5.1999998092651</ele>
        <time>2021-05-27T09:46:24.000Z</time>
      </trkpt>
      <trkpt lat="47.28443" lon="-2.3619">
        <ele>-3.2000000476837</ele>
        <time>2021-05-27T09:46:44.000Z</time>
      </trkpt>
      <trkpt lat="47.28441" lon="-2.36188">
        <ele>-3.2000000476837</ele>
        <time>2021-05-27T09:46:45.000Z</time>
      </trkpt>
      <trkpt lat="47.2844" lon="-2.36175">
        <ele>-3.2000000476837</ele>
        <time>2021-05-27T09:46:49.000Z</time>
      </trkpt>
      <trkpt lat="47.28441" lon="-2.36168">
        <ele>-2.7999999523163</ele>
        <time>2021-05-27T09:46:51.000Z</time>
      </trkpt>
      <trkpt lat="47.28443" lon="-2.36164">
        <ele>-2.4000000953674</ele>
        <time>2021-05-27T09:46:52.000Z</time>
      </trkpt>
      <trkpt lat="47.28444" lon="-2.36159">
        <ele>-2</ele>
        <time>2021-05-27T09:46:53.000Z</time>
      </trkpt>
      <trkpt lat="47.28444" lon="-2.36156">
        <ele>-1.6000000238419</ele>
        <time>2021-05-27T09:46:54.000Z</time>
      </trkpt>
      <trkpt lat="47.28442" lon="-2.36153">
        <ele>-1.2000000476837</ele>
        <time>2021-05-27T09:46:55.000Z</time>
      </trkpt>
      <trkpt lat="47.28441" lon="-2.3614">
        <ele>-0.80000001192093</ele>
        <time>2021-05-27T09:46:58.000Z</time>
      </trkpt>
      <trkpt lat="47.28441" lon="-2.36136">
        <ele>-0.40000000596046</ele>
        <time>2021-05-27T09:46:59.000Z</time>
      </trkpt>
      <trkpt lat="47.28441" lon="-2.36131">
        <ele>37.3</ele>
        <time>2021-05-27T09:47:00.000Z</time>
      </trkpt>
      <trkpt lat="47.2844" lon="-2.36128">
        <ele>0.40000000596046</ele>
        <time>2021-05-27T09:47:01.000Z</time>
      </trkpt>
      <trkpt lat="47.28439" lon="-2.36124">
        <ele>1</ele>
        <time>2021-05-27T09:47:02.000Z</time>
      </trkpt>
      <trkpt lat="47.28438" lon="-2.36111">
        <ele>1</ele>
        <time>2021-05-27T09:47:05.000Z</time>
      </trkpt>
      <trkpt lat="47.28438" lon="-2.36107">
        <ele>1.3999999761581</ele>
        <time>2021-05-27T09:47:06.000Z</time>
      </trkpt>
      <trkpt lat="47.28438" lon="-2.36103">
        <ele>1.7999999523163</ele>
        <time>2021-05-27T09:47:07.000Z</time>
      </trkpt>
      <trkpt lat="47.28437" lon="-2.36098">
        <ele>2.2000000476837</ele>
        <time>2021-05-27T09:47:08.000Z</time>
      </trkpt>
      <trkpt lat="47.28437" lon="-2.36094">
        <ele>2.5999999046326</ele>
        <time>2021-05-27T09:47:09.000Z</time>
      </trkpt>
      <trkpt lat="47.28437" lon="-2.3609">
        <ele>3</ele>
        <time>2021-05-27T09:47:10.000Z</time>
      </trkpt>
      <trkpt lat="47.28437" lon="-2.36081">
        <ele>3</ele>
        <time>2021-05-27T09:47:12.000Z</time>
      </trkpt>
      <trkpt lat="47.28438" lon="-2.36063">
        <ele>3.4000000953674</ele>
        <time>2021-05-27T09:47:16.000Z</time>
      </trkpt>
      <trkpt lat="47.28437" lon="-2.36059">
        <ele>3.7999999523163</ele>
        <time>2021-05-27T09:47:17.000Z</time>
      </trkpt>
      <trkpt lat="47.28437" lon="-2.36055">
        <ele>4.1999998092651</ele>
        <time>2021-05-27T09:47:18.000Z</time>
      </trkpt>
      <trkpt lat="47.28437" lon="-2.36051">
        <ele>4.5999999046326</ele>
        <time>2021-05-27T09:47:19.000Z</time>
      </trkpt>
      <trkpt lat="47.28437" lon="-2.36048">
        <ele>5.1999998092651</ele>
        <time>2021-05-27T09:47:20.000Z</time>
      </trkpt>
      <trkpt lat="47.28437" lon="-2.36033">
        <ele>5.1999998092651</ele>
        <time>2021-05-27T09:47:25.000Z</time>
      </trkpt>
      <trkpt lat="47.28439" lon="-2.36021">
        <ele>5.1999998092651</ele>
        <time>2021-05-27T09:47:31.000Z</time>
      </trkpt>
      <trkpt lat="47.28441" lon="-2.3602">
        <ele>5.5999999046326</ele>
        <time>2021-05-27T09:47:35.000Z</time>
      </trkpt>
      <trkpt lat="47.28442" lon="-2.36018">
        <ele>6</ele>
        <time>2021-05-27T09:47:36.000Z</time>
      </trkpt>
      <trkpt lat="47.28443" lon="-2.36016">
        <ele>6.4000000953674</ele>
        <time>2021-05-27T09:47:37.000Z</time>
      </trkpt>
      <trkpt lat="47.28443" lon="-2.36014">
        <ele>6.8000001907349</ele>
        <time>2021-05-27T09:47:38.000Z</time>
      </trkpt>
      <trkpt lat="47.28444" lon="-2.3601">
        <ele>7.1999998092651</ele>
        <time>2021-05-27T09:47:39.000Z</time>
      </trkpt>
      <trkpt lat="47.28447" lon="-2.36001">
        <ele>7.1999998092651</ele>
        <time>2021-05-27T09:47:42.000Z</time>
      </trkpt>
      <trkpt lat="47.28448" lon="-2.35996">
        <ele>7.1999998092651</ele>
        <time>2021-05-27T09:47:44.000Z</time>
      </trkpt>
      <trkpt lat="47.28448" lon="-2.35992">
        <ele>7.1999998092651</ele>
        <time>2021-05-27T09:47:46.000Z</time>
      </trkpt>
      <trkpt lat="47.28444" lon="-2.35988">
        <ele>7.1999998092651</ele>
        <time>2021-05-27T09:48:28.000Z</time>
      </trkpt>
      <trkpt lat="47.28435" lon="-2.35992">
        <ele>7.1999998092651</ele>
        <time>2021-05-27T09:48:32.000Z</time>
      </trkpt>
      <trkpt lat="47.2843" lon="-2.35996">
        <ele>7.1999998092651</ele>
        <time>2021-05-27T09:48:34.000Z</time>
      </trkpt>
      <trkpt lat="47.28412" lon="-2.36014">
        <ele>7.1999998092651</ele>
        <time>2021-05-27T09:48:39.000Z</time>
      </trkpt>
      <trkpt lat="47.28398" lon="-2.36019">
        <ele>7.1999998092651</ele>
        <time>2021-05-27T09:48:43.000Z</time>
      </trkpt>
      <trkpt lat="47.2838" lon="-2.36019">
        <ele>6.5999999046326</ele>
        <time>2021-05-27T09:48:47.000Z</time>
      </trkpt>
      <trkpt lat="47.28374" lon="-2.3602">
        <ele>6.1999998092651</ele>
        <time>2021-05-27T09:48:48.000Z</time>
      </trkpt>
      <trkpt lat="47.28367" lon="-2.36022">
        <ele>5.5999999046326</ele>
        <time>2021-05-27T09:48:49.000Z</time>
      </trkpt>
      <trkpt lat="47.2836" lon="-2.36024">
        <ele>5.1999998092651</ele>
        <time>2021-05-27T09:48:50.000Z</time>
      </trkpt>
      <trkpt lat="47.28351" lon="-2.36027">
        <ele>4.5999999046326</ele>
        <time>2021-05-27T09:48:51.000Z</time>
      </trkpt>
      <trkpt lat="47.28343" lon="-2.36029">
        <ele>4</ele>
        <time>2021-05-27T09:48:52.000Z</time>
      </trkpt>
      <trkpt lat="47.28334" lon="-2.36036">
        <ele>3.2000000476837</ele>
        <time>2021-05-27T09:48:53.000Z</time>
      </trkpt>
      <trkpt lat="47.28329" lon="-2.3604">
        <ele>2.4000000953674</ele>
        <time>2021-05-27T09:48:54.000Z</time>
      </trkpt>
      <trkpt lat="47.28322" lon="-2.36043">
        <ele>1.6000000238419</ele>
        <time>2021-05-27T09:48:55.000Z</time>
      </trkpt>
      <trkpt lat="47.28316" lon="-2.36044">
        <ele>1</ele>
        <time>2021-05-27T09:48:56.000Z</time>
      </trkpt>
      <trkpt lat="47.2831" lon="-2.36044">
        <ele>0.20000000298023</ele>
        <time>2021-05-27T09:48:57.000Z</time>
      </trkpt>
      <trkpt lat="47.28295" lon="-2.36042">
        <ele>-0.20000000298023</ele>
        <time>2021-05-27T09:49:00.000Z</time>
      </trkpt>
      <trkpt lat="47.2829" lon="-2.36039">
        <ele>-0.80000001192093</ele>
        <time>2021-05-27T09:49:01.000Z</time>
      </trkpt>
      <trkpt lat="47.28286" lon="-2.36035">
        <ele>-1.2000000476837</ele>
        <time>2021-05-27T09:49:02.000Z</time>
      </trkpt>
      <trkpt lat="47.28282" lon="-2.36029">
        <ele>-1.6000000238419</ele>
        <time>2021-05-27T09:49:03.000Z</time>
      </trkpt>
      <trkpt lat="47.28279" lon="-2.36023">
        <ele>-2.2000000476837</ele>
        <time>2021-05-27T09:49:04.000Z</time>
      </trkpt>
      <trkpt lat="47.28276" lon="-2.36017">
        <ele>-2.7999999523163</ele>
        <time>2021-05-27T09:49:05.000Z</time>
      </trkpt>
      <trkpt lat="47.28274" lon="-2.36012">
        <ele>-3.4000000953674</ele>
        <time>2021-05-27T09:49:06.000Z</time>
      </trkpt>
      <trkpt lat="47.28274" lon="-2.36006">
        <ele>-4</ele>
        <time>2021-05-27T09:49:07.000Z</time>
      </trkpt>
      <trkpt lat="47.28273" lon="-2.36">
        <ele>-5.5999999046326</ele>
        <time>2021-05-27T09:49:08.000Z</time>
      </trkpt>
      <trkpt lat="47.28273" lon="-2.35993">
        <ele>-6.1999998092651</ele>
        <time>2021-05-27T09:49:09.000Z</time>
      </trkpt>
      <trkpt lat="47.28272" lon="-2.35986">
        <ele>-7</ele>
        <time>2021-05-27T09:49:10.000Z</time>
      </trkpt>
      <trkpt lat="47.28272" lon="-2.3598">
        <ele>-7.8000001907349</ele>
        <time>2021-05-27T09:49:11.000Z</time>
      </trkpt>
      <trkpt lat="47.28271" lon="-2.35973">
        <ele>-8.6000003814697</ele>
        <time>2021-05-27T09:49:12.000Z</time>
      </trkpt>
      <trkpt lat="47.2827" lon="-2.35967">
        <ele>-9.3999996185303</ele>
        <time>2021-05-27T09:49:13.000Z</time>
      </trkpt>
      <trkpt lat="47.28259" lon="-2.35924">
        <ele>-9.3999996185303</ele>
        <time>2021-05-27T09:49:20.000Z</time>
      </trkpt>
      <trkpt lat="47.28248" lon="-2.35905">
        <ele>-9.3999996185303</ele>
        <time>2021-05-27T09:49:25.000Z</time>
      </trkpt>
      <trkpt lat="47.28245" lon="-2.35904">
        <ele>-9.3999996185303</ele>
        <time>2021-05-27T09:49:26.000Z</time>
      </trkpt>
      <trkpt lat="47.28221" lon="-2.35899">
        <ele>-9.3999996185303</ele>
        <time>2021-05-27T09:49:32.000Z</time>
      </trkpt>
      <trkpt lat="47.28211" lon="-2.35898">
        <ele>-9.3999996185303</ele>
        <time>2021-05-27T09:49:34.000Z</time>
      </trkpt>
      <trkpt lat="47.28196" lon="-2.35898">
        <ele>-9.3999996185303</ele>
        <time>2021-05-27T09:49:37.000Z</time>
      </trkpt>
      <trkpt lat="47.28183" lon="-2.35885">
        <ele>-9.3999996185303</ele>
        <time>2021-05-27T09:49:41.000Z</time>
      </trkpt>
      <trkpt lat="47.28176" lon="-2.35856">
        <ele>-9.3999996185303</ele>
        <time>2021-05-27T09:49:47.000Z</time>
      </trkpt>
      <trkpt lat="47.28174" lon="-2.35848">
        <ele>-9.3999996185303</ele>
        <time>2021-05-27T09:49:49.000Z</time>
      </trkpt>
      <trkpt lat="47.28169" lon="-2.35843">
        <ele>-9.3999996185303</ele>
        <time>2021-05-27T09:49:51.000Z</time>
      </trkpt>
      <trkpt lat="47.28151" lon="-2.35826">
        <ele>-9.3999996185303</ele>
        <time>2021-05-27T09:49:56.000Z</time>
      </trkpt>
      <trkpt lat="47.28144" lon="-2.35815">
        <ele>-9.3999996185303</ele>
        <time>2021-05-27T09:49:58.000Z</time>
      </trkpt>
      <trkpt lat="47.28139" lon="-2.35799">
        <ele>-9.3999996185303</ele>
        <time>2021-05-27T09:50:00.000Z</time>
      </trkpt>
      <trkpt lat="47.28138" lon="-2.35792">
        <ele>-9.3999996185303</ele>
        <time>2021-05-27T09:50:01.000Z</time>
      </trkpt>
      <trkpt lat="47.2813" lon="-2.3577">
        <ele>-9.3999996185303</ele>
        <time>2021-05-27T09:50:05.000Z</time>
      </trkpt>
      <trkpt lat="47.28124" lon="-2.35764">
        <ele>-9.8000001907349</ele>
        <time>2021-05-27T09:50:07.000Z</time>
      </trkpt>
      <trkpt lat="47.2812" lon="-2.35765">
        <ele>-10.199999809265</ele>
        <time>2021-05-27T09:50:08.000Z</time>
      </trkpt>
      <trkpt lat="47.28116" lon="-2.35768">
        <ele>-10.60000038147</ele>
        <time>2021-05-27T09:50:09.000Z</time>
      </trkpt>
      <trkpt lat="47.28113" lon="-2.35771">
        <ele>-11</ele>
        <time>2021-05-27T09:50:10.000Z</time>
      </trkpt>
      <trkpt lat="47.2811" lon="-2.35775">
        <ele>-11.60000038147</ele>
        <time>2021-05-27T09:50:11.000Z</time>
      </trkpt>
      <trkpt lat="47.28108" lon="-2.3578">
        <ele>-11.60000038147</ele>
        <time>2021-05-27T09:50:12.000Z</time>
      </trkpt>
      <trkpt lat="47.28105" lon="-2.35785">
        <ele>-11.60000038147</ele>
        <time>2021-05-27T09:50:13.000Z</time>
      </trkpt>
      <trkpt lat="47.28094" lon="-2.3581">
        <ele>-11.60000038147</ele>
        <time>2021-05-27T09:50:18.000Z</time>
      </trkpt>
      <trkpt lat="47.28088" lon="-2.35812">
        <ele>-11.60000038147</ele>
        <time>2021-05-27T09:50:19.000Z</time>
      </trkpt>
      <trkpt lat="47.2808" lon="-2.35813">
        <ele>-11.60000038147</ele>
        <time>2021-05-27T09:50:21.000Z</time>
      </trkpt>
      <trkpt lat="47.28074" lon="-2.35802">
        <ele>-11.60000038147</ele>
        <time>2021-05-27T09:50:25.000Z</time>
      </trkpt>
      <trkpt lat="47.28073" lon="-2.35799">
        <ele>-11</ele>
        <time>2021-05-27T09:50:26.000Z</time>
      </trkpt>
      <trkpt lat="47.28072" lon="-2.35794">
        <ele>-10.60000038147</ele>
        <time>2021-05-27T09:50:27.000Z</time>
      </trkpt>
      <trkpt lat="47.28071" lon="-2.3579">
        <ele>-10.199999809265</ele>
        <time>2021-05-27T09:50:28.000Z</time>
      </trkpt>
      <trkpt lat="47.28071" lon="-2.35786">
        <ele>-9.8000001907349</ele>
        <time>2021-05-27T09:50:29.000Z</time>
      </trkpt>
      <trkpt lat="47.28073" lon="-2.3578">
        <ele>-9.3999996185303</ele>
        <time>2021-05-27T09:50:30.000Z</time>
      </trkpt>
      <trkpt lat="47.28075" lon="-2.35775">
        <ele>-9.3999996185303</ele>
        <time>2021-05-27T09:50:31.000Z</time>
      </trkpt>
      <trkpt lat="47.2808" lon="-2.35743">
        <ele>-8.8000001907349</ele>
        <time>2021-05-27T09:50:36.000Z</time>
      </trkpt>
      <trkpt lat="47.28082" lon="-2.35736">
        <ele>-8.3999996185303</ele>
        <time>2021-05-27T09:50:37.000Z</time>
      </trkpt>
      <trkpt lat="47.28084" lon="-2.3573">
        <ele>-8</ele>
        <time>2021-05-27T09:50:38.000Z</time>
      </trkpt>
      <trkpt lat="47.28086" lon="-2.35723">
        <ele>-7.4000000953674</ele>
        <time>2021-05-27T09:50:39.000Z</time>
      </trkpt>
      <trkpt lat="47.28088" lon="-2.35716">
        <ele>-7</ele>
        <time>2021-05-27T09:50:40.000Z</time>
      </trkpt>
      <trkpt lat="47.28089" lon="-2.35709">
        <ele>-7</ele>
        <time>2021-05-27T09:50:41.000Z</time>
      </trkpt>
      <trkpt lat="47.28088" lon="-2.35702">
        <ele>-7</ele>
        <time>2021-05-27T09:50:42.000Z</time>
      </trkpt>
      <trkpt lat="47.28081" lon="-2.35671">
        <ele>-7</ele>
        <time>2021-05-27T09:50:46.000Z</time>
      </trkpt>
      <trkpt lat="47.28073" lon="-2.35642">
        <ele>-7.5999999046326</ele>
        <time>2021-05-27T09:50:50.000Z</time>
      </trkpt>
      <trkpt lat="47.28071" lon="-2.35635">
        <ele>-8</ele>
        <time>2021-05-27T09:50:51.000Z</time>
      </trkpt>
      <trkpt lat="47.28071" lon="-2.35628">
        <ele>-8.3999996185303</ele>
        <time>2021-05-27T09:50:52.000Z</time>
      </trkpt>
      <trkpt lat="47.28072" lon="-2.35623">
        <ele>-9</ele>
        <time>2021-05-27T09:50:53.000Z</time>
      </trkpt>
      <trkpt lat="47.28073" lon="-2.35619">
        <ele>-9.6000003814697</ele>
        <time>2021-05-27T09:50:54.000Z</time>
      </trkpt>
      <trkpt lat="47.28076" lon="-2.35617">
        <ele>-10.199999809265</ele>
        <time>2021-05-27T09:50:55.000Z</time>
      </trkpt>
      <trkpt lat="47.28078" lon="-2.35618">
        <ele>-10.800000190735</ele>
        <time>2021-05-27T09:50:56.000Z</time>
      </trkpt>
      <trkpt lat="47.28081" lon="-2.3562">
        <ele>-11.39999961853</ele>
        <time>2021-05-27T09:50:57.000Z</time>
      </trkpt>
      <trkpt lat="47.28085" lon="-2.35626">
        <ele>-11.39999961853</ele>
        <time>2021-05-27T09:51:01.000Z</time>
      </trkpt>
      <trkpt lat="47.28085" lon="-2.35627">
        <ele>-11.39999961853</ele>
        <time>2021-05-27T09:51:02.000Z</time>
      </trkpt>
      <trkpt lat="47.28084" lon="-2.35622">
        <ele>-11.39999961853</ele>
        <time>2021-05-27T09:59:18.000Z</time>
      </trkpt>
      <trkpt lat="47.2808" lon="-2.35618">
        <ele>-11.39999961853</ele>
        <time>2021-05-27T09:59:20.000Z</time>
      </trkpt>
      <trkpt lat="47.28071" lon="-2.356">
        <ele>-11.39999961853</ele>
        <time>2021-05-27T09:59:26.000Z</time>
      </trkpt>
      <trkpt lat="47.28066" lon="-2.35589">
        <ele>-11.39999961853</ele>
        <time>2021-05-27T09:59:29.000Z</time>
      </trkpt>
      <trkpt lat="47.2806" lon="-2.35586">
        <ele>-11.39999961853</ele>
        <time>2021-05-27T09:59:31.000Z</time>
      </trkpt>
      <trkpt lat="47.28053" lon="-2.35584">
        <ele>-11.39999961853</ele>
        <time>2021-05-27T09:59:33.000Z</time>
      </trkpt>
      <trkpt lat="47.28038" lon="-2.35579">
        <ele>-11.39999961853</ele>
        <time>2021-05-27T09:59:37.000Z</time>
      </trkpt>
      <trkpt lat="47.28033" lon="-2.35578">
        <ele>-11.39999961853</ele>
        <time>2021-05-27T09:59:38.000Z</time>
      </trkpt>
      <trkpt lat="47.28016" lon="-2.35581">
        <ele>-11.39999961853</ele>
        <time>2021-05-27T09:59:42.000Z</time>
      </trkpt>
      <trkpt lat="47.27999" lon="-2.35587">
        <ele>-11.39999961853</ele>
        <time>2021-05-27T09:59:46.000Z</time>
      </trkpt>
      <trkpt lat="47.27992" lon="-2.3559">
        <ele>-11.39999961853</ele>
        <time>2021-05-27T09:59:48.000Z</time>
      </trkpt>
      <trkpt lat="47.27974" lon="-2.35588">
        <ele>-11.39999961853</ele>
        <time>2021-05-27T09:59:53.000Z</time>
      </trkpt>
      <trkpt lat="47.27961" lon="-2.35585">
        <ele>-11.39999961853</ele>
        <time>2021-05-27T09:59:56.000Z</time>
      </trkpt>
      <trkpt lat="47.27956" lon="-2.35586">
        <ele>-12</ele>
        <time>2021-05-27T09:59:57.000Z</time>
      </trkpt>
      <trkpt lat="47.27952" lon="-2.35587">
        <ele>-12.39999961853</ele>
        <time>2021-05-27T09:59:58.000Z</time>
      </trkpt>
      <trkpt lat="47.27947" lon="-2.35588">
        <ele>-12.800000190735</ele>
        <time>2021-05-27T09:59:59.000Z</time>
      </trkpt>
      <trkpt lat="47.27943" lon="-2.35589">
        <ele>-13.199999809265</ele>
        <time>2021-05-27T10:00:00.000Z</time>
      </trkpt>
      <trkpt lat="47.27939" lon="-2.35589">
        <ele>-13.60000038147</ele>
        <time>2021-05-27T10:00:01.000Z</time>
      </trkpt>
      <trkpt lat="47.27924" lon="-2.35591">
        <ele>-13.60000038147</ele>
        <time>2021-05-27T10:00:04.000Z</time>
      </trkpt>
      <trkpt lat="47.27879" lon="-2.356">
        <ele>-14</ele>
        <time>2021-05-27T10:00:13.000Z</time>
      </trkpt>
      <trkpt lat="47.27874" lon="-2.35601">
        <ele>-14.60000038147</ele>
        <time>2021-05-27T10:00:14.000Z</time>
      </trkpt>
      <trkpt lat="47.27868" lon="-2.35602">
        <ele>-15.39999961853</ele>
        <time>2021-05-27T10:00:15.000Z</time>
      </trkpt>
      <trkpt lat="47.27863" lon="-2.35603">
        <ele>-15.800000190735</ele>
        <time>2021-05-27T10:00:16.000Z</time>
      </trkpt>
      <trkpt lat="47.27842" lon="-2.35608">
        <ele>-15.800000190735</ele>
        <time>2021-05-27T10:00:20.000Z</time>
      </trkpt>
      <trkpt lat="47.27837" lon="-2.35609">
        <ele>-15.800000190735</ele>
        <time>2021-05-27T10:00:21.000Z</time>
      </trkpt>
      <trkpt lat="47.27831" lon="-2.35612">
        <ele>-15.800000190735</ele>
        <time>2021-05-27T10:00:22.000Z</time>
      </trkpt>
      <trkpt lat="47.27808" lon="-2.35619">
        <ele>-15.800000190735</ele>
        <time>2021-05-27T10:00:26.000Z</time>
      </trkpt>
      <trkpt lat="47.27796" lon="-2.35622">
        <ele>-16.200000762939</ele>
        <time>2021-05-27T10:00:28.000Z</time>
      </trkpt>
      <trkpt lat="47.2779" lon="-2.35624">
        <ele>-16.60000038147</ele>
        <time>2021-05-27T10:00:29.000Z</time>
      </trkpt>
      <trkpt lat="47.27784" lon="-2.35627">
        <ele>-17</ele>
        <time>2021-05-27T10:00:30.000Z</time>
      </trkpt>
      <trkpt lat="47.27779" lon="-2.3563">
        <ele>-17.39999961853</ele>
        <time>2021-05-27T10:00:31.000Z</time>
      </trkpt>
      <trkpt lat="47.27773" lon="-2.35635">
        <ele>-17.799999237061</ele>
        <time>2021-05-27T10:00:32.000Z</time>
      </trkpt>
      <trkpt lat="47.27758" lon="-2.35651">
        <ele>-17.799999237061</ele>
        <time>2021-05-27T10:00:35.000Z</time>
      </trkpt>
      <trkpt lat="47.27744" lon="-2.35668">
        <ele>-17.799999237061</ele>
        <time>2021-05-27T10:00:38.000Z</time>
      </trkpt>
      <trkpt lat="47.2772" lon="-2.35705">
        <ele>-18.39999961853</ele>
        <time>2021-05-27T10:00:44.000Z</time>
      </trkpt>
      <trkpt lat="47.27716" lon="-2.3571">
        <ele>-18.799999237061</ele>
        <time>2021-05-27T10:00:45.000Z</time>
      </trkpt>
      <trkpt lat="47.27712" lon="-2.35715">
        <ele>-19.200000762939</ele>
        <time>2021-05-27T10:00:46.000Z</time>
      </trkpt>
      <trkpt lat="47.27708" lon="-2.35719">
        <ele>-19.799999237061</ele>
        <time>2021-05-27T10:00:47.000Z</time>
      </trkpt>
      <trkpt lat="47.27703" lon="-2.35724">
        <ele>-20.200000762939</ele>
        <time>2021-05-27T10:00:48.000Z</time>
      </trkpt>
      <trkpt lat="47.27688" lon="-2.35735">
        <ele>-20.200000762939</ele>
        <time>2021-05-27T10:00:51.000Z</time>
      </trkpt>
      <trkpt lat="47.27683" lon="-2.3574">
        <ele>-20.200000762939</ele>
        <time>2021-05-27T10:00:52.000Z</time>
      </trkpt>
      <trkpt lat="47.27676" lon="-2.35748">
        <ele>-20.200000762939</ele>
        <time>2021-05-27T10:00:54.000Z</time>
      </trkpt>
      <trkpt lat="47.27672" lon="-2.35749">
        <ele>-20.200000762939</ele>
        <time>2021-05-27T10:00:55.000Z</time>
      </trkpt>
      <trkpt lat="47.27665" lon="-2.35743">
        <ele>-20.60000038147</ele>
        <time>2021-05-27T10:00:57.000Z</time>
      </trkpt>
      <trkpt lat="47.27662" lon="-2.35737">
        <ele>-21</ele>
        <time>2021-05-27T10:00:58.000Z</time>
      </trkpt>
      <trkpt lat="47.27659" lon="-2.35732">
        <ele>-21.39999961853</ele>
        <time>2021-05-27T10:00:59.000Z</time>
      </trkpt>
      <trkpt lat="47.27656" lon="-2.35728">
        <ele>-21.799999237061</ele>
        <time>2021-05-27T10:01:00.000Z</time>
      </trkpt>
      <trkpt lat="47.27652" lon="-2.35725">
        <ele>-22.200000762939</ele>
        <time>2021-05-27T10:01:01.000Z</time>
      </trkpt>
      <trkpt lat="47.27647" lon="-2.35722">
        <ele>-22.200000762939</ele>
        <time>2021-05-27T10:01:02.000Z</time>
      </trkpt>
      <trkpt lat="47.2763" lon="-2.35716">
        <ele>-22.200000762939</ele>
        <time>2021-05-27T10:01:05.000Z</time>
      </trkpt>
      <trkpt lat="47.27624" lon="-2.35714">
        <ele>-22.200000762939</ele>
        <time>2021-05-27T10:01:06.000Z</time>
      </trkpt>
      <trkpt lat="47.2758" lon="-2.35703">
        <ele>-22.200000762939</ele>
        <time>2021-05-27T10:01:13.000Z</time>
      </trkpt>
      <trkpt lat="47.27557" lon="-2.35697">
        <ele>-22.60000038147</ele>
        <time>2021-05-27T10:01:17.000Z</time>
      </trkpt>
      <trkpt lat="47.2755" lon="-2.35695">
        <ele>-23</ele>
        <time>2021-05-27T10:01:18.000Z</time>
      </trkpt>
      <trkpt lat="47.27544" lon="-2.35694">
        <ele>-23.60000038147</ele>
        <time>2021-05-27T10:01:19.000Z</time>
      </trkpt>
      <trkpt lat="47.27538" lon="-2.35693">
        <ele>-24</ele>
        <time>2021-05-27T10:01:20.000Z</time>
      </trkpt>
      <trkpt lat="47.27532" lon="-2.35692">
        <ele>-24.39999961853</ele>
        <time>2021-05-27T10:01:21.000Z</time>
      </trkpt>
      <trkpt lat="47.27494" lon="-2.35682">
        <ele>-24.39999961853</ele>
        <time>2021-05-27T10:01:27.000Z</time>
      </trkpt>
      <trkpt lat="47.27464" lon="-2.35677">
        <ele>-24.799999237061</ele>
        <time>2021-05-27T10:01:32.000Z</time>
      </trkpt>
      <trkpt lat="47.27458" lon="-2.35676">
        <ele>-25.200000762939</ele>
        <time>2021-05-27T10:01:33.000Z</time>
      </trkpt>
      <trkpt lat="47.27452" lon="-2.35675">
        <ele>-25.60000038147</ele>
        <time>2021-05-27T10:01:34.000Z</time>
      </trkpt>
      <trkpt lat="47.27446" lon="-2.35674">
        <ele>-26</ele>
        <time>2021-05-27T10:01:35.000Z</time>
      </trkpt>
      <trkpt lat="47.27441" lon="-2.35673">
        <ele>-26.39999961853</ele>
        <time>2021-05-27T10:01:36.000Z</time>
      </trkpt>
      <trkpt lat="47.2742" lon="-2.35668">
        <ele>-26.39999961853</ele>
        <time>2021-05-27T10:01:40.000Z</time>
      </trkpt>
      <trkpt lat="47.27414" lon="-2.35667">
        <ele>-26.39999961853</ele>
        <time>2021-05-27T10:01:41.000Z</time>
      </trkpt>
      <trkpt lat="47.27397" lon="-2.35671">
        <ele>-26.39999961853</ele>
        <time>2021-05-27T10:01:44.000Z</time>
      </trkpt>
      <trkpt lat="47.27381" lon="-2.35681">
        <ele>-26.39999961853</ele>
        <time>2021-05-27T10:01:47.000Z</time>
      </trkpt>
      <trkpt lat="47.2737" lon="-2.35689">
        <ele>-26.39999961853</ele>
        <time>2021-05-27T10:01:49.000Z</time>
      </trkpt>
      <trkpt lat="47.27338" lon="-2.35709">
        <ele>-26.39999961853</ele>
        <time>2021-05-27T10:01:55.000Z</time>
      </trkpt>
      <trkpt lat="47.27335" lon="-2.35711">
        <ele>-26.39999961853</ele>
        <time>2021-05-27T10:01:56.000Z</time>
      </trkpt>
      <trkpt lat="47.27332" lon="-2.35712">
        <ele>-26.799999237061</ele>
        <time>2021-05-27T10:01:57.000Z</time>
      </trkpt>
      <trkpt lat="47.2733" lon="-2.35712">
        <ele>-27.200000762939</ele>
        <time>2021-05-27T10:01:58.000Z</time>
      </trkpt>
      <trkpt lat="47.27329" lon="-2.35712">
        <ele>-27.799999237061</ele>
        <time>2021-05-27T10:01:59.000Z</time>
      </trkpt>
      <trkpt lat="47.27329" lon="-2.35713">
        <ele>-28.200000762939</ele>
        <time>2021-05-27T10:02:00.000Z</time>
      </trkpt>
      <trkpt lat="47.27329" lon="-2.35713">
        <ele>-28.60000038147</ele>
        <time>2021-05-27T10:02:01.000Z</time>
      </trkpt>
      <trkpt lat="47.27325" lon="-2.35719">
        <ele>-28.60000038147</ele>
        <time>2021-05-27T10:02:06.000Z</time>
      </trkpt>
      <trkpt lat="47.27319" lon="-2.35735">
        <ele>-28.60000038147</ele>
        <time>2021-05-27T10:02:12.000Z</time>
      </trkpt>
      <trkpt lat="47.27312" lon="-2.35743">
        <ele>-28.60000038147</ele>
        <time>2021-05-27T10:02:17.000Z</time>
      </trkpt>
      <trkpt lat="47.27306" lon="-2.3574">
        <ele>-28.60000038147</ele>
        <time>2021-05-27T10:02:19.000Z</time>
      </trkpt>
      <trkpt lat="47.27304" lon="-2.35736">
        <ele>-28.60000038147</ele>
        <time>2021-05-27T10:02:20.000Z</time>
      </trkpt>
      <trkpt lat="47.27299" lon="-2.3572">
        <ele>-28.60000038147</ele>
        <time>2021-05-27T10:02:23.000Z</time>
      </trkpt>
      <trkpt lat="47.27297" lon="-2.35713">
        <ele>-28.60000038147</ele>
        <time>2021-05-27T10:02:24.000Z</time>
      </trkpt>
      <trkpt lat="47.27295" lon="-2.35707">
        <ele>-28.60000038147</ele>
        <time>2021-05-27T10:02:25.000Z</time>
      </trkpt>
      <trkpt lat="47.27282" lon="-2.35685">
        <ele>-28.60000038147</ele>
        <time>2021-05-27T10:02:29.000Z</time>
      </trkpt>
      <trkpt lat="47.27279" lon="-2.35679">
        <ele>-28.200000762939</ele>
        <time>2021-05-27T10:02:30.000Z</time>
      </trkpt>
      <trkpt lat="47.27276" lon="-2.35673">
        <ele>-27.799999237061</ele>
        <time>2021-05-27T10:02:31.000Z</time>
      </trkpt>
      <trkpt lat="47.27274" lon="-2.35667">
        <ele>-27.39999961853</ele>
        <time>2021-05-27T10:02:32.000Z</time>
      </trkpt>
      <trkpt lat="47.27271" lon="-2.35661">
        <ele>-27</ele>
        <time>2021-05-27T10:02:33.000Z</time>
      </trkpt>
      <trkpt lat="47.27269" lon="-2.35655">
        <ele>-26.60000038147</ele>
        <time>2021-05-27T10:02:34.000Z</time>
      </trkpt>
      <trkpt lat="47.27267" lon="-2.3565">
        <ele>-26.60000038147</ele>
        <time>2021-05-27T10:02:35.000Z</time>
      </trkpt>
      <trkpt lat="47.27248" lon="-2.35606">
        <ele>-26.60000038147</ele>
        <time>2021-05-27T10:02:43.000Z</time>
      </trkpt>
      <trkpt lat="47.27222" lon="-2.35548">
        <ele>-26.60000038147</ele>
        <time>2021-05-27T10:02:53.000Z</time>
      </trkpt>
      <trkpt lat="47.27196" lon="-2.35491">
        <ele>-26.60000038147</ele>
        <time>2021-05-27T10:03:02.000Z</time>
      </trkpt>
      <trkpt lat="47.27169" lon="-2.3544">
        <ele>-26.60000038147</ele>
        <time>2021-05-27T10:03:10.000Z</time>
      </trkpt>
      <trkpt lat="47.27134" lon="-2.35372">
        <ele>-26.60000038147</ele>
        <time>2021-05-27T10:03:20.000Z</time>
      </trkpt>
      <trkpt lat="47.27107" lon="-2.35327">
        <ele>-26.60000038147</ele>
        <time>2021-05-27T10:03:27.000Z</time>
      </trkpt>
      <trkpt lat="47.27068" lon="-2.35265">
        <ele>-26.60000038147</ele>
        <time>2021-05-27T10:03:37.000Z</time>
      </trkpt>
      <trkpt lat="47.27064" lon="-2.35258">
        <ele>-26.60000038147</ele>
        <time>2021-05-27T10:03:38.000Z</time>
      </trkpt>
      <trkpt lat="47.27031" lon="-2.35208">
        <ele>-26.60000038147</ele>
        <time>2021-05-27T10:03:47.000Z</time>
      </trkpt>
      <trkpt lat="47.26991" lon="-2.35145">
        <ele>-26.60000038147</ele>
        <time>2021-05-27T10:03:57.000Z</time>
      </trkpt>
      <trkpt lat="47.26954" lon="-2.35089">
        <ele>-26.60000038147</ele>
        <time>2021-05-27T10:04:06.000Z</time>
      </trkpt>
      <trkpt lat="47.26918" lon="-2.35033">
        <ele>-26.60000038147</ele>
        <time>2021-05-27T10:04:15.000Z</time>
      </trkpt>
      <trkpt lat="47.26881" lon="-2.34977">
        <ele>-26.60000038147</ele>
        <time>2021-05-27T10:04:24.000Z</time>
      </trkpt>
      <trkpt lat="47.26846" lon="-2.34922">
        <ele>-26.60000038147</ele>
        <time>2021-05-27T10:04:33.000Z</time>
      </trkpt>
      <trkpt lat="47.26806" lon="-2.34864">
        <ele>-26.60000038147</ele>
        <time>2021-05-27T10:04:43.000Z</time>
      </trkpt>
      <trkpt lat="47.26767" lon="-2.3481">
        <ele>-26.60000038147</ele>
        <time>2021-05-27T10:04:52.000Z</time>
      </trkpt>
      <trkpt lat="47.26739" lon="-2.34775">
        <ele>-26.60000038147</ele>
        <time>2021-05-27T10:04:58.000Z</time>
      </trkpt>
      <trkpt lat="47.26708" lon="-2.34737">
        <ele>-26.60000038147</ele>
        <time>2021-05-27T10:05:05.000Z</time>
      </trkpt>
      <trkpt lat="47.26676" lon="-2.34697">
        <ele>-26.60000038147</ele>
        <time>2021-05-27T10:05:13.000Z</time>
      </trkpt>
      <trkpt lat="47.26644" lon="-2.34657">
        <ele>-26.60000038147</ele>
        <time>2021-05-27T10:05:20.000Z</time>
      </trkpt>
      <trkpt lat="47.26608" lon="-2.34613">
        <ele>-26.60000038147</ele>
        <time>2021-05-27T10:05:27.000Z</time>
      </trkpt>
      <trkpt lat="47.26572" lon="-2.34571">
        <ele>-26.60000038147</ele>
        <time>2021-05-27T10:05:34.000Z</time>
      </trkpt>
      <trkpt lat="47.26531" lon="-2.34529">
        <ele>-26.60000038147</ele>
        <time>2021-05-27T10:05:42.000Z</time>
      </trkpt>
      <trkpt lat="47.26492" lon="-2.34499">
        <ele>-26.60000038147</ele>
        <time>2021-05-27T10:05:49.000Z</time>
      </trkpt>
      <trkpt lat="47.26441" lon="-2.34463">
        <ele>-26.60000038147</ele>
        <time>2021-05-27T10:05:58.000Z</time>
      </trkpt>
      <trkpt lat="47.2643" lon="-2.34455">
        <ele>-26.60000038147</ele>
        <time>2021-05-27T10:06:00.000Z</time>
      </trkpt>
      <trkpt lat="47.26382" lon="-2.34417">
        <ele>-26.60000038147</ele>
        <time>2021-05-27T10:06:09.000Z</time>
      </trkpt>
      <trkpt lat="47.26348" lon="-2.34387">
        <ele>-26.60000038147</ele>
        <time>2021-05-27T10:06:16.000Z</time>
      </trkpt>
      <trkpt lat="47.26338" lon="-2.34381">
        <ele>-26.60000038147</ele>
        <time>2021-05-27T10:06:18.000Z</time>
      </trkpt>
      <trkpt lat="47.26328" lon="-2.34379">
        <ele>-26.60000038147</ele>
        <time>2021-05-27T10:06:20.000Z</time>
      </trkpt>
      <trkpt lat="47.26316" lon="-2.34363">
        <ele>-26.60000038147</ele>
        <time>2021-05-27T10:06:23.000Z</time>
      </trkpt>
      <trkpt lat="47.26312" lon="-2.34357">
        <ele>-26.60000038147</ele>
        <time>2021-05-27T10:06:24.000Z</time>
      </trkpt>
      <trkpt lat="47.26308" lon="-2.34351">
        <ele>-26.60000038147</ele>
        <time>2021-05-27T10:06:25.000Z</time>
      </trkpt>
      <trkpt lat="47.26293" lon="-2.34335">
        <ele>-26.60000038147</ele>
        <time>2021-05-27T10:06:28.000Z</time>
      </trkpt>
      <trkpt lat="47.26255" lon="-2.34296">
        <ele>-26.60000038147</ele>
        <time>2021-05-27T10:06:36.000Z</time>
      </trkpt>
      <trkpt lat="47.26222" lon="-2.34259">
        <ele>-26.60000038147</ele>
        <time>2021-05-27T10:06:44.000Z</time>
      </trkpt>
      <trkpt lat="47.26183" lon="-2.3422">
        <ele>-26.60000038147</ele>
        <time>2021-05-27T10:06:53.000Z</time>
      </trkpt>
      <trkpt lat="47.26146" lon="-2.34187">
        <ele>-26.60000038147</ele>
        <time>2021-05-27T10:07:01.000Z</time>
      </trkpt>
      <trkpt lat="47.2613" lon="-2.34177">
        <ele>-26.60000038147</ele>
        <time>2021-05-27T10:07:04.000Z</time>
      </trkpt>
      <trkpt lat="47.26126" lon="-2.34172">
        <ele>-26.60000038147</ele>
        <time>2021-05-27T10:07:05.000Z</time>
      </trkpt>
      <trkpt lat="47.26105" lon="-2.34156">
        <ele>-26.60000038147</ele>
        <time>2021-05-27T10:07:09.000Z</time>
      </trkpt>
      <trkpt lat="47.26099" lon="-2.34154">
        <ele>-26.60000038147</ele>
        <time>2021-05-27T10:07:10.000Z</time>
      </trkpt>
      <trkpt lat="47.26064" lon="-2.34135">
        <ele>-26.60000038147</ele>
        <time>2021-05-27T10:07:16.000Z</time>
      </trkpt>
      <trkpt lat="47.26026" lon="-2.34116">
        <ele>-27</ele>
        <time>2021-05-27T10:07:23.000Z</time>
      </trkpt>
      <trkpt lat="47.26021" lon="-2.34114">
        <ele>-27.39999961853</ele>
        <time>2021-05-27T10:07:24.000Z</time>
      </trkpt>
      <trkpt lat="47.26015" lon="-2.34111">
        <ele>-27.799999237061</ele>
        <time>2021-05-27T10:07:25.000Z</time>
      </trkpt>
      <trkpt lat="47.2601" lon="-2.34108">
        <ele>-28.200000762939</ele>
        <time>2021-05-27T10:07:26.000Z</time>
      </trkpt>
      <trkpt lat="47.26004" lon="-2.34106">
        <ele>-28.60000038147</ele>
        <time>2021-05-27T10:07:27.000Z</time>
      </trkpt>
      <trkpt lat="47.25978" lon="-2.34093">
        <ele>-28.60000038147</ele>
        <time>2021-05-27T10:07:32.000Z</time>
      </trkpt>
      <trkpt lat="47.25945" lon="-2.34079">
        <ele>-28.60000038147</ele>
        <time>2021-05-27T10:07:39.000Z</time>
      </trkpt>
      <trkpt lat="47.25925" lon="-2.34073">
        <ele>-28.60000038147</ele>
        <time>2021-05-27T10:07:43.000Z</time>
      </trkpt>
      <trkpt lat="47.25914" lon="-2.34073">
        <ele>-28.60000038147</ele>
        <time>2021-05-27T10:07:45.000Z</time>
      </trkpt>
      <trkpt lat="47.25909" lon="-2.34071">
        <ele>-28.60000038147</ele>
        <time>2021-05-27T10:07:46.000Z</time>
      </trkpt>
      <trkpt lat="47.25902" lon="-2.34062">
        <ele>-28.60000038147</ele>
        <time>2021-05-27T10:07:48.000Z</time>
      </trkpt>
      <trkpt lat="47.25896" lon="-2.34041">
        <ele>-28.60000038147</ele>
        <time>2021-05-27T10:07:51.000Z</time>
      </trkpt>
      <trkpt lat="47.25902" lon="-2.34017">
        <ele>-28.60000038147</ele>
        <time>2021-05-27T10:07:55.000Z</time>
      </trkpt>
      <trkpt lat="47.25907" lon="-2.33998">
        <ele>-28.60000038147</ele>
        <time>2021-05-27T10:07:58.000Z</time>
      </trkpt>
      <trkpt lat="47.25911" lon="-2.33986">
        <ele>-28.60000038147</ele>
        <time>2021-05-27T10:08:00.000Z</time>
      </trkpt>
      <trkpt lat="47.25932" lon="-2.33936">
        <ele>-28.60000038147</ele>
        <time>2021-05-27T10:08:08.000Z</time>
      </trkpt>
      <trkpt lat="47.25944" lon="-2.33915">
        <ele>-28.60000038147</ele>
        <time>2021-05-27T10:08:12.000Z</time>
      </trkpt>
      <trkpt lat="47.25945" lon="-2.33909">
        <ele>-28.60000038147</ele>
        <time>2021-05-27T10:08:13.000Z</time>
      </trkpt>
      <trkpt lat="47.25952" lon="-2.33889">
        <ele>-28.60000038147</ele>
        <time>2021-05-27T10:08:18.000Z</time>
      </trkpt>
      <trkpt lat="47.25958" lon="-2.3387">
        <ele>-28.60000038147</ele>
        <time>2021-05-27T10:08:23.000Z</time>
      </trkpt>
      <trkpt lat="47.25957" lon="-2.33866">
        <ele>-28.60000038147</ele>
        <time>2021-05-27T10:08:25.000Z</time>
      </trkpt>
      <trkpt lat="47.25953" lon="-2.33864">
        <ele>-28.60000038147</ele>
        <time>2021-05-27T10:08:27.000Z</time>
      </trkpt>
      <trkpt lat="47.25954" lon="-2.33855">
        <ele>-28.60000038147</ele>
        <time>2021-05-27T10:08:30.000Z</time>
      </trkpt>
      <trkpt lat="47.25958" lon="-2.33847">
        <ele>-28.60000038147</ele>
        <time>2021-05-27T10:08:32.000Z</time>
      </trkpt>
      <trkpt lat="47.25965" lon="-2.33823">
        <ele>-28.60000038147</ele>
        <time>2021-05-27T10:08:36.000Z</time>
      </trkpt>
      <trkpt lat="47.25982" lon="-2.33776">
        <ele>-28.60000038147</ele>
        <time>2021-05-27T10:08:43.000Z</time>
      </trkpt>
      <trkpt lat="47.25999" lon="-2.33725">
        <ele>-28.60000038147</ele>
        <time>2021-05-27T10:08:50.000Z</time>
      </trkpt>
      <trkpt lat="47.2601" lon="-2.33694">
        <ele>-28.60000038147</ele>
        <time>2021-05-27T10:08:54.000Z</time>
      </trkpt>
      <trkpt lat="47.26018" lon="-2.33673">
        <ele>-28.60000038147</ele>
        <time>2021-05-27T10:08:57.000Z</time>
      </trkpt>
      <trkpt lat="47.26032" lon="-2.33669">
        <ele>-28.60000038147</ele>
        <time>2021-05-27T10:09:00.000Z</time>
      </trkpt>
      <trkpt lat="47.26045" lon="-2.33668">
        <ele>-28.60000038147</ele>
        <time>2021-05-27T10:09:03.000Z</time>
      </trkpt>
      <trkpt lat="47.26052" lon="-2.33667">
        <ele>-28.60000038147</ele>
        <time>2021-05-27T10:09:05.000Z</time>
      </trkpt>
      <trkpt lat="47.26055" lon="-2.33663">
        <ele>-28.60000038147</ele>
        <time>2021-05-27T10:09:06.000Z</time>
      </trkpt>
      <trkpt lat="47.26058" lon="-2.33652">
        <ele>-28.60000038147</ele>
        <time>2021-05-27T10:09:08.000Z</time>
      </trkpt>
      <trkpt lat="47.26063" lon="-2.33632">
        <ele>-28.60000038147</ele>
        <time>2021-05-27T10:09:11.000Z</time>
      </trkpt>
      <trkpt lat="47.26067" lon="-2.33617">
        <ele>-28.60000038147</ele>
        <time>2021-05-27T10:09:13.000Z</time>
      </trkpt>
      <trkpt lat="47.26083" lon="-2.33573">
        <ele>-28.60000038147</ele>
        <time>2021-05-27T10:09:19.000Z</time>
      </trkpt>
      <trkpt lat="47.26104" lon="-2.33514">
        <ele>-28.60000038147</ele>
        <time>2021-05-27T10:09:27.000Z</time>
      </trkpt>
      <trkpt lat="47.26125" lon="-2.33459">
        <ele>-28.60000038147</ele>
        <time>2021-05-27T10:09:35.000Z</time>
      </trkpt>
      <trkpt lat="47.26133" lon="-2.33441">
        <ele>-28.60000038147</ele>
        <time>2021-05-27T10:09:40.000Z</time>
      </trkpt>
      <trkpt lat="47.26134" lon="-2.33439">
        <ele>-28.60000038147</ele>
        <time>2021-05-27T10:09:41.000Z</time>
      </trkpt>
      <trkpt lat="47.26134" lon="-2.33428">
        <ele>-28.60000038147</ele>
        <time>2021-05-27T10:09:45.000Z</time>
      </trkpt>
      <trkpt lat="47.26125" lon="-2.33415">
        <ele>-28.60000038147</ele>
        <time>2021-05-27T10:09:49.000Z</time>
      </trkpt>
      <trkpt lat="47.26121" lon="-2.33411">
        <ele>-28.60000038147</ele>
        <time>2021-05-27T10:09:50.000Z</time>
      </trkpt>
      <trkpt lat="47.26109" lon="-2.33397">
        <ele>-28.60000038147</ele>
        <time>2021-05-27T10:09:53.000Z</time>
      </trkpt>
      <trkpt lat="47.26096" lon="-2.33381">
        <ele>-28.60000038147</ele>
        <time>2021-05-27T10:09:56.000Z</time>
      </trkpt>
      <trkpt lat="47.26086" lon="-2.33374">
        <ele>-28.60000038147</ele>
        <time>2021-05-27T10:09:58.000Z</time>
      </trkpt>
      <trkpt lat="47.26082" lon="-2.33369">
        <ele>-28.60000038147</ele>
        <time>2021-05-27T10:09:59.000Z</time>
      </trkpt>
      <trkpt lat="47.26075" lon="-2.33355">
        <ele>-28.60000038147</ele>
        <time>2021-05-27T10:10:01.000Z</time>
      </trkpt>
      <trkpt lat="47.26071" lon="-2.3334">
        <ele>-28.60000038147</ele>
        <time>2021-05-27T10:10:03.000Z</time>
      </trkpt>
      <trkpt lat="47.2606" lon="-2.33309">
        <ele>-28.60000038147</ele>
        <time>2021-05-27T10:10:07.000Z</time>
      </trkpt>
      <trkpt lat="47.2604" lon="-2.33255">
        <ele>-28.60000038147</ele>
        <time>2021-05-27T10:10:14.000Z</time>
      </trkpt>
      <trkpt lat="47.2602" lon="-2.33198">
        <ele>-28.60000038147</ele>
        <time>2021-05-27T10:10:21.000Z</time>
      </trkpt>
      <trkpt lat="47.25998" lon="-2.33135">
        <ele>-28.60000038147</ele>
        <time>2021-05-27T10:10:29.000Z</time>
      </trkpt>
      <trkpt lat="47.25985" lon="-2.33085">
        <ele>-28.60000038147</ele>
        <time>2021-05-27T10:10:35.000Z</time>
      </trkpt>
      <trkpt lat="47.25972" lon="-2.33057">
        <ele>-28.60000038147</ele>
        <time>2021-05-27T10:10:39.000Z</time>
      </trkpt>
      <trkpt lat="47.25953" lon="-2.33">
        <ele>-28.60000038147</ele>
        <time>2021-05-27T10:10:46.000Z</time>
      </trkpt>
      <trkpt lat="47.2593" lon="-2.32932">
        <ele>-28.60000038147</ele>
        <time>2021-05-27T10:10:54.000Z</time>
      </trkpt>
      <trkpt lat="47.25914" lon="-2.32894">
        <ele>-28.60000038147</ele>
        <time>2021-05-27T10:10:59.000Z</time>
      </trkpt>
      <trkpt lat="47.25894" lon="-2.32837">
        <ele>-28.60000038147</ele>
        <time>2021-05-27T10:11:06.000Z</time>
      </trkpt>
      <trkpt lat="47.25886" lon="-2.32812">
        <ele>-28.60000038147</ele>
        <time>2021-05-27T10:11:09.000Z</time>
      </trkpt>
      <trkpt lat="47.25874" lon="-2.32772">
        <ele>-28.60000038147</ele>
        <time>2021-05-27T10:11:14.000Z</time>
      </trkpt>
      <trkpt lat="47.25863" lon="-2.32732">
        <ele>-28.60000038147</ele>
        <time>2021-05-27T10:11:19.000Z</time>
      </trkpt>
      <trkpt lat="47.25864" lon="-2.32725">
        <ele>-28.60000038147</ele>
        <time>2021-05-27T10:11:20.000Z</time>
      </trkpt>
      <trkpt lat="47.2586" lon="-2.32705">
        <ele>-28.60000038147</ele>
        <time>2021-05-27T10:11:23.000Z</time>
      </trkpt>
      <trkpt lat="47.25848" lon="-2.32677">
        <ele>-28.60000038147</ele>
        <time>2021-05-27T10:11:27.000Z</time>
      </trkpt>
      <trkpt lat="47.25843" lon="-2.32659">
        <ele>-28.60000038147</ele>
        <time>2021-05-27T10:11:29.000Z</time>
      </trkpt>
      <trkpt lat="47.25834" lon="-2.32625">
        <ele>-28.60000038147</ele>
        <time>2021-05-27T10:11:33.000Z</time>
      </trkpt>
      <trkpt lat="47.25819" lon="-2.32566">
        <ele>-28.60000038147</ele>
        <time>2021-05-27T10:11:40.000Z</time>
      </trkpt>
      <trkpt lat="47.25805" lon="-2.32504">
        <ele>-28.60000038147</ele>
        <time>2021-05-27T10:11:48.000Z</time>
      </trkpt>
      <trkpt lat="47.258" lon="-2.3248">
        <ele>-28.60000038147</ele>
        <time>2021-05-27T10:11:53.000Z</time>
      </trkpt>
      <trkpt lat="47.25799" lon="-2.32473">
        <ele>-28.60000038147</ele>
        <time>2021-05-27T10:11:58.000Z</time>
      </trkpt>
      <trkpt lat="47.25804" lon="-2.32462">
        <ele>-28.60000038147</ele>
        <time>2021-05-27T10:12:02.000Z</time>
      </trkpt>
      <trkpt lat="47.25814" lon="-2.32455">
        <ele>-28.60000038147</ele>
        <time>2021-05-27T10:12:05.000Z</time>
      </trkpt>
      <trkpt lat="47.25818" lon="-2.32457">
        <ele>-28.60000038147</ele>
        <time>2021-05-27T10:12:06.000Z</time>
      </trkpt>
      <trkpt lat="47.25843" lon="-2.32469">
        <ele>-28.60000038147</ele>
        <time>2021-05-27T10:12:11.000Z</time>
      </trkpt>
      <trkpt lat="47.25854" lon="-2.32471">
        <ele>-28.60000038147</ele>
        <time>2021-05-27T10:12:13.000Z</time>
      </trkpt>
      <trkpt lat="47.2587" lon="-2.32469">
        <ele>-28.60000038147</ele>
        <time>2021-05-27T10:12:16.000Z</time>
      </trkpt>
      <trkpt lat="47.25892" lon="-2.32466">
        <ele>-28.60000038147</ele>
        <time>2021-05-27T10:12:20.000Z</time>
      </trkpt>
      <trkpt lat="47.25903" lon="-2.32458">
        <ele>-28.60000038147</ele>
        <time>2021-05-27T10:12:22.000Z</time>
      </trkpt>
      <trkpt lat="47.25912" lon="-2.32447">
        <ele>-28.60000038147</ele>
        <time>2021-05-27T10:12:24.000Z</time>
      </trkpt>
      <trkpt lat="47.2592" lon="-2.32436">
        <ele>-28.60000038147</ele>
        <time>2021-05-27T10:12:26.000Z</time>
      </trkpt>
      <trkpt lat="47.25955" lon="-2.32392">
        <ele>-28.60000038147</ele>
        <time>2021-05-27T10:12:34.000Z</time>
      </trkpt>
      <trkpt lat="47.25984" lon="-2.32353">
        <ele>-28.60000038147</ele>
        <time>2021-05-27T10:12:41.000Z</time>
      </trkpt>
      <trkpt lat="47.26012" lon="-2.32315">
        <ele>-28.60000038147</ele>
        <time>2021-05-27T10:12:48.000Z</time>
      </trkpt>
      <trkpt lat="47.26042" lon="-2.32279">
        <ele>-28.60000038147</ele>
        <time>2021-05-27T10:12:55.000Z</time>
      </trkpt>
      <trkpt lat="47.26077" lon="-2.3224">
        <ele>-28.60000038147</ele>
        <time>2021-05-27T10:13:03.000Z</time>
      </trkpt>
      <trkpt lat="47.26103" lon="-2.32198">
        <ele>-28.60000038147</ele>
        <time>2021-05-27T10:13:10.000Z</time>
      </trkpt>
      <trkpt lat="47.26124" lon="-2.32148">
        <ele>-28.60000038147</ele>
        <time>2021-05-27T10:13:17.000Z</time>
      </trkpt>
      <trkpt lat="47.26131" lon="-2.32127">
        <ele>-28.60000038147</ele>
        <time>2021-05-27T10:13:20.000Z</time>
      </trkpt>
      <trkpt lat="47.26138" lon="-2.32104">
        <ele>-28.60000038147</ele>
        <time>2021-05-27T10:13:23.000Z</time>
      </trkpt>
      <trkpt lat="47.26153" lon="-2.32056">
        <ele>-28.60000038147</ele>
        <time>2021-05-27T10:13:30.000Z</time>
      </trkpt>
      <trkpt lat="47.26166" lon="-2.32023">
        <ele>-28.60000038147</ele>
        <time>2021-05-27T10:13:36.000Z</time>
      </trkpt>
      <trkpt lat="47.26173" lon="-2.3202">
        <ele>-28.60000038147</ele>
        <time>2021-05-27T10:13:38.000Z</time>
      </trkpt>
      <trkpt lat="47.26177" lon="-2.3202">
        <ele>-28.60000038147</ele>
        <time>2021-05-27T10:13:39.000Z</time>
      </trkpt>
      <trkpt lat="47.26192" lon="-2.32024">
        <ele>-28.60000038147</ele>
        <time>2021-05-27T10:13:44.000Z</time>
      </trkpt>
      <trkpt lat="47.26195" lon="-2.32022">
        <ele>-28.60000038147</ele>
        <time>2021-05-27T10:13:47.000Z</time>
      </trkpt>
      <trkpt lat="47.26196" lon="-2.3202">
        <ele>-28.60000038147</ele>
        <time>2021-05-27T10:13:48.000Z</time>
      </trkpt>
      <trkpt lat="47.26201" lon="-2.32007">
        <ele>-28.60000038147</ele>
        <time>2021-05-27T10:13:53.000Z</time>
      </trkpt>
      <trkpt lat="47.26214" lon="-2.31995">
        <ele>-28.60000038147</ele>
        <time>2021-05-27T10:13:58.000Z</time>
      </trkpt>
      <trkpt lat="47.26229" lon="-2.31979">
        <ele>-28.60000038147</ele>
        <time>2021-05-27T10:14:04.000Z</time>
      </trkpt>
      <trkpt lat="47.26234" lon="-2.31975">
        <ele>-28.60000038147</ele>
        <time>2021-05-27T10:14:06.000Z</time>
      </trkpt>
      <trkpt lat="47.26239" lon="-2.31968">
        <ele>-28.60000038147</ele>
        <time>2021-05-27T10:14:08.000Z</time>
      </trkpt>
      <trkpt lat="47.26252" lon="-2.31945">
        <ele>-28.60000038147</ele>
        <time>2021-05-27T10:14:13.000Z</time>
      </trkpt>
      <trkpt lat="47.2626" lon="-2.3193">
        <ele>-28.60000038147</ele>
        <time>2021-05-27T10:14:17.000Z</time>
      </trkpt>
      <trkpt lat="47.2628" lon="-2.31904">
        <ele>-28.60000038147</ele>
        <time>2021-05-27T10:14:24.000Z</time>
      </trkpt>
      <trkpt lat="47.26294" lon="-2.31888">
        <ele>-28.60000038147</ele>
        <time>2021-05-27T10:14:29.000Z</time>
      </trkpt>
      <trkpt lat="47.26295" lon="-2.31882">
        <ele>-28.60000038147</ele>
        <time>2021-05-27T10:14:30.000Z</time>
      </trkpt>
      <trkpt lat="47.26299" lon="-2.31858">
        <ele>-28.60000038147</ele>
        <time>2021-05-27T10:14:34.000Z</time>
      </trkpt>
      <trkpt lat="47.26303" lon="-2.31823">
        <ele>-28.60000038147</ele>
        <time>2021-05-27T10:14:40.000Z</time>
      </trkpt>
      <trkpt lat="47.26304" lon="-2.3179">
        <ele>-28.60000038147</ele>
        <time>2021-05-27T10:14:46.000Z</time>
      </trkpt>
      <trkpt lat="47.263" lon="-2.31742">
        <ele>-28.60000038147</ele>
        <time>2021-05-27T10:14:54.000Z</time>
      </trkpt>
      <trkpt lat="47.26304" lon="-2.31718">
        <ele>-28.60000038147</ele>
        <time>2021-05-27T10:14:58.000Z</time>
      </trkpt>
      <trkpt lat="47.26308" lon="-2.31715">
        <ele>-28.60000038147</ele>
        <time>2021-05-27T10:14:59.000Z</time>
      </trkpt>
      <trkpt lat="47.26323" lon="-2.31708">
        <ele>-28.200000762939</ele>
        <time>2021-05-27T10:15:03.000Z</time>
      </trkpt>
      <trkpt lat="47.26326" lon="-2.31706">
        <ele>-27.39999961853</ele>
        <time>2021-05-27T10:15:04.000Z</time>
      </trkpt>
      <trkpt lat="47.26329" lon="-2.31704">
        <ele>-27</ele>
        <time>2021-05-27T10:15:05.000Z</time>
      </trkpt>
      <trkpt lat="47.26332" lon="-2.317">
        <ele>-26.60000038147</ele>
        <time>2021-05-27T10:15:06.000Z</time>
      </trkpt>
      <trkpt lat="47.26333" lon="-2.31695">
        <ele>-26.60000038147</ele>
        <time>2021-05-27T10:15:07.000Z</time>
      </trkpt>
      <trkpt lat="47.26334" lon="-2.31691">
        <ele>-26.60000038147</ele>
        <time>2021-05-27T10:15:08.000Z</time>
      </trkpt>
      <trkpt lat="47.26337" lon="-2.31687">
        <ele>-26.60000038147</ele>
        <time>2021-05-27T10:15:09.000Z</time>
      </trkpt>
      <trkpt lat="47.26347" lon="-2.31679">
        <ele>-26.60000038147</ele>
        <time>2021-05-27T10:15:12.000Z</time>
      </trkpt>
      <trkpt lat="47.2635" lon="-2.31678">
        <ele>-26.60000038147</ele>
        <time>2021-05-27T10:15:13.000Z</time>
      </trkpt>
      <trkpt lat="47.26362" lon="-2.31674">
        <ele>-26</ele>
        <time>2021-05-27T10:15:16.000Z</time>
      </trkpt>
      <trkpt lat="47.26366" lon="-2.31673">
        <ele>-25.60000038147</ele>
        <time>2021-05-27T10:15:17.000Z</time>
      </trkpt>
      <trkpt lat="47.26369" lon="-2.31672">
        <ele>-25.200000762939</ele>
        <time>2021-05-27T10:15:18.000Z</time>
      </trkpt>
      <trkpt lat="47.26373" lon="-2.3167">
        <ele>-24.799999237061</ele>
        <time>2021-05-27T10:15:19.000Z</time>
      </trkpt>
      <trkpt lat="47.26377" lon="-2.31669">
        <ele>-24.39999961853</ele>
        <time>2021-05-27T10:15:20.000Z</time>
      </trkpt>
      <trkpt lat="47.2639" lon="-2.31661">
        <ele>-24.39999961853</ele>
        <time>2021-05-27T10:15:24.000Z</time>
      </trkpt>
      <trkpt lat="47.26409" lon="-2.31652">
        <ele>-24.39999961853</ele>
        <time>2021-05-27T10:15:31.000Z</time>
      </trkpt>
      <trkpt lat="47.26413" lon="-2.31647">
        <ele>-24.39999961853</ele>
        <time>2021-05-27T10:15:33.000Z</time>
      </trkpt>
      <trkpt lat="47.26413" lon="-2.31641">
        <ele>-24.39999961853</ele>
        <time>2021-05-27T10:15:35.000Z</time>
      </trkpt>
      <trkpt lat="47.26412" lon="-2.31616">
        <ele>-24.39999961853</ele>
        <time>2021-05-27T10:15:41.000Z</time>
      </trkpt>
      <trkpt lat="47.26411" lon="-2.31579">
        <ele>-24.39999961853</ele>
        <time>2021-05-27T10:15:49.000Z</time>
      </trkpt>
      <trkpt lat="47.2641" lon="-2.31556">
        <ele>-24.39999961853</ele>
        <time>2021-05-27T10:15:55.000Z</time>
      </trkpt>
      <trkpt lat="47.26411" lon="-2.31553">
        <ele>-24</ele>
        <time>2021-05-27T10:15:56.000Z</time>
      </trkpt>
      <trkpt lat="47.26413" lon="-2.31553">
        <ele>-23.60000038147</ele>
        <time>2021-05-27T10:15:57.000Z</time>
      </trkpt>
      <trkpt lat="47.26415" lon="-2.31554">
        <ele>-23</ele>
        <time>2021-05-27T10:15:58.000Z</time>
      </trkpt>
      <trkpt lat="47.26417" lon="-2.31554">
        <ele>-22.60000038147</ele>
        <time>2021-05-27T10:15:59.000Z</time>
      </trkpt>
      <trkpt lat="47.26417" lon="-2.31554">
        <ele>-22.200000762939</ele>
        <time>2021-05-27T10:16:00.000Z</time>
      </trkpt>
      <trkpt lat="47.26418" lon="-2.31554">
        <ele>-22.200000762939</ele>
        <time>2021-05-27T10:16:02.000Z</time>
      </trkpt>
      <trkpt lat="47.26419" lon="-2.31553">
        <ele>-22.200000762939</ele>
        <time>2021-05-27T10:16:04.000Z</time>
      </trkpt>
    </trkseg>
  </trk>
</gpx>